<?xml version="1.0" encoding="UTF-8" standalone="no" ?>
<gpx xmlns="http://www.topografix.com/GPX/1/1" xmlns:xsi="http://www.w3.org/2001/XMLSchema-instance" xsi:schemaLocation="http://www.topografix.com/GPX/1/1 http://www.topografix.com/GPX/1/1/gpx.xsd" version="1.1" creator="VisuGPX - https://www.visugpx.com">
  <metadata>
    <name>Course de la résistance - Circuit super</name>
    <desc><![CDATA[Course de la Résistance - 8 mai 2018
Circuit Super
Mens Prélenfrey Gresse Tréminis
9 cols]]></desc>
  </metadata>
  <wpt lat="44.81672" lon="5.75058">
    <ele>778</ele>
    <name><![CDATA[Course de l Résistance - Circuit long bis]]></name>
    <type><![CDATA[Generic]]></type>
  </wpt>
  <trk>
    <name><![CDATA[Course de l Résistance - Circuit long bis]]></name>
    <trkseg>
      <trkpt lat="44.81672" lon="5.75058">
        <ele>778</ele>
        <time>2017-11-22T15:21:33Z</time>
      </trkpt>
      <trkpt lat="44.81691" lon="5.75051">
        <ele>778</ele>
        <time>2017-11-22T15:21:47Z</time>
      </trkpt>
      <trkpt lat="44.81701" lon="5.75073">
        <ele>778</ele>
        <time>2017-11-22T15:21:49Z</time>
      </trkpt>
      <trkpt lat="44.81723" lon="5.7519">
        <ele>781</ele>
        <time>2017-11-22T15:22:02Z</time>
      </trkpt>
      <trkpt lat="44.8175" lon="5.7527">
        <ele>784</ele>
        <time>2017-11-22T15:22:09Z</time>
      </trkpt>
      <trkpt lat="44.81776" lon="5.75344">
        <ele>785</ele>
        <time>2017-11-22T15:22:15Z</time>
      </trkpt>
      <trkpt lat="44.81803" lon="5.754">
        <ele>786</ele>
        <time>2017-11-22T15:22:25Z</time>
      </trkpt>
      <trkpt lat="44.81808" lon="5.7544">
        <ele>788</ele>
        <time>2017-11-22T15:22:42Z</time>
      </trkpt>
      <trkpt lat="44.81809" lon="5.75467">
        <ele>788</ele>
        <time>2017-11-22T15:22:59Z</time>
      </trkpt>
      <trkpt lat="44.81807" lon="5.75496">
        <ele>788</ele>
        <time>2017-11-22T15:23:02Z</time>
      </trkpt>
      <trkpt lat="44.81794" lon="5.75577">
        <ele>791</ele>
        <time>2017-11-22T15:23:08Z</time>
      </trkpt>
      <trkpt lat="44.81786" lon="5.7564">
        <ele>793</ele>
        <time>2017-11-22T15:23:27Z</time>
      </trkpt>
      <trkpt lat="44.81784" lon="5.75658">
        <ele>793</ele>
        <time>2017-11-22T15:23:47Z</time>
      </trkpt>
      <trkpt lat="44.81789" lon="5.75664">
        <ele>793</ele>
        <time>2017-11-22T15:24:01Z</time>
      </trkpt>
      <trkpt lat="44.81806" lon="5.75679">
        <ele>794</ele>
        <time>2017-11-22T15:24:03Z</time>
      </trkpt>
      <trkpt lat="44.81835" lon="5.75697">
        <ele>793</ele>
        <time>2017-11-22T15:24:05Z</time>
      </trkpt>
      <trkpt lat="44.81861" lon="5.75709">
        <ele>793</ele>
        <time>2017-11-22T15:24:07Z</time>
      </trkpt>
      <trkpt lat="44.81882" lon="5.75721">
        <ele>793</ele>
        <time>2017-11-22T15:24:27Z</time>
      </trkpt>
      <trkpt lat="44.819" lon="5.75737">
        <ele>793</ele>
        <time>2017-11-22T15:24:34Z</time>
      </trkpt>
      <trkpt lat="44.81923" lon="5.75764">
        <ele>793</ele>
        <time>2017-11-22T15:24:49Z</time>
      </trkpt>
      <trkpt lat="44.81948" lon="5.75792">
        <ele>792</ele>
        <time>2017-11-22T15:25:04Z</time>
      </trkpt>
      <trkpt lat="44.8199" lon="5.75838">
        <ele>792</ele>
        <time>2017-11-22T15:25:24Z</time>
      </trkpt>
      <trkpt lat="44.82039" lon="5.75893">
        <ele>792</ele>
        <time>2017-11-22T15:25:29Z</time>
      </trkpt>
      <trkpt lat="44.82374" lon="5.76262">
        <ele>809</ele>
        <time>2017-11-22T15:25:42Z</time>
      </trkpt>
      <trkpt lat="44.82472" lon="5.76369">
        <ele>817</ele>
        <time>2017-11-22T15:26:01Z</time>
      </trkpt>
      <trkpt lat="44.82501" lon="5.76404">
        <ele>820</ele>
        <time>2017-11-22T15:26:11Z</time>
      </trkpt>
      <trkpt lat="44.82554" lon="5.76462">
        <ele>823</ele>
        <time>2017-11-22T15:26:29Z</time>
      </trkpt>
      <trkpt lat="44.82678" lon="5.76597">
        <ele>826</ele>
        <time>2017-11-22T15:26:40Z</time>
      </trkpt>
      <trkpt lat="44.82911" lon="5.76854">
        <ele>838</ele>
        <time>2017-11-22T15:27:00Z</time>
      </trkpt>
      <trkpt lat="44.8296" lon="5.76904">
        <ele>835</ele>
        <time>2017-11-22T15:27:09Z</time>
      </trkpt>
      <trkpt lat="44.83015" lon="5.76963">
        <ele>836</ele>
        <time>2017-11-22T15:27:18Z</time>
      </trkpt>
      <trkpt lat="44.83043" lon="5.76994">
        <ele>836</ele>
        <time>2017-11-22T15:27:32Z</time>
      </trkpt>
      <trkpt lat="44.83074" lon="5.77025">
        <ele>839</ele>
        <time>2017-11-22T15:27:43Z</time>
      </trkpt>
      <trkpt lat="44.83104" lon="5.77053">
        <ele>841</ele>
        <time>2017-11-22T15:27:46Z</time>
      </trkpt>
      <trkpt lat="44.83129" lon="5.77073">
        <ele>842</ele>
        <time>2017-11-22T15:28:01Z</time>
      </trkpt>
      <trkpt lat="44.83145" lon="5.77083">
        <ele>843</ele>
        <time>2017-11-22T15:28:12Z</time>
      </trkpt>
      <trkpt lat="44.83163" lon="5.77089">
        <ele>845</ele>
        <time>2017-11-22T15:28:17Z</time>
      </trkpt>
      <trkpt lat="44.83181" lon="5.77092">
        <ele>846</ele>
        <time>2017-11-22T15:28:25Z</time>
      </trkpt>
      <trkpt lat="44.832" lon="5.77092">
        <ele>847</ele>
        <time>2017-11-22T15:28:37Z</time>
      </trkpt>
      <trkpt lat="44.83237" lon="5.77092">
        <ele>847</ele>
        <time>2017-11-22T15:28:43Z</time>
      </trkpt>
      <trkpt lat="44.83263" lon="5.77094">
        <ele>851</ele>
        <time>2017-11-22T15:28:47Z</time>
      </trkpt>
      <trkpt lat="44.83275" lon="5.77097">
        <ele>852</ele>
        <time>2017-11-22T15:28:56Z</time>
      </trkpt>
      <trkpt lat="44.83287" lon="5.77101">
        <ele>854</ele>
        <time>2017-11-22T15:29:01Z</time>
      </trkpt>
      <trkpt lat="44.83297" lon="5.77109">
        <ele>855</ele>
        <time>2017-11-22T15:29:08Z</time>
      </trkpt>
      <trkpt lat="44.83306" lon="5.77121">
        <ele>855</ele>
        <time>2017-11-22T15:29:13Z</time>
      </trkpt>
      <trkpt lat="44.83324" lon="5.77148">
        <ele>856</ele>
        <time>2017-11-22T15:29:27Z</time>
      </trkpt>
      <trkpt lat="44.83358" lon="5.77209">
        <ele>867</ele>
        <time>2017-11-22T15:29:38Z</time>
      </trkpt>
      <trkpt lat="44.83395" lon="5.7727">
        <ele>868</ele>
        <time>2017-11-22T15:29:46Z</time>
      </trkpt>
      <trkpt lat="44.83478" lon="5.77397">
        <ele>880</ele>
        <time>2017-11-22T15:29:49Z</time>
      </trkpt>
      <trkpt lat="44.83531" lon="5.77488">
        <ele>889</ele>
        <time>2017-11-22T15:29:55Z</time>
      </trkpt>
      <trkpt lat="44.83541" lon="5.77513">
        <ele>888</ele>
        <time>2017-11-22T15:30:00Z</time>
      </trkpt>
      <trkpt lat="44.83544" lon="5.77532">
        <ele>889</ele>
        <time>2017-11-22T15:30:17Z</time>
      </trkpt>
      <trkpt lat="44.83543" lon="5.77576">
        <ele>888</ele>
        <time>2017-11-22T15:30:19Z</time>
      </trkpt>
      <trkpt lat="44.83548" lon="5.77591">
        <ele>888</ele>
        <time>2017-11-22T15:30:22Z</time>
      </trkpt>
      <trkpt lat="44.83562" lon="5.77618">
        <ele>890</ele>
        <time>2017-11-22T15:30:36Z</time>
      </trkpt>
      <trkpt lat="44.8357" lon="5.77641">
        <ele>891</ele>
        <time>2017-11-22T15:30:51Z</time>
      </trkpt>
      <trkpt lat="44.83573" lon="5.77659">
        <ele>893</ele>
        <time>2017-11-22T15:31:10Z</time>
      </trkpt>
      <trkpt lat="44.83584" lon="5.77686">
        <ele>900</ele>
        <time>2017-11-22T15:31:20Z</time>
      </trkpt>
      <trkpt lat="44.83597" lon="5.77706">
        <ele>901</ele>
        <time>2017-11-22T15:31:27Z</time>
      </trkpt>
      <trkpt lat="44.83624" lon="5.77736">
        <ele>903</ele>
        <time>2017-11-22T15:31:30Z</time>
      </trkpt>
      <trkpt lat="44.83652" lon="5.77763">
        <ele>903</ele>
        <time>2017-11-22T15:31:44Z</time>
      </trkpt>
      <trkpt lat="44.83661" lon="5.77779">
        <ele>902</ele>
        <time>2017-11-22T15:31:56Z</time>
      </trkpt>
      <trkpt lat="44.83664" lon="5.77791">
        <ele>901</ele>
        <time>2017-11-22T15:32:14Z</time>
      </trkpt>
      <trkpt lat="44.8367" lon="5.77825">
        <ele>909</ele>
        <time>2017-11-22T15:32:27Z</time>
      </trkpt>
      <trkpt lat="44.83677" lon="5.77846">
        <ele>909</ele>
        <time>2017-11-22T15:32:38Z</time>
      </trkpt>
      <trkpt lat="44.83707" lon="5.77912">
        <ele>912</ele>
        <time>2017-11-22T15:32:48Z</time>
      </trkpt>
      <trkpt lat="44.83729" lon="5.77957">
        <ele>911</ele>
        <time>2017-11-22T15:33:03Z</time>
      </trkpt>
      <trkpt lat="44.83746" lon="5.7798">
        <ele>911</ele>
        <time>2017-11-22T15:33:08Z</time>
      </trkpt>
      <trkpt lat="44.83755" lon="5.77987">
        <ele>918</ele>
        <time>2017-11-22T15:33:22Z</time>
      </trkpt>
      <trkpt lat="44.83767" lon="5.77991">
        <ele>920</ele>
        <time>2017-11-22T15:33:30Z</time>
      </trkpt>
      <trkpt lat="44.83779" lon="5.77991">
        <ele>921</ele>
        <time>2017-11-22T15:33:47Z</time>
      </trkpt>
      <trkpt lat="44.83791" lon="5.77986">
        <ele>923</ele>
        <time>2017-11-22T15:33:57Z</time>
      </trkpt>
      <trkpt lat="44.8381" lon="5.77979">
        <ele>924</ele>
        <time>2017-11-22T15:34:04Z</time>
      </trkpt>
      <trkpt lat="44.8383" lon="5.77976">
        <ele>925</ele>
        <time>2017-11-22T15:34:13Z</time>
      </trkpt>
      <trkpt lat="44.83854" lon="5.77977">
        <ele>933</ele>
        <time>2017-11-22T15:34:19Z</time>
      </trkpt>
      <trkpt lat="44.83881" lon="5.77984">
        <ele>934</ele>
        <time>2017-11-22T15:34:23Z</time>
      </trkpt>
      <trkpt lat="44.83901" lon="5.77992">
        <ele>933</ele>
        <time>2017-11-22T15:34:43Z</time>
      </trkpt>
      <trkpt lat="44.83917" lon="5.78003">
        <ele>931</ele>
        <time>2017-11-22T15:34:46Z</time>
      </trkpt>
      <trkpt lat="44.83945" lon="5.78033">
        <ele>936</ele>
        <time>2017-11-22T15:35:04Z</time>
      </trkpt>
      <trkpt lat="44.83992" lon="5.78079">
        <ele>938</ele>
        <time>2017-11-22T15:35:10Z</time>
      </trkpt>
      <trkpt lat="44.8404" lon="5.78119">
        <ele>944</ele>
        <time>2017-11-22T15:35:30Z</time>
      </trkpt>
      <trkpt lat="44.84091" lon="5.78161">
        <ele>953</ele>
        <time>2017-11-22T15:35:41Z</time>
      </trkpt>
      <trkpt lat="44.84166" lon="5.78213">
        <ele>954</ele>
        <time>2017-11-22T15:35:43Z</time>
      </trkpt>
      <trkpt lat="44.84191" lon="5.78232">
        <ele>965</ele>
        <time>2017-11-22T15:36:01Z</time>
      </trkpt>
      <trkpt lat="44.84206" lon="5.7825">
        <ele>967</ele>
        <time>2017-11-22T15:36:19Z</time>
      </trkpt>
      <trkpt lat="44.84215" lon="5.78265">
        <ele>964</ele>
        <time>2017-11-22T15:36:36Z</time>
      </trkpt>
      <trkpt lat="44.84225" lon="5.7829">
        <ele>964</ele>
        <time>2017-11-22T15:36:39Z</time>
      </trkpt>
      <trkpt lat="44.84232" lon="5.78316">
        <ele>965</ele>
        <time>2017-11-22T15:36:47Z</time>
      </trkpt>
      <trkpt lat="44.84236" lon="5.78344">
        <ele>967</ele>
        <time>2017-11-22T15:37:05Z</time>
      </trkpt>
      <trkpt lat="44.84235" lon="5.78368">
        <ele>967</ele>
        <time>2017-11-22T15:37:17Z</time>
      </trkpt>
      <trkpt lat="44.84233" lon="5.78387">
        <ele>968</ele>
        <time>2017-11-22T15:37:31Z</time>
      </trkpt>
      <trkpt lat="44.84227" lon="5.78404">
        <ele>969</ele>
        <time>2017-11-22T15:37:37Z</time>
      </trkpt>
      <trkpt lat="44.84211" lon="5.78431">
        <ele>976</ele>
        <time>2017-11-22T15:37:46Z</time>
      </trkpt>
      <trkpt lat="44.84192" lon="5.78453">
        <ele>976</ele>
        <time>2017-11-22T15:37:54Z</time>
      </trkpt>
      <trkpt lat="44.8418" lon="5.78466">
        <ele>977</ele>
        <time>2017-11-22T15:38:05Z</time>
      </trkpt>
      <trkpt lat="44.84167" lon="5.78473">
        <ele>977</ele>
        <time>2017-11-22T15:38:22Z</time>
      </trkpt>
      <trkpt lat="44.84147" lon="5.7848">
        <ele>968</ele>
        <time>2017-11-22T15:38:40Z</time>
      </trkpt>
      <trkpt lat="44.84134" lon="5.78487">
        <ele>966</ele>
        <time>2017-11-22T15:38:55Z</time>
      </trkpt>
      <trkpt lat="44.8412" lon="5.78501">
        <ele>973</ele>
        <time>2017-11-22T15:39:00Z</time>
      </trkpt>
      <trkpt lat="44.84115" lon="5.78509">
        <ele>973</ele>
        <time>2017-11-22T15:39:12Z</time>
      </trkpt>
      <trkpt lat="44.84109" lon="5.78522">
        <ele>973</ele>
        <time>2017-11-22T15:39:26Z</time>
      </trkpt>
      <trkpt lat="44.84108" lon="5.78534">
        <ele>974</ele>
        <time>2017-11-22T15:39:39Z</time>
      </trkpt>
      <trkpt lat="44.84111" lon="5.78552">
        <ele>975</ele>
        <time>2017-11-22T15:39:47Z</time>
      </trkpt>
      <trkpt lat="44.84119" lon="5.78572">
        <ele>977</ele>
        <time>2017-11-22T15:39:56Z</time>
      </trkpt>
      <trkpt lat="44.84132" lon="5.78593">
        <ele>983</ele>
        <time>2017-11-22T15:39:58Z</time>
      </trkpt>
      <trkpt lat="44.84148" lon="5.78615">
        <ele>985</ele>
        <time>2017-11-22T15:40:09Z</time>
      </trkpt>
      <trkpt lat="44.84154" lon="5.78631">
        <ele>985</ele>
        <time>2017-11-22T15:40:17Z</time>
      </trkpt>
      <trkpt lat="44.84154" lon="5.7867">
        <ele>989</ele>
        <time>2017-11-22T15:40:33Z</time>
      </trkpt>
      <trkpt lat="44.84157" lon="5.78685">
        <ele>990</ele>
        <time>2017-11-22T15:40:38Z</time>
      </trkpt>
      <trkpt lat="44.84167" lon="5.78702">
        <ele>992</ele>
        <time>2017-11-22T15:40:48Z</time>
      </trkpt>
      <trkpt lat="44.84197" lon="5.78732">
        <ele>992</ele>
        <time>2017-11-22T15:40:57Z</time>
      </trkpt>
      <trkpt lat="44.84209" lon="5.78745">
        <ele>991</ele>
        <time>2017-11-22T15:41:02Z</time>
      </trkpt>
      <trkpt lat="44.84213" lon="5.78755">
        <ele>991</ele>
        <time>2017-11-22T15:41:15Z</time>
      </trkpt>
      <trkpt lat="44.84218" lon="5.78768">
        <ele>990</ele>
        <time>2017-11-22T15:41:25Z</time>
      </trkpt>
      <trkpt lat="44.8422" lon="5.78827">
        <ele>990</ele>
        <time>2017-11-22T15:41:44Z</time>
      </trkpt>
      <trkpt lat="44.84224" lon="5.78873">
        <ele>991</ele>
        <time>2017-11-22T15:41:51Z</time>
      </trkpt>
      <trkpt lat="44.84224" lon="5.78936">
        <ele>986</ele>
        <time>2017-11-22T15:42:10Z</time>
      </trkpt>
      <trkpt lat="44.84218" lon="5.78976">
        <ele>986</ele>
        <time>2017-11-22T15:42:22Z</time>
      </trkpt>
      <trkpt lat="44.84202" lon="5.79043">
        <ele>977</ele>
        <time>2017-11-22T15:42:37Z</time>
      </trkpt>
      <trkpt lat="44.84198" lon="5.79055">
        <ele>976</ele>
        <time>2017-11-22T15:42:48Z</time>
      </trkpt>
      <trkpt lat="44.84189" lon="5.79072">
        <ele>977</ele>
        <time>2017-11-22T15:43:08Z</time>
      </trkpt>
      <trkpt lat="44.84168" lon="5.79103">
        <ele>967</ele>
        <time>2017-11-22T15:43:20Z</time>
      </trkpt>
      <trkpt lat="44.84157" lon="5.79129">
        <ele>981</ele>
        <time>2017-11-22T15:43:27Z</time>
      </trkpt>
      <trkpt lat="44.84137" lon="5.79181">
        <ele>965</ele>
        <time>2017-11-22T15:43:29Z</time>
      </trkpt>
      <trkpt lat="44.84106" lon="5.79232">
        <ele>966</ele>
        <time>2017-11-22T15:43:42Z</time>
      </trkpt>
      <trkpt lat="44.8406" lon="5.79296">
        <ele>969</ele>
        <time>2017-11-22T15:43:53Z</time>
      </trkpt>
      <trkpt lat="44.83968" lon="5.79427">
        <ele>955</ele>
        <time>2017-11-22T15:43:59Z</time>
      </trkpt>
      <trkpt lat="44.83934" lon="5.79481">
        <ele>955</ele>
        <time>2017-11-22T15:44:15Z</time>
      </trkpt>
      <trkpt lat="44.83904" lon="5.79545">
        <ele>957</ele>
        <time>2017-11-22T15:44:20Z</time>
      </trkpt>
      <trkpt lat="44.83893" lon="5.79576">
        <ele>953</ele>
        <time>2017-11-22T15:44:39Z</time>
      </trkpt>
      <trkpt lat="44.83886" lon="5.79599">
        <ele>946</ele>
        <time>2017-11-22T15:44:47Z</time>
      </trkpt>
      <trkpt lat="44.83875" lon="5.79664">
        <ele>944</ele>
        <time>2017-11-22T15:45:02Z</time>
      </trkpt>
      <trkpt lat="44.83864" lon="5.79748">
        <ele>937</ele>
        <time>2017-11-22T15:45:19Z</time>
      </trkpt>
      <trkpt lat="44.83862" lon="5.79782">
        <ele>934</ele>
        <time>2017-11-22T15:45:28Z</time>
      </trkpt>
      <trkpt lat="44.83864" lon="5.79795">
        <ele>933</ele>
        <time>2017-11-22T15:45:39Z</time>
      </trkpt>
      <trkpt lat="44.83868" lon="5.79811">
        <ele>933</ele>
        <time>2017-11-22T15:45:59Z</time>
      </trkpt>
      <trkpt lat="44.83877" lon="5.79829">
        <ele>932</ele>
        <time>2017-11-22T15:46:07Z</time>
      </trkpt>
      <trkpt lat="44.83902" lon="5.79864">
        <ele>932</ele>
        <time>2017-11-22T15:46:16Z</time>
      </trkpt>
      <trkpt lat="44.8392" lon="5.79898">
        <ele>922</ele>
        <time>2017-11-22T15:46:20Z</time>
      </trkpt>
      <trkpt lat="44.83925" lon="5.79917">
        <ele>926</ele>
        <time>2017-11-22T15:46:24Z</time>
      </trkpt>
      <trkpt lat="44.83929" lon="5.79949">
        <ele>924</ele>
        <time>2017-11-22T15:46:40Z</time>
      </trkpt>
      <trkpt lat="44.83933" lon="5.79965">
        <ele>924</ele>
        <time>2017-11-22T15:46:55Z</time>
      </trkpt>
      <trkpt lat="44.83944" lon="5.79983">
        <ele>924</ele>
        <time>2017-11-22T15:47:04Z</time>
      </trkpt>
      <trkpt lat="44.83972" lon="5.80013">
        <ele>925</ele>
        <time>2017-11-22T15:47:10Z</time>
      </trkpt>
      <trkpt lat="44.84119" lon="5.8015">
        <ele>912</ele>
        <time>2017-11-22T15:47:13Z</time>
      </trkpt>
      <trkpt lat="44.84196" lon="5.80232">
        <ele>909</ele>
        <time>2017-11-22T15:47:20Z</time>
      </trkpt>
      <trkpt lat="44.84204" lon="5.80233">
        <ele>908</ele>
        <time>2017-11-22T15:47:39Z</time>
      </trkpt>
      <trkpt lat="44.84212" lon="5.80237">
        <ele>908</ele>
        <time>2017-11-22T15:47:42Z</time>
      </trkpt>
      <trkpt lat="44.84241" lon="5.8025">
        <ele>907</ele>
        <time>2017-11-22T15:47:54Z</time>
      </trkpt>
      <trkpt lat="44.84273" lon="5.8027">
        <ele>902</ele>
        <time>2017-11-22T15:48:10Z</time>
      </trkpt>
      <trkpt lat="44.8429" lon="5.80283">
        <ele>902</ele>
        <time>2017-11-22T15:48:23Z</time>
      </trkpt>
      <trkpt lat="44.84308" lon="5.80302">
        <ele>901</ele>
        <time>2017-11-22T15:48:27Z</time>
      </trkpt>
      <trkpt lat="44.84327" lon="5.80315">
        <ele>901</ele>
        <time>2017-11-22T15:48:44Z</time>
      </trkpt>
      <trkpt lat="44.84367" lon="5.80328">
        <ele>893</ele>
        <time>2017-11-22T15:48:51Z</time>
      </trkpt>
      <trkpt lat="44.84399" lon="5.80341">
        <ele>894</ele>
        <time>2017-11-22T15:49:10Z</time>
      </trkpt>
      <trkpt lat="44.84413" lon="5.80341">
        <ele>892</ele>
        <time>2017-11-22T15:49:20Z</time>
      </trkpt>
      <trkpt lat="44.84429" lon="5.80344">
        <ele>890</ele>
        <time>2017-11-22T15:49:28Z</time>
      </trkpt>
      <trkpt lat="44.84447" lon="5.80346">
        <ele>889</ele>
        <time>2017-11-22T15:49:31Z</time>
      </trkpt>
      <trkpt lat="44.84463" lon="5.80352">
        <ele>888</ele>
        <time>2017-11-22T15:49:36Z</time>
      </trkpt>
      <trkpt lat="44.84473" lon="5.80356">
        <ele>888</ele>
        <time>2017-11-22T15:49:39Z</time>
      </trkpt>
      <trkpt lat="44.84484" lon="5.80356">
        <ele>887</ele>
        <time>2017-11-22T15:49:44Z</time>
      </trkpt>
      <trkpt lat="44.84529" lon="5.80355">
        <ele>882</ele>
        <time>2017-11-22T15:49:52Z</time>
      </trkpt>
      <trkpt lat="44.84573" lon="5.80354">
        <ele>880</ele>
        <time>2017-11-22T15:50:09Z</time>
      </trkpt>
      <trkpt lat="44.84601" lon="5.80358">
        <ele>877</ele>
        <time>2017-11-22T15:50:20Z</time>
      </trkpt>
      <trkpt lat="44.84617" lon="5.8035">
        <ele>876</ele>
        <time>2017-11-22T15:50:33Z</time>
      </trkpt>
      <trkpt lat="44.84612" lon="5.80272">
        <ele>873</ele>
        <time>2017-11-22T15:50:41Z</time>
      </trkpt>
      <trkpt lat="44.84615" lon="5.80227">
        <ele>872</ele>
        <time>2017-11-22T15:50:57Z</time>
      </trkpt>
      <trkpt lat="44.84625" lon="5.80182">
        <ele>872</ele>
        <time>2017-11-22T15:51:06Z</time>
      </trkpt>
      <trkpt lat="44.84662" lon="5.80087">
        <ele>872</ele>
        <time>2017-11-22T15:51:20Z</time>
      </trkpt>
      <trkpt lat="44.84678" lon="5.80037">
        <ele>871</ele>
        <time>2017-11-22T15:51:26Z</time>
      </trkpt>
      <trkpt lat="44.8469" lon="5.80007">
        <ele>871</ele>
        <time>2017-11-22T15:51:46Z</time>
      </trkpt>
      <trkpt lat="44.84716" lon="5.79957">
        <ele>870</ele>
        <time>2017-11-22T15:51:51Z</time>
      </trkpt>
      <trkpt lat="44.84726" lon="5.79944">
        <ele>870</ele>
        <time>2017-11-22T15:52:03Z</time>
      </trkpt>
      <trkpt lat="44.84735" lon="5.79942">
        <ele>870</ele>
        <time>2017-11-22T15:52:12Z</time>
      </trkpt>
      <trkpt lat="44.84743" lon="5.79943">
        <ele>870</ele>
        <time>2017-11-22T15:52:25Z</time>
      </trkpt>
      <trkpt lat="44.84751" lon="5.79948">
        <ele>869</ele>
        <time>2017-11-22T15:52:35Z</time>
      </trkpt>
      <trkpt lat="44.84769" lon="5.79954">
        <ele>869</ele>
        <time>2017-11-22T15:52:54Z</time>
      </trkpt>
      <trkpt lat="44.84778" lon="5.79953">
        <ele>869</ele>
        <time>2017-11-22T15:53:14Z</time>
      </trkpt>
      <trkpt lat="44.84791" lon="5.79945">
        <ele>869</ele>
        <time>2017-11-22T15:53:25Z</time>
      </trkpt>
      <trkpt lat="44.84804" lon="5.79927">
        <ele>868</ele>
        <time>2017-11-22T15:53:44Z</time>
      </trkpt>
      <trkpt lat="44.8481" lon="5.79905">
        <ele>867</ele>
        <time>2017-11-22T15:53:57Z</time>
      </trkpt>
      <trkpt lat="44.84809" lon="5.79883">
        <ele>867</ele>
        <time>2017-11-22T15:54:10Z</time>
      </trkpt>
      <trkpt lat="44.84801" lon="5.79849">
        <ele>866</ele>
        <time>2017-11-22T15:54:26Z</time>
      </trkpt>
      <trkpt lat="44.84799" lon="5.79831">
        <ele>865</ele>
        <time>2017-11-22T15:54:29Z</time>
      </trkpt>
      <trkpt lat="44.84803" lon="5.79793">
        <ele>865</ele>
        <time>2017-11-22T15:54:33Z</time>
      </trkpt>
      <trkpt lat="44.84813" lon="5.79734">
        <ele>865</ele>
        <time>2017-11-22T15:54:37Z</time>
      </trkpt>
      <trkpt lat="44.84822" lon="5.7969">
        <ele>865</ele>
        <time>2017-11-22T15:54:53Z</time>
      </trkpt>
      <trkpt lat="44.84828" lon="5.79671">
        <ele>865</ele>
        <time>2017-11-22T15:55:09Z</time>
      </trkpt>
      <trkpt lat="44.8484" lon="5.79657">
        <ele>865</ele>
        <time>2017-11-22T15:55:22Z</time>
      </trkpt>
      <trkpt lat="44.84852" lon="5.7965">
        <ele>865</ele>
        <time>2017-11-22T15:55:41Z</time>
      </trkpt>
      <trkpt lat="44.84912" lon="5.79629">
        <ele>865</ele>
        <time>2017-11-22T15:55:48Z</time>
      </trkpt>
      <trkpt lat="44.84956" lon="5.79602">
        <ele>863</ele>
        <time>2017-11-22T15:55:52Z</time>
      </trkpt>
      <trkpt lat="44.84967" lon="5.7959">
        <ele>863</ele>
        <time>2017-11-22T15:55:58Z</time>
      </trkpt>
      <trkpt lat="44.84973" lon="5.79593">
        <ele>863</ele>
        <time>2017-11-22T15:56:04Z</time>
      </trkpt>
      <trkpt lat="44.84997" lon="5.79588">
        <ele>862</ele>
        <time>2017-11-22T15:56:08Z</time>
      </trkpt>
      <trkpt lat="44.85211" lon="5.79553">
        <ele>861</ele>
        <time>2017-11-22T15:56:14Z</time>
      </trkpt>
      <trkpt lat="44.85312" lon="5.79537">
        <ele>859</ele>
        <time>2017-11-22T15:56:24Z</time>
      </trkpt>
      <trkpt lat="44.85353" lon="5.79526">
        <ele>858</ele>
        <time>2017-11-22T15:56:37Z</time>
      </trkpt>
      <trkpt lat="44.85488" lon="5.79475">
        <ele>861</ele>
        <time>2017-11-22T15:56:49Z</time>
      </trkpt>
      <trkpt lat="44.85561" lon="5.79453">
        <ele>861</ele>
        <time>2017-11-22T15:57:03Z</time>
      </trkpt>
      <trkpt lat="44.85644" lon="5.79421">
        <ele>858</ele>
        <time>2017-11-22T15:57:07Z</time>
      </trkpt>
      <trkpt lat="44.85712" lon="5.79393">
        <ele>862</ele>
        <time>2017-11-22T15:57:25Z</time>
      </trkpt>
      <trkpt lat="44.85726" lon="5.79388">
        <ele>861</ele>
        <time>2017-11-22T15:57:32Z</time>
      </trkpt>
      <trkpt lat="44.85745" lon="5.79388">
        <ele>860</ele>
        <time>2017-11-22T15:57:44Z</time>
      </trkpt>
      <trkpt lat="44.85772" lon="5.7939">
        <ele>857</ele>
        <time>2017-11-22T15:57:48Z</time>
      </trkpt>
      <trkpt lat="44.85781" lon="5.79384">
        <ele>858</ele>
        <time>2017-11-22T15:57:59Z</time>
      </trkpt>
      <trkpt lat="44.858" lon="5.79366">
        <ele>859</ele>
        <time>2017-11-22T15:58:04Z</time>
      </trkpt>
      <trkpt lat="44.85811" lon="5.79357">
        <ele>861</ele>
        <time>2017-11-22T15:58:18Z</time>
      </trkpt>
      <trkpt lat="44.8582" lon="5.79353">
        <ele>862</ele>
        <time>2017-11-22T15:58:32Z</time>
      </trkpt>
      <trkpt lat="44.85837" lon="5.79352">
        <ele>863</ele>
        <time>2017-11-22T15:58:44Z</time>
      </trkpt>
      <trkpt lat="44.85849" lon="5.79354">
        <ele>862</ele>
        <time>2017-11-22T15:58:54Z</time>
      </trkpt>
      <trkpt lat="44.85863" lon="5.79364">
        <ele>860</ele>
        <time>2017-11-22T15:59:07Z</time>
      </trkpt>
      <trkpt lat="44.8587" lon="5.79374">
        <ele>859</ele>
        <time>2017-11-22T15:59:26Z</time>
      </trkpt>
      <trkpt lat="44.85873" lon="5.79388">
        <ele>857</ele>
        <time>2017-11-22T15:59:36Z</time>
      </trkpt>
      <trkpt lat="44.85874" lon="5.79413">
        <ele>855</ele>
        <time>2017-11-22T15:59:50Z</time>
      </trkpt>
      <trkpt lat="44.85874" lon="5.79441">
        <ele>843</ele>
        <time>2017-11-22T15:59:58Z</time>
      </trkpt>
      <trkpt lat="44.85877" lon="5.79455">
        <ele>842</ele>
        <time>2017-11-22T16:00:05Z</time>
      </trkpt>
      <trkpt lat="44.85883" lon="5.79465">
        <ele>842</ele>
        <time>2017-11-22T16:00:09Z</time>
      </trkpt>
      <trkpt lat="44.85891" lon="5.79473">
        <ele>841</ele>
        <time>2017-11-22T16:00:17Z</time>
      </trkpt>
      <trkpt lat="44.85907" lon="5.79479">
        <ele>840</ele>
        <time>2017-11-22T16:00:19Z</time>
      </trkpt>
      <trkpt lat="44.8595" lon="5.79486">
        <ele>841</ele>
        <time>2017-11-22T16:00:24Z</time>
      </trkpt>
      <trkpt lat="44.85982" lon="5.79493">
        <ele>839</ele>
        <time>2017-11-22T16:00:28Z</time>
      </trkpt>
      <trkpt lat="44.86012" lon="5.79504">
        <ele>833</ele>
        <time>2017-11-22T16:00:42Z</time>
      </trkpt>
      <trkpt lat="44.86048" lon="5.79522">
        <ele>832</ele>
        <time>2017-11-22T16:00:55Z</time>
      </trkpt>
      <trkpt lat="44.86091" lon="5.79545">
        <ele>834</ele>
        <time>2017-11-22T16:00:59Z</time>
      </trkpt>
      <trkpt lat="44.86117" lon="5.79562">
        <ele>833</ele>
        <time>2017-11-22T16:01:14Z</time>
      </trkpt>
      <trkpt lat="44.86134" lon="5.79582">
        <ele>832</ele>
        <time>2017-11-22T16:01:17Z</time>
      </trkpt>
      <trkpt lat="44.8616" lon="5.79626">
        <ele>823</ele>
        <time>2017-11-22T16:01:26Z</time>
      </trkpt>
      <trkpt lat="44.86175" lon="5.79652">
        <ele>821</ele>
        <time>2017-11-22T16:01:42Z</time>
      </trkpt>
      <trkpt lat="44.86195" lon="5.79678">
        <ele>817</ele>
        <time>2017-11-22T16:02:02Z</time>
      </trkpt>
      <trkpt lat="44.86207" lon="5.79688">
        <ele>817</ele>
        <time>2017-11-22T16:02:13Z</time>
      </trkpt>
      <trkpt lat="44.86239" lon="5.79702">
        <ele>817</ele>
        <time>2017-11-22T16:02:17Z</time>
      </trkpt>
      <trkpt lat="44.86256" lon="5.79706">
        <ele>815</ele>
        <time>2017-11-22T16:02:21Z</time>
      </trkpt>
      <trkpt lat="44.86283" lon="5.79708">
        <ele>814</ele>
        <time>2017-11-22T16:02:23Z</time>
      </trkpt>
      <trkpt lat="44.86339" lon="5.79722">
        <ele>811</ele>
        <time>2017-11-22T16:02:37Z</time>
      </trkpt>
      <trkpt lat="44.86365" lon="5.79721">
        <ele>811</ele>
        <time>2017-11-22T16:02:55Z</time>
      </trkpt>
      <trkpt lat="44.8642" lon="5.79705">
        <ele>809</ele>
        <time>2017-11-22T16:03:04Z</time>
      </trkpt>
      <trkpt lat="44.86472" lon="5.79693">
        <ele>809</ele>
        <time>2017-11-22T16:03:11Z</time>
      </trkpt>
      <trkpt lat="44.86508" lon="5.79683">
        <ele>807</ele>
        <time>2017-11-22T16:03:18Z</time>
      </trkpt>
      <trkpt lat="44.8652" lon="5.79676">
        <ele>806</ele>
        <time>2017-11-22T16:03:20Z</time>
      </trkpt>
      <trkpt lat="44.86531" lon="5.79664">
        <ele>813</ele>
        <time>2017-11-22T16:03:34Z</time>
      </trkpt>
      <trkpt lat="44.8655" lon="5.79644">
        <ele>813</ele>
        <time>2017-11-22T16:03:40Z</time>
      </trkpt>
      <trkpt lat="44.86571" lon="5.79637">
        <ele>813</ele>
        <time>2017-11-22T16:03:55Z</time>
      </trkpt>
      <trkpt lat="44.86595" lon="5.79637">
        <ele>808</ele>
        <time>2017-11-22T16:04:14Z</time>
      </trkpt>
      <trkpt lat="44.86622" lon="5.79647">
        <ele>807</ele>
        <time>2017-11-22T16:04:24Z</time>
      </trkpt>
      <trkpt lat="44.86653" lon="5.79665">
        <ele>802</ele>
        <time>2017-11-22T16:04:30Z</time>
      </trkpt>
      <trkpt lat="44.8668" lon="5.79682">
        <ele>790</ele>
        <time>2017-11-22T16:04:48Z</time>
      </trkpt>
      <trkpt lat="44.86694" lon="5.79685">
        <ele>788</ele>
        <time>2017-11-22T16:04:50Z</time>
      </trkpt>
      <trkpt lat="44.86705" lon="5.79682">
        <ele>787</ele>
        <time>2017-11-22T16:05:05Z</time>
      </trkpt>
      <trkpt lat="44.86715" lon="5.79672">
        <ele>787</ele>
        <time>2017-11-22T16:05:14Z</time>
      </trkpt>
      <trkpt lat="44.86723" lon="5.79657">
        <ele>797</ele>
        <time>2017-11-22T16:05:31Z</time>
      </trkpt>
      <trkpt lat="44.86731" lon="5.79603">
        <ele>801</ele>
        <time>2017-11-22T16:05:43Z</time>
      </trkpt>
      <trkpt lat="44.86738" lon="5.79587">
        <ele>801</ele>
        <time>2017-11-22T16:05:58Z</time>
      </trkpt>
      <trkpt lat="44.86745" lon="5.79582">
        <ele>804</ele>
        <time>2017-11-22T16:06:04Z</time>
      </trkpt>
      <trkpt lat="44.86753" lon="5.79584">
        <ele>801</ele>
        <time>2017-11-22T16:06:24Z</time>
      </trkpt>
      <trkpt lat="44.86766" lon="5.79603">
        <ele>799</ele>
        <time>2017-11-22T16:06:35Z</time>
      </trkpt>
      <trkpt lat="44.86782" lon="5.79661">
        <ele>795</ele>
        <time>2017-11-22T16:06:45Z</time>
      </trkpt>
      <trkpt lat="44.86791" lon="5.79678">
        <ele>787</ele>
        <time>2017-11-22T16:07:02Z</time>
      </trkpt>
      <trkpt lat="44.86805" lon="5.79687">
        <ele>788</ele>
        <time>2017-11-22T16:07:12Z</time>
      </trkpt>
      <trkpt lat="44.86816" lon="5.79688">
        <ele>789</ele>
        <time>2017-11-22T16:07:29Z</time>
      </trkpt>
      <trkpt lat="44.86849" lon="5.79685">
        <ele>792</ele>
        <time>2017-11-22T16:07:38Z</time>
      </trkpt>
      <trkpt lat="44.86885" lon="5.79688">
        <ele>792</ele>
        <time>2017-11-22T16:07:50Z</time>
      </trkpt>
      <trkpt lat="44.8693" lon="5.79699">
        <ele>795</ele>
        <time>2017-11-22T16:07:54Z</time>
      </trkpt>
      <trkpt lat="44.86963" lon="5.79716">
        <ele>794</ele>
        <time>2017-11-22T16:08:05Z</time>
      </trkpt>
      <trkpt lat="44.87014" lon="5.79746">
        <ele>794</ele>
        <time>2017-11-22T16:08:08Z</time>
      </trkpt>
      <trkpt lat="44.87046" lon="5.79758">
        <ele>784</ele>
        <time>2017-11-22T16:08:13Z</time>
      </trkpt>
      <trkpt lat="44.8707" lon="5.79763">
        <ele>787</ele>
        <time>2017-11-22T16:08:33Z</time>
      </trkpt>
      <trkpt lat="44.87086" lon="5.79762">
        <ele>790</ele>
        <time>2017-11-22T16:08:41Z</time>
      </trkpt>
      <trkpt lat="44.87101" lon="5.79759">
        <ele>788</ele>
        <time>2017-11-22T16:08:55Z</time>
      </trkpt>
      <trkpt lat="44.87115" lon="5.79757">
        <ele>787</ele>
        <time>2017-11-22T16:09:05Z</time>
      </trkpt>
      <trkpt lat="44.87128" lon="5.79758">
        <ele>786</ele>
        <time>2017-11-22T16:09:16Z</time>
      </trkpt>
      <trkpt lat="44.87145" lon="5.79765">
        <ele>787</ele>
        <time>2017-11-22T16:09:26Z</time>
      </trkpt>
      <trkpt lat="44.87176" lon="5.79781">
        <ele>784</ele>
        <time>2017-11-22T16:09:33Z</time>
      </trkpt>
      <trkpt lat="44.87197" lon="5.79784">
        <ele>782</ele>
        <time>2017-11-22T16:09:44Z</time>
      </trkpt>
      <trkpt lat="44.8722" lon="5.79782">
        <ele>782</ele>
        <time>2017-11-22T16:09:55Z</time>
      </trkpt>
      <trkpt lat="44.87243" lon="5.79773">
        <ele>786</ele>
        <time>2017-11-22T16:10:00Z</time>
      </trkpt>
      <trkpt lat="44.8726" lon="5.79762">
        <ele>782</ele>
        <time>2017-11-22T16:10:03Z</time>
      </trkpt>
      <trkpt lat="44.87284" lon="5.79742">
        <ele>793</ele>
        <time>2017-11-22T16:10:23Z</time>
      </trkpt>
      <trkpt lat="44.87304" lon="5.79721">
        <ele>791</ele>
        <time>2017-11-22T16:10:26Z</time>
      </trkpt>
      <trkpt lat="44.87338" lon="5.79686">
        <ele>783</ele>
        <time>2017-11-22T16:10:32Z</time>
      </trkpt>
      <trkpt lat="44.87349" lon="5.7967">
        <ele>785</ele>
        <time>2017-11-22T16:10:46Z</time>
      </trkpt>
      <trkpt lat="44.87355" lon="5.79657">
        <ele>794</ele>
        <time>2017-11-22T16:10:57Z</time>
      </trkpt>
      <trkpt lat="44.87358" lon="5.79631">
        <ele>796</ele>
        <time>2017-11-22T16:11:02Z</time>
      </trkpt>
      <trkpt lat="44.8736" lon="5.7961">
        <ele>798</ele>
        <time>2017-11-22T16:11:11Z</time>
      </trkpt>
      <trkpt lat="44.87369" lon="5.79589">
        <ele>798</ele>
        <time>2017-11-22T16:11:29Z</time>
      </trkpt>
      <trkpt lat="44.8738" lon="5.79579">
        <ele>809</ele>
        <time>2017-11-22T16:11:34Z</time>
      </trkpt>
      <trkpt lat="44.87392" lon="5.79575">
        <ele>807</ele>
        <time>2017-11-22T16:11:42Z</time>
      </trkpt>
      <trkpt lat="44.87402" lon="5.79576">
        <ele>804</ele>
        <time>2017-11-22T16:12:00Z</time>
      </trkpt>
      <trkpt lat="44.8741" lon="5.7958">
        <ele>800</ele>
        <time>2017-11-22T16:12:05Z</time>
      </trkpt>
      <trkpt lat="44.87421" lon="5.79595">
        <ele>798</ele>
        <time>2017-11-22T16:12:17Z</time>
      </trkpt>
      <trkpt lat="44.87434" lon="5.7963">
        <ele>796</ele>
        <time>2017-11-22T16:12:31Z</time>
      </trkpt>
      <trkpt lat="44.87461" lon="5.79683">
        <ele>782</ele>
        <time>2017-11-22T16:12:38Z</time>
      </trkpt>
      <trkpt lat="44.87482" lon="5.79733">
        <ele>781</ele>
        <time>2017-11-22T16:12:41Z</time>
      </trkpt>
      <trkpt lat="44.87494" lon="5.79774">
        <ele>767</ele>
        <time>2017-11-22T16:12:58Z</time>
      </trkpt>
      <trkpt lat="44.875" lon="5.79795">
        <ele>775</ele>
        <time>2017-11-22T16:13:03Z</time>
      </trkpt>
      <trkpt lat="44.87507" lon="5.79803">
        <ele>778</ele>
        <time>2017-11-22T16:13:10Z</time>
      </trkpt>
      <trkpt lat="44.87516" lon="5.79807">
        <ele>778</ele>
        <time>2017-11-22T16:13:24Z</time>
      </trkpt>
      <trkpt lat="44.87532" lon="5.79811">
        <ele>779</ele>
        <time>2017-11-22T16:13:28Z</time>
      </trkpt>
      <trkpt lat="44.87578" lon="5.79825">
        <ele>780</ele>
        <time>2017-11-22T16:13:34Z</time>
      </trkpt>
      <trkpt lat="44.876" lon="5.79828">
        <ele>777</ele>
        <time>2017-11-22T16:13:53Z</time>
      </trkpt>
      <trkpt lat="44.87612" lon="5.79824">
        <ele>776</ele>
        <time>2017-11-22T16:14:10Z</time>
      </trkpt>
      <trkpt lat="44.87625" lon="5.79811">
        <ele>774</ele>
        <time>2017-11-22T16:14:29Z</time>
      </trkpt>
      <trkpt lat="44.87646" lon="5.79782">
        <ele>776</ele>
        <time>2017-11-22T16:14:45Z</time>
      </trkpt>
      <trkpt lat="44.87666" lon="5.7975">
        <ele>779</ele>
        <time>2017-11-22T16:15:02Z</time>
      </trkpt>
      <trkpt lat="44.87668" lon="5.79745">
        <ele>773</ele>
        <time>2017-11-22T16:15:09Z</time>
      </trkpt>
      <trkpt lat="44.87693" lon="5.79691">
        <ele>760</ele>
        <time>2017-11-22T16:15:16Z</time>
      </trkpt>
      <trkpt lat="44.87725" lon="5.7964">
        <ele>768</ele>
        <time>2017-11-22T16:15:22Z</time>
      </trkpt>
      <trkpt lat="44.87738" lon="5.79609">
        <ele>770</ele>
        <time>2017-11-22T16:15:27Z</time>
      </trkpt>
      <trkpt lat="44.87751" lon="5.79569">
        <ele>752</ele>
        <time>2017-11-22T16:15:45Z</time>
      </trkpt>
      <trkpt lat="44.87771" lon="5.79502">
        <ele>755</ele>
        <time>2017-11-22T16:16:03Z</time>
      </trkpt>
      <trkpt lat="44.87784" lon="5.79469">
        <ele>755</ele>
        <time>2017-11-22T16:16:23Z</time>
      </trkpt>
      <trkpt lat="44.87802" lon="5.79432">
        <ele>749</ele>
        <time>2017-11-22T16:16:31Z</time>
      </trkpt>
      <trkpt lat="44.87807" lon="5.79418">
        <ele>746</ele>
        <time>2017-11-22T16:16:37Z</time>
      </trkpt>
      <trkpt lat="44.8781" lon="5.79392">
        <ele>756</ele>
        <time>2017-11-22T16:16:48Z</time>
      </trkpt>
      <trkpt lat="44.87814" lon="5.79373">
        <ele>758</ele>
        <time>2017-11-22T16:16:59Z</time>
      </trkpt>
      <trkpt lat="44.8783" lon="5.79335">
        <ele>742</ele>
        <time>2017-11-22T16:17:11Z</time>
      </trkpt>
      <trkpt lat="44.87839" lon="5.79309">
        <ele>722</ele>
        <time>2017-11-22T16:17:14Z</time>
      </trkpt>
      <trkpt lat="44.87843" lon="5.79303">
        <ele>720</ele>
        <time>2017-11-22T16:17:19Z</time>
      </trkpt>
      <trkpt lat="44.87846" lon="5.79304">
        <ele>719</ele>
        <time>2017-11-22T16:17:35Z</time>
      </trkpt>
      <trkpt lat="44.87848" lon="5.79307">
        <ele>719</ele>
        <time>2017-11-22T16:17:53Z</time>
      </trkpt>
      <trkpt lat="44.87847" lon="5.79315">
        <ele>721</ele>
        <time>2017-11-22T16:18:03Z</time>
      </trkpt>
      <trkpt lat="44.87822" lon="5.79363">
        <ele>755</ele>
        <time>2017-11-22T16:18:20Z</time>
      </trkpt>
      <trkpt lat="44.87815" lon="5.7938">
        <ele>757</ele>
        <time>2017-11-22T16:18:39Z</time>
      </trkpt>
      <trkpt lat="44.87811" lon="5.79414">
        <ele>750</ele>
        <time>2017-11-22T16:18:58Z</time>
      </trkpt>
      <trkpt lat="44.87806" lon="5.79431">
        <ele>747</ele>
        <time>2017-11-22T16:19:14Z</time>
      </trkpt>
      <trkpt lat="44.87786" lon="5.79484">
        <ele>754</ele>
        <time>2017-11-22T16:19:30Z</time>
      </trkpt>
      <trkpt lat="44.87783" lon="5.79509">
        <ele>745</ele>
        <time>2017-11-22T16:19:36Z</time>
      </trkpt>
      <trkpt lat="44.87779" lon="5.79591">
        <ele>725</ele>
        <time>2017-11-22T16:19:40Z</time>
      </trkpt>
      <trkpt lat="44.87769" lon="5.79658">
        <ele>717</ele>
        <time>2017-11-22T16:19:54Z</time>
      </trkpt>
      <trkpt lat="44.87773" lon="5.79667">
        <ele>695</ele>
        <time>2017-11-22T16:20:01Z</time>
      </trkpt>
      <trkpt lat="44.87779" lon="5.79664">
        <ele>712</ele>
        <time>2017-11-22T16:20:21Z</time>
      </trkpt>
      <trkpt lat="44.87783" lon="5.79656">
        <ele>710</ele>
        <time>2017-11-22T16:20:36Z</time>
      </trkpt>
      <trkpt lat="44.87793" lon="5.79625">
        <ele>710</ele>
        <time>2017-11-22T16:20:43Z</time>
      </trkpt>
      <trkpt lat="44.87815" lon="5.79562">
        <ele>722</ele>
        <time>2017-11-22T16:20:54Z</time>
      </trkpt>
      <trkpt lat="44.87863" lon="5.79354">
        <ele>706</ele>
        <time>2017-11-22T16:21:11Z</time>
      </trkpt>
      <trkpt lat="44.87868" lon="5.7934">
        <ele>705</ele>
        <time>2017-11-22T16:21:27Z</time>
      </trkpt>
      <trkpt lat="44.87872" lon="5.79334">
        <ele>703</ele>
        <time>2017-11-22T16:21:38Z</time>
      </trkpt>
      <trkpt lat="44.87875" lon="5.79334">
        <ele>701</ele>
        <time>2017-11-22T16:21:55Z</time>
      </trkpt>
      <trkpt lat="44.8788" lon="5.79335">
        <ele>698</ele>
        <time>2017-11-22T16:22:12Z</time>
      </trkpt>
      <trkpt lat="44.87881" lon="5.79338">
        <ele>697</ele>
        <time>2017-11-22T16:22:29Z</time>
      </trkpt>
      <trkpt lat="44.87883" lon="5.79348">
        <ele>696</ele>
        <time>2017-11-22T16:22:49Z</time>
      </trkpt>
      <trkpt lat="44.8788" lon="5.79367">
        <ele>697</ele>
        <time>2017-11-22T16:23:03Z</time>
      </trkpt>
      <trkpt lat="44.87857" lon="5.79539">
        <ele>675</ele>
        <time>2017-11-22T16:23:16Z</time>
      </trkpt>
      <trkpt lat="44.8786" lon="5.79589">
        <ele>657</ele>
        <time>2017-11-22T16:23:21Z</time>
      </trkpt>
      <trkpt lat="44.87867" lon="5.79633">
        <ele>642</ele>
        <time>2017-11-22T16:23:29Z</time>
      </trkpt>
      <trkpt lat="44.87868" lon="5.79669">
        <ele>615</ele>
        <time>2017-11-22T16:23:36Z</time>
      </trkpt>
      <trkpt lat="44.87866" lon="5.79684">
        <ele>613</ele>
        <time>2017-11-22T16:23:41Z</time>
      </trkpt>
      <trkpt lat="44.87862" lon="5.79707">
        <ele>608</ele>
        <time>2017-11-22T16:23:54Z</time>
      </trkpt>
      <trkpt lat="44.87864" lon="5.79713">
        <ele>605</ele>
        <time>2017-11-22T16:24:05Z</time>
      </trkpt>
      <trkpt lat="44.87866" lon="5.79713">
        <ele>604</ele>
        <time>2017-11-22T16:24:19Z</time>
      </trkpt>
      <trkpt lat="44.8787" lon="5.79703">
        <ele>605</ele>
        <time>2017-11-22T16:24:37Z</time>
      </trkpt>
      <trkpt lat="44.87879" lon="5.79626">
        <ele>638</ele>
        <time>2017-11-22T16:24:47Z</time>
      </trkpt>
      <trkpt lat="44.87883" lon="5.79544">
        <ele>665</ele>
        <time>2017-11-22T16:24:55Z</time>
      </trkpt>
      <trkpt lat="44.87887" lon="5.79504">
        <ele>666</ele>
        <time>2017-11-22T16:24:58Z</time>
      </trkpt>
      <trkpt lat="44.87895" lon="5.79457">
        <ele>679</ele>
        <time>2017-11-22T16:25:09Z</time>
      </trkpt>
      <trkpt lat="44.87894" lon="5.79426">
        <ele>678</ele>
        <time>2017-11-22T16:25:25Z</time>
      </trkpt>
      <trkpt lat="44.87899" lon="5.79386">
        <ele>688</ele>
        <time>2017-11-22T16:25:29Z</time>
      </trkpt>
      <trkpt lat="44.87905" lon="5.79354">
        <ele>687</ele>
        <time>2017-11-22T16:25:40Z</time>
      </trkpt>
      <trkpt lat="44.87916" lon="5.79311">
        <ele>692</ele>
        <time>2017-11-22T16:25:54Z</time>
      </trkpt>
      <trkpt lat="44.87919" lon="5.79284">
        <ele>659</ele>
        <time>2017-11-22T16:26:05Z</time>
      </trkpt>
      <trkpt lat="44.87921" lon="5.79279">
        <ele>660</ele>
        <time>2017-11-22T16:26:16Z</time>
      </trkpt>
      <trkpt lat="44.87924" lon="5.79278">
        <ele>660</ele>
        <time>2017-11-22T16:26:27Z</time>
      </trkpt>
      <trkpt lat="44.87927" lon="5.7928">
        <ele>658</ele>
        <time>2017-11-22T16:26:35Z</time>
      </trkpt>
      <trkpt lat="44.87927" lon="5.79288">
        <ele>657</ele>
        <time>2017-11-22T16:26:39Z</time>
      </trkpt>
      <trkpt lat="44.87918" lon="5.79319">
        <ele>663</ele>
        <time>2017-11-22T16:26:51Z</time>
      </trkpt>
      <trkpt lat="44.87911" lon="5.79354">
        <ele>686</ele>
        <time>2017-11-22T16:27:07Z</time>
      </trkpt>
      <trkpt lat="44.87907" lon="5.79417">
        <ele>669</ele>
        <time>2017-11-22T16:27:14Z</time>
      </trkpt>
      <trkpt lat="44.87905" lon="5.79513">
        <ele>658</ele>
        <time>2017-11-22T16:27:27Z</time>
      </trkpt>
      <trkpt lat="44.87905" lon="5.79559">
        <ele>652</ele>
        <time>2017-11-22T16:27:47Z</time>
      </trkpt>
      <trkpt lat="44.87905" lon="5.79576">
        <ele>642</ele>
        <time>2017-11-22T16:28:07Z</time>
      </trkpt>
      <trkpt lat="44.87907" lon="5.79582">
        <ele>638</ele>
        <time>2017-11-22T16:28:25Z</time>
      </trkpt>
      <trkpt lat="44.8791" lon="5.79582">
        <ele>634</ele>
        <time>2017-11-22T16:28:27Z</time>
      </trkpt>
      <trkpt lat="44.87912" lon="5.7958">
        <ele>632</ele>
        <time>2017-11-22T16:28:45Z</time>
      </trkpt>
      <trkpt lat="44.87914" lon="5.79573">
        <ele>638</ele>
        <time>2017-11-22T16:28:48Z</time>
      </trkpt>
      <trkpt lat="44.87913" lon="5.79553">
        <ele>653</ele>
        <time>2017-11-22T16:29:08Z</time>
      </trkpt>
      <trkpt lat="44.87914" lon="5.79531">
        <ele>658</ele>
        <time>2017-11-22T16:29:26Z</time>
      </trkpt>
      <trkpt lat="44.87922" lon="5.79493">
        <ele>644</ele>
        <time>2017-11-22T16:29:29Z</time>
      </trkpt>
      <trkpt lat="44.8794" lon="5.79408">
        <ele>649</ele>
        <time>2017-11-22T16:29:41Z</time>
      </trkpt>
      <trkpt lat="44.87953" lon="5.79349">
        <ele>647</ele>
        <time>2017-11-22T16:30:00Z</time>
      </trkpt>
      <trkpt lat="44.87965" lon="5.79319">
        <ele>645</ele>
        <time>2017-11-22T16:30:16Z</time>
      </trkpt>
      <trkpt lat="44.87976" lon="5.79294">
        <ele>642</ele>
        <time>2017-11-22T16:30:31Z</time>
      </trkpt>
      <trkpt lat="44.87981" lon="5.79294">
        <ele>641</ele>
        <time>2017-11-22T16:30:40Z</time>
      </trkpt>
      <trkpt lat="44.87983" lon="5.79301">
        <ele>640</ele>
        <time>2017-11-22T16:30:48Z</time>
      </trkpt>
      <trkpt lat="44.8797" lon="5.79331">
        <ele>643</ele>
        <time>2017-11-22T16:31:08Z</time>
      </trkpt>
      <trkpt lat="44.87967" lon="5.79348">
        <ele>642</ele>
        <time>2017-11-22T16:31:10Z</time>
      </trkpt>
      <trkpt lat="44.87966" lon="5.79363">
        <ele>643</ele>
        <time>2017-11-22T16:31:29Z</time>
      </trkpt>
      <trkpt lat="44.87967" lon="5.79433">
        <ele>633</ele>
        <time>2017-11-22T16:31:43Z</time>
      </trkpt>
      <trkpt lat="44.87962" lon="5.79494">
        <ele>629</ele>
        <time>2017-11-22T16:31:58Z</time>
      </trkpt>
      <trkpt lat="44.87964" lon="5.79502">
        <ele>612</ele>
        <time>2017-11-22T16:32:09Z</time>
      </trkpt>
      <trkpt lat="44.87968" lon="5.79506">
        <ele>610</ele>
        <time>2017-11-22T16:32:17Z</time>
      </trkpt>
      <trkpt lat="44.87974" lon="5.79506">
        <ele>608</ele>
        <time>2017-11-22T16:32:25Z</time>
      </trkpt>
      <trkpt lat="44.87977" lon="5.79502">
        <ele>607</ele>
        <time>2017-11-22T16:32:31Z</time>
      </trkpt>
      <trkpt lat="44.8799" lon="5.79481">
        <ele>619</ele>
        <time>2017-11-22T16:32:36Z</time>
      </trkpt>
      <trkpt lat="44.88024" lon="5.79401">
        <ele>602</ele>
        <time>2017-11-22T16:32:44Z</time>
      </trkpt>
      <trkpt lat="44.88039" lon="5.79361">
        <ele>594</ele>
        <time>2017-11-22T16:33:04Z</time>
      </trkpt>
      <trkpt lat="44.88042" lon="5.7934">
        <ele>593</ele>
        <time>2017-11-22T16:33:16Z</time>
      </trkpt>
      <trkpt lat="44.88039" lon="5.79309">
        <ele>588</ele>
        <time>2017-11-22T16:33:22Z</time>
      </trkpt>
      <trkpt lat="44.8804" lon="5.79299">
        <ele>587</ele>
        <time>2017-11-22T16:33:36Z</time>
      </trkpt>
      <trkpt lat="44.88044" lon="5.7929">
        <ele>584</ele>
        <time>2017-11-22T16:33:45Z</time>
      </trkpt>
      <trkpt lat="44.88043" lon="5.79283">
        <ele>584</ele>
        <time>2017-11-22T16:33:49Z</time>
      </trkpt>
      <trkpt lat="44.8804" lon="5.79271">
        <ele>585</ele>
        <time>2017-11-22T16:34:00Z</time>
      </trkpt>
      <trkpt lat="44.8803" lon="5.79255">
        <ele>590</ele>
        <time>2017-11-22T16:34:09Z</time>
      </trkpt>
      <trkpt lat="44.88011" lon="5.79239">
        <ele>596</ele>
        <time>2017-11-22T16:34:18Z</time>
      </trkpt>
      <trkpt lat="44.87997" lon="5.79225">
        <ele>625</ele>
        <time>2017-11-22T16:34:20Z</time>
      </trkpt>
      <trkpt lat="44.8799" lon="5.79209">
        <ele>625</ele>
        <time>2017-11-22T16:34:23Z</time>
      </trkpt>
      <trkpt lat="44.8798" lon="5.79169">
        <ele>615</ele>
        <time>2017-11-22T16:34:26Z</time>
      </trkpt>
      <trkpt lat="44.8797" lon="5.7915">
        <ele>608</ele>
        <time>2017-11-22T16:34:36Z</time>
      </trkpt>
      <trkpt lat="44.87953" lon="5.79113">
        <ele>610</ele>
        <time>2017-11-22T16:34:56Z</time>
      </trkpt>
      <trkpt lat="44.87917" lon="5.79061">
        <ele>607</ele>
        <time>2017-11-22T16:35:06Z</time>
      </trkpt>
      <trkpt lat="44.87912" lon="5.79047">
        <ele>645</ele>
        <time>2017-11-22T16:35:17Z</time>
      </trkpt>
      <trkpt lat="44.87907" lon="5.79011">
        <ele>634</ele>
        <time>2017-11-22T16:35:34Z</time>
      </trkpt>
      <trkpt lat="44.87906" lon="5.78974">
        <ele>646</ele>
        <time>2017-11-22T16:35:40Z</time>
      </trkpt>
      <trkpt lat="44.8791" lon="5.7896">
        <ele>650</ele>
        <time>2017-11-22T16:35:55Z</time>
      </trkpt>
      <trkpt lat="44.87922" lon="5.78938">
        <ele>609</ele>
        <time>2017-11-22T16:36:07Z</time>
      </trkpt>
      <trkpt lat="44.87926" lon="5.78918">
        <ele>619</ele>
        <time>2017-11-22T16:36:25Z</time>
      </trkpt>
      <trkpt lat="44.87923" lon="5.78897">
        <ele>619</ele>
        <time>2017-11-22T16:36:42Z</time>
      </trkpt>
      <trkpt lat="44.87925" lon="5.78885">
        <ele>617</ele>
        <time>2017-11-22T16:36:53Z</time>
      </trkpt>
      <trkpt lat="44.87928" lon="5.78877">
        <ele>617</ele>
        <time>2017-11-22T16:37:04Z</time>
      </trkpt>
      <trkpt lat="44.87938" lon="5.78867">
        <ele>615</ele>
        <time>2017-11-22T16:37:21Z</time>
      </trkpt>
      <trkpt lat="44.8795" lon="5.78857">
        <ele>612</ele>
        <time>2017-11-22T16:37:32Z</time>
      </trkpt>
      <trkpt lat="44.87957" lon="5.78847">
        <ele>609</ele>
        <time>2017-11-22T16:37:45Z</time>
      </trkpt>
      <trkpt lat="44.8796" lon="5.78785">
        <ele>610</ele>
        <time>2017-11-22T16:37:49Z</time>
      </trkpt>
      <trkpt lat="44.87957" lon="5.78764">
        <ele>611</ele>
        <time>2017-11-22T16:37:57Z</time>
      </trkpt>
      <trkpt lat="44.8795" lon="5.7875">
        <ele>607</ele>
        <time>2017-11-22T16:38:11Z</time>
      </trkpt>
      <trkpt lat="44.87938" lon="5.78733">
        <ele>613</ele>
        <time>2017-11-22T16:38:16Z</time>
      </trkpt>
      <trkpt lat="44.8793" lon="5.78714">
        <ele>609</ele>
        <time>2017-11-22T16:38:24Z</time>
      </trkpt>
      <trkpt lat="44.87919" lon="5.78688">
        <ele>608</ele>
        <time>2017-11-22T16:38:28Z</time>
      </trkpt>
      <trkpt lat="44.87916" lon="5.78673">
        <ele>631</ele>
        <time>2017-11-22T16:38:46Z</time>
      </trkpt>
      <trkpt lat="44.87916" lon="5.78645">
        <ele>624</ele>
        <time>2017-11-22T16:38:54Z</time>
      </trkpt>
      <trkpt lat="44.87914" lon="5.78627">
        <ele>621</ele>
        <time>2017-11-22T16:38:59Z</time>
      </trkpt>
      <trkpt lat="44.87905" lon="5.78608">
        <ele>615</ele>
        <time>2017-11-22T16:39:14Z</time>
      </trkpt>
      <trkpt lat="44.8789" lon="5.78591">
        <ele>616</ele>
        <time>2017-11-22T16:39:25Z</time>
      </trkpt>
      <trkpt lat="44.87879" lon="5.78583">
        <ele>595</ele>
        <time>2017-11-22T16:39:37Z</time>
      </trkpt>
      <trkpt lat="44.87864" lon="5.78578">
        <ele>602</ele>
        <time>2017-11-22T16:39:54Z</time>
      </trkpt>
      <trkpt lat="44.87822" lon="5.78568">
        <ele>633</ele>
        <time>2017-11-22T16:40:01Z</time>
      </trkpt>
      <trkpt lat="44.8778" lon="5.78547">
        <ele>633</ele>
        <time>2017-11-22T16:40:14Z</time>
      </trkpt>
      <trkpt lat="44.87725" lon="5.78518">
        <ele>650</ele>
        <time>2017-11-22T16:40:22Z</time>
      </trkpt>
      <trkpt lat="44.87718" lon="5.78509">
        <ele>650</ele>
        <time>2017-11-22T16:40:35Z</time>
      </trkpt>
      <trkpt lat="44.87709" lon="5.78492">
        <ele>618</ele>
        <time>2017-11-22T16:40:52Z</time>
      </trkpt>
      <trkpt lat="44.87701" lon="5.78483">
        <ele>619</ele>
        <time>2017-11-22T16:40:59Z</time>
      </trkpt>
      <trkpt lat="44.87684" lon="5.78479">
        <ele>624</ele>
        <time>2017-11-22T16:41:01Z</time>
      </trkpt>
      <trkpt lat="44.87664" lon="5.78476">
        <ele>645</ele>
        <time>2017-11-22T16:41:10Z</time>
      </trkpt>
      <trkpt lat="44.87639" lon="5.78469">
        <ele>644</ele>
        <time>2017-11-22T16:41:29Z</time>
      </trkpt>
      <trkpt lat="44.87632" lon="5.78465">
        <ele>644</ele>
        <time>2017-11-22T16:41:34Z</time>
      </trkpt>
      <trkpt lat="44.8762" lon="5.78452">
        <ele>642</ele>
        <time>2017-11-22T16:41:53Z</time>
      </trkpt>
      <trkpt lat="44.87609" lon="5.78443">
        <ele>640</ele>
        <time>2017-11-22T16:42:01Z</time>
      </trkpt>
      <trkpt lat="44.876" lon="5.78441">
        <ele>640</ele>
        <time>2017-11-22T16:42:12Z</time>
      </trkpt>
      <trkpt lat="44.87585" lon="5.78446">
        <ele>642</ele>
        <time>2017-11-22T16:42:29Z</time>
      </trkpt>
      <trkpt lat="44.8757" lon="5.78448">
        <ele>663</ele>
        <time>2017-11-22T16:42:40Z</time>
      </trkpt>
      <trkpt lat="44.87555" lon="5.78437">
        <ele>663</ele>
        <time>2017-11-22T16:42:51Z</time>
      </trkpt>
      <trkpt lat="44.87533" lon="5.78433">
        <ele>668</ele>
        <time>2017-11-22T16:42:53Z</time>
      </trkpt>
      <trkpt lat="44.87516" lon="5.78421">
        <ele>667</ele>
        <time>2017-11-22T16:43:13Z</time>
      </trkpt>
      <trkpt lat="44.87501" lon="5.78396">
        <ele>642</ele>
        <time>2017-11-22T16:43:22Z</time>
      </trkpt>
      <trkpt lat="44.87487" lon="5.78373">
        <ele>661</ele>
        <time>2017-11-22T16:43:26Z</time>
      </trkpt>
      <trkpt lat="44.87469" lon="5.78357">
        <ele>661</ele>
        <time>2017-11-22T16:43:29Z</time>
      </trkpt>
      <trkpt lat="44.87464" lon="5.78346">
        <ele>660</ele>
        <time>2017-11-22T16:43:34Z</time>
      </trkpt>
      <trkpt lat="44.87459" lon="5.78327">
        <ele>632</ele>
        <time>2017-11-22T16:43:48Z</time>
      </trkpt>
      <trkpt lat="44.87454" lon="5.78316">
        <ele>632</ele>
        <time>2017-11-22T16:43:59Z</time>
      </trkpt>
      <trkpt lat="44.87447" lon="5.78309">
        <ele>633</ele>
        <time>2017-11-22T16:44:01Z</time>
      </trkpt>
      <trkpt lat="44.87439" lon="5.78305">
        <ele>635</ele>
        <time>2017-11-22T16:44:16Z</time>
      </trkpt>
      <trkpt lat="44.87428" lon="5.78306">
        <ele>640</ele>
        <time>2017-11-22T16:44:20Z</time>
      </trkpt>
      <trkpt lat="44.87418" lon="5.78302">
        <ele>640</ele>
        <time>2017-11-22T16:44:24Z</time>
      </trkpt>
      <trkpt lat="44.87407" lon="5.78296">
        <ele>676</ele>
        <time>2017-11-22T16:44:38Z</time>
      </trkpt>
      <trkpt lat="44.87393" lon="5.78282">
        <ele>676</ele>
        <time>2017-11-22T16:44:51Z</time>
      </trkpt>
      <trkpt lat="44.87369" lon="5.78245">
        <ele>661</ele>
        <time>2017-11-22T16:44:55Z</time>
      </trkpt>
      <trkpt lat="44.87356" lon="5.78229">
        <ele>666</ele>
        <time>2017-11-22T16:44:59Z</time>
      </trkpt>
      <trkpt lat="44.87344" lon="5.78198">
        <ele>662</ele>
        <time>2017-11-22T16:45:03Z</time>
      </trkpt>
      <trkpt lat="44.87326" lon="5.78136">
        <ele>682</ele>
        <time>2017-11-22T16:45:23Z</time>
      </trkpt>
      <trkpt lat="44.87323" lon="5.78108">
        <ele>678</ele>
        <time>2017-11-22T16:45:41Z</time>
      </trkpt>
      <trkpt lat="44.87325" lon="5.78093">
        <ele>672</ele>
        <time>2017-11-22T16:45:48Z</time>
      </trkpt>
      <trkpt lat="44.87328" lon="5.78081">
        <ele>663</ele>
        <time>2017-11-22T16:46:06Z</time>
      </trkpt>
      <trkpt lat="44.87332" lon="5.78068">
        <ele>664</ele>
        <time>2017-11-22T16:46:16Z</time>
      </trkpt>
      <trkpt lat="44.87332" lon="5.7806">
        <ele>664</ele>
        <time>2017-11-22T16:46:30Z</time>
      </trkpt>
      <trkpt lat="44.8733" lon="5.78053">
        <ele>664</ele>
        <time>2017-11-22T16:46:47Z</time>
      </trkpt>
      <trkpt lat="44.87327" lon="5.78049">
        <ele>664</ele>
        <time>2017-11-22T16:47:07Z</time>
      </trkpt>
      <trkpt lat="44.87319" lon="5.78047">
        <ele>665</ele>
        <time>2017-11-22T16:47:09Z</time>
      </trkpt>
      <trkpt lat="44.87282" lon="5.78053">
        <ele>670</ele>
        <time>2017-11-22T16:47:21Z</time>
      </trkpt>
      <trkpt lat="44.8725" lon="5.78062">
        <ele>677</ele>
        <time>2017-11-22T16:47:25Z</time>
      </trkpt>
      <trkpt lat="44.87237" lon="5.78069">
        <ele>684</ele>
        <time>2017-11-22T16:47:34Z</time>
      </trkpt>
      <trkpt lat="44.87194" lon="5.78086">
        <ele>704</ele>
        <time>2017-11-22T16:47:42Z</time>
      </trkpt>
      <trkpt lat="44.87176" lon="5.7809">
        <ele>700</ele>
        <time>2017-11-22T16:47:46Z</time>
      </trkpt>
      <trkpt lat="44.8716" lon="5.78089">
        <ele>701</ele>
        <time>2017-11-22T16:48:05Z</time>
      </trkpt>
      <trkpt lat="44.87136" lon="5.78082">
        <ele>690</ele>
        <time>2017-11-22T16:48:23Z</time>
      </trkpt>
      <trkpt lat="44.87068" lon="5.78055">
        <ele>708</ele>
        <time>2017-11-22T16:48:37Z</time>
      </trkpt>
      <trkpt lat="44.87055" lon="5.78043">
        <ele>708</ele>
        <time>2017-11-22T16:48:41Z</time>
      </trkpt>
      <trkpt lat="44.87043" lon="5.78029">
        <ele>709</ele>
        <time>2017-11-22T16:48:50Z</time>
      </trkpt>
      <trkpt lat="44.87007" lon="5.77966">
        <ele>697</ele>
        <time>2017-11-22T16:48:59Z</time>
      </trkpt>
      <trkpt lat="44.86987" lon="5.77924">
        <ele>704</ele>
        <time>2017-11-22T16:49:01Z</time>
      </trkpt>
      <trkpt lat="44.86974" lon="5.77901">
        <ele>693</ele>
        <time>2017-11-22T16:49:21Z</time>
      </trkpt>
      <trkpt lat="44.86963" lon="5.77891">
        <ele>692</ele>
        <time>2017-11-22T16:49:34Z</time>
      </trkpt>
      <trkpt lat="44.86953" lon="5.77888">
        <ele>693</ele>
        <time>2017-11-22T16:49:45Z</time>
      </trkpt>
      <trkpt lat="44.86939" lon="5.77891">
        <ele>695</ele>
        <time>2017-11-22T16:49:52Z</time>
      </trkpt>
      <trkpt lat="44.86917" lon="5.77905">
        <ele>702</ele>
        <time>2017-11-22T16:50:04Z</time>
      </trkpt>
      <trkpt lat="44.86867" lon="5.77935">
        <ele>713</ele>
        <time>2017-11-22T16:50:08Z</time>
      </trkpt>
      <trkpt lat="44.8681" lon="5.77955">
        <ele>708</ele>
        <time>2017-11-22T16:50:19Z</time>
      </trkpt>
      <trkpt lat="44.86801" lon="5.7796">
        <ele>709</ele>
        <time>2017-11-22T16:50:35Z</time>
      </trkpt>
      <trkpt lat="44.86795" lon="5.77967">
        <ele>709</ele>
        <time>2017-11-22T16:50:48Z</time>
      </trkpt>
      <trkpt lat="44.86761" lon="5.78">
        <ele>719</ele>
        <time>2017-11-22T16:50:56Z</time>
      </trkpt>
      <trkpt lat="44.8673" lon="5.78022">
        <ele>724</ele>
        <time>2017-11-22T16:51:12Z</time>
      </trkpt>
      <trkpt lat="44.86715" lon="5.78027">
        <ele>727</ele>
        <time>2017-11-22T16:51:26Z</time>
      </trkpt>
      <trkpt lat="44.86698" lon="5.78027">
        <ele>728</ele>
        <time>2017-11-22T16:51:41Z</time>
      </trkpt>
      <trkpt lat="44.86682" lon="5.7802">
        <ele>728</ele>
        <time>2017-11-22T16:51:49Z</time>
      </trkpt>
      <trkpt lat="44.86676" lon="5.78011">
        <ele>728</ele>
        <time>2017-11-22T16:51:52Z</time>
      </trkpt>
      <trkpt lat="44.86671" lon="5.77997">
        <ele>725</ele>
        <time>2017-11-22T16:52:10Z</time>
      </trkpt>
      <trkpt lat="44.86661" lon="5.7797">
        <ele>737</ele>
        <time>2017-11-22T16:52:26Z</time>
      </trkpt>
      <trkpt lat="44.86633" lon="5.77911">
        <ele>730</ele>
        <time>2017-11-22T16:52:38Z</time>
      </trkpt>
      <trkpt lat="44.86627" lon="5.77883">
        <ele>731</ele>
        <time>2017-11-22T16:52:58Z</time>
      </trkpt>
      <trkpt lat="44.86621" lon="5.77851">
        <ele>730</ele>
        <time>2017-11-22T16:53:13Z</time>
      </trkpt>
      <trkpt lat="44.86613" lon="5.77833">
        <ele>723</ele>
        <time>2017-11-22T16:53:24Z</time>
      </trkpt>
      <trkpt lat="44.86604" lon="5.77825">
        <ele>726</ele>
        <time>2017-11-22T16:53:35Z</time>
      </trkpt>
      <trkpt lat="44.86582" lon="5.77816">
        <ele>740</ele>
        <time>2017-11-22T16:53:53Z</time>
      </trkpt>
      <trkpt lat="44.86541" lon="5.778">
        <ele>743</ele>
        <time>2017-11-22T16:53:55Z</time>
      </trkpt>
      <trkpt lat="44.86519" lon="5.77783">
        <ele>742</ele>
        <time>2017-11-22T16:54:04Z</time>
      </trkpt>
      <trkpt lat="44.86509" lon="5.77767">
        <ele>740</ele>
        <time>2017-11-22T16:54:23Z</time>
      </trkpt>
      <trkpt lat="44.865" lon="5.77734">
        <ele>733</ele>
        <time>2017-11-22T16:54:28Z</time>
      </trkpt>
      <trkpt lat="44.8649" lon="5.77686">
        <ele>740</ele>
        <time>2017-11-22T16:54:35Z</time>
      </trkpt>
      <trkpt lat="44.86478" lon="5.77651">
        <ele>740</ele>
        <time>2017-11-22T16:54:51Z</time>
      </trkpt>
      <trkpt lat="44.86453" lon="5.77615">
        <ele>744</ele>
        <time>2017-11-22T16:55:11Z</time>
      </trkpt>
      <trkpt lat="44.86438" lon="5.77588">
        <ele>747</ele>
        <time>2017-11-22T16:55:30Z</time>
      </trkpt>
      <trkpt lat="44.86431" lon="5.7755">
        <ele>743</ele>
        <time>2017-11-22T16:55:36Z</time>
      </trkpt>
      <trkpt lat="44.86418" lon="5.77505">
        <ele>742</ele>
        <time>2017-11-22T16:55:47Z</time>
      </trkpt>
      <trkpt lat="44.86374" lon="5.77414">
        <ele>743</ele>
        <time>2017-11-22T16:55:51Z</time>
      </trkpt>
      <trkpt lat="44.86357" lon="5.77388">
        <ele>744</ele>
        <time>2017-11-22T16:56:09Z</time>
      </trkpt>
      <trkpt lat="44.86323" lon="5.77346">
        <ele>755</ele>
        <time>2017-11-22T16:56:25Z</time>
      </trkpt>
      <trkpt lat="44.86298" lon="5.77315">
        <ele>756</ele>
        <time>2017-11-22T16:56:40Z</time>
      </trkpt>
      <trkpt lat="44.8629" lon="5.77299">
        <ele>756</ele>
        <time>2017-11-22T16:56:45Z</time>
      </trkpt>
      <trkpt lat="44.86268" lon="5.77236">
        <ele>756</ele>
        <time>2017-11-22T16:57:05Z</time>
      </trkpt>
      <trkpt lat="44.86252" lon="5.7718">
        <ele>758</ele>
        <time>2017-11-22T16:57:21Z</time>
      </trkpt>
      <trkpt lat="44.86241" lon="5.77157">
        <ele>766</ele>
        <time>2017-11-22T16:57:23Z</time>
      </trkpt>
      <trkpt lat="44.86211" lon="5.77114">
        <ele>769</ele>
        <time>2017-11-22T16:57:42Z</time>
      </trkpt>
      <trkpt lat="44.86204" lon="5.77092">
        <ele>769</ele>
        <time>2017-11-22T16:57:59Z</time>
      </trkpt>
      <trkpt lat="44.86201" lon="5.77068">
        <ele>769</ele>
        <time>2017-11-22T16:58:12Z</time>
      </trkpt>
      <trkpt lat="44.86207" lon="5.76994">
        <ele>769</ele>
        <time>2017-11-22T16:58:17Z</time>
      </trkpt>
      <trkpt lat="44.86202" lon="5.76971">
        <ele>769</ele>
        <time>2017-11-22T16:58:35Z</time>
      </trkpt>
      <trkpt lat="44.86191" lon="5.76952">
        <ele>770</ele>
        <time>2017-11-22T16:58:45Z</time>
      </trkpt>
      <trkpt lat="44.86158" lon="5.76908">
        <ele>781</ele>
        <time>2017-11-22T16:58:56Z</time>
      </trkpt>
      <trkpt lat="44.86153" lon="5.76895">
        <ele>783</ele>
        <time>2017-11-22T16:58:58Z</time>
      </trkpt>
      <trkpt lat="44.8615" lon="5.76869">
        <ele>784</ele>
        <time>2017-11-22T16:59:17Z</time>
      </trkpt>
      <trkpt lat="44.86164" lon="5.76763">
        <ele>785</ele>
        <time>2017-11-22T16:59:28Z</time>
      </trkpt>
      <trkpt lat="44.86172" lon="5.76709">
        <ele>777</ele>
        <time>2017-11-22T16:59:31Z</time>
      </trkpt>
      <trkpt lat="44.86173" lon="5.76682">
        <ele>780</ele>
        <time>2017-11-22T16:59:36Z</time>
      </trkpt>
      <trkpt lat="44.86169" lon="5.76665">
        <ele>785</ele>
        <time>2017-11-22T16:59:39Z</time>
      </trkpt>
      <trkpt lat="44.86158" lon="5.7665">
        <ele>784</ele>
        <time>2017-11-22T16:59:55Z</time>
      </trkpt>
      <trkpt lat="44.86139" lon="5.76644">
        <ele>784</ele>
        <time>2017-11-22T17:00:08Z</time>
      </trkpt>
      <trkpt lat="44.86127" lon="5.76648">
        <ele>784</ele>
        <time>2017-11-22T17:00:22Z</time>
      </trkpt>
      <trkpt lat="44.86121" lon="5.76653">
        <ele>785</ele>
        <time>2017-11-22T17:00:42Z</time>
      </trkpt>
      <trkpt lat="44.86104" lon="5.76676">
        <ele>790</ele>
        <time>2017-11-22T17:00:55Z</time>
      </trkpt>
      <trkpt lat="44.86081" lon="5.76703">
        <ele>794</ele>
        <time>2017-11-22T17:01:09Z</time>
      </trkpt>
      <trkpt lat="44.86063" lon="5.76708">
        <ele>795</ele>
        <time>2017-11-22T17:01:28Z</time>
      </trkpt>
      <trkpt lat="44.86" lon="5.7671">
        <ele>798</ele>
        <time>2017-11-22T17:01:45Z</time>
      </trkpt>
      <trkpt lat="44.85962" lon="5.76704">
        <ele>799</ele>
        <time>2017-11-22T17:01:50Z</time>
      </trkpt>
      <trkpt lat="44.85918" lon="5.76688">
        <ele>800</ele>
        <time>2017-11-22T17:01:57Z</time>
      </trkpt>
      <trkpt lat="44.85895" lon="5.76683">
        <ele>805</ele>
        <time>2017-11-22T17:02:10Z</time>
      </trkpt>
      <trkpt lat="44.85857" lon="5.76671">
        <ele>808</ele>
        <time>2017-11-22T17:02:20Z</time>
      </trkpt>
      <trkpt lat="44.8584" lon="5.7666">
        <ele>808</ele>
        <time>2017-11-22T17:02:29Z</time>
      </trkpt>
      <trkpt lat="44.85824" lon="5.7664">
        <ele>813</ele>
        <time>2017-11-22T17:02:35Z</time>
      </trkpt>
      <trkpt lat="44.85807" lon="5.76612">
        <ele>813</ele>
        <time>2017-11-22T17:02:44Z</time>
      </trkpt>
      <trkpt lat="44.85792" lon="5.76577">
        <ele>812</ele>
        <time>2017-11-22T17:02:48Z</time>
      </trkpt>
      <trkpt lat="44.85783" lon="5.76551">
        <ele>812</ele>
        <time>2017-11-22T17:03:04Z</time>
      </trkpt>
      <trkpt lat="44.85778" lon="5.76524">
        <ele>813</ele>
        <time>2017-11-22T17:03:23Z</time>
      </trkpt>
      <trkpt lat="44.85774" lon="5.76469">
        <ele>812</ele>
        <time>2017-11-22T17:03:25Z</time>
      </trkpt>
      <trkpt lat="44.8577" lon="5.76444">
        <ele>813</ele>
        <time>2017-11-22T17:03:38Z</time>
      </trkpt>
      <trkpt lat="44.85765" lon="5.76431">
        <ele>813</ele>
        <time>2017-11-22T17:03:55Z</time>
      </trkpt>
      <trkpt lat="44.85749" lon="5.76413">
        <ele>817</ele>
        <time>2017-11-22T17:04:10Z</time>
      </trkpt>
      <trkpt lat="44.85742" lon="5.76407">
        <ele>817</ele>
        <time>2017-11-22T17:04:25Z</time>
      </trkpt>
      <trkpt lat="44.85702" lon="5.76388">
        <ele>817</ele>
        <time>2017-11-22T17:04:38Z</time>
      </trkpt>
      <trkpt lat="44.856" lon="5.76333">
        <ele>820</ele>
        <time>2017-11-22T17:04:48Z</time>
      </trkpt>
      <trkpt lat="44.85511" lon="5.76281">
        <ele>821</ele>
        <time>2017-11-22T17:05:08Z</time>
      </trkpt>
      <trkpt lat="44.85461" lon="5.76251">
        <ele>822</ele>
        <time>2017-11-22T17:05:28Z</time>
      </trkpt>
      <trkpt lat="44.8542" lon="5.76227">
        <ele>822</ele>
        <time>2017-11-22T17:05:31Z</time>
      </trkpt>
      <trkpt lat="44.85386" lon="5.76205">
        <ele>822</ele>
        <time>2017-11-22T17:05:48Z</time>
      </trkpt>
      <trkpt lat="44.85365" lon="5.76195">
        <ele>822</ele>
        <time>2017-11-22T17:06:02Z</time>
      </trkpt>
      <trkpt lat="44.85354" lon="5.76193">
        <ele>822</ele>
        <time>2017-11-22T17:06:21Z</time>
      </trkpt>
      <trkpt lat="44.85347" lon="5.76195">
        <ele>822</ele>
        <time>2017-11-22T17:06:30Z</time>
      </trkpt>
      <trkpt lat="44.85319" lon="5.76211">
        <ele>822</ele>
        <time>2017-11-22T17:06:35Z</time>
      </trkpt>
      <trkpt lat="44.8531" lon="5.76216">
        <ele>822</ele>
        <time>2017-11-22T17:06:42Z</time>
      </trkpt>
      <trkpt lat="44.85313" lon="5.76226">
        <ele>822</ele>
        <time>2017-11-22T17:07:00Z</time>
      </trkpt>
      <trkpt lat="44.85312" lon="5.76264">
        <ele>822</ele>
        <time>2017-11-22T17:07:11Z</time>
      </trkpt>
      <trkpt lat="44.85312" lon="5.76271">
        <ele>821</ele>
        <time>2017-11-22T17:07:31Z</time>
      </trkpt>
      <trkpt lat="44.85326" lon="5.7627">
        <ele>822</ele>
        <time>2017-11-22T17:07:35Z</time>
      </trkpt>
      <trkpt lat="44.85345" lon="5.76269">
        <ele>822</ele>
        <time>2017-11-22T17:07:43Z</time>
      </trkpt>
      <trkpt lat="44.8537" lon="5.76256">
        <ele>822</ele>
        <time>2017-11-22T17:07:57Z</time>
      </trkpt>
      <trkpt lat="44.85345" lon="5.76269">
        <ele>822</ele>
        <time>2017-11-22T17:08:01Z</time>
      </trkpt>
      <trkpt lat="44.85326" lon="5.7627">
        <ele>822</ele>
        <time>2017-11-22T17:08:11Z</time>
      </trkpt>
      <trkpt lat="44.85312" lon="5.76271">
        <ele>821</ele>
        <time>2017-11-22T17:08:16Z</time>
      </trkpt>
      <trkpt lat="44.85312" lon="5.76264">
        <ele>822</ele>
        <time>2017-11-22T17:08:23Z</time>
      </trkpt>
      <trkpt lat="44.85313" lon="5.76226">
        <ele>822</ele>
        <time>2017-11-22T17:08:30Z</time>
      </trkpt>
      <trkpt lat="44.8531" lon="5.76216">
        <ele>822</ele>
        <time>2017-11-22T17:08:33Z</time>
      </trkpt>
      <trkpt lat="44.85304" lon="5.76219">
        <ele>822</ele>
        <time>2017-11-22T17:08:52Z</time>
      </trkpt>
      <trkpt lat="44.85292" lon="5.76226">
        <ele>822</ele>
        <time>2017-11-22T17:09:04Z</time>
      </trkpt>
      <trkpt lat="44.8528" lon="5.76233">
        <ele>822</ele>
        <time>2017-11-22T17:09:14Z</time>
      </trkpt>
      <trkpt lat="44.85254" lon="5.76248">
        <ele>821</ele>
        <time>2017-11-22T17:09:26Z</time>
      </trkpt>
      <trkpt lat="44.85202" lon="5.76278">
        <ele>820</ele>
        <time>2017-11-22T17:09:34Z</time>
      </trkpt>
      <trkpt lat="44.85148" lon="5.76309">
        <ele>820</ele>
        <time>2017-11-22T17:09:51Z</time>
      </trkpt>
      <trkpt lat="44.85101" lon="5.76336">
        <ele>821</ele>
        <time>2017-11-22T17:09:59Z</time>
      </trkpt>
      <trkpt lat="44.84993" lon="5.76397">
        <ele>818</ele>
        <time>2017-11-22T17:10:02Z</time>
      </trkpt>
      <trkpt lat="44.84912" lon="5.76443">
        <ele>811</ele>
        <time>2017-11-22T17:10:17Z</time>
      </trkpt>
      <trkpt lat="44.84891" lon="5.76458">
        <ele>810</ele>
        <time>2017-11-22T17:10:23Z</time>
      </trkpt>
      <trkpt lat="44.84869" lon="5.76477">
        <ele>810</ele>
        <time>2017-11-22T17:10:33Z</time>
      </trkpt>
      <trkpt lat="44.84848" lon="5.76501">
        <ele>810</ele>
        <time>2017-11-22T17:10:43Z</time>
      </trkpt>
      <trkpt lat="44.84828" lon="5.76527">
        <ele>808</ele>
        <time>2017-11-22T17:10:52Z</time>
      </trkpt>
      <trkpt lat="44.84793" lon="5.7659">
        <ele>809</ele>
        <time>2017-11-22T17:10:55Z</time>
      </trkpt>
      <trkpt lat="44.84777" lon="5.76616">
        <ele>809</ele>
        <time>2017-11-22T17:11:02Z</time>
      </trkpt>
      <trkpt lat="44.84769" lon="5.76627">
        <ele>809</ele>
        <time>2017-11-22T17:11:17Z</time>
      </trkpt>
      <trkpt lat="44.84756" lon="5.76633">
        <ele>809</ele>
        <time>2017-11-22T17:11:21Z</time>
      </trkpt>
      <trkpt lat="44.84744" lon="5.76638">
        <ele>812</ele>
        <time>2017-11-22T17:11:37Z</time>
      </trkpt>
      <trkpt lat="44.8473" lon="5.76641">
        <ele>813</ele>
        <time>2017-11-22T17:11:46Z</time>
      </trkpt>
      <trkpt lat="44.84701" lon="5.76635">
        <ele>815</ele>
        <time>2017-11-22T17:11:53Z</time>
      </trkpt>
      <trkpt lat="44.84678" lon="5.76619">
        <ele>815</ele>
        <time>2017-11-22T17:12:01Z</time>
      </trkpt>
      <trkpt lat="44.84653" lon="5.76592">
        <ele>818</ele>
        <time>2017-11-22T17:12:09Z</time>
      </trkpt>
      <trkpt lat="44.8461" lon="5.76542">
        <ele>813</ele>
        <time>2017-11-22T17:12:27Z</time>
      </trkpt>
      <trkpt lat="44.84586" lon="5.76516">
        <ele>811</ele>
        <time>2017-11-22T17:12:36Z</time>
      </trkpt>
      <trkpt lat="44.84562" lon="5.76483">
        <ele>815</ele>
        <time>2017-11-22T17:12:55Z</time>
      </trkpt>
      <trkpt lat="44.84544" lon="5.76445">
        <ele>816</ele>
        <time>2017-11-22T17:13:02Z</time>
      </trkpt>
      <trkpt lat="44.84531" lon="5.76404">
        <ele>816</ele>
        <time>2017-11-22T17:13:21Z</time>
      </trkpt>
      <trkpt lat="44.84525" lon="5.76371">
        <ele>816</ele>
        <time>2017-11-22T17:13:27Z</time>
      </trkpt>
      <trkpt lat="44.84521" lon="5.76331">
        <ele>818</ele>
        <time>2017-11-22T17:13:32Z</time>
      </trkpt>
      <trkpt lat="44.84518" lon="5.76293">
        <ele>818</ele>
        <time>2017-11-22T17:13:39Z</time>
      </trkpt>
      <trkpt lat="44.84515" lon="5.76277">
        <ele>818</ele>
        <time>2017-11-22T17:13:45Z</time>
      </trkpt>
      <trkpt lat="44.84503" lon="5.76237">
        <ele>819</ele>
        <time>2017-11-22T17:13:59Z</time>
      </trkpt>
      <trkpt lat="44.84493" lon="5.76217">
        <ele>823</ele>
        <time>2017-11-22T17:14:02Z</time>
      </trkpt>
      <trkpt lat="44.84479" lon="5.76198">
        <ele>823</ele>
        <time>2017-11-22T17:14:11Z</time>
      </trkpt>
      <trkpt lat="44.84448" lon="5.76165">
        <ele>821</ele>
        <time>2017-11-22T17:14:28Z</time>
      </trkpt>
      <trkpt lat="44.84421" lon="5.76138">
        <ele>821</ele>
        <time>2017-11-22T17:14:46Z</time>
      </trkpt>
      <trkpt lat="44.84398" lon="5.76104">
        <ele>824</ele>
        <time>2017-11-22T17:14:52Z</time>
      </trkpt>
      <trkpt lat="44.84363" lon="5.76042">
        <ele>819</ele>
        <time>2017-11-22T17:15:08Z</time>
      </trkpt>
      <trkpt lat="44.84343" lon="5.76015">
        <ele>819</ele>
        <time>2017-11-22T17:15:13Z</time>
      </trkpt>
      <trkpt lat="44.84321" lon="5.75992">
        <ele>821</ele>
        <time>2017-11-22T17:15:29Z</time>
      </trkpt>
      <trkpt lat="44.84246" lon="5.75928">
        <ele>832</ele>
        <time>2017-11-22T17:15:46Z</time>
      </trkpt>
      <trkpt lat="44.84195" lon="5.75886">
        <ele>830</ele>
        <time>2017-11-22T17:15:56Z</time>
      </trkpt>
      <trkpt lat="44.84158" lon="5.75853">
        <ele>835</ele>
        <time>2017-11-22T17:16:15Z</time>
      </trkpt>
      <trkpt lat="44.84129" lon="5.7583">
        <ele>827</ele>
        <time>2017-11-22T17:16:19Z</time>
      </trkpt>
      <trkpt lat="44.84114" lon="5.7582">
        <ele>828</ele>
        <time>2017-11-22T17:16:25Z</time>
      </trkpt>
      <trkpt lat="44.84099" lon="5.75814">
        <ele>829</ele>
        <time>2017-11-22T17:16:27Z</time>
      </trkpt>
      <trkpt lat="44.84066" lon="5.75809">
        <ele>832</ele>
        <time>2017-11-22T17:16:45Z</time>
      </trkpt>
      <trkpt lat="44.84004" lon="5.75814">
        <ele>834</ele>
        <time>2017-11-22T17:16:49Z</time>
      </trkpt>
      <trkpt lat="44.8399" lon="5.75811">
        <ele>839</ele>
        <time>2017-11-22T17:17:03Z</time>
      </trkpt>
      <trkpt lat="44.83977" lon="5.75806">
        <ele>840</ele>
        <time>2017-11-22T17:17:23Z</time>
      </trkpt>
      <trkpt lat="44.83965" lon="5.75797">
        <ele>841</ele>
        <time>2017-11-22T17:17:29Z</time>
      </trkpt>
      <trkpt lat="44.83956" lon="5.75784">
        <ele>842</ele>
        <time>2017-11-22T17:17:41Z</time>
      </trkpt>
      <trkpt lat="44.8395" lon="5.75768">
        <ele>842</ele>
        <time>2017-11-22T17:17:57Z</time>
      </trkpt>
      <trkpt lat="44.83946" lon="5.75746">
        <ele>847</ele>
        <time>2017-11-22T17:18:07Z</time>
      </trkpt>
      <trkpt lat="44.8395" lon="5.75714">
        <ele>847</ele>
        <time>2017-11-22T17:18:23Z</time>
      </trkpt>
      <trkpt lat="44.83957" lon="5.75695">
        <ele>847</ele>
        <time>2017-11-22T17:18:34Z</time>
      </trkpt>
      <trkpt lat="44.83965" lon="5.75678">
        <ele>847</ele>
        <time>2017-11-22T17:18:37Z</time>
      </trkpt>
      <trkpt lat="44.83985" lon="5.75641">
        <ele>851</ele>
        <time>2017-11-22T17:18:50Z</time>
      </trkpt>
      <trkpt lat="44.84018" lon="5.75582">
        <ele>848</ele>
        <time>2017-11-22T17:18:55Z</time>
      </trkpt>
      <trkpt lat="44.84063" lon="5.75506">
        <ele>846</ele>
        <time>2017-11-22T17:19:04Z</time>
      </trkpt>
      <trkpt lat="44.84076" lon="5.75492">
        <ele>851</ele>
        <time>2017-11-22T17:19:09Z</time>
      </trkpt>
      <trkpt lat="44.8409" lon="5.75481">
        <ele>848</ele>
        <time>2017-11-22T17:19:13Z</time>
      </trkpt>
      <trkpt lat="44.84121" lon="5.75468">
        <ele>848</ele>
        <time>2017-11-22T17:19:30Z</time>
      </trkpt>
      <trkpt lat="44.84143" lon="5.75459">
        <ele>848</ele>
        <time>2017-11-22T17:19:44Z</time>
      </trkpt>
      <trkpt lat="44.84157" lon="5.75449">
        <ele>849</ele>
        <time>2017-11-22T17:19:48Z</time>
      </trkpt>
      <trkpt lat="44.8417" lon="5.75437">
        <ele>840</ele>
        <time>2017-11-22T17:19:56Z</time>
      </trkpt>
      <trkpt lat="44.84182" lon="5.75421">
        <ele>842</ele>
        <time>2017-11-22T17:20:06Z</time>
      </trkpt>
      <trkpt lat="44.84191" lon="5.75403">
        <ele>848</ele>
        <time>2017-11-22T17:20:10Z</time>
      </trkpt>
      <trkpt lat="44.84205" lon="5.75362">
        <ele>848</ele>
        <time>2017-11-22T17:20:22Z</time>
      </trkpt>
      <trkpt lat="44.84212" lon="5.75318">
        <ele>852</ele>
        <time>2017-11-22T17:20:33Z</time>
      </trkpt>
      <trkpt lat="44.84212" lon="5.75271">
        <ele>852</ele>
        <time>2017-11-22T17:20:47Z</time>
      </trkpt>
      <trkpt lat="44.84206" lon="5.75224">
        <ele>850</ele>
        <time>2017-11-22T17:21:00Z</time>
      </trkpt>
      <trkpt lat="44.84194" lon="5.75178">
        <ele>852</ele>
        <time>2017-11-22T17:21:09Z</time>
      </trkpt>
      <trkpt lat="44.84168" lon="5.7509">
        <ele>850</ele>
        <time>2017-11-22T17:21:19Z</time>
      </trkpt>
      <trkpt lat="44.84153" lon="5.7505">
        <ele>862</ele>
        <time>2017-11-22T17:21:25Z</time>
      </trkpt>
      <trkpt lat="44.84133" lon="5.75016">
        <ele>864</ele>
        <time>2017-11-22T17:21:45Z</time>
      </trkpt>
      <trkpt lat="44.84124" lon="5.75001">
        <ele>866</ele>
        <time>2017-11-22T17:22:01Z</time>
      </trkpt>
      <trkpt lat="44.84117" lon="5.74987">
        <ele>871</ele>
        <time>2017-11-22T17:22:05Z</time>
      </trkpt>
      <trkpt lat="44.84115" lon="5.74972">
        <ele>872</ele>
        <time>2017-11-22T17:22:24Z</time>
      </trkpt>
      <trkpt lat="44.84118" lon="5.74957">
        <ele>872</ele>
        <time>2017-11-22T17:22:44Z</time>
      </trkpt>
      <trkpt lat="44.84124" lon="5.74946">
        <ele>872</ele>
        <time>2017-11-22T17:22:51Z</time>
      </trkpt>
      <trkpt lat="44.84133" lon="5.74938">
        <ele>871</ele>
        <time>2017-11-22T17:22:55Z</time>
      </trkpt>
      <trkpt lat="44.84156" lon="5.74934">
        <ele>868</ele>
        <time>2017-11-22T17:23:03Z</time>
      </trkpt>
      <trkpt lat="44.84182" lon="5.74927">
        <ele>856</ele>
        <time>2017-11-22T17:23:16Z</time>
      </trkpt>
      <trkpt lat="44.84211" lon="5.74913">
        <ele>869</ele>
        <time>2017-11-22T17:23:33Z</time>
      </trkpt>
      <trkpt lat="44.84273" lon="5.7488">
        <ele>857</ele>
        <time>2017-11-22T17:23:45Z</time>
      </trkpt>
      <trkpt lat="44.84287" lon="5.74871">
        <ele>857</ele>
        <time>2017-11-22T17:23:58Z</time>
      </trkpt>
      <trkpt lat="44.843" lon="5.74859">
        <ele>856</ele>
        <time>2017-11-22T17:24:03Z</time>
      </trkpt>
      <trkpt lat="44.84309" lon="5.74844">
        <ele>856</ele>
        <time>2017-11-22T17:24:18Z</time>
      </trkpt>
      <trkpt lat="44.84317" lon="5.74826">
        <ele>866</ele>
        <time>2017-11-22T17:24:23Z</time>
      </trkpt>
      <trkpt lat="44.84325" lon="5.74784">
        <ele>873</ele>
        <time>2017-11-22T17:24:40Z</time>
      </trkpt>
      <trkpt lat="44.84329" lon="5.74736">
        <ele>878</ele>
        <time>2017-11-22T17:25:00Z</time>
      </trkpt>
      <trkpt lat="44.84332" lon="5.74631">
        <ele>893</ele>
        <time>2017-11-22T17:25:12Z</time>
      </trkpt>
      <trkpt lat="44.84336" lon="5.74582">
        <ele>881</ele>
        <time>2017-11-22T17:25:29Z</time>
      </trkpt>
      <trkpt lat="44.84342" lon="5.7456">
        <ele>875</ele>
        <time>2017-11-22T17:25:38Z</time>
      </trkpt>
      <trkpt lat="44.84351" lon="5.74539">
        <ele>875</ele>
        <time>2017-11-22T17:25:40Z</time>
      </trkpt>
      <trkpt lat="44.84371" lon="5.74498">
        <ele>883</ele>
        <time>2017-11-22T17:25:43Z</time>
      </trkpt>
      <trkpt lat="44.84392" lon="5.74457">
        <ele>880</ele>
        <time>2017-11-22T17:25:57Z</time>
      </trkpt>
      <trkpt lat="44.84409" lon="5.74413">
        <ele>878</ele>
        <time>2017-11-22T17:26:10Z</time>
      </trkpt>
      <trkpt lat="44.84416" lon="5.7439">
        <ele>885</ele>
        <time>2017-11-22T17:26:20Z</time>
      </trkpt>
      <trkpt lat="44.84421" lon="5.74365">
        <ele>865</ele>
        <time>2017-11-22T17:26:22Z</time>
      </trkpt>
      <trkpt lat="44.84426" lon="5.74314">
        <ele>871</ele>
        <time>2017-11-22T17:26:32Z</time>
      </trkpt>
      <trkpt lat="44.84432" lon="5.74262">
        <ele>871</ele>
        <time>2017-11-22T17:26:49Z</time>
      </trkpt>
      <trkpt lat="44.84444" lon="5.74212">
        <ele>867</ele>
        <time>2017-11-22T17:26:58Z</time>
      </trkpt>
      <trkpt lat="44.84457" lon="5.74167">
        <ele>866</ele>
        <time>2017-11-22T17:27:00Z</time>
      </trkpt>
      <trkpt lat="44.84467" lon="5.74129">
        <ele>865</ele>
        <time>2017-11-22T17:27:13Z</time>
      </trkpt>
      <trkpt lat="44.84468" lon="5.74113">
        <ele>865</ele>
        <time>2017-11-22T17:27:32Z</time>
      </trkpt>
      <trkpt lat="44.84465" lon="5.74099">
        <ele>865</ele>
        <time>2017-11-22T17:27:35Z</time>
      </trkpt>
      <trkpt lat="44.84458" lon="5.74087">
        <ele>865</ele>
        <time>2017-11-22T17:27:53Z</time>
      </trkpt>
      <trkpt lat="44.84448" lon="5.74081">
        <ele>861</ele>
        <time>2017-11-22T17:28:11Z</time>
      </trkpt>
      <trkpt lat="44.84438" lon="5.74082">
        <ele>862</ele>
        <time>2017-11-22T17:28:31Z</time>
      </trkpt>
      <trkpt lat="44.84429" lon="5.74089">
        <ele>865</ele>
        <time>2017-11-22T17:28:33Z</time>
      </trkpt>
      <trkpt lat="44.84414" lon="5.74123">
        <ele>867</ele>
        <time>2017-11-22T17:28:44Z</time>
      </trkpt>
      <trkpt lat="44.84401" lon="5.74144">
        <ele>869</ele>
        <time>2017-11-22T17:28:58Z</time>
      </trkpt>
      <trkpt lat="44.8439" lon="5.74158">
        <ele>869</ele>
        <time>2017-11-22T17:29:11Z</time>
      </trkpt>
      <trkpt lat="44.84367" lon="5.74181">
        <ele>876</ele>
        <time>2017-11-22T17:29:25Z</time>
      </trkpt>
      <trkpt lat="44.84341" lon="5.742">
        <ele>877</ele>
        <time>2017-11-22T17:29:34Z</time>
      </trkpt>
      <trkpt lat="44.84313" lon="5.74217">
        <ele>881</ele>
        <time>2017-11-22T17:29:37Z</time>
      </trkpt>
      <trkpt lat="44.84283" lon="5.74231">
        <ele>884</ele>
        <time>2017-11-22T17:29:52Z</time>
      </trkpt>
      <trkpt lat="44.84269" lon="5.74232">
        <ele>885</ele>
        <time>2017-11-22T17:30:06Z</time>
      </trkpt>
      <trkpt lat="44.84256" lon="5.74227">
        <ele>885</ele>
        <time>2017-11-22T17:30:14Z</time>
      </trkpt>
      <trkpt lat="44.84245" lon="5.74217">
        <ele>890</ele>
        <time>2017-11-22T17:30:16Z</time>
      </trkpt>
      <trkpt lat="44.84236" lon="5.74201">
        <ele>888</ele>
        <time>2017-11-22T17:30:28Z</time>
      </trkpt>
      <trkpt lat="44.84223" lon="5.74165">
        <ele>881</ele>
        <time>2017-11-22T17:30:46Z</time>
      </trkpt>
      <trkpt lat="44.84204" lon="5.74135">
        <ele>881</ele>
        <time>2017-11-22T17:30:57Z</time>
      </trkpt>
      <trkpt lat="44.84174" lon="5.74093">
        <ele>880</ele>
        <time>2017-11-22T17:31:00Z</time>
      </trkpt>
      <trkpt lat="44.84156" lon="5.74071">
        <ele>881</ele>
        <time>2017-11-22T17:31:02Z</time>
      </trkpt>
      <trkpt lat="44.84134" lon="5.74049">
        <ele>882</ele>
        <time>2017-11-22T17:31:08Z</time>
      </trkpt>
      <trkpt lat="44.8412" lon="5.7404">
        <ele>883</ele>
        <time>2017-11-22T17:31:27Z</time>
      </trkpt>
      <trkpt lat="44.84106" lon="5.74033">
        <ele>883</ele>
        <time>2017-11-22T17:31:41Z</time>
      </trkpt>
      <trkpt lat="44.84075" lon="5.7402">
        <ele>893</ele>
        <time>2017-11-22T17:31:51Z</time>
      </trkpt>
      <trkpt lat="44.84045" lon="5.74005">
        <ele>899</ele>
        <time>2017-11-22T17:31:55Z</time>
      </trkpt>
      <trkpt lat="44.84032" lon="5.73992">
        <ele>890</ele>
        <time>2017-11-22T17:32:05Z</time>
      </trkpt>
      <trkpt lat="44.84021" lon="5.73976">
        <ele>890</ele>
        <time>2017-11-22T17:32:13Z</time>
      </trkpt>
      <trkpt lat="44.84001" lon="5.73941">
        <ele>887</ele>
        <time>2017-11-22T17:32:20Z</time>
      </trkpt>
      <trkpt lat="44.83978" lon="5.73908">
        <ele>888</ele>
        <time>2017-11-22T17:32:40Z</time>
      </trkpt>
      <trkpt lat="44.83967" lon="5.73893">
        <ele>888</ele>
        <time>2017-11-22T17:32:44Z</time>
      </trkpt>
      <trkpt lat="44.83954" lon="5.73882">
        <ele>889</ele>
        <time>2017-11-22T17:32:57Z</time>
      </trkpt>
      <trkpt lat="44.83924" lon="5.73864">
        <ele>889</ele>
        <time>2017-11-22T17:33:14Z</time>
      </trkpt>
      <trkpt lat="44.83895" lon="5.73847">
        <ele>895</ele>
        <time>2017-11-22T17:33:26Z</time>
      </trkpt>
      <trkpt lat="44.83868" lon="5.73828">
        <ele>885</ele>
        <time>2017-11-22T17:33:46Z</time>
      </trkpt>
      <trkpt lat="44.8384" lon="5.7381">
        <ele>886</ele>
        <time>2017-11-22T17:33:48Z</time>
      </trkpt>
      <trkpt lat="44.83825" lon="5.73805">
        <ele>889</ele>
        <time>2017-11-22T17:33:58Z</time>
      </trkpt>
      <trkpt lat="44.83809" lon="5.73802">
        <ele>888</ele>
        <time>2017-11-22T17:34:02Z</time>
      </trkpt>
      <trkpt lat="44.83778" lon="5.73798">
        <ele>889</ele>
        <time>2017-11-22T17:34:09Z</time>
      </trkpt>
      <trkpt lat="44.83748" lon="5.73792">
        <ele>892</ele>
        <time>2017-11-22T17:34:28Z</time>
      </trkpt>
      <trkpt lat="44.8373" lon="5.73786">
        <ele>892</ele>
        <time>2017-11-22T17:34:47Z</time>
      </trkpt>
      <trkpt lat="44.83715" lon="5.73778">
        <ele>892</ele>
        <time>2017-11-22T17:34:58Z</time>
      </trkpt>
      <trkpt lat="44.83683" lon="5.73756">
        <ele>892</ele>
        <time>2017-11-22T17:35:13Z</time>
      </trkpt>
      <trkpt lat="44.83715" lon="5.73778">
        <ele>892</ele>
        <time>2017-11-22T17:35:27Z</time>
      </trkpt>
      <trkpt lat="44.8373" lon="5.73786">
        <ele>892</ele>
        <time>2017-11-22T17:35:31Z</time>
      </trkpt>
      <trkpt lat="44.83742" lon="5.73791">
        <ele>892</ele>
        <time>2017-11-22T17:35:42Z</time>
      </trkpt>
      <trkpt lat="44.83737" lon="5.73777">
        <ele>891</ele>
        <time>2017-11-22T17:35:47Z</time>
      </trkpt>
      <trkpt lat="44.83712" lon="5.73759">
        <ele>891</ele>
        <time>2017-11-22T17:35:56Z</time>
      </trkpt>
      <trkpt lat="44.83691" lon="5.73744">
        <ele>886</ele>
        <time>2017-11-22T17:36:07Z</time>
      </trkpt>
      <trkpt lat="44.83662" lon="5.73716">
        <ele>890</ele>
        <time>2017-11-22T17:36:16Z</time>
      </trkpt>
      <trkpt lat="44.83647" lon="5.73695">
        <ele>889</ele>
        <time>2017-11-22T17:36:24Z</time>
      </trkpt>
      <trkpt lat="44.83634" lon="5.7367">
        <ele>889</ele>
        <time>2017-11-22T17:36:35Z</time>
      </trkpt>
      <trkpt lat="44.83622" lon="5.73601">
        <ele>886</ele>
        <time>2017-11-22T17:36:44Z</time>
      </trkpt>
      <trkpt lat="44.83621" lon="5.73571">
        <ele>884</ele>
        <time>2017-11-22T17:36:49Z</time>
      </trkpt>
      <trkpt lat="44.83622" lon="5.73556">
        <ele>884</ele>
        <time>2017-11-22T17:37:00Z</time>
      </trkpt>
      <trkpt lat="44.83625" lon="5.73543">
        <ele>884</ele>
        <time>2017-11-22T17:37:14Z</time>
      </trkpt>
      <trkpt lat="44.83631" lon="5.7353">
        <ele>883</ele>
        <time>2017-11-22T17:37:26Z</time>
      </trkpt>
      <trkpt lat="44.83641" lon="5.73514">
        <ele>883</ele>
        <time>2017-11-22T17:37:30Z</time>
      </trkpt>
      <trkpt lat="44.83707" lon="5.73438">
        <ele>879</ele>
        <time>2017-11-22T17:37:39Z</time>
      </trkpt>
      <trkpt lat="44.83741" lon="5.73397">
        <ele>879</ele>
        <time>2017-11-22T17:37:48Z</time>
      </trkpt>
      <trkpt lat="44.8376" lon="5.73377">
        <ele>876</ele>
        <time>2017-11-22T17:38:03Z</time>
      </trkpt>
      <trkpt lat="44.83788" lon="5.73354">
        <ele>876</ele>
        <time>2017-11-22T17:38:14Z</time>
      </trkpt>
      <trkpt lat="44.83821" lon="5.73335">
        <ele>876</ele>
        <time>2017-11-22T17:38:17Z</time>
      </trkpt>
      <trkpt lat="44.83846" lon="5.73323">
        <ele>878</ele>
        <time>2017-11-22T17:38:20Z</time>
      </trkpt>
      <trkpt lat="44.83873" lon="5.73309">
        <ele>879</ele>
        <time>2017-11-22T17:38:40Z</time>
      </trkpt>
      <trkpt lat="44.83899" lon="5.73296">
        <ele>878</ele>
        <time>2017-11-22T17:38:42Z</time>
      </trkpt>
      <trkpt lat="44.83925" lon="5.73288">
        <ele>877</ele>
        <time>2017-11-22T17:38:58Z</time>
      </trkpt>
      <trkpt lat="44.83953" lon="5.73288">
        <ele>877</ele>
        <time>2017-11-22T17:39:05Z</time>
      </trkpt>
      <trkpt lat="44.83981" lon="5.73296">
        <ele>877</ele>
        <time>2017-11-22T17:39:25Z</time>
      </trkpt>
      <trkpt lat="44.83994" lon="5.73303">
        <ele>877</ele>
        <time>2017-11-22T17:39:30Z</time>
      </trkpt>
      <trkpt lat="44.84005" lon="5.73312">
        <ele>877</ele>
        <time>2017-11-22T17:39:45Z</time>
      </trkpt>
      <trkpt lat="44.84023" lon="5.73338">
        <ele>870</ele>
        <time>2017-11-22T17:39:48Z</time>
      </trkpt>
      <trkpt lat="44.84038" lon="5.73366">
        <ele>868</ele>
        <time>2017-11-22T17:39:50Z</time>
      </trkpt>
      <trkpt lat="44.8405" lon="5.73381">
        <ele>867</ele>
        <time>2017-11-22T17:39:54Z</time>
      </trkpt>
      <trkpt lat="44.84055" lon="5.73384">
        <ele>867</ele>
        <time>2017-11-22T17:40:09Z</time>
      </trkpt>
      <trkpt lat="44.84064" lon="5.73386">
        <ele>866</ele>
        <time>2017-11-22T17:40:18Z</time>
      </trkpt>
      <trkpt lat="44.84074" lon="5.73384">
        <ele>867</ele>
        <time>2017-11-22T17:40:22Z</time>
      </trkpt>
      <trkpt lat="44.84083" lon="5.73379">
        <ele>867</ele>
        <time>2017-11-22T17:40:40Z</time>
      </trkpt>
      <trkpt lat="44.84102" lon="5.73359">
        <ele>865</ele>
        <time>2017-11-22T17:40:51Z</time>
      </trkpt>
      <trkpt lat="44.84124" lon="5.73334">
        <ele>864</ele>
        <time>2017-11-22T17:41:01Z</time>
      </trkpt>
      <trkpt lat="44.84147" lon="5.73308">
        <ele>871</ele>
        <time>2017-11-22T17:41:05Z</time>
      </trkpt>
      <trkpt lat="44.84166" lon="5.73281">
        <ele>872</ele>
        <time>2017-11-22T17:41:25Z</time>
      </trkpt>
      <trkpt lat="44.84181" lon="5.73252">
        <ele>864</ele>
        <time>2017-11-22T17:41:27Z</time>
      </trkpt>
      <trkpt lat="44.8419" lon="5.73224">
        <ele>864</ele>
        <time>2017-11-22T17:41:38Z</time>
      </trkpt>
      <trkpt lat="44.84192" lon="5.7321">
        <ele>863</ele>
        <time>2017-11-22T17:41:43Z</time>
      </trkpt>
      <trkpt lat="44.84191" lon="5.73196">
        <ele>864</ele>
        <time>2017-11-22T17:41:49Z</time>
      </trkpt>
      <trkpt lat="44.84183" lon="5.73169">
        <ele>866</ele>
        <time>2017-11-22T17:41:56Z</time>
      </trkpt>
      <trkpt lat="44.84172" lon="5.73142">
        <ele>865</ele>
        <time>2017-11-22T17:41:58Z</time>
      </trkpt>
      <trkpt lat="44.84161" lon="5.73111">
        <ele>871</ele>
        <time>2017-11-22T17:42:08Z</time>
      </trkpt>
      <trkpt lat="44.84154" lon="5.73074">
        <ele>868</ele>
        <time>2017-11-22T17:42:22Z</time>
      </trkpt>
      <trkpt lat="44.84149" lon="5.73032">
        <ele>868</ele>
        <time>2017-11-22T17:42:38Z</time>
      </trkpt>
      <trkpt lat="44.84116" lon="5.72788">
        <ele>863</ele>
        <time>2017-11-22T17:42:54Z</time>
      </trkpt>
      <trkpt lat="44.84112" lon="5.72743">
        <ele>863</ele>
        <time>2017-11-22T17:43:09Z</time>
      </trkpt>
      <trkpt lat="44.84113" lon="5.72703">
        <ele>862</ele>
        <time>2017-11-22T17:43:28Z</time>
      </trkpt>
      <trkpt lat="44.84116" lon="5.72672">
        <ele>862</ele>
        <time>2017-11-22T17:43:38Z</time>
      </trkpt>
      <trkpt lat="44.84118" lon="5.72642">
        <ele>860</ele>
        <time>2017-11-22T17:43:58Z</time>
      </trkpt>
      <trkpt lat="44.84116" lon="5.72613">
        <ele>860</ele>
        <time>2017-11-22T17:44:06Z</time>
      </trkpt>
      <trkpt lat="44.84108" lon="5.72584">
        <ele>861</ele>
        <time>2017-11-22T17:44:23Z</time>
      </trkpt>
      <trkpt lat="44.84091" lon="5.72541">
        <ele>858</ele>
        <time>2017-11-22T17:44:41Z</time>
      </trkpt>
      <trkpt lat="44.8406" lon="5.72463">
        <ele>861</ele>
        <time>2017-11-22T17:44:49Z</time>
      </trkpt>
      <trkpt lat="44.84051" lon="5.72414">
        <ele>856</ele>
        <time>2017-11-22T17:45:01Z</time>
      </trkpt>
      <trkpt lat="44.84043" lon="5.72309">
        <ele>854</ele>
        <time>2017-11-22T17:45:12Z</time>
      </trkpt>
      <trkpt lat="44.84038" lon="5.72195">
        <ele>854</ele>
        <time>2017-11-22T17:45:20Z</time>
      </trkpt>
      <trkpt lat="44.84031" lon="5.7209">
        <ele>855</ele>
        <time>2017-11-22T17:45:33Z</time>
      </trkpt>
      <trkpt lat="44.84026" lon="5.72064">
        <ele>856</ele>
        <time>2017-11-22T17:45:52Z</time>
      </trkpt>
      <trkpt lat="44.83988" lon="5.72012">
        <ele>856</ele>
        <time>2017-11-22T17:45:54Z</time>
      </trkpt>
      <trkpt lat="44.83965" lon="5.71977">
        <ele>856</ele>
        <time>2017-11-22T17:45:58Z</time>
      </trkpt>
      <trkpt lat="44.83998" lon="5.71939">
        <ele>857</ele>
        <time>2017-11-22T17:46:00Z</time>
      </trkpt>
      <trkpt lat="44.84005" lon="5.71928">
        <ele>857</ele>
        <time>2017-11-22T17:46:11Z</time>
      </trkpt>
      <trkpt lat="44.84031" lon="5.71873">
        <ele>858</ele>
        <time>2017-11-22T17:46:17Z</time>
      </trkpt>
      <trkpt lat="44.84044" lon="5.71832">
        <ele>860</ele>
        <time>2017-11-22T17:46:24Z</time>
      </trkpt>
      <trkpt lat="44.8405" lon="5.71803">
        <ele>860</ele>
        <time>2017-11-22T17:46:43Z</time>
      </trkpt>
      <trkpt lat="44.84055" lon="5.71763">
        <ele>861</ele>
        <time>2017-11-22T17:46:58Z</time>
      </trkpt>
      <trkpt lat="44.84052" lon="5.71641">
        <ele>867</ele>
        <time>2017-11-22T17:47:15Z</time>
      </trkpt>
      <trkpt lat="44.84045" lon="5.71323">
        <ele>879</ele>
        <time>2017-11-22T17:47:33Z</time>
      </trkpt>
      <trkpt lat="44.84044" lon="5.7124">
        <ele>883</ele>
        <time>2017-11-22T17:47:49Z</time>
      </trkpt>
      <trkpt lat="44.84041" lon="5.71203">
        <ele>883</ele>
        <time>2017-11-22T17:47:52Z</time>
      </trkpt>
      <trkpt lat="44.84033" lon="5.71168">
        <ele>883</ele>
        <time>2017-11-22T17:47:57Z</time>
      </trkpt>
      <trkpt lat="44.8401" lon="5.71086">
        <ele>882</ele>
        <time>2017-11-22T17:48:01Z</time>
      </trkpt>
      <trkpt lat="44.84006" lon="5.71061">
        <ele>883</ele>
        <time>2017-11-22T17:48:06Z</time>
      </trkpt>
      <trkpt lat="44.8401" lon="5.71015">
        <ele>885</ele>
        <time>2017-11-22T17:48:20Z</time>
      </trkpt>
      <trkpt lat="44.84018" lon="5.7099">
        <ele>885</ele>
        <time>2017-11-22T17:48:27Z</time>
      </trkpt>
      <trkpt lat="44.84031" lon="5.70945">
        <ele>884</ele>
        <time>2017-11-22T17:48:44Z</time>
      </trkpt>
      <trkpt lat="44.84035" lon="5.70909">
        <ele>882</ele>
        <time>2017-11-22T17:48:48Z</time>
      </trkpt>
      <trkpt lat="44.84035" lon="5.70877">
        <ele>881</ele>
        <time>2017-11-22T17:49:06Z</time>
      </trkpt>
      <trkpt lat="44.8403" lon="5.70845">
        <ele>882</ele>
        <time>2017-11-22T17:49:08Z</time>
      </trkpt>
      <trkpt lat="44.8401" lon="5.7076">
        <ele>880</ele>
        <time>2017-11-22T17:49:17Z</time>
      </trkpt>
      <trkpt lat="44.84006" lon="5.70713">
        <ele>874</ele>
        <time>2017-11-22T17:49:22Z</time>
      </trkpt>
      <trkpt lat="44.84007" lon="5.70632">
        <ele>870</ele>
        <time>2017-11-22T17:49:26Z</time>
      </trkpt>
      <trkpt lat="44.84008" lon="5.70523">
        <ele>866</ele>
        <time>2017-11-22T17:49:39Z</time>
      </trkpt>
      <trkpt lat="44.84009" lon="5.70488">
        <ele>865</ele>
        <time>2017-11-22T17:49:45Z</time>
      </trkpt>
      <trkpt lat="44.84012" lon="5.70454">
        <ele>861</ele>
        <time>2017-11-22T17:49:55Z</time>
      </trkpt>
      <trkpt lat="44.8402" lon="5.70417">
        <ele>860</ele>
        <time>2017-11-22T17:50:08Z</time>
      </trkpt>
      <trkpt lat="44.84034" lon="5.70379">
        <ele>857</ele>
        <time>2017-11-22T17:50:12Z</time>
      </trkpt>
      <trkpt lat="44.84116" lon="5.70182">
        <ele>852</ele>
        <time>2017-11-22T17:50:17Z</time>
      </trkpt>
      <trkpt lat="44.84171" lon="5.70052">
        <ele>840</ele>
        <time>2017-11-22T17:50:23Z</time>
      </trkpt>
      <trkpt lat="44.84197" lon="5.69986">
        <ele>842</ele>
        <time>2017-11-22T17:50:28Z</time>
      </trkpt>
      <trkpt lat="44.84218" lon="5.69933">
        <ele>840</ele>
        <time>2017-11-22T17:50:34Z</time>
      </trkpt>
      <trkpt lat="44.84233" lon="5.69903">
        <ele>841</ele>
        <time>2017-11-22T17:50:46Z</time>
      </trkpt>
      <trkpt lat="44.84253" lon="5.69872">
        <ele>829</ele>
        <time>2017-11-22T17:50:50Z</time>
      </trkpt>
      <trkpt lat="44.84273" lon="5.69849">
        <ele>829</ele>
        <time>2017-11-22T17:50:56Z</time>
      </trkpt>
      <trkpt lat="44.84296" lon="5.6983">
        <ele>829</ele>
        <time>2017-11-22T17:51:08Z</time>
      </trkpt>
      <trkpt lat="44.84479" lon="5.69692">
        <ele>811</ele>
        <time>2017-11-22T17:51:16Z</time>
      </trkpt>
      <trkpt lat="44.84614" lon="5.69591">
        <ele>799</ele>
        <time>2017-11-22T17:51:29Z</time>
      </trkpt>
      <trkpt lat="44.84668" lon="5.69552">
        <ele>792</ele>
        <time>2017-11-22T17:51:47Z</time>
      </trkpt>
      <trkpt lat="44.84684" lon="5.69538">
        <ele>792</ele>
        <time>2017-11-22T17:52:03Z</time>
      </trkpt>
      <trkpt lat="44.84713" lon="5.69501">
        <ele>790</ele>
        <time>2017-11-22T17:52:20Z</time>
      </trkpt>
      <trkpt lat="44.8475" lon="5.69426">
        <ele>794</ele>
        <time>2017-11-22T17:52:36Z</time>
      </trkpt>
      <trkpt lat="44.84768" lon="5.69396">
        <ele>790</ele>
        <time>2017-11-22T17:52:41Z</time>
      </trkpt>
      <trkpt lat="44.84789" lon="5.69371">
        <ele>790</ele>
        <time>2017-11-22T17:52:47Z</time>
      </trkpt>
      <trkpt lat="44.84939" lon="5.69229">
        <ele>779</ele>
        <time>2017-11-22T17:53:00Z</time>
      </trkpt>
      <trkpt lat="44.84967" lon="5.69209">
        <ele>779</ele>
        <time>2017-11-22T17:53:06Z</time>
      </trkpt>
      <trkpt lat="44.84979" lon="5.69205">
        <ele>779</ele>
        <time>2017-11-22T17:53:23Z</time>
      </trkpt>
      <trkpt lat="44.84996" lon="5.69205">
        <ele>778</ele>
        <time>2017-11-22T17:53:27Z</time>
      </trkpt>
      <trkpt lat="44.85011" lon="5.69211">
        <ele>771</ele>
        <time>2017-11-22T17:53:30Z</time>
      </trkpt>
      <trkpt lat="44.85037" lon="5.69221">
        <ele>769</ele>
        <time>2017-11-22T17:53:34Z</time>
      </trkpt>
      <trkpt lat="44.85056" lon="5.69224">
        <ele>767</ele>
        <time>2017-11-22T17:53:52Z</time>
      </trkpt>
      <trkpt lat="44.85077" lon="5.6922">
        <ele>767</ele>
        <time>2017-11-22T17:54:09Z</time>
      </trkpt>
      <trkpt lat="44.85136" lon="5.69193">
        <ele>759</ele>
        <time>2017-11-22T17:54:27Z</time>
      </trkpt>
      <trkpt lat="44.85153" lon="5.69177">
        <ele>758</ele>
        <time>2017-11-22T17:54:45Z</time>
      </trkpt>
      <trkpt lat="44.85167" lon="5.69157">
        <ele>754</ele>
        <time>2017-11-22T17:54:51Z</time>
      </trkpt>
      <trkpt lat="44.85182" lon="5.69116">
        <ele>754</ele>
        <time>2017-11-22T17:55:08Z</time>
      </trkpt>
      <trkpt lat="44.85198" lon="5.69074">
        <ele>762</ele>
        <time>2017-11-22T17:55:27Z</time>
      </trkpt>
      <trkpt lat="44.85214" lon="5.69043">
        <ele>761</ele>
        <time>2017-11-22T17:55:32Z</time>
      </trkpt>
      <trkpt lat="44.85227" lon="5.69024">
        <ele>760</ele>
        <time>2017-11-22T17:55:37Z</time>
      </trkpt>
      <trkpt lat="44.85245" lon="5.69004">
        <ele>756</ele>
        <time>2017-11-22T17:55:50Z</time>
      </trkpt>
      <trkpt lat="44.85334" lon="5.68913">
        <ele>746</ele>
        <time>2017-11-22T17:55:55Z</time>
      </trkpt>
      <trkpt lat="44.85405" lon="5.68843">
        <ele>746</ele>
        <time>2017-11-22T17:56:09Z</time>
      </trkpt>
      <trkpt lat="44.85437" lon="5.68809">
        <ele>744</ele>
        <time>2017-11-22T17:56:18Z</time>
      </trkpt>
      <trkpt lat="44.85475" lon="5.68772">
        <ele>742</ele>
        <time>2017-11-22T17:56:28Z</time>
      </trkpt>
      <trkpt lat="44.85521" lon="5.68722">
        <ele>737</ele>
        <time>2017-11-22T17:56:45Z</time>
      </trkpt>
      <trkpt lat="44.85558" lon="5.68688">
        <ele>735</ele>
        <time>2017-11-22T17:56:51Z</time>
      </trkpt>
      <trkpt lat="44.85606" lon="5.68634">
        <ele>727</ele>
        <time>2017-11-22T17:56:54Z</time>
      </trkpt>
      <trkpt lat="44.85644" lon="5.68581">
        <ele>733</ele>
        <time>2017-11-22T17:57:13Z</time>
      </trkpt>
      <trkpt lat="44.85767" lon="5.68435">
        <ele>708</ele>
        <time>2017-11-22T17:57:31Z</time>
      </trkpt>
      <trkpt lat="44.85784" lon="5.68408">
        <ele>712</ele>
        <time>2017-11-22T17:57:39Z</time>
      </trkpt>
      <trkpt lat="44.85789" lon="5.68395">
        <ele>711</ele>
        <time>2017-11-22T17:57:54Z</time>
      </trkpt>
      <trkpt lat="44.85795" lon="5.68372">
        <ele>711</ele>
        <time>2017-11-22T17:58:08Z</time>
      </trkpt>
      <trkpt lat="44.85802" lon="5.68358">
        <ele>710</ele>
        <time>2017-11-22T17:58:21Z</time>
      </trkpt>
      <trkpt lat="44.85812" lon="5.68347">
        <ele>707</ele>
        <time>2017-11-22T17:58:34Z</time>
      </trkpt>
      <trkpt lat="44.85829" lon="5.68339">
        <ele>699</ele>
        <time>2017-11-22T17:58:36Z</time>
      </trkpt>
      <trkpt lat="44.85845" lon="5.68337">
        <ele>692</ele>
        <time>2017-11-22T17:58:40Z</time>
      </trkpt>
      <trkpt lat="44.8594" lon="5.68343">
        <ele>683</ele>
        <time>2017-11-22T17:58:59Z</time>
      </trkpt>
      <trkpt lat="44.85975" lon="5.68345">
        <ele>681</ele>
        <time>2017-11-22T17:59:09Z</time>
      </trkpt>
      <trkpt lat="44.85988" lon="5.68342">
        <ele>680</ele>
        <time>2017-11-22T17:59:26Z</time>
      </trkpt>
      <trkpt lat="44.85999" lon="5.68336">
        <ele>678</ele>
        <time>2017-11-22T17:59:46Z</time>
      </trkpt>
      <trkpt lat="44.86006" lon="5.68326">
        <ele>676</ele>
        <time>2017-11-22T17:59:59Z</time>
      </trkpt>
      <trkpt lat="44.86014" lon="5.68305">
        <ele>674</ele>
        <time>2017-11-22T18:00:17Z</time>
      </trkpt>
      <trkpt lat="44.86016" lon="5.68293">
        <ele>673</ele>
        <time>2017-11-22T18:00:37Z</time>
      </trkpt>
      <trkpt lat="44.86016" lon="5.6825">
        <ele>672</ele>
        <time>2017-11-22T18:00:55Z</time>
      </trkpt>
      <trkpt lat="44.8602" lon="5.68225">
        <ele>672</ele>
        <time>2017-11-22T18:00:58Z</time>
      </trkpt>
      <trkpt lat="44.86028" lon="5.68202">
        <ele>672</ele>
        <time>2017-11-22T18:01:05Z</time>
      </trkpt>
      <trkpt lat="44.86043" lon="5.68183">
        <ele>671</ele>
        <time>2017-11-22T18:01:17Z</time>
      </trkpt>
      <trkpt lat="44.8606" lon="5.68172">
        <ele>669</ele>
        <time>2017-11-22T18:01:34Z</time>
      </trkpt>
      <trkpt lat="44.86112" lon="5.68154">
        <ele>664</ele>
        <time>2017-11-22T18:01:54Z</time>
      </trkpt>
      <trkpt lat="44.86148" lon="5.68139">
        <ele>661</ele>
        <time>2017-11-22T18:02:02Z</time>
      </trkpt>
      <trkpt lat="44.86163" lon="5.68131">
        <ele>661</ele>
        <time>2017-11-22T18:02:14Z</time>
      </trkpt>
      <trkpt lat="44.86176" lon="5.68119">
        <ele>655</ele>
        <time>2017-11-22T18:02:32Z</time>
      </trkpt>
      <trkpt lat="44.86189" lon="5.68102">
        <ele>656</ele>
        <time>2017-11-22T18:02:34Z</time>
      </trkpt>
      <trkpt lat="44.8621" lon="5.68072">
        <ele>657</ele>
        <time>2017-11-22T18:02:51Z</time>
      </trkpt>
      <trkpt lat="44.86243" lon="5.68017">
        <ele>656</ele>
        <time>2017-11-22T18:03:07Z</time>
      </trkpt>
      <trkpt lat="44.86268" lon="5.6797">
        <ele>650</ele>
        <time>2017-11-22T18:03:25Z</time>
      </trkpt>
      <trkpt lat="44.86282" lon="5.67945">
        <ele>649</ele>
        <time>2017-11-22T18:03:31Z</time>
      </trkpt>
      <trkpt lat="44.8632" lon="5.67849">
        <ele>646</ele>
        <time>2017-11-22T18:03:33Z</time>
      </trkpt>
      <trkpt lat="44.86418" lon="5.67626">
        <ele>622</ele>
        <time>2017-11-22T18:03:40Z</time>
      </trkpt>
      <trkpt lat="44.86428" lon="5.67599">
        <ele>624</ele>
        <time>2017-11-22T18:03:53Z</time>
      </trkpt>
      <trkpt lat="44.86431" lon="5.67583">
        <ele>624</ele>
        <time>2017-11-22T18:04:06Z</time>
      </trkpt>
      <trkpt lat="44.86433" lon="5.6755">
        <ele>621</ele>
        <time>2017-11-22T18:04:11Z</time>
      </trkpt>
      <trkpt lat="44.86437" lon="5.67537">
        <ele>620</ele>
        <time>2017-11-22T18:04:14Z</time>
      </trkpt>
      <trkpt lat="44.86446" lon="5.67535">
        <ele>619</ele>
        <time>2017-11-22T18:04:19Z</time>
      </trkpt>
      <trkpt lat="44.86451" lon="5.6754">
        <ele>619</ele>
        <time>2017-11-22T18:04:36Z</time>
      </trkpt>
      <trkpt lat="44.86454" lon="5.67559">
        <ele>619</ele>
        <time>2017-11-22T18:04:56Z</time>
      </trkpt>
      <trkpt lat="44.86468" lon="5.67643">
        <ele>618</ele>
        <time>2017-11-22T18:05:08Z</time>
      </trkpt>
      <trkpt lat="44.8648" lon="5.67697">
        <ele>616</ele>
        <time>2017-11-22T18:05:20Z</time>
      </trkpt>
      <trkpt lat="44.86486" lon="5.67722">
        <ele>615</ele>
        <time>2017-11-22T18:05:29Z</time>
      </trkpt>
      <trkpt lat="44.8649" lon="5.67729">
        <ele>614</ele>
        <time>2017-11-22T18:05:46Z</time>
      </trkpt>
      <trkpt lat="44.86493" lon="5.67731">
        <ele>614</ele>
        <time>2017-11-22T18:06:06Z</time>
      </trkpt>
      <trkpt lat="44.865" lon="5.6773">
        <ele>607</ele>
        <time>2017-11-22T18:06:21Z</time>
      </trkpt>
      <trkpt lat="44.86502" lon="5.67729">
        <ele>607</ele>
        <time>2017-11-22T18:06:26Z</time>
      </trkpt>
      <trkpt lat="44.86508" lon="5.6772">
        <ele>606</ele>
        <time>2017-11-22T18:06:31Z</time>
      </trkpt>
      <trkpt lat="44.86514" lon="5.67703">
        <ele>606</ele>
        <time>2017-11-22T18:06:38Z</time>
      </trkpt>
      <trkpt lat="44.8652" lon="5.67679">
        <ele>606</ele>
        <time>2017-11-22T18:06:41Z</time>
      </trkpt>
      <trkpt lat="44.86536" lon="5.67624">
        <ele>604</ele>
        <time>2017-11-22T18:06:56Z</time>
      </trkpt>
      <trkpt lat="44.86578" lon="5.67525">
        <ele>601</ele>
        <time>2017-11-22T18:07:10Z</time>
      </trkpt>
      <trkpt lat="44.86593" lon="5.67492">
        <ele>595</ele>
        <time>2017-11-22T18:07:12Z</time>
      </trkpt>
      <trkpt lat="44.86604" lon="5.67453">
        <ele>592</ele>
        <time>2017-11-22T18:07:17Z</time>
      </trkpt>
      <trkpt lat="44.86607" lon="5.67426">
        <ele>592</ele>
        <time>2017-11-22T18:07:37Z</time>
      </trkpt>
      <trkpt lat="44.86605" lon="5.67404">
        <ele>590</ele>
        <time>2017-11-22T18:07:56Z</time>
      </trkpt>
      <trkpt lat="44.86598" lon="5.67373">
        <ele>588</ele>
        <time>2017-11-22T18:08:03Z</time>
      </trkpt>
      <trkpt lat="44.86599" lon="5.67365">
        <ele>587</ele>
        <time>2017-11-22T18:08:22Z</time>
      </trkpt>
      <trkpt lat="44.86603" lon="5.67359">
        <ele>587</ele>
        <time>2017-11-22T18:08:34Z</time>
      </trkpt>
      <trkpt lat="44.86612" lon="5.67355">
        <ele>586</ele>
        <time>2017-11-22T18:08:44Z</time>
      </trkpt>
      <trkpt lat="44.86619" lon="5.67361">
        <ele>586</ele>
        <time>2017-11-22T18:08:46Z</time>
      </trkpt>
      <trkpt lat="44.86625" lon="5.67376">
        <ele>586</ele>
        <time>2017-11-22T18:09:05Z</time>
      </trkpt>
      <trkpt lat="44.86653" lon="5.67457">
        <ele>587</ele>
        <time>2017-11-22T18:09:12Z</time>
      </trkpt>
      <trkpt lat="44.86698" lon="5.67576">
        <ele>579</ele>
        <time>2017-11-22T18:09:28Z</time>
      </trkpt>
      <trkpt lat="44.86702" lon="5.67593">
        <ele>580</ele>
        <time>2017-11-22T18:09:39Z</time>
      </trkpt>
      <trkpt lat="44.86703" lon="5.67622">
        <ele>581</ele>
        <time>2017-11-22T18:09:49Z</time>
      </trkpt>
      <trkpt lat="44.86703" lon="5.6765">
        <ele>581</ele>
        <time>2017-11-22T18:09:51Z</time>
      </trkpt>
      <trkpt lat="44.86705" lon="5.6766">
        <ele>581</ele>
        <time>2017-11-22T18:10:00Z</time>
      </trkpt>
      <trkpt lat="44.86711" lon="5.67666">
        <ele>581</ele>
        <time>2017-11-22T18:10:18Z</time>
      </trkpt>
      <trkpt lat="44.86718" lon="5.67665">
        <ele>581</ele>
        <time>2017-11-22T18:10:24Z</time>
      </trkpt>
      <trkpt lat="44.86724" lon="5.67653">
        <ele>580</ele>
        <time>2017-11-22T18:10:26Z</time>
      </trkpt>
      <trkpt lat="44.86726" lon="5.67601">
        <ele>579</ele>
        <time>2017-11-22T18:10:46Z</time>
      </trkpt>
      <trkpt lat="44.86725" lon="5.67583">
        <ele>577</ele>
        <time>2017-11-22T18:10:50Z</time>
      </trkpt>
      <trkpt lat="44.86719" lon="5.67547">
        <ele>578</ele>
        <time>2017-11-22T18:11:07Z</time>
      </trkpt>
      <trkpt lat="44.86713" lon="5.67515">
        <ele>578</ele>
        <time>2017-11-22T18:11:26Z</time>
      </trkpt>
      <trkpt lat="44.86711" lon="5.67488">
        <ele>577</ele>
        <time>2017-11-22T18:11:34Z</time>
      </trkpt>
      <trkpt lat="44.86716" lon="5.67415">
        <ele>575</ele>
        <time>2017-11-22T18:11:49Z</time>
      </trkpt>
      <trkpt lat="44.86718" lon="5.67346">
        <ele>574</ele>
        <time>2017-11-22T18:11:54Z</time>
      </trkpt>
      <trkpt lat="44.8672" lon="5.67314">
        <ele>568</ele>
        <time>2017-11-22T18:12:01Z</time>
      </trkpt>
      <trkpt lat="44.86724" lon="5.67286">
        <ele>566</ele>
        <time>2017-11-22T18:12:21Z</time>
      </trkpt>
      <trkpt lat="44.86728" lon="5.67267">
        <ele>565</ele>
        <time>2017-11-22T18:12:28Z</time>
      </trkpt>
      <trkpt lat="44.86738" lon="5.67239">
        <ele>555</ele>
        <time>2017-11-22T18:12:45Z</time>
      </trkpt>
      <trkpt lat="44.8675" lon="5.67216">
        <ele>552</ele>
        <time>2017-11-22T18:12:48Z</time>
      </trkpt>
      <trkpt lat="44.86775" lon="5.67175">
        <ele>535</ele>
        <time>2017-11-22T18:12:50Z</time>
      </trkpt>
      <trkpt lat="44.86804" lon="5.67113">
        <ele>516</ele>
        <time>2017-11-22T18:13:08Z</time>
      </trkpt>
      <trkpt lat="44.86846" lon="5.67006">
        <ele>536</ele>
        <time>2017-11-22T18:13:10Z</time>
      </trkpt>
      <trkpt lat="44.86861" lon="5.66907">
        <ele>545</ele>
        <time>2017-11-22T18:13:14Z</time>
      </trkpt>
      <trkpt lat="44.86866" lon="5.6685">
        <ele>547</ele>
        <time>2017-11-22T18:13:25Z</time>
      </trkpt>
      <trkpt lat="44.86866" lon="5.66828">
        <ele>549</ele>
        <time>2017-11-22T18:13:44Z</time>
      </trkpt>
      <trkpt lat="44.86867" lon="5.66821">
        <ele>549</ele>
        <time>2017-11-22T18:13:55Z</time>
      </trkpt>
      <trkpt lat="44.86873" lon="5.66818">
        <ele>552</ele>
        <time>2017-11-22T18:14:04Z</time>
      </trkpt>
      <trkpt lat="44.86878" lon="5.66822">
        <ele>553</ele>
        <time>2017-11-22T18:14:10Z</time>
      </trkpt>
      <trkpt lat="44.86881" lon="5.66846">
        <ele>552</ele>
        <time>2017-11-22T18:14:24Z</time>
      </trkpt>
      <trkpt lat="44.86886" lon="5.66871">
        <ele>553</ele>
        <time>2017-11-22T18:14:39Z</time>
      </trkpt>
      <trkpt lat="44.86909" lon="5.6693">
        <ele>561</ele>
        <time>2017-11-22T18:14:51Z</time>
      </trkpt>
      <trkpt lat="44.86912" lon="5.66958">
        <ele>556</ele>
        <time>2017-11-22T18:15:11Z</time>
      </trkpt>
      <trkpt lat="44.86912" lon="5.66982">
        <ele>558</ele>
        <time>2017-11-22T18:15:13Z</time>
      </trkpt>
      <trkpt lat="44.86911" lon="5.67027">
        <ele>548</ele>
        <time>2017-11-22T18:15:30Z</time>
      </trkpt>
      <trkpt lat="44.86913" lon="5.67033">
        <ele>547</ele>
        <time>2017-11-22T18:15:46Z</time>
      </trkpt>
      <trkpt lat="44.86917" lon="5.67036">
        <ele>567</ele>
        <time>2017-11-22T18:15:59Z</time>
      </trkpt>
      <trkpt lat="44.86925" lon="5.67037">
        <ele>567</ele>
        <time>2017-11-22T18:16:18Z</time>
      </trkpt>
      <trkpt lat="44.86928" lon="5.67034">
        <ele>568</ele>
        <time>2017-11-22T18:16:33Z</time>
      </trkpt>
      <trkpt lat="44.86931" lon="5.67022">
        <ele>569</ele>
        <time>2017-11-22T18:16:49Z</time>
      </trkpt>
      <trkpt lat="44.86931" lon="5.66933">
        <ele>578</ele>
        <time>2017-11-22T18:16:54Z</time>
      </trkpt>
      <trkpt lat="44.86933" lon="5.66878">
        <ele>579</ele>
        <time>2017-11-22T18:16:59Z</time>
      </trkpt>
      <trkpt lat="44.86935" lon="5.66858">
        <ele>579</ele>
        <time>2017-11-22T18:17:03Z</time>
      </trkpt>
      <trkpt lat="44.86945" lon="5.66834">
        <ele>579</ele>
        <time>2017-11-22T18:17:08Z</time>
      </trkpt>
      <trkpt lat="44.86953" lon="5.66824">
        <ele>580</ele>
        <time>2017-11-22T18:17:13Z</time>
      </trkpt>
      <trkpt lat="44.86968" lon="5.66818">
        <ele>582</ele>
        <time>2017-11-22T18:17:18Z</time>
      </trkpt>
      <trkpt lat="44.87011" lon="5.66814">
        <ele>592</ele>
        <time>2017-11-22T18:17:36Z</time>
      </trkpt>
      <trkpt lat="44.87055" lon="5.66812">
        <ele>596</ele>
        <time>2017-11-22T18:17:47Z</time>
      </trkpt>
      <trkpt lat="44.87077" lon="5.66815">
        <ele>597</ele>
        <time>2017-11-22T18:17:50Z</time>
      </trkpt>
      <trkpt lat="44.87089" lon="5.66813">
        <ele>604</ele>
        <time>2017-11-22T18:17:59Z</time>
      </trkpt>
      <trkpt lat="44.87093" lon="5.66808">
        <ele>605</ele>
        <time>2017-11-22T18:18:11Z</time>
      </trkpt>
      <trkpt lat="44.87095" lon="5.66802">
        <ele>605</ele>
        <time>2017-11-22T18:18:13Z</time>
      </trkpt>
      <trkpt lat="44.87093" lon="5.66788">
        <ele>605</ele>
        <time>2017-11-22T18:18:19Z</time>
      </trkpt>
      <trkpt lat="44.87083" lon="5.66776">
        <ele>597</ele>
        <time>2017-11-22T18:18:25Z</time>
      </trkpt>
      <trkpt lat="44.87055" lon="5.66754">
        <ele>596</ele>
        <time>2017-11-22T18:18:28Z</time>
      </trkpt>
      <trkpt lat="44.87043" lon="5.66738">
        <ele>598</ele>
        <time>2017-11-22T18:18:44Z</time>
      </trkpt>
      <trkpt lat="44.87037" lon="5.66712">
        <ele>599</ele>
        <time>2017-11-22T18:18:52Z</time>
      </trkpt>
      <trkpt lat="44.87035" lon="5.66691">
        <ele>599</ele>
        <time>2017-11-22T18:18:58Z</time>
      </trkpt>
      <trkpt lat="44.87035" lon="5.66677">
        <ele>600</ele>
        <time>2017-11-22T18:19:08Z</time>
      </trkpt>
      <trkpt lat="44.87047" lon="5.66646">
        <ele>611</ele>
        <time>2017-11-22T18:19:17Z</time>
      </trkpt>
      <trkpt lat="44.87046" lon="5.6663">
        <ele>612</ele>
        <time>2017-11-22T18:19:34Z</time>
      </trkpt>
      <trkpt lat="44.87045" lon="5.66625">
        <ele>612</ele>
        <time>2017-11-22T18:19:42Z</time>
      </trkpt>
      <trkpt lat="44.87037" lon="5.66616">
        <ele>613</ele>
        <time>2017-11-22T18:20:01Z</time>
      </trkpt>
      <trkpt lat="44.86986" lon="5.66586">
        <ele>607</ele>
        <time>2017-11-22T18:20:09Z</time>
      </trkpt>
      <trkpt lat="44.86943" lon="5.66554">
        <ele>614</ele>
        <time>2017-11-22T18:20:28Z</time>
      </trkpt>
      <trkpt lat="44.8693" lon="5.66538">
        <ele>615</ele>
        <time>2017-11-22T18:20:48Z</time>
      </trkpt>
      <trkpt lat="44.86921" lon="5.66523">
        <ele>616</ele>
        <time>2017-11-22T18:21:05Z</time>
      </trkpt>
      <trkpt lat="44.86901" lon="5.66469">
        <ele>605</ele>
        <time>2017-11-22T18:21:10Z</time>
      </trkpt>
      <trkpt lat="44.86888" lon="5.66421">
        <ele>607</ele>
        <time>2017-11-22T18:21:13Z</time>
      </trkpt>
      <trkpt lat="44.86885" lon="5.66402">
        <ele>610</ele>
        <time>2017-11-22T18:21:32Z</time>
      </trkpt>
      <trkpt lat="44.86885" lon="5.6639">
        <ele>610</ele>
        <time>2017-11-22T18:21:34Z</time>
      </trkpt>
      <trkpt lat="44.86888" lon="5.66381">
        <ele>610</ele>
        <time>2017-11-22T18:21:40Z</time>
      </trkpt>
      <trkpt lat="44.86894" lon="5.66369">
        <ele>611</ele>
        <time>2017-11-22T18:21:59Z</time>
      </trkpt>
      <trkpt lat="44.8693" lon="5.6632">
        <ele>634</ele>
        <time>2017-11-22T18:22:02Z</time>
      </trkpt>
      <trkpt lat="44.86939" lon="5.66299">
        <ele>638</ele>
        <time>2017-11-22T18:22:05Z</time>
      </trkpt>
      <trkpt lat="44.86944" lon="5.66271">
        <ele>637</ele>
        <time>2017-11-22T18:22:24Z</time>
      </trkpt>
      <trkpt lat="44.86947" lon="5.6625">
        <ele>633</ele>
        <time>2017-11-22T18:22:40Z</time>
      </trkpt>
      <trkpt lat="44.86953" lon="5.66231">
        <ele>635</ele>
        <time>2017-11-22T18:22:49Z</time>
      </trkpt>
      <trkpt lat="44.8697" lon="5.66205">
        <ele>637</ele>
        <time>2017-11-22T18:22:55Z</time>
      </trkpt>
      <trkpt lat="44.86983" lon="5.66191">
        <ele>639</ele>
        <time>2017-11-22T18:22:57Z</time>
      </trkpt>
      <trkpt lat="44.87011" lon="5.66173">
        <ele>653</ele>
        <time>2017-11-22T18:23:15Z</time>
      </trkpt>
      <trkpt lat="44.87017" lon="5.66165">
        <ele>655</ele>
        <time>2017-11-22T18:23:17Z</time>
      </trkpt>
      <trkpt lat="44.87018" lon="5.66158">
        <ele>657</ele>
        <time>2017-11-22T18:23:22Z</time>
      </trkpt>
      <trkpt lat="44.87015" lon="5.66144">
        <ele>659</ele>
        <time>2017-11-22T18:23:40Z</time>
      </trkpt>
      <trkpt lat="44.86999" lon="5.66123">
        <ele>646</ele>
        <time>2017-11-22T18:23:56Z</time>
      </trkpt>
      <trkpt lat="44.86958" lon="5.6608">
        <ele>658</ele>
        <time>2017-11-22T18:23:59Z</time>
      </trkpt>
      <trkpt lat="44.86936" lon="5.66064">
        <ele>655</ele>
        <time>2017-11-22T18:24:19Z</time>
      </trkpt>
      <trkpt lat="44.86909" lon="5.66048">
        <ele>644</ele>
        <time>2017-11-22T18:24:33Z</time>
      </trkpt>
      <trkpt lat="44.86878" lon="5.66033">
        <ele>643</ele>
        <time>2017-11-22T18:24:40Z</time>
      </trkpt>
      <trkpt lat="44.8687" lon="5.66024">
        <ele>642</ele>
        <time>2017-11-22T18:24:55Z</time>
      </trkpt>
      <trkpt lat="44.86866" lon="5.66015">
        <ele>641</ele>
        <time>2017-11-22T18:25:10Z</time>
      </trkpt>
      <trkpt lat="44.86865" lon="5.66006">
        <ele>641</ele>
        <time>2017-11-22T18:25:12Z</time>
      </trkpt>
      <trkpt lat="44.86866" lon="5.65994">
        <ele>638</ele>
        <time>2017-11-22T18:25:26Z</time>
      </trkpt>
      <trkpt lat="44.86871" lon="5.65981">
        <ele>639</ele>
        <time>2017-11-22T18:25:28Z</time>
      </trkpt>
      <trkpt lat="44.86897" lon="5.6593">
        <ele>645</ele>
        <time>2017-11-22T18:25:35Z</time>
      </trkpt>
      <trkpt lat="44.86913" lon="5.65907">
        <ele>647</ele>
        <time>2017-11-22T18:25:49Z</time>
      </trkpt>
      <trkpt lat="44.86996" lon="5.65819">
        <ele>665</ele>
        <time>2017-11-22T18:26:01Z</time>
      </trkpt>
      <trkpt lat="44.8701" lon="5.65809">
        <ele>679</ele>
        <time>2017-11-22T18:26:07Z</time>
      </trkpt>
      <trkpt lat="44.87031" lon="5.65803">
        <ele>682</ele>
        <time>2017-11-22T18:26:10Z</time>
      </trkpt>
      <trkpt lat="44.87039" lon="5.65799">
        <ele>683</ele>
        <time>2017-11-22T18:26:27Z</time>
      </trkpt>
      <trkpt lat="44.87043" lon="5.65792">
        <ele>683</ele>
        <time>2017-11-22T18:26:34Z</time>
      </trkpt>
      <trkpt lat="44.87047" lon="5.65775">
        <ele>683</ele>
        <time>2017-11-22T18:26:47Z</time>
      </trkpt>
      <trkpt lat="44.87051" lon="5.65727">
        <ele>677</ele>
        <time>2017-11-22T18:27:00Z</time>
      </trkpt>
      <trkpt lat="44.87056" lon="5.65716">
        <ele>677</ele>
        <time>2017-11-22T18:27:17Z</time>
      </trkpt>
      <trkpt lat="44.87071" lon="5.65703">
        <ele>679</ele>
        <time>2017-11-22T18:27:24Z</time>
      </trkpt>
      <trkpt lat="44.87092" lon="5.65685">
        <ele>693</ele>
        <time>2017-11-22T18:27:35Z</time>
      </trkpt>
      <trkpt lat="44.87099" lon="5.65676">
        <ele>692</ele>
        <time>2017-11-22T18:27:54Z</time>
      </trkpt>
      <trkpt lat="44.87112" lon="5.65648">
        <ele>688</ele>
        <time>2017-11-22T18:28:11Z</time>
      </trkpt>
      <trkpt lat="44.87135" lon="5.65594">
        <ele>688</ele>
        <time>2017-11-22T18:28:18Z</time>
      </trkpt>
      <trkpt lat="44.87148" lon="5.65579">
        <ele>684</ele>
        <time>2017-11-22T18:28:30Z</time>
      </trkpt>
      <trkpt lat="44.87156" lon="5.65576">
        <ele>686</ele>
        <time>2017-11-22T18:28:40Z</time>
      </trkpt>
      <trkpt lat="44.8718" lon="5.65575">
        <ele>692</ele>
        <time>2017-11-22T18:28:58Z</time>
      </trkpt>
      <trkpt lat="44.87198" lon="5.65572">
        <ele>693</ele>
        <time>2017-11-22T18:29:01Z</time>
      </trkpt>
      <trkpt lat="44.87205" lon="5.65569">
        <ele>693</ele>
        <time>2017-11-22T18:29:10Z</time>
      </trkpt>
      <trkpt lat="44.87216" lon="5.65557">
        <ele>694</ele>
        <time>2017-11-22T18:29:30Z</time>
      </trkpt>
      <trkpt lat="44.87236" lon="5.65541">
        <ele>694</ele>
        <time>2017-11-22T18:29:42Z</time>
      </trkpt>
      <trkpt lat="44.87256" lon="5.65535">
        <ele>702</ele>
        <time>2017-11-22T18:29:47Z</time>
      </trkpt>
      <trkpt lat="44.87274" lon="5.65535">
        <ele>703</ele>
        <time>2017-11-22T18:29:49Z</time>
      </trkpt>
      <trkpt lat="44.87347" lon="5.65548">
        <ele>718</ele>
        <time>2017-11-22T18:30:07Z</time>
      </trkpt>
      <trkpt lat="44.87365" lon="5.65549">
        <ele>719</ele>
        <time>2017-11-22T18:30:27Z</time>
      </trkpt>
      <trkpt lat="44.87369" lon="5.65547">
        <ele>719</ele>
        <time>2017-11-22T18:30:46Z</time>
      </trkpt>
      <trkpt lat="44.87374" lon="5.65542">
        <ele>719</ele>
        <time>2017-11-22T18:31:05Z</time>
      </trkpt>
      <trkpt lat="44.87377" lon="5.65534">
        <ele>719</ele>
        <time>2017-11-22T18:31:24Z</time>
      </trkpt>
      <trkpt lat="44.87376" lon="5.65522">
        <ele>719</ele>
        <time>2017-11-22T18:31:35Z</time>
      </trkpt>
      <trkpt lat="44.87373" lon="5.65515">
        <ele>718</ele>
        <time>2017-11-22T18:31:45Z</time>
      </trkpt>
      <trkpt lat="44.87361" lon="5.65502">
        <ele>716</ele>
        <time>2017-11-22T18:31:58Z</time>
      </trkpt>
      <trkpt lat="44.87346" lon="5.65487">
        <ele>714</ele>
        <time>2017-11-22T18:32:11Z</time>
      </trkpt>
      <trkpt lat="44.87275" lon="5.65351">
        <ele>713</ele>
        <time>2017-11-22T18:32:22Z</time>
      </trkpt>
      <trkpt lat="44.87256" lon="5.65314">
        <ele>717</ele>
        <time>2017-11-22T18:32:39Z</time>
      </trkpt>
      <trkpt lat="44.87251" lon="5.65299">
        <ele>719</ele>
        <time>2017-11-22T18:32:43Z</time>
      </trkpt>
      <trkpt lat="44.87249" lon="5.65279">
        <ele>713</ele>
        <time>2017-11-22T18:32:49Z</time>
      </trkpt>
      <trkpt lat="44.87261" lon="5.65227">
        <ele>721</ele>
        <time>2017-11-22T18:33:03Z</time>
      </trkpt>
      <trkpt lat="44.87269" lon="5.65196">
        <ele>722</ele>
        <time>2017-11-22T18:33:18Z</time>
      </trkpt>
      <trkpt lat="44.87285" lon="5.65154">
        <ele>720</ele>
        <time>2017-11-22T18:33:26Z</time>
      </trkpt>
      <trkpt lat="44.87303" lon="5.65129">
        <ele>720</ele>
        <time>2017-11-22T18:33:44Z</time>
      </trkpt>
      <trkpt lat="44.8733" lon="5.65105">
        <ele>720</ele>
        <time>2017-11-22T18:33:50Z</time>
      </trkpt>
      <trkpt lat="44.8736" lon="5.65076">
        <ele>723</ele>
        <time>2017-11-22T18:34:10Z</time>
      </trkpt>
      <trkpt lat="44.87376" lon="5.65044">
        <ele>724</ele>
        <time>2017-11-22T18:34:23Z</time>
      </trkpt>
      <trkpt lat="44.87393" lon="5.65003">
        <ele>725</ele>
        <time>2017-11-22T18:34:30Z</time>
      </trkpt>
      <trkpt lat="44.8741" lon="5.64977">
        <ele>722</ele>
        <time>2017-11-22T18:34:41Z</time>
      </trkpt>
      <trkpt lat="44.87424" lon="5.64966">
        <ele>725</ele>
        <time>2017-11-22T18:34:44Z</time>
      </trkpt>
      <trkpt lat="44.87432" lon="5.64963">
        <ele>725</ele>
        <time>2017-11-22T18:34:54Z</time>
      </trkpt>
      <trkpt lat="44.87448" lon="5.64963">
        <ele>725</ele>
        <time>2017-11-22T18:35:01Z</time>
      </trkpt>
      <trkpt lat="44.87472" lon="5.64973">
        <ele>726</ele>
        <time>2017-11-22T18:35:08Z</time>
      </trkpt>
      <trkpt lat="44.87608" lon="5.65051">
        <ele>732</ele>
        <time>2017-11-22T18:35:13Z</time>
      </trkpt>
      <trkpt lat="44.87623" lon="5.6506">
        <ele>732</ele>
        <time>2017-11-22T18:35:17Z</time>
      </trkpt>
      <trkpt lat="44.87639" lon="5.65065">
        <ele>732</ele>
        <time>2017-11-22T18:35:22Z</time>
      </trkpt>
      <trkpt lat="44.8766" lon="5.65069">
        <ele>732</ele>
        <time>2017-11-22T18:35:27Z</time>
      </trkpt>
      <trkpt lat="44.87701" lon="5.65064">
        <ele>732</ele>
        <time>2017-11-22T18:35:35Z</time>
      </trkpt>
      <trkpt lat="44.87754" lon="5.65057">
        <ele>738</ele>
        <time>2017-11-22T18:35:53Z</time>
      </trkpt>
      <trkpt lat="44.87788" lon="5.65048">
        <ele>739</ele>
        <time>2017-11-22T18:35:55Z</time>
      </trkpt>
      <trkpt lat="44.878" lon="5.65037">
        <ele>740</ele>
        <time>2017-11-22T18:35:58Z</time>
      </trkpt>
      <trkpt lat="44.87811" lon="5.65021">
        <ele>740</ele>
        <time>2017-11-22T18:36:14Z</time>
      </trkpt>
      <trkpt lat="44.87834" lon="5.64971">
        <ele>743</ele>
        <time>2017-11-22T18:36:28Z</time>
      </trkpt>
      <trkpt lat="44.87853" lon="5.64923">
        <ele>741</ele>
        <time>2017-11-22T18:36:41Z</time>
      </trkpt>
      <trkpt lat="44.87863" lon="5.64905">
        <ele>737</ele>
        <time>2017-11-22T18:36:45Z</time>
      </trkpt>
      <trkpt lat="44.87874" lon="5.64891">
        <ele>738</ele>
        <time>2017-11-22T18:36:50Z</time>
      </trkpt>
      <trkpt lat="44.87884" lon="5.64884">
        <ele>738</ele>
        <time>2017-11-22T18:37:05Z</time>
      </trkpt>
      <trkpt lat="44.87894" lon="5.64881">
        <ele>738</ele>
        <time>2017-11-22T18:37:12Z</time>
      </trkpt>
      <trkpt lat="44.87903" lon="5.6488">
        <ele>739</ele>
        <time>2017-11-22T18:37:21Z</time>
      </trkpt>
      <trkpt lat="44.87919" lon="5.64882">
        <ele>743</ele>
        <time>2017-11-22T18:37:27Z</time>
      </trkpt>
      <trkpt lat="44.87956" lon="5.64896">
        <ele>743</ele>
        <time>2017-11-22T18:37:45Z</time>
      </trkpt>
      <trkpt lat="44.87986" lon="5.64904">
        <ele>745</ele>
        <time>2017-11-22T18:38:02Z</time>
      </trkpt>
      <trkpt lat="44.88005" lon="5.64904">
        <ele>746</ele>
        <time>2017-11-22T18:38:17Z</time>
      </trkpt>
      <trkpt lat="44.88019" lon="5.649">
        <ele>745</ele>
        <time>2017-11-22T18:38:19Z</time>
      </trkpt>
      <trkpt lat="44.8806" lon="5.64873">
        <ele>744</ele>
        <time>2017-11-22T18:38:29Z</time>
      </trkpt>
      <trkpt lat="44.88079" lon="5.64867">
        <ele>744</ele>
        <time>2017-11-22T18:38:39Z</time>
      </trkpt>
      <trkpt lat="44.88118" lon="5.6487">
        <ele>748</ele>
        <time>2017-11-22T18:38:41Z</time>
      </trkpt>
      <trkpt lat="44.88141" lon="5.64867">
        <ele>748</ele>
        <time>2017-11-22T18:38:45Z</time>
      </trkpt>
      <trkpt lat="44.88156" lon="5.6486">
        <ele>748</ele>
        <time>2017-11-22T18:38:47Z</time>
      </trkpt>
      <trkpt lat="44.88177" lon="5.64838">
        <ele>753</ele>
        <time>2017-11-22T18:38:56Z</time>
      </trkpt>
      <trkpt lat="44.883" lon="5.64671">
        <ele>752</ele>
        <time>2017-11-22T18:39:09Z</time>
      </trkpt>
      <trkpt lat="44.88334" lon="5.64636">
        <ele>754</ele>
        <time>2017-11-22T18:39:13Z</time>
      </trkpt>
      <trkpt lat="44.88428" lon="5.64558">
        <ele>758</ele>
        <time>2017-11-22T18:39:33Z</time>
      </trkpt>
      <trkpt lat="44.88445" lon="5.6454">
        <ele>759</ele>
        <time>2017-11-22T18:39:47Z</time>
      </trkpt>
      <trkpt lat="44.8845" lon="5.64531">
        <ele>759</ele>
        <time>2017-11-22T18:40:07Z</time>
      </trkpt>
      <trkpt lat="44.8846" lon="5.64506">
        <ele>759</ele>
        <time>2017-11-22T18:40:21Z</time>
      </trkpt>
      <trkpt lat="44.88463" lon="5.6449">
        <ele>757</ele>
        <time>2017-11-22T18:40:31Z</time>
      </trkpt>
      <trkpt lat="44.88464" lon="5.64469">
        <ele>756</ele>
        <time>2017-11-22T18:40:40Z</time>
      </trkpt>
      <trkpt lat="44.88464" lon="5.6438">
        <ele>756</ele>
        <time>2017-11-22T18:40:51Z</time>
      </trkpt>
      <trkpt lat="44.88465" lon="5.64361">
        <ele>756</ele>
        <time>2017-11-22T18:41:04Z</time>
      </trkpt>
      <trkpt lat="44.88472" lon="5.64331">
        <ele>756</ele>
        <time>2017-11-22T18:41:15Z</time>
      </trkpt>
      <trkpt lat="44.88478" lon="5.64316">
        <ele>756</ele>
        <time>2017-11-22T18:41:17Z</time>
      </trkpt>
      <trkpt lat="44.88512" lon="5.64261">
        <ele>760</ele>
        <time>2017-11-22T18:41:22Z</time>
      </trkpt>
      <trkpt lat="44.88573" lon="5.64165">
        <ele>761</ele>
        <time>2017-11-22T18:41:35Z</time>
      </trkpt>
      <trkpt lat="44.88587" lon="5.6414">
        <ele>765</ele>
        <time>2017-11-22T18:41:42Z</time>
      </trkpt>
      <trkpt lat="44.88598" lon="5.64111">
        <ele>766</ele>
        <time>2017-11-22T18:41:55Z</time>
      </trkpt>
      <trkpt lat="44.886" lon="5.64096">
        <ele>766</ele>
        <time>2017-11-22T18:41:57Z</time>
      </trkpt>
      <trkpt lat="44.88603" lon="5.64023">
        <ele>767</ele>
        <time>2017-11-22T18:42:16Z</time>
      </trkpt>
      <trkpt lat="44.88606" lon="5.63935">
        <ele>769</ele>
        <time>2017-11-22T18:42:33Z</time>
      </trkpt>
      <trkpt lat="44.8861" lon="5.63921">
        <ele>769</ele>
        <time>2017-11-22T18:42:36Z</time>
      </trkpt>
      <trkpt lat="44.88618" lon="5.63907">
        <ele>766</ele>
        <time>2017-11-22T18:42:51Z</time>
      </trkpt>
      <trkpt lat="44.88635" lon="5.63885">
        <ele>766</ele>
        <time>2017-11-22T18:42:57Z</time>
      </trkpt>
      <trkpt lat="44.88642" lon="5.63877">
        <ele>765</ele>
        <time>2017-11-22T18:43:10Z</time>
      </trkpt>
      <trkpt lat="44.88673" lon="5.63855">
        <ele>770</ele>
        <time>2017-11-22T18:43:19Z</time>
      </trkpt>
      <trkpt lat="44.88685" lon="5.63849">
        <ele>771</ele>
        <time>2017-11-22T18:43:28Z</time>
      </trkpt>
      <trkpt lat="44.88701" lon="5.63848">
        <ele>772</ele>
        <time>2017-11-22T18:43:36Z</time>
      </trkpt>
      <trkpt lat="44.88741" lon="5.63849">
        <ele>775</ele>
        <time>2017-11-22T18:43:48Z</time>
      </trkpt>
      <trkpt lat="44.8875" lon="5.63847">
        <ele>780</ele>
        <time>2017-11-22T18:44:08Z</time>
      </trkpt>
      <trkpt lat="44.88764" lon="5.63837">
        <ele>781</ele>
        <time>2017-11-22T18:44:20Z</time>
      </trkpt>
      <trkpt lat="44.8888" lon="5.63747">
        <ele>780</ele>
        <time>2017-11-22T18:44:25Z</time>
      </trkpt>
      <trkpt lat="44.88914" lon="5.63715">
        <ele>780</ele>
        <time>2017-11-22T18:44:39Z</time>
      </trkpt>
      <trkpt lat="44.88959" lon="5.63668">
        <ele>796</ele>
        <time>2017-11-22T18:44:48Z</time>
      </trkpt>
      <trkpt lat="44.89044" lon="5.6358">
        <ele>790</ele>
        <time>2017-11-22T18:44:58Z</time>
      </trkpt>
      <trkpt lat="44.89155" lon="5.63475">
        <ele>793</ele>
        <time>2017-11-22T18:45:07Z</time>
      </trkpt>
      <trkpt lat="44.89208" lon="5.63427">
        <ele>796</ele>
        <time>2017-11-22T18:45:19Z</time>
      </trkpt>
      <trkpt lat="44.89224" lon="5.63424">
        <ele>796</ele>
        <time>2017-11-22T18:45:25Z</time>
      </trkpt>
      <trkpt lat="44.89241" lon="5.6343">
        <ele>796</ele>
        <time>2017-11-22T18:45:28Z</time>
      </trkpt>
      <trkpt lat="44.89257" lon="5.63446">
        <ele>797</ele>
        <time>2017-11-22T18:45:32Z</time>
      </trkpt>
      <trkpt lat="44.89303" lon="5.6352">
        <ele>811</ele>
        <time>2017-11-22T18:45:42Z</time>
      </trkpt>
      <trkpt lat="44.89316" lon="5.63534">
        <ele>812</ele>
        <time>2017-11-22T18:45:48Z</time>
      </trkpt>
      <trkpt lat="44.89338" lon="5.63553">
        <ele>812</ele>
        <time>2017-11-22T18:46:05Z</time>
      </trkpt>
      <trkpt lat="44.89369" lon="5.63569">
        <ele>813</ele>
        <time>2017-11-22T18:46:14Z</time>
      </trkpt>
      <trkpt lat="44.89377" lon="5.63571">
        <ele>813</ele>
        <time>2017-11-22T18:46:16Z</time>
      </trkpt>
      <trkpt lat="44.89388" lon="5.63568">
        <ele>814</ele>
        <time>2017-11-22T18:46:21Z</time>
      </trkpt>
      <trkpt lat="44.89407" lon="5.63558">
        <ele>814</ele>
        <time>2017-11-22T18:46:25Z</time>
      </trkpt>
      <trkpt lat="44.8942" lon="5.63552">
        <ele>816</ele>
        <time>2017-11-22T18:46:36Z</time>
      </trkpt>
      <trkpt lat="44.89504" lon="5.63536">
        <ele>822</ele>
        <time>2017-11-22T18:46:56Z</time>
      </trkpt>
      <trkpt lat="44.8958" lon="5.63521">
        <ele>823</ele>
        <time>2017-11-22T18:47:11Z</time>
      </trkpt>
      <trkpt lat="44.89597" lon="5.63515">
        <ele>830</ele>
        <time>2017-11-22T18:47:29Z</time>
      </trkpt>
      <trkpt lat="44.89618" lon="5.635">
        <ele>824</ele>
        <time>2017-11-22T18:47:38Z</time>
      </trkpt>
      <trkpt lat="44.89676" lon="5.63444">
        <ele>838</ele>
        <time>2017-11-22T18:47:51Z</time>
      </trkpt>
      <trkpt lat="44.89714" lon="5.6341">
        <ele>835</ele>
        <time>2017-11-22T18:48:01Z</time>
      </trkpt>
      <trkpt lat="44.89725" lon="5.63397">
        <ele>836</ele>
        <time>2017-11-22T18:48:17Z</time>
      </trkpt>
      <trkpt lat="44.8973" lon="5.63386">
        <ele>836</ele>
        <time>2017-11-22T18:48:31Z</time>
      </trkpt>
      <trkpt lat="44.89732" lon="5.63371">
        <ele>835</ele>
        <time>2017-11-22T18:48:42Z</time>
      </trkpt>
      <trkpt lat="44.89728" lon="5.63307">
        <ele>833</ele>
        <time>2017-11-22T18:49:01Z</time>
      </trkpt>
      <trkpt lat="44.89731" lon="5.63282">
        <ele>832</ele>
        <time>2017-11-22T18:49:09Z</time>
      </trkpt>
      <trkpt lat="44.89743" lon="5.63244">
        <ele>836</ele>
        <time>2017-11-22T18:49:23Z</time>
      </trkpt>
      <trkpt lat="44.89756" lon="5.63202">
        <ele>846</ele>
        <time>2017-11-22T18:49:30Z</time>
      </trkpt>
      <trkpt lat="44.89758" lon="5.63181">
        <ele>844</ele>
        <time>2017-11-22T18:49:32Z</time>
      </trkpt>
      <trkpt lat="44.89755" lon="5.63169">
        <ele>841</ele>
        <time>2017-11-22T18:49:48Z</time>
      </trkpt>
      <trkpt lat="44.89744" lon="5.63144">
        <ele>835</ele>
        <time>2017-11-22T18:49:52Z</time>
      </trkpt>
      <trkpt lat="44.89738" lon="5.63119">
        <ele>834</ele>
        <time>2017-11-22T18:50:04Z</time>
      </trkpt>
      <trkpt lat="44.89741" lon="5.63096">
        <ele>835</ele>
        <time>2017-11-22T18:50:20Z</time>
      </trkpt>
      <trkpt lat="44.89747" lon="5.6308">
        <ele>837</ele>
        <time>2017-11-22T18:50:23Z</time>
      </trkpt>
      <trkpt lat="44.89765" lon="5.63063">
        <ele>844</ele>
        <time>2017-11-22T18:50:36Z</time>
      </trkpt>
      <trkpt lat="44.89796" lon="5.63054">
        <ele>848</ele>
        <time>2017-11-22T18:50:45Z</time>
      </trkpt>
      <trkpt lat="44.89818" lon="5.63045">
        <ele>850</ele>
        <time>2017-11-22T18:50:50Z</time>
      </trkpt>
      <trkpt lat="44.89822" lon="5.63041">
        <ele>850</ele>
        <time>2017-11-22T18:51:10Z</time>
      </trkpt>
      <trkpt lat="44.89825" lon="5.63034">
        <ele>850</ele>
        <time>2017-11-22T18:51:19Z</time>
      </trkpt>
      <trkpt lat="44.89824" lon="5.63013">
        <ele>851</ele>
        <time>2017-11-22T18:51:38Z</time>
      </trkpt>
      <trkpt lat="44.89818" lon="5.63004">
        <ele>851</ele>
        <time>2017-11-22T18:51:45Z</time>
      </trkpt>
      <trkpt lat="44.89804" lon="5.62996">
        <ele>850</ele>
        <time>2017-11-22T18:52:05Z</time>
      </trkpt>
      <trkpt lat="44.89794" lon="5.62986">
        <ele>849</ele>
        <time>2017-11-22T18:52:15Z</time>
      </trkpt>
      <trkpt lat="44.89787" lon="5.62975">
        <ele>849</ele>
        <time>2017-11-22T18:52:27Z</time>
      </trkpt>
      <trkpt lat="44.89784" lon="5.62965">
        <ele>849</ele>
        <time>2017-11-22T18:52:41Z</time>
      </trkpt>
      <trkpt lat="44.89784" lon="5.62947">
        <ele>849</ele>
        <time>2017-11-22T18:52:55Z</time>
      </trkpt>
      <trkpt lat="44.89789" lon="5.62928">
        <ele>850</ele>
        <time>2017-11-22T18:53:06Z</time>
      </trkpt>
      <trkpt lat="44.89808" lon="5.62883">
        <ele>850</ele>
        <time>2017-11-22T18:53:10Z</time>
      </trkpt>
      <trkpt lat="44.89826" lon="5.62843">
        <ele>851</ele>
        <time>2017-11-22T18:53:25Z</time>
      </trkpt>
      <trkpt lat="44.89838" lon="5.62827">
        <ele>852</ele>
        <time>2017-11-22T18:53:30Z</time>
      </trkpt>
      <trkpt lat="44.89855" lon="5.62813">
        <ele>852</ele>
        <time>2017-11-22T18:53:42Z</time>
      </trkpt>
      <trkpt lat="44.89879" lon="5.62803">
        <ele>853</ele>
        <time>2017-11-22T18:54:01Z</time>
      </trkpt>
      <trkpt lat="44.89954" lon="5.62781">
        <ele>858</ele>
        <time>2017-11-22T18:54:20Z</time>
      </trkpt>
      <trkpt lat="44.89973" lon="5.62779">
        <ele>858</ele>
        <time>2017-11-22T18:54:26Z</time>
      </trkpt>
      <trkpt lat="44.89992" lon="5.62781">
        <ele>858</ele>
        <time>2017-11-22T18:54:42Z</time>
      </trkpt>
      <trkpt lat="44.9003" lon="5.62798">
        <ele>864</ele>
        <time>2017-11-22T18:54:50Z</time>
      </trkpt>
      <trkpt lat="44.90057" lon="5.62815">
        <ele>867</ele>
        <time>2017-11-22T18:54:57Z</time>
      </trkpt>
      <trkpt lat="44.9007" lon="5.6283">
        <ele>870</ele>
        <time>2017-11-22T18:55:02Z</time>
      </trkpt>
      <trkpt lat="44.90083" lon="5.62848">
        <ele>877</ele>
        <time>2017-11-22T18:55:08Z</time>
      </trkpt>
      <trkpt lat="44.9009" lon="5.62853">
        <ele>880</ele>
        <time>2017-11-22T18:55:22Z</time>
      </trkpt>
      <trkpt lat="44.90101" lon="5.62856">
        <ele>881</ele>
        <time>2017-11-22T18:55:41Z</time>
      </trkpt>
      <trkpt lat="44.90109" lon="5.62855">
        <ele>882</ele>
        <time>2017-11-22T18:55:47Z</time>
      </trkpt>
      <trkpt lat="44.90131" lon="5.62843">
        <ele>882</ele>
        <time>2017-11-22T18:56:05Z</time>
      </trkpt>
      <trkpt lat="44.90148" lon="5.62837">
        <ele>881</ele>
        <time>2017-11-22T18:56:13Z</time>
      </trkpt>
      <trkpt lat="44.90158" lon="5.62837">
        <ele>879</ele>
        <time>2017-11-22T18:56:31Z</time>
      </trkpt>
      <trkpt lat="44.90168" lon="5.62841">
        <ele>881</ele>
        <time>2017-11-22T18:56:50Z</time>
      </trkpt>
      <trkpt lat="44.90193" lon="5.62864">
        <ele>889</ele>
        <time>2017-11-22T18:56:53Z</time>
      </trkpt>
      <trkpt lat="44.90213" lon="5.6288">
        <ele>892</ele>
        <time>2017-11-22T18:57:11Z</time>
      </trkpt>
      <trkpt lat="44.90227" lon="5.62882">
        <ele>893</ele>
        <time>2017-11-22T18:57:30Z</time>
      </trkpt>
      <trkpt lat="44.90244" lon="5.62876">
        <ele>892</ele>
        <time>2017-11-22T18:57:35Z</time>
      </trkpt>
      <trkpt lat="44.90258" lon="5.62869">
        <ele>895</ele>
        <time>2017-11-22T18:57:39Z</time>
      </trkpt>
      <trkpt lat="44.90267" lon="5.62869">
        <ele>895</ele>
        <time>2017-11-22T18:57:50Z</time>
      </trkpt>
      <trkpt lat="44.90296" lon="5.62894">
        <ele>900</ele>
        <time>2017-11-22T18:58:00Z</time>
      </trkpt>
      <trkpt lat="44.90306" lon="5.62896">
        <ele>901</ele>
        <time>2017-11-22T18:58:05Z</time>
      </trkpt>
      <trkpt lat="44.90316" lon="5.62893">
        <ele>901</ele>
        <time>2017-11-22T18:58:23Z</time>
      </trkpt>
      <trkpt lat="44.90335" lon="5.62876">
        <ele>907</ele>
        <time>2017-11-22T18:58:41Z</time>
      </trkpt>
      <trkpt lat="44.90351" lon="5.62854">
        <ele>903</ele>
        <time>2017-11-22T18:59:00Z</time>
      </trkpt>
      <trkpt lat="44.9038" lon="5.62799">
        <ele>894</ele>
        <time>2017-11-22T18:59:08Z</time>
      </trkpt>
      <trkpt lat="44.9039" lon="5.62777">
        <ele>893</ele>
        <time>2017-11-22T18:59:12Z</time>
      </trkpt>
      <trkpt lat="44.90404" lon="5.62759">
        <ele>894</ele>
        <time>2017-11-22T18:59:18Z</time>
      </trkpt>
      <trkpt lat="44.90423" lon="5.62746">
        <ele>894</ele>
        <time>2017-11-22T18:59:35Z</time>
      </trkpt>
      <trkpt lat="44.90442" lon="5.62735">
        <ele>896</ele>
        <time>2017-11-22T18:59:41Z</time>
      </trkpt>
      <trkpt lat="44.90454" lon="5.62726">
        <ele>897</ele>
        <time>2017-11-22T18:59:53Z</time>
      </trkpt>
      <trkpt lat="44.90465" lon="5.62711">
        <ele>897</ele>
        <time>2017-11-22T19:00:07Z</time>
      </trkpt>
      <trkpt lat="44.90509" lon="5.62647">
        <ele>899</ele>
        <time>2017-11-22T19:00:16Z</time>
      </trkpt>
      <trkpt lat="44.90525" lon="5.62629">
        <ele>899</ele>
        <time>2017-11-22T19:00:35Z</time>
      </trkpt>
      <trkpt lat="44.90543" lon="5.6262">
        <ele>899</ele>
        <time>2017-11-22T19:00:41Z</time>
      </trkpt>
      <trkpt lat="44.90557" lon="5.62615">
        <ele>900</ele>
        <time>2017-11-22T19:00:59Z</time>
      </trkpt>
      <trkpt lat="44.90572" lon="5.62614">
        <ele>900</ele>
        <time>2017-11-22T19:01:15Z</time>
      </trkpt>
      <trkpt lat="44.90651" lon="5.62654">
        <ele>902</ele>
        <time>2017-11-22T19:01:32Z</time>
      </trkpt>
      <trkpt lat="44.90673" lon="5.6267">
        <ele>899</ele>
        <time>2017-11-22T19:01:35Z</time>
      </trkpt>
      <trkpt lat="44.90688" lon="5.62687">
        <ele>897</ele>
        <time>2017-11-22T19:01:42Z</time>
      </trkpt>
      <trkpt lat="44.90709" lon="5.62717">
        <ele>895</ele>
        <time>2017-11-22T19:02:02Z</time>
      </trkpt>
      <trkpt lat="44.90729" lon="5.6276">
        <ele>893</ele>
        <time>2017-11-22T19:02:20Z</time>
      </trkpt>
      <trkpt lat="44.9074" lon="5.62782">
        <ele>893</ele>
        <time>2017-11-22T19:02:38Z</time>
      </trkpt>
      <trkpt lat="44.90751" lon="5.6279">
        <ele>886</ele>
        <time>2017-11-22T19:02:51Z</time>
      </trkpt>
      <trkpt lat="44.90771" lon="5.62798">
        <ele>886</ele>
        <time>2017-11-22T19:03:11Z</time>
      </trkpt>
      <trkpt lat="44.90769" lon="5.62816">
        <ele>886</ele>
        <time>2017-11-22T19:03:26Z</time>
      </trkpt>
      <trkpt lat="44.9077" lon="5.62825">
        <ele>886</ele>
        <time>2017-11-22T19:03:34Z</time>
      </trkpt>
      <trkpt lat="44.90774" lon="5.62849">
        <ele>886</ele>
        <time>2017-11-22T19:03:41Z</time>
      </trkpt>
      <trkpt lat="44.90786" lon="5.62883">
        <ele>885</ele>
        <time>2017-11-22T19:03:55Z</time>
      </trkpt>
      <trkpt lat="44.90807" lon="5.62929">
        <ele>883</ele>
        <time>2017-11-22T19:04:14Z</time>
      </trkpt>
      <trkpt lat="44.90824" lon="5.62959">
        <ele>883</ele>
        <time>2017-11-22T19:04:21Z</time>
      </trkpt>
      <trkpt lat="44.90846" lon="5.62988">
        <ele>878</ele>
        <time>2017-11-22T19:04:29Z</time>
      </trkpt>
      <trkpt lat="44.9087" lon="5.63014">
        <ele>878</ele>
        <time>2017-11-22T19:04:37Z</time>
      </trkpt>
      <trkpt lat="44.90897" lon="5.63037">
        <ele>878</ele>
        <time>2017-11-22T19:04:52Z</time>
      </trkpt>
      <trkpt lat="44.90939" lon="5.63064">
        <ele>874</ele>
        <time>2017-11-22T19:05:00Z</time>
      </trkpt>
      <trkpt lat="44.91017" lon="5.63107">
        <ele>862</ele>
        <time>2017-11-22T19:05:09Z</time>
      </trkpt>
      <trkpt lat="44.91046" lon="5.63123">
        <ele>860</ele>
        <time>2017-11-22T19:05:11Z</time>
      </trkpt>
      <trkpt lat="44.91129" lon="5.63167">
        <ele>853</ele>
        <time>2017-11-22T19:05:16Z</time>
      </trkpt>
      <trkpt lat="44.91152" lon="5.63177">
        <ele>852</ele>
        <time>2017-11-22T19:05:30Z</time>
      </trkpt>
      <trkpt lat="44.9117" lon="5.63186">
        <ele>851</ele>
        <time>2017-11-22T19:05:46Z</time>
      </trkpt>
      <trkpt lat="44.91184" lon="5.63195">
        <ele>850</ele>
        <time>2017-11-22T19:05:55Z</time>
      </trkpt>
      <trkpt lat="44.91225" lon="5.6322">
        <ele>849</ele>
        <time>2017-11-22T19:05:59Z</time>
      </trkpt>
      <trkpt lat="44.91298" lon="5.63259">
        <ele>847</ele>
        <time>2017-11-22T19:06:04Z</time>
      </trkpt>
      <trkpt lat="44.91298" lon="5.6326">
        <ele>846</ele>
        <time>2017-11-22T19:06:20Z</time>
      </trkpt>
      <trkpt lat="44.91298" lon="5.63261">
        <ele>846</ele>
        <time>2017-11-22T19:06:36Z</time>
      </trkpt>
      <trkpt lat="44.91298" lon="5.63263">
        <ele>846</ele>
        <time>2017-11-22T19:06:56Z</time>
      </trkpt>
      <trkpt lat="44.91298" lon="5.63264">
        <ele>846</ele>
        <time>2017-11-22T19:07:11Z</time>
      </trkpt>
      <trkpt lat="44.91299" lon="5.63268">
        <ele>846</ele>
        <time>2017-11-22T19:07:26Z</time>
      </trkpt>
      <trkpt lat="44.91303" lon="5.63271">
        <ele>846</ele>
        <time>2017-11-22T19:07:42Z</time>
      </trkpt>
      <trkpt lat="44.91308" lon="5.63268">
        <ele>846</ele>
        <time>2017-11-22T19:07:55Z</time>
      </trkpt>
      <trkpt lat="44.91309" lon="5.63267">
        <ele>846</ele>
        <time>2017-11-22T19:08:00Z</time>
      </trkpt>
      <trkpt lat="44.91418" lon="5.63326">
        <ele>842</ele>
        <time>2017-11-22T19:08:16Z</time>
      </trkpt>
      <trkpt lat="44.91548" lon="5.63396">
        <ele>834</ele>
        <time>2017-11-22T19:08:24Z</time>
      </trkpt>
      <trkpt lat="44.91556" lon="5.63402">
        <ele>833</ele>
        <time>2017-11-22T19:08:43Z</time>
      </trkpt>
      <trkpt lat="44.91575" lon="5.63411">
        <ele>832</ele>
        <time>2017-11-22T19:09:00Z</time>
      </trkpt>
      <trkpt lat="44.91589" lon="5.63414">
        <ele>830</ele>
        <time>2017-11-22T19:09:10Z</time>
      </trkpt>
      <trkpt lat="44.916" lon="5.63413">
        <ele>829</ele>
        <time>2017-11-22T19:09:15Z</time>
      </trkpt>
      <trkpt lat="44.91618" lon="5.63403">
        <ele>827</ele>
        <time>2017-11-22T19:09:18Z</time>
      </trkpt>
      <trkpt lat="44.91631" lon="5.63389">
        <ele>826</ele>
        <time>2017-11-22T19:09:38Z</time>
      </trkpt>
      <trkpt lat="44.91653" lon="5.63361">
        <ele>826</ele>
        <time>2017-11-22T19:09:52Z</time>
      </trkpt>
      <trkpt lat="44.91683" lon="5.63324">
        <ele>827</ele>
        <time>2017-11-22T19:09:57Z</time>
      </trkpt>
      <trkpt lat="44.91685" lon="5.63322">
        <ele>828</ele>
        <time>2017-11-22T19:10:16Z</time>
      </trkpt>
      <trkpt lat="44.91688" lon="5.63317">
        <ele>828</ele>
        <time>2017-11-22T19:10:18Z</time>
      </trkpt>
      <trkpt lat="44.91701" lon="5.63309">
        <ele>829</ele>
        <time>2017-11-22T19:10:27Z</time>
      </trkpt>
      <trkpt lat="44.91709" lon="5.63305">
        <ele>830</ele>
        <time>2017-11-22T19:10:40Z</time>
      </trkpt>
      <trkpt lat="44.91715" lon="5.63303">
        <ele>830</ele>
        <time>2017-11-22T19:10:58Z</time>
      </trkpt>
      <trkpt lat="44.91729" lon="5.63301">
        <ele>830</ele>
        <time>2017-11-22T19:11:02Z</time>
      </trkpt>
      <trkpt lat="44.91744" lon="5.63302">
        <ele>830</ele>
        <time>2017-11-22T19:11:09Z</time>
      </trkpt>
      <trkpt lat="44.91757" lon="5.63305">
        <ele>832</ele>
        <time>2017-11-22T19:11:21Z</time>
      </trkpt>
      <trkpt lat="44.9177" lon="5.63312">
        <ele>832</ele>
        <time>2017-11-22T19:11:23Z</time>
      </trkpt>
      <trkpt lat="44.91785" lon="5.63323">
        <ele>832</ele>
        <time>2017-11-22T19:11:25Z</time>
      </trkpt>
      <trkpt lat="44.91902" lon="5.63441">
        <ele>816</ele>
        <time>2017-11-22T19:11:32Z</time>
      </trkpt>
      <trkpt lat="44.91921" lon="5.63455">
        <ele>814</ele>
        <time>2017-11-22T19:11:39Z</time>
      </trkpt>
      <trkpt lat="44.91938" lon="5.63463">
        <ele>814</ele>
        <time>2017-11-22T19:11:51Z</time>
      </trkpt>
      <trkpt lat="44.91961" lon="5.63468">
        <ele>813</ele>
        <time>2017-11-22T19:12:04Z</time>
      </trkpt>
      <trkpt lat="44.92001" lon="5.63473">
        <ele>812</ele>
        <time>2017-11-22T19:12:22Z</time>
      </trkpt>
      <trkpt lat="44.92022" lon="5.6348">
        <ele>812</ele>
        <time>2017-11-22T19:12:30Z</time>
      </trkpt>
      <trkpt lat="44.92039" lon="5.63489">
        <ele>812</ele>
        <time>2017-11-22T19:12:32Z</time>
      </trkpt>
      <trkpt lat="44.92053" lon="5.63499">
        <ele>812</ele>
        <time>2017-11-22T19:12:43Z</time>
      </trkpt>
      <trkpt lat="44.92067" lon="5.63514">
        <ele>808</ele>
        <time>2017-11-22T19:12:46Z</time>
      </trkpt>
      <trkpt lat="44.92083" lon="5.63534">
        <ele>808</ele>
        <time>2017-11-22T19:12:52Z</time>
      </trkpt>
      <trkpt lat="44.92096" lon="5.63566">
        <ele>807</ele>
        <time>2017-11-22T19:13:01Z</time>
      </trkpt>
      <trkpt lat="44.92105" lon="5.63594">
        <ele>806</ele>
        <time>2017-11-22T19:13:03Z</time>
      </trkpt>
      <trkpt lat="44.92106" lon="5.63609">
        <ele>806</ele>
        <time>2017-11-22T19:13:16Z</time>
      </trkpt>
      <trkpt lat="44.92104" lon="5.6362">
        <ele>806</ele>
        <time>2017-11-22T19:13:34Z</time>
      </trkpt>
      <trkpt lat="44.92103" lon="5.6363">
        <ele>806</ele>
        <time>2017-11-22T19:13:44Z</time>
      </trkpt>
      <trkpt lat="44.92105" lon="5.63639">
        <ele>806</ele>
        <time>2017-11-22T19:14:02Z</time>
      </trkpt>
      <trkpt lat="44.92108" lon="5.63644">
        <ele>806</ele>
        <time>2017-11-22T19:14:13Z</time>
      </trkpt>
      <trkpt lat="44.92115" lon="5.63648">
        <ele>806</ele>
        <time>2017-11-22T19:14:19Z</time>
      </trkpt>
      <trkpt lat="44.92122" lon="5.63647">
        <ele>806</ele>
        <time>2017-11-22T19:14:23Z</time>
      </trkpt>
      <trkpt lat="44.92127" lon="5.63642">
        <ele>806</ele>
        <time>2017-11-22T19:14:42Z</time>
      </trkpt>
      <trkpt lat="44.92131" lon="5.6363">
        <ele>806</ele>
        <time>2017-11-22T19:14:48Z</time>
      </trkpt>
      <trkpt lat="44.92131" lon="5.63625">
        <ele>806</ele>
        <time>2017-11-22T19:15:01Z</time>
      </trkpt>
      <trkpt lat="44.92138" lon="5.63617">
        <ele>806</ele>
        <time>2017-11-22T19:15:08Z</time>
      </trkpt>
      <trkpt lat="44.92148" lon="5.63602">
        <ele>805</ele>
        <time>2017-11-22T19:15:25Z</time>
      </trkpt>
      <trkpt lat="44.92151" lon="5.63597">
        <ele>805</ele>
        <time>2017-11-22T19:15:38Z</time>
      </trkpt>
      <trkpt lat="44.92155" lon="5.6359">
        <ele>805</ele>
        <time>2017-11-22T19:15:41Z</time>
      </trkpt>
      <trkpt lat="44.92156" lon="5.63582">
        <ele>805</ele>
        <time>2017-11-22T19:15:49Z</time>
      </trkpt>
      <trkpt lat="44.9216" lon="5.63574">
        <ele>805</ele>
        <time>2017-11-22T19:16:04Z</time>
      </trkpt>
      <trkpt lat="44.92169" lon="5.63561">
        <ele>805</ele>
        <time>2017-11-22T19:16:15Z</time>
      </trkpt>
      <trkpt lat="44.92192" lon="5.63544">
        <ele>806</ele>
        <time>2017-11-22T19:16:26Z</time>
      </trkpt>
      <trkpt lat="44.92246" lon="5.63511">
        <ele>810</ele>
        <time>2017-11-22T19:16:41Z</time>
      </trkpt>
      <trkpt lat="44.92287" lon="5.63491">
        <ele>824</ele>
        <time>2017-11-22T19:16:45Z</time>
      </trkpt>
      <trkpt lat="44.92328" lon="5.63477">
        <ele>825</ele>
        <time>2017-11-22T19:16:58Z</time>
      </trkpt>
      <trkpt lat="44.92395" lon="5.63465">
        <ele>826</ele>
        <time>2017-11-22T19:17:02Z</time>
      </trkpt>
      <trkpt lat="44.92431" lon="5.63464">
        <ele>826</ele>
        <time>2017-11-22T19:17:15Z</time>
      </trkpt>
      <trkpt lat="44.92451" lon="5.63465">
        <ele>826</ele>
        <time>2017-11-22T19:17:18Z</time>
      </trkpt>
      <trkpt lat="44.92475" lon="5.63471">
        <ele>825</ele>
        <time>2017-11-22T19:17:23Z</time>
      </trkpt>
      <trkpt lat="44.92514" lon="5.63484">
        <ele>824</ele>
        <time>2017-11-22T19:17:35Z</time>
      </trkpt>
      <trkpt lat="44.92541" lon="5.63487">
        <ele>827</ele>
        <time>2017-11-22T19:17:41Z</time>
      </trkpt>
      <trkpt lat="44.92565" lon="5.63487">
        <ele>826</ele>
        <time>2017-11-22T19:17:50Z</time>
      </trkpt>
      <trkpt lat="44.92592" lon="5.63488">
        <ele>826</ele>
        <time>2017-11-22T19:18:08Z</time>
      </trkpt>
      <trkpt lat="44.92621" lon="5.63498">
        <ele>831</ele>
        <time>2017-11-22T19:18:25Z</time>
      </trkpt>
      <trkpt lat="44.92656" lon="5.6351">
        <ele>814</ele>
        <time>2017-11-22T19:18:35Z</time>
      </trkpt>
      <trkpt lat="44.92692" lon="5.63513">
        <ele>814</ele>
        <time>2017-11-22T19:18:46Z</time>
      </trkpt>
      <trkpt lat="44.92758" lon="5.63513">
        <ele>819</ele>
        <time>2017-11-22T19:18:53Z</time>
      </trkpt>
      <trkpt lat="44.92785" lon="5.63519">
        <ele>815</ele>
        <time>2017-11-22T19:18:55Z</time>
      </trkpt>
      <trkpt lat="44.92811" lon="5.63526">
        <ele>814</ele>
        <time>2017-11-22T19:18:59Z</time>
      </trkpt>
      <trkpt lat="44.92837" lon="5.63525">
        <ele>813</ele>
        <time>2017-11-22T19:19:13Z</time>
      </trkpt>
      <trkpt lat="44.9286" lon="5.63517">
        <ele>812</ele>
        <time>2017-11-22T19:19:30Z</time>
      </trkpt>
      <trkpt lat="44.92885" lon="5.63504">
        <ele>811</ele>
        <time>2017-11-22T19:19:41Z</time>
      </trkpt>
      <trkpt lat="44.92955" lon="5.63446">
        <ele>815</ele>
        <time>2017-11-22T19:19:43Z</time>
      </trkpt>
      <trkpt lat="44.92979" lon="5.63428">
        <ele>814</ele>
        <time>2017-11-22T19:20:01Z</time>
      </trkpt>
      <trkpt lat="44.92989" lon="5.63417">
        <ele>814</ele>
        <time>2017-11-22T19:20:03Z</time>
      </trkpt>
      <trkpt lat="44.92994" lon="5.63407">
        <ele>815</ele>
        <time>2017-11-22T19:20:18Z</time>
      </trkpt>
      <trkpt lat="44.92996" lon="5.63397">
        <ele>815</ele>
        <time>2017-11-22T19:20:21Z</time>
      </trkpt>
      <trkpt lat="44.92993" lon="5.63375">
        <ele>815</ele>
        <time>2017-11-22T19:20:37Z</time>
      </trkpt>
      <trkpt lat="44.92984" lon="5.63347">
        <ele>814</ele>
        <time>2017-11-22T19:20:55Z</time>
      </trkpt>
      <trkpt lat="44.92964" lon="5.63307">
        <ele>810</ele>
        <time>2017-11-22T19:20:58Z</time>
      </trkpt>
      <trkpt lat="44.92918" lon="5.63238">
        <ele>809</ele>
        <time>2017-11-22T19:21:11Z</time>
      </trkpt>
      <trkpt lat="44.92909" lon="5.63217">
        <ele>815</ele>
        <time>2017-11-22T19:21:13Z</time>
      </trkpt>
      <trkpt lat="44.92898" lon="5.63183">
        <ele>815</ele>
        <time>2017-11-22T19:21:23Z</time>
      </trkpt>
      <trkpt lat="44.92887" lon="5.63135">
        <ele>814</ele>
        <time>2017-11-22T19:21:36Z</time>
      </trkpt>
      <trkpt lat="44.92877" lon="5.63089">
        <ele>814</ele>
        <time>2017-11-22T19:21:43Z</time>
      </trkpt>
      <trkpt lat="44.92866" lon="5.63005">
        <ele>814</ele>
        <time>2017-11-22T19:22:01Z</time>
      </trkpt>
      <trkpt lat="44.92865" lon="5.62982">
        <ele>814</ele>
        <time>2017-11-22T19:22:07Z</time>
      </trkpt>
      <trkpt lat="44.92867" lon="5.62966">
        <ele>814</ele>
        <time>2017-11-22T19:22:13Z</time>
      </trkpt>
      <trkpt lat="44.92873" lon="5.6295">
        <ele>814</ele>
        <time>2017-11-22T19:22:19Z</time>
      </trkpt>
      <trkpt lat="44.92903" lon="5.62912">
        <ele>812</ele>
        <time>2017-11-22T19:22:32Z</time>
      </trkpt>
      <trkpt lat="44.92936" lon="5.62867">
        <ele>808</ele>
        <time>2017-11-22T19:22:35Z</time>
      </trkpt>
      <trkpt lat="44.92956" lon="5.62819">
        <ele>808</ele>
        <time>2017-11-22T19:22:43Z</time>
      </trkpt>
      <trkpt lat="44.92966" lon="5.62787">
        <ele>808</ele>
        <time>2017-11-22T19:22:54Z</time>
      </trkpt>
      <trkpt lat="44.93022" lon="5.6261">
        <ele>804</ele>
        <time>2017-11-22T19:23:12Z</time>
      </trkpt>
      <trkpt lat="44.93055" lon="5.62512">
        <ele>804</ele>
        <time>2017-11-22T19:23:14Z</time>
      </trkpt>
      <trkpt lat="44.93121" lon="5.62309">
        <ele>807</ele>
        <time>2017-11-22T19:23:32Z</time>
      </trkpt>
      <trkpt lat="44.93129" lon="5.6227">
        <ele>808</ele>
        <time>2017-11-22T19:23:39Z</time>
      </trkpt>
      <trkpt lat="44.93129" lon="5.62247">
        <ele>810</ele>
        <time>2017-11-22T19:23:46Z</time>
      </trkpt>
      <trkpt lat="44.93127" lon="5.62223">
        <ele>811</ele>
        <time>2017-11-22T19:23:56Z</time>
      </trkpt>
      <trkpt lat="44.93121" lon="5.62163">
        <ele>812</ele>
        <time>2017-11-22T19:24:01Z</time>
      </trkpt>
      <trkpt lat="44.93121" lon="5.62137">
        <ele>813</ele>
        <time>2017-11-22T19:24:17Z</time>
      </trkpt>
      <trkpt lat="44.93126" lon="5.62117">
        <ele>813</ele>
        <time>2017-11-22T19:24:19Z</time>
      </trkpt>
      <trkpt lat="44.93134" lon="5.62098">
        <ele>812</ele>
        <time>2017-11-22T19:24:23Z</time>
      </trkpt>
      <trkpt lat="44.93145" lon="5.62084">
        <ele>812</ele>
        <time>2017-11-22T19:24:28Z</time>
      </trkpt>
      <trkpt lat="44.93177" lon="5.62058">
        <ele>814</ele>
        <time>2017-11-22T19:24:32Z</time>
      </trkpt>
      <trkpt lat="44.93225" lon="5.62025">
        <ele>816</ele>
        <time>2017-11-22T19:24:42Z</time>
      </trkpt>
      <trkpt lat="44.93276" lon="5.61996">
        <ele>822</ele>
        <time>2017-11-22T19:24:56Z</time>
      </trkpt>
      <trkpt lat="44.93299" lon="5.61988">
        <ele>822</ele>
        <time>2017-11-22T19:25:14Z</time>
      </trkpt>
      <trkpt lat="44.93317" lon="5.61985">
        <ele>822</ele>
        <time>2017-11-22T19:25:20Z</time>
      </trkpt>
      <trkpt lat="44.93334" lon="5.61985">
        <ele>822</ele>
        <time>2017-11-22T19:25:25Z</time>
      </trkpt>
      <trkpt lat="44.93353" lon="5.6199">
        <ele>823</ele>
        <time>2017-11-22T19:25:40Z</time>
      </trkpt>
      <trkpt lat="44.93405" lon="5.62009">
        <ele>821</ele>
        <time>2017-11-22T19:25:44Z</time>
      </trkpt>
      <trkpt lat="44.9342" lon="5.62011">
        <ele>821</ele>
        <time>2017-11-22T19:25:49Z</time>
      </trkpt>
      <trkpt lat="44.93425" lon="5.6201">
        <ele>821</ele>
        <time>2017-11-22T19:26:09Z</time>
      </trkpt>
      <trkpt lat="44.93436" lon="5.61998">
        <ele>821</ele>
        <time>2017-11-22T19:26:25Z</time>
      </trkpt>
      <trkpt lat="44.93439" lon="5.61992">
        <ele>821</ele>
        <time>2017-11-22T19:26:29Z</time>
      </trkpt>
      <trkpt lat="44.93441" lon="5.61976">
        <ele>821</ele>
        <time>2017-11-22T19:26:38Z</time>
      </trkpt>
      <trkpt lat="44.93437" lon="5.61955">
        <ele>822</ele>
        <time>2017-11-22T19:26:44Z</time>
      </trkpt>
      <trkpt lat="44.93429" lon="5.61931">
        <ele>824</ele>
        <time>2017-11-22T19:26:55Z</time>
      </trkpt>
      <trkpt lat="44.93418" lon="5.61893">
        <ele>827</ele>
        <time>2017-11-22T19:27:09Z</time>
      </trkpt>
      <trkpt lat="44.93413" lon="5.61868">
        <ele>832</ele>
        <time>2017-11-22T19:27:19Z</time>
      </trkpt>
      <trkpt lat="44.9341" lon="5.61808">
        <ele>836</ele>
        <time>2017-11-22T19:27:26Z</time>
      </trkpt>
      <trkpt lat="44.93406" lon="5.6165">
        <ele>846</ele>
        <time>2017-11-22T19:27:44Z</time>
      </trkpt>
      <trkpt lat="44.9341" lon="5.61567">
        <ele>847</ele>
        <time>2017-11-22T19:27:55Z</time>
      </trkpt>
      <trkpt lat="44.93415" lon="5.61505">
        <ele>844</ele>
        <time>2017-11-22T19:28:14Z</time>
      </trkpt>
      <trkpt lat="44.93419" lon="5.6148">
        <ele>842</ele>
        <time>2017-11-22T19:28:32Z</time>
      </trkpt>
      <trkpt lat="44.93425" lon="5.61456">
        <ele>842</ele>
        <time>2017-11-22T19:28:34Z</time>
      </trkpt>
      <trkpt lat="44.93451" lon="5.61387">
        <ele>843</ele>
        <time>2017-11-22T19:28:46Z</time>
      </trkpt>
      <trkpt lat="44.93464" lon="5.61345">
        <ele>842</ele>
        <time>2017-11-22T19:28:59Z</time>
      </trkpt>
      <trkpt lat="44.93484" lon="5.61295">
        <ele>845</ele>
        <time>2017-11-22T19:29:16Z</time>
      </trkpt>
      <trkpt lat="44.93522" lon="5.61232">
        <ele>846</ele>
        <time>2017-11-22T19:29:29Z</time>
      </trkpt>
      <trkpt lat="44.93563" lon="5.61171">
        <ele>846</ele>
        <time>2017-11-22T19:29:40Z</time>
      </trkpt>
      <trkpt lat="44.93596" lon="5.61133">
        <ele>848</ele>
        <time>2017-11-22T19:29:50Z</time>
      </trkpt>
      <trkpt lat="44.93632" lon="5.61094">
        <ele>847</ele>
        <time>2017-11-22T19:29:52Z</time>
      </trkpt>
      <trkpt lat="44.93647" lon="5.61073">
        <ele>849</ele>
        <time>2017-11-22T19:29:54Z</time>
      </trkpt>
      <trkpt lat="44.9366" lon="5.61051">
        <ele>849</ele>
        <time>2017-11-22T19:29:57Z</time>
      </trkpt>
      <trkpt lat="44.93674" lon="5.61026">
        <ele>846</ele>
        <time>2017-11-22T19:30:14Z</time>
      </trkpt>
      <trkpt lat="44.93685" lon="5.61012">
        <ele>846</ele>
        <time>2017-11-22T19:30:31Z</time>
      </trkpt>
      <trkpt lat="44.93694" lon="5.61003">
        <ele>846</ele>
        <time>2017-11-22T19:30:51Z</time>
      </trkpt>
      <trkpt lat="44.93702" lon="5.60997">
        <ele>848</ele>
        <time>2017-11-22T19:31:10Z</time>
      </trkpt>
      <trkpt lat="44.93715" lon="5.60992">
        <ele>848</ele>
        <time>2017-11-22T19:31:25Z</time>
      </trkpt>
      <trkpt lat="44.93734" lon="5.60986">
        <ele>847</ele>
        <time>2017-11-22T19:31:44Z</time>
      </trkpt>
      <trkpt lat="44.9375" lon="5.60981">
        <ele>846</ele>
        <time>2017-11-22T19:32:03Z</time>
      </trkpt>
      <trkpt lat="44.93766" lon="5.60973">
        <ele>846</ele>
        <time>2017-11-22T19:32:09Z</time>
      </trkpt>
      <trkpt lat="44.93791" lon="5.60951">
        <ele>846</ele>
        <time>2017-11-22T19:32:11Z</time>
      </trkpt>
      <trkpt lat="44.93815" lon="5.60934">
        <ele>846</ele>
        <time>2017-11-22T19:32:27Z</time>
      </trkpt>
      <trkpt lat="44.93848" lon="5.60916">
        <ele>846</ele>
        <time>2017-11-22T19:32:43Z</time>
      </trkpt>
      <trkpt lat="44.93868" lon="5.6091">
        <ele>846</ele>
        <time>2017-11-22T19:32:50Z</time>
      </trkpt>
      <trkpt lat="44.93936" lon="5.60904">
        <ele>843</ele>
        <time>2017-11-22T19:33:07Z</time>
      </trkpt>
      <trkpt lat="44.93956" lon="5.60899">
        <ele>843</ele>
        <time>2017-11-22T19:33:17Z</time>
      </trkpt>
      <trkpt lat="44.93971" lon="5.60893">
        <ele>842</ele>
        <time>2017-11-22T19:33:21Z</time>
      </trkpt>
      <trkpt lat="44.94019" lon="5.60863">
        <ele>839</ele>
        <time>2017-11-22T19:33:25Z</time>
      </trkpt>
      <trkpt lat="44.94086" lon="5.60816">
        <ele>838</ele>
        <time>2017-11-22T19:33:31Z</time>
      </trkpt>
      <trkpt lat="44.94104" lon="5.60806">
        <ele>838</ele>
        <time>2017-11-22T19:33:41Z</time>
      </trkpt>
      <trkpt lat="44.94155" lon="5.60781">
        <ele>838</ele>
        <time>2017-11-22T19:33:56Z</time>
      </trkpt>
      <trkpt lat="44.94192" lon="5.60756">
        <ele>835</ele>
        <time>2017-11-22T19:33:58Z</time>
      </trkpt>
      <trkpt lat="44.94234" lon="5.60716">
        <ele>837</ele>
        <time>2017-11-22T19:34:05Z</time>
      </trkpt>
      <trkpt lat="44.94289" lon="5.6066">
        <ele>840</ele>
        <time>2017-11-22T19:34:13Z</time>
      </trkpt>
      <trkpt lat="44.94304" lon="5.60647">
        <ele>840</ele>
        <time>2017-11-22T19:34:19Z</time>
      </trkpt>
      <trkpt lat="44.94316" lon="5.60642">
        <ele>840</ele>
        <time>2017-11-22T19:34:29Z</time>
      </trkpt>
      <trkpt lat="44.94331" lon="5.60639">
        <ele>839</ele>
        <time>2017-11-22T19:34:31Z</time>
      </trkpt>
      <trkpt lat="44.94346" lon="5.6064">
        <ele>838</ele>
        <time>2017-11-22T19:34:49Z</time>
      </trkpt>
      <trkpt lat="44.94386" lon="5.60649">
        <ele>839</ele>
        <time>2017-11-22T19:34:53Z</time>
      </trkpt>
      <trkpt lat="44.94402" lon="5.60652">
        <ele>838</ele>
        <time>2017-11-22T19:35:07Z</time>
      </trkpt>
      <trkpt lat="44.94418" lon="5.60652">
        <ele>838</ele>
        <time>2017-11-22T19:35:18Z</time>
      </trkpt>
      <trkpt lat="44.94434" lon="5.60649">
        <ele>838</ele>
        <time>2017-11-22T19:35:32Z</time>
      </trkpt>
      <trkpt lat="44.94458" lon="5.60642">
        <ele>838</ele>
        <time>2017-11-22T19:35:41Z</time>
      </trkpt>
      <trkpt lat="44.94497" lon="5.60624">
        <ele>839</ele>
        <time>2017-11-22T19:35:48Z</time>
      </trkpt>
      <trkpt lat="44.94514" lon="5.60613">
        <ele>838</ele>
        <time>2017-11-22T19:36:08Z</time>
      </trkpt>
      <trkpt lat="44.94549" lon="5.60587">
        <ele>837</ele>
        <time>2017-11-22T19:36:23Z</time>
      </trkpt>
      <trkpt lat="44.9458" lon="5.60558">
        <ele>841</ele>
        <time>2017-11-22T19:36:41Z</time>
      </trkpt>
      <trkpt lat="44.94622" lon="5.60512">
        <ele>837</ele>
        <time>2017-11-22T19:36:45Z</time>
      </trkpt>
      <trkpt lat="44.94651" lon="5.60468">
        <ele>841</ele>
        <time>2017-11-22T19:36:59Z</time>
      </trkpt>
      <trkpt lat="44.94663" lon="5.60446">
        <ele>842</ele>
        <time>2017-11-22T19:37:07Z</time>
      </trkpt>
      <trkpt lat="44.94674" lon="5.60429">
        <ele>840</ele>
        <time>2017-11-22T19:37:20Z</time>
      </trkpt>
      <trkpt lat="44.94693" lon="5.60414">
        <ele>843</ele>
        <time>2017-11-22T19:37:26Z</time>
      </trkpt>
      <trkpt lat="44.94705" lon="5.60406">
        <ele>842</ele>
        <time>2017-11-22T19:37:40Z</time>
      </trkpt>
      <trkpt lat="44.94709" lon="5.60404">
        <ele>842</ele>
        <time>2017-11-22T19:37:45Z</time>
      </trkpt>
      <trkpt lat="44.94718" lon="5.60404">
        <ele>841</ele>
        <time>2017-11-22T19:38:04Z</time>
      </trkpt>
      <trkpt lat="44.9473" lon="5.60405">
        <ele>840</ele>
        <time>2017-11-22T19:38:17Z</time>
      </trkpt>
      <trkpt lat="44.94764" lon="5.60415">
        <ele>835</ele>
        <time>2017-11-22T19:38:34Z</time>
      </trkpt>
      <trkpt lat="44.94867" lon="5.60461">
        <ele>827</ele>
        <time>2017-11-22T19:38:54Z</time>
      </trkpt>
      <trkpt lat="44.94961" lon="5.60504">
        <ele>823</ele>
        <time>2017-11-22T19:38:57Z</time>
      </trkpt>
      <trkpt lat="44.95024" lon="5.60531">
        <ele>818</ele>
        <time>2017-11-22T19:39:11Z</time>
      </trkpt>
      <trkpt lat="44.95036" lon="5.60531">
        <ele>818</ele>
        <time>2017-11-22T19:39:26Z</time>
      </trkpt>
      <trkpt lat="44.95055" lon="5.60521">
        <ele>817</ele>
        <time>2017-11-22T19:39:43Z</time>
      </trkpt>
      <trkpt lat="44.95109" lon="5.60491">
        <ele>810</ele>
        <time>2017-11-22T19:39:57Z</time>
      </trkpt>
      <trkpt lat="44.95122" lon="5.60481">
        <ele>809</ele>
        <time>2017-11-22T19:40:17Z</time>
      </trkpt>
      <trkpt lat="44.95138" lon="5.60464">
        <ele>807</ele>
        <time>2017-11-22T19:40:27Z</time>
      </trkpt>
      <trkpt lat="44.95151" lon="5.60447">
        <ele>806</ele>
        <time>2017-11-22T19:40:43Z</time>
      </trkpt>
      <trkpt lat="44.95156" lon="5.60434">
        <ele>805</ele>
        <time>2017-11-22T19:40:53Z</time>
      </trkpt>
      <trkpt lat="44.95158" lon="5.60418">
        <ele>804</ele>
        <time>2017-11-22T19:40:55Z</time>
      </trkpt>
      <trkpt lat="44.95156" lon="5.60391">
        <ele>805</ele>
        <time>2017-11-22T19:41:01Z</time>
      </trkpt>
      <trkpt lat="44.95145" lon="5.6036">
        <ele>804</ele>
        <time>2017-11-22T19:41:12Z</time>
      </trkpt>
      <trkpt lat="44.95138" lon="5.60333">
        <ele>802</ele>
        <time>2017-11-22T19:41:21Z</time>
      </trkpt>
      <trkpt lat="44.95136" lon="5.60315">
        <ele>803</ele>
        <time>2017-11-22T19:41:28Z</time>
      </trkpt>
      <trkpt lat="44.95137" lon="5.60298">
        <ele>803</ele>
        <time>2017-11-22T19:41:32Z</time>
      </trkpt>
      <trkpt lat="44.95141" lon="5.60278">
        <ele>802</ele>
        <time>2017-11-22T19:41:38Z</time>
      </trkpt>
      <trkpt lat="44.95154" lon="5.60244">
        <ele>796</ele>
        <time>2017-11-22T19:41:48Z</time>
      </trkpt>
      <trkpt lat="44.95167" lon="5.60202">
        <ele>786</ele>
        <time>2017-11-22T19:41:58Z</time>
      </trkpt>
      <trkpt lat="44.95169" lon="5.60189">
        <ele>787</ele>
        <time>2017-11-22T19:42:15Z</time>
      </trkpt>
      <trkpt lat="44.95168" lon="5.60182">
        <ele>788</ele>
        <time>2017-11-22T19:42:26Z</time>
      </trkpt>
      <trkpt lat="44.95165" lon="5.60172">
        <ele>793</ele>
        <time>2017-11-22T19:42:43Z</time>
      </trkpt>
      <trkpt lat="44.95156" lon="5.60164">
        <ele>790</ele>
        <time>2017-11-22T19:42:57Z</time>
      </trkpt>
      <trkpt lat="44.95128" lon="5.60159">
        <ele>790</ele>
        <time>2017-11-22T19:43:16Z</time>
      </trkpt>
      <trkpt lat="44.95117" lon="5.60152">
        <ele>790</ele>
        <time>2017-11-22T19:43:36Z</time>
      </trkpt>
      <trkpt lat="44.951" lon="5.6013">
        <ele>789</ele>
        <time>2017-11-22T19:43:47Z</time>
      </trkpt>
      <trkpt lat="44.95088" lon="5.60103">
        <ele>786</ele>
        <time>2017-11-22T19:44:01Z</time>
      </trkpt>
      <trkpt lat="44.95083" lon="5.60079">
        <ele>786</ele>
        <time>2017-11-22T19:44:07Z</time>
      </trkpt>
      <trkpt lat="44.95084" lon="5.60052">
        <ele>780</ele>
        <time>2017-11-22T19:44:21Z</time>
      </trkpt>
      <trkpt lat="44.95093" lon="5.60022">
        <ele>780</ele>
        <time>2017-11-22T19:44:38Z</time>
      </trkpt>
      <trkpt lat="44.95108" lon="5.59984">
        <ele>776</ele>
        <time>2017-11-22T19:44:40Z</time>
      </trkpt>
      <trkpt lat="44.95112" lon="5.59956">
        <ele>775</ele>
        <time>2017-11-22T19:44:45Z</time>
      </trkpt>
      <trkpt lat="44.95116" lon="5.5992">
        <ele>775</ele>
        <time>2017-11-22T19:44:52Z</time>
      </trkpt>
      <trkpt lat="44.95132" lon="5.59855">
        <ele>772</ele>
        <time>2017-11-22T19:45:08Z</time>
      </trkpt>
      <trkpt lat="44.9515" lon="5.59781">
        <ele>771</ele>
        <time>2017-11-22T19:45:19Z</time>
      </trkpt>
      <trkpt lat="44.9516" lon="5.59761">
        <ele>767</ele>
        <time>2017-11-22T19:45:27Z</time>
      </trkpt>
      <trkpt lat="44.95184" lon="5.59724">
        <ele>759</ele>
        <time>2017-11-22T19:45:39Z</time>
      </trkpt>
      <trkpt lat="44.9523" lon="5.59639">
        <ele>758</ele>
        <time>2017-11-22T19:45:43Z</time>
      </trkpt>
      <trkpt lat="44.95255" lon="5.59587">
        <ele>749</ele>
        <time>2017-11-22T19:45:45Z</time>
      </trkpt>
      <trkpt lat="44.95268" lon="5.59534">
        <ele>747</ele>
        <time>2017-11-22T19:45:53Z</time>
      </trkpt>
      <trkpt lat="44.95274" lon="5.59476">
        <ele>748</ele>
        <time>2017-11-22T19:46:10Z</time>
      </trkpt>
      <trkpt lat="44.95276" lon="5.59405">
        <ele>747</ele>
        <time>2017-11-22T19:46:27Z</time>
      </trkpt>
      <trkpt lat="44.95282" lon="5.59299">
        <ele>741</ele>
        <time>2017-11-22T19:46:42Z</time>
      </trkpt>
      <trkpt lat="44.95281" lon="5.59247">
        <ele>739</ele>
        <time>2017-11-22T19:46:48Z</time>
      </trkpt>
      <trkpt lat="44.95275" lon="5.59187">
        <ele>738</ele>
        <time>2017-11-22T19:46:53Z</time>
      </trkpt>
      <trkpt lat="44.95274" lon="5.59167">
        <ele>739</ele>
        <time>2017-11-22T19:46:58Z</time>
      </trkpt>
      <trkpt lat="44.95278" lon="5.59149">
        <ele>738</ele>
        <time>2017-11-22T19:47:14Z</time>
      </trkpt>
      <trkpt lat="44.95283" lon="5.59136">
        <ele>737</ele>
        <time>2017-11-22T19:47:26Z</time>
      </trkpt>
      <trkpt lat="44.95289" lon="5.59129">
        <ele>736</ele>
        <time>2017-11-22T19:47:31Z</time>
      </trkpt>
      <trkpt lat="44.9533" lon="5.59084">
        <ele>726</ele>
        <time>2017-11-22T19:47:42Z</time>
      </trkpt>
      <trkpt lat="44.95343" lon="5.59068">
        <ele>720</ele>
        <time>2017-11-22T19:47:54Z</time>
      </trkpt>
      <trkpt lat="44.95352" lon="5.59048">
        <ele>718</ele>
        <time>2017-11-22T19:48:02Z</time>
      </trkpt>
      <trkpt lat="44.95371" lon="5.59">
        <ele>719</ele>
        <time>2017-11-22T19:48:12Z</time>
      </trkpt>
      <trkpt lat="44.95374" lon="5.58991">
        <ele>719</ele>
        <time>2017-11-22T19:48:27Z</time>
      </trkpt>
      <trkpt lat="44.95386" lon="5.58945">
        <ele>718</ele>
        <time>2017-11-22T19:48:43Z</time>
      </trkpt>
      <trkpt lat="44.95398" lon="5.58901">
        <ele>719</ele>
        <time>2017-11-22T19:48:51Z</time>
      </trkpt>
      <trkpt lat="44.95407" lon="5.58887">
        <ele>720</ele>
        <time>2017-11-22T19:48:57Z</time>
      </trkpt>
      <trkpt lat="44.95416" lon="5.58878">
        <ele>720</ele>
        <time>2017-11-22T19:49:01Z</time>
      </trkpt>
      <trkpt lat="44.9544" lon="5.58863">
        <ele>711</ele>
        <time>2017-11-22T19:49:21Z</time>
      </trkpt>
      <trkpt lat="44.95454" lon="5.5886">
        <ele>710</ele>
        <time>2017-11-22T19:49:30Z</time>
      </trkpt>
      <trkpt lat="44.95468" lon="5.58862">
        <ele>709</ele>
        <time>2017-11-22T19:49:42Z</time>
      </trkpt>
      <trkpt lat="44.95495" lon="5.58867">
        <ele>708</ele>
        <time>2017-11-22T19:49:52Z</time>
      </trkpt>
      <trkpt lat="44.95518" lon="5.58874">
        <ele>702</ele>
        <time>2017-11-22T19:49:55Z</time>
      </trkpt>
      <trkpt lat="44.95524" lon="5.58873">
        <ele>701</ele>
        <time>2017-11-22T19:50:10Z</time>
      </trkpt>
      <trkpt lat="44.95531" lon="5.58865">
        <ele>702</ele>
        <time>2017-11-22T19:50:27Z</time>
      </trkpt>
      <trkpt lat="44.95552" lon="5.58826">
        <ele>704</ele>
        <time>2017-11-22T19:50:37Z</time>
      </trkpt>
      <trkpt lat="44.95554" lon="5.5882">
        <ele>704</ele>
        <time>2017-11-22T19:50:42Z</time>
      </trkpt>
      <trkpt lat="44.95557" lon="5.58793">
        <ele>705</ele>
        <time>2017-11-22T19:50:58Z</time>
      </trkpt>
      <trkpt lat="44.95563" lon="5.58779">
        <ele>705</ele>
        <time>2017-11-22T19:51:10Z</time>
      </trkpt>
      <trkpt lat="44.95569" lon="5.58774">
        <ele>705</ele>
        <time>2017-11-22T19:51:27Z</time>
      </trkpt>
      <trkpt lat="44.95589" lon="5.58767">
        <ele>702</ele>
        <time>2017-11-22T19:51:42Z</time>
      </trkpt>
      <trkpt lat="44.95642" lon="5.58758">
        <ele>698</ele>
        <time>2017-11-22T19:51:45Z</time>
      </trkpt>
      <trkpt lat="44.95662" lon="5.58751">
        <ele>697</ele>
        <time>2017-11-22T19:52:03Z</time>
      </trkpt>
      <trkpt lat="44.95692" lon="5.5873">
        <ele>692</ele>
        <time>2017-11-22T19:52:19Z</time>
      </trkpt>
      <trkpt lat="44.95709" lon="5.58722">
        <ele>690</ele>
        <time>2017-11-22T19:52:35Z</time>
      </trkpt>
      <trkpt lat="44.95718" lon="5.58725">
        <ele>689</ele>
        <time>2017-11-22T19:52:55Z</time>
      </trkpt>
      <trkpt lat="44.95724" lon="5.58732">
        <ele>689</ele>
        <time>2017-11-22T19:53:13Z</time>
      </trkpt>
      <trkpt lat="44.95726" lon="5.58749">
        <ele>689</ele>
        <time>2017-11-22T19:53:29Z</time>
      </trkpt>
      <trkpt lat="44.9571" lon="5.58811">
        <ele>688</ele>
        <time>2017-11-22T19:53:44Z</time>
      </trkpt>
      <trkpt lat="44.95676" lon="5.58939">
        <ele>680</ele>
        <time>2017-11-22T19:53:48Z</time>
      </trkpt>
      <trkpt lat="44.95672" lon="5.58966">
        <ele>678</ele>
        <time>2017-11-22T19:53:53Z</time>
      </trkpt>
      <trkpt lat="44.95674" lon="5.58979">
        <ele>678</ele>
        <time>2017-11-22T19:53:55Z</time>
      </trkpt>
      <trkpt lat="44.95678" lon="5.58985">
        <ele>678</ele>
        <time>2017-11-22T19:54:09Z</time>
      </trkpt>
      <trkpt lat="44.95682" lon="5.58988">
        <ele>678</ele>
        <time>2017-11-22T19:54:15Z</time>
      </trkpt>
      <trkpt lat="44.95689" lon="5.58988">
        <ele>677</ele>
        <time>2017-11-22T19:54:29Z</time>
      </trkpt>
      <trkpt lat="44.95699" lon="5.58983">
        <ele>677</ele>
        <time>2017-11-22T19:54:46Z</time>
      </trkpt>
      <trkpt lat="44.95715" lon="5.58969">
        <ele>676</ele>
        <time>2017-11-22T19:55:03Z</time>
      </trkpt>
      <trkpt lat="44.95729" lon="5.58957">
        <ele>675</ele>
        <time>2017-11-22T19:55:20Z</time>
      </trkpt>
      <trkpt lat="44.95747" lon="5.58949">
        <ele>675</ele>
        <time>2017-11-22T19:55:39Z</time>
      </trkpt>
      <trkpt lat="44.95784" lon="5.58943">
        <ele>668</ele>
        <time>2017-11-22T19:55:42Z</time>
      </trkpt>
      <trkpt lat="44.95853" lon="5.58935">
        <ele>661</ele>
        <time>2017-11-22T19:55:56Z</time>
      </trkpt>
      <trkpt lat="44.95947" lon="5.58922">
        <ele>653</ele>
        <time>2017-11-22T19:56:01Z</time>
      </trkpt>
      <trkpt lat="44.95965" lon="5.58918">
        <ele>651</ele>
        <time>2017-11-22T19:56:16Z</time>
      </trkpt>
      <trkpt lat="44.95978" lon="5.58911">
        <ele>651</ele>
        <time>2017-11-22T19:56:24Z</time>
      </trkpt>
      <trkpt lat="44.95992" lon="5.58894">
        <ele>651</ele>
        <time>2017-11-22T19:56:38Z</time>
      </trkpt>
      <trkpt lat="44.95997" lon="5.58882">
        <ele>651</ele>
        <time>2017-11-22T19:56:55Z</time>
      </trkpt>
      <trkpt lat="44.96" lon="5.58868">
        <ele>649</ele>
        <time>2017-11-22T19:57:03Z</time>
      </trkpt>
      <trkpt lat="44.96004" lon="5.5883">
        <ele>649</ele>
        <time>2017-11-22T19:57:16Z</time>
      </trkpt>
      <trkpt lat="44.96012" lon="5.58807">
        <ele>650</ele>
        <time>2017-11-22T19:57:21Z</time>
      </trkpt>
      <trkpt lat="44.9603" lon="5.58786">
        <ele>651</ele>
        <time>2017-11-22T19:57:35Z</time>
      </trkpt>
      <trkpt lat="44.96067" lon="5.58761">
        <ele>655</ele>
        <time>2017-11-22T19:57:41Z</time>
      </trkpt>
      <trkpt lat="44.96084" lon="5.58754">
        <ele>660</ele>
        <time>2017-11-22T19:57:48Z</time>
      </trkpt>
      <trkpt lat="44.96093" lon="5.58753">
        <ele>663</ele>
        <time>2017-11-22T19:58:02Z</time>
      </trkpt>
      <trkpt lat="44.96101" lon="5.58758">
        <ele>665</ele>
        <time>2017-11-22T19:58:08Z</time>
      </trkpt>
      <trkpt lat="44.96108" lon="5.58767">
        <ele>667</ele>
        <time>2017-11-22T19:58:27Z</time>
      </trkpt>
      <trkpt lat="44.96113" lon="5.58781">
        <ele>667</ele>
        <time>2017-11-22T19:58:40Z</time>
      </trkpt>
      <trkpt lat="44.96117" lon="5.58816">
        <ele>666</ele>
        <time>2017-11-22T19:58:49Z</time>
      </trkpt>
      <trkpt lat="44.96118" lon="5.58857">
        <ele>664</ele>
        <time>2017-11-22T19:58:55Z</time>
      </trkpt>
      <trkpt lat="44.96119" lon="5.58868">
        <ele>665</ele>
        <time>2017-11-22T19:59:13Z</time>
      </trkpt>
      <trkpt lat="44.96122" lon="5.58873">
        <ele>665</ele>
        <time>2017-11-22T19:59:22Z</time>
      </trkpt>
      <trkpt lat="44.96124" lon="5.58874">
        <ele>666</ele>
        <time>2017-11-22T19:59:26Z</time>
      </trkpt>
      <trkpt lat="44.96128" lon="5.58872">
        <ele>666</ele>
        <time>2017-11-22T19:59:38Z</time>
      </trkpt>
      <trkpt lat="44.96133" lon="5.58863">
        <ele>667</ele>
        <time>2017-11-22T19:59:57Z</time>
      </trkpt>
      <trkpt lat="44.96136" lon="5.58849">
        <ele>668</ele>
        <time>2017-11-22T20:00:06Z</time>
      </trkpt>
      <trkpt lat="44.96136" lon="5.58818">
        <ele>670</ele>
        <time>2017-11-22T20:00:18Z</time>
      </trkpt>
      <trkpt lat="44.96132" lon="5.58785">
        <ele>671</ele>
        <time>2017-11-22T20:00:31Z</time>
      </trkpt>
      <trkpt lat="44.9612" lon="5.58744">
        <ele>676</ele>
        <time>2017-11-22T20:00:44Z</time>
      </trkpt>
      <trkpt lat="44.9612" lon="5.58719">
        <ele>678</ele>
        <time>2017-11-22T20:01:00Z</time>
      </trkpt>
      <trkpt lat="44.9612" lon="5.58687">
        <ele>680</ele>
        <time>2017-11-22T20:01:11Z</time>
      </trkpt>
      <trkpt lat="44.96117" lon="5.58658">
        <ele>689</ele>
        <time>2017-11-22T20:01:20Z</time>
      </trkpt>
      <trkpt lat="44.96112" lon="5.58613">
        <ele>692</ele>
        <time>2017-11-22T20:01:40Z</time>
      </trkpt>
      <trkpt lat="44.96115" lon="5.58607">
        <ele>693</ele>
        <time>2017-11-22T20:02:00Z</time>
      </trkpt>
      <trkpt lat="44.96118" lon="5.58605">
        <ele>694</ele>
        <time>2017-11-22T20:02:17Z</time>
      </trkpt>
      <trkpt lat="44.96124" lon="5.58607">
        <ele>696</ele>
        <time>2017-11-22T20:02:22Z</time>
      </trkpt>
      <trkpt lat="44.96125" lon="5.5861">
        <ele>696</ele>
        <time>2017-11-22T20:02:36Z</time>
      </trkpt>
      <trkpt lat="44.96131" lon="5.58638">
        <ele>695</ele>
        <time>2017-11-22T20:02:55Z</time>
      </trkpt>
      <trkpt lat="44.96137" lon="5.58661">
        <ele>696</ele>
        <time>2017-11-22T20:02:58Z</time>
      </trkpt>
      <trkpt lat="44.96149" lon="5.58695">
        <ele>687</ele>
        <time>2017-11-22T20:03:03Z</time>
      </trkpt>
      <trkpt lat="44.96158" lon="5.58717">
        <ele>685</ele>
        <time>2017-11-22T20:03:08Z</time>
      </trkpt>
      <trkpt lat="44.96175" lon="5.58742">
        <ele>701</ele>
        <time>2017-11-22T20:03:26Z</time>
      </trkpt>
      <trkpt lat="44.96187" lon="5.5876">
        <ele>700</ele>
        <time>2017-11-22T20:03:42Z</time>
      </trkpt>
      <trkpt lat="44.96193" lon="5.58773">
        <ele>703</ele>
        <time>2017-11-22T20:03:58Z</time>
      </trkpt>
      <trkpt lat="44.96203" lon="5.58812">
        <ele>703</ele>
        <time>2017-11-22T20:04:03Z</time>
      </trkpt>
      <trkpt lat="44.96222" lon="5.58864">
        <ele>702</ele>
        <time>2017-11-22T20:04:12Z</time>
      </trkpt>
      <trkpt lat="44.96234" lon="5.589">
        <ele>706</ele>
        <time>2017-11-22T20:04:14Z</time>
      </trkpt>
      <trkpt lat="44.96238" lon="5.58908">
        <ele>708</ele>
        <time>2017-11-22T20:04:20Z</time>
      </trkpt>
      <trkpt lat="44.96245" lon="5.58913">
        <ele>712</ele>
        <time>2017-11-22T20:04:29Z</time>
      </trkpt>
      <trkpt lat="44.96247" lon="5.5896">
        <ele>710</ele>
        <time>2017-11-22T20:04:43Z</time>
      </trkpt>
      <trkpt lat="44.96236" lon="5.59036">
        <ele>719</ele>
        <time>2017-11-22T20:05:00Z</time>
      </trkpt>
      <trkpt lat="44.9623" lon="5.59078">
        <ele>724</ele>
        <time>2017-11-22T20:05:11Z</time>
      </trkpt>
      <trkpt lat="44.96227" lon="5.59127">
        <ele>729</ele>
        <time>2017-11-22T20:05:29Z</time>
      </trkpt>
      <trkpt lat="44.96219" lon="5.59162">
        <ele>730</ele>
        <time>2017-11-22T20:05:43Z</time>
      </trkpt>
      <trkpt lat="44.96204" lon="5.59187">
        <ele>733</ele>
        <time>2017-11-22T20:05:50Z</time>
      </trkpt>
      <trkpt lat="44.96195" lon="5.59203">
        <ele>732</ele>
        <time>2017-11-22T20:06:05Z</time>
      </trkpt>
      <trkpt lat="44.96189" lon="5.59224">
        <ele>732</ele>
        <time>2017-11-22T20:06:15Z</time>
      </trkpt>
      <trkpt lat="44.96186" lon="5.59256">
        <ele>734</ele>
        <time>2017-11-22T20:06:24Z</time>
      </trkpt>
      <trkpt lat="44.96187" lon="5.59279">
        <ele>737</ele>
        <time>2017-11-22T20:06:30Z</time>
      </trkpt>
      <trkpt lat="44.96191" lon="5.59337">
        <ele>737</ele>
        <time>2017-11-22T20:06:37Z</time>
      </trkpt>
      <trkpt lat="44.96194" lon="5.59383">
        <ele>740</ele>
        <time>2017-11-22T20:06:55Z</time>
      </trkpt>
      <trkpt lat="44.96198" lon="5.59425">
        <ele>738</ele>
        <time>2017-11-22T20:06:59Z</time>
      </trkpt>
      <trkpt lat="44.96203" lon="5.59437">
        <ele>739</ele>
        <time>2017-11-22T20:07:07Z</time>
      </trkpt>
      <trkpt lat="44.9621" lon="5.59445">
        <ele>739</ele>
        <time>2017-11-22T20:07:14Z</time>
      </trkpt>
      <trkpt lat="44.96224" lon="5.59452">
        <ele>741</ele>
        <time>2017-11-22T20:07:30Z</time>
      </trkpt>
      <trkpt lat="44.96245" lon="5.5946">
        <ele>742</ele>
        <time>2017-11-22T20:07:36Z</time>
      </trkpt>
      <trkpt lat="44.96267" lon="5.59474">
        <ele>755</ele>
        <time>2017-11-22T20:07:48Z</time>
      </trkpt>
      <trkpt lat="44.96283" lon="5.59489">
        <ele>755</ele>
        <time>2017-11-22T20:07:51Z</time>
      </trkpt>
      <trkpt lat="44.96294" lon="5.59495">
        <ele>757</ele>
        <time>2017-11-22T20:07:57Z</time>
      </trkpt>
      <trkpt lat="44.963" lon="5.59494">
        <ele>758</ele>
        <time>2017-11-22T20:08:07Z</time>
      </trkpt>
      <trkpt lat="44.96303" lon="5.59484">
        <ele>759</ele>
        <time>2017-11-22T20:08:12Z</time>
      </trkpt>
      <trkpt lat="44.96303" lon="5.59479">
        <ele>759</ele>
        <time>2017-11-22T20:08:19Z</time>
      </trkpt>
      <trkpt lat="44.96295" lon="5.59466">
        <ele>760</ele>
        <time>2017-11-22T20:08:39Z</time>
      </trkpt>
      <trkpt lat="44.96283" lon="5.59453">
        <ele>761</ele>
        <time>2017-11-22T20:08:57Z</time>
      </trkpt>
      <trkpt lat="44.96272" lon="5.59437">
        <ele>761</ele>
        <time>2017-11-22T20:09:02Z</time>
      </trkpt>
      <trkpt lat="44.96249" lon="5.59405">
        <ele>753</ele>
        <time>2017-11-22T20:09:18Z</time>
      </trkpt>
      <trkpt lat="44.96239" lon="5.59377">
        <ele>749</ele>
        <time>2017-11-22T20:09:35Z</time>
      </trkpt>
      <trkpt lat="44.96238" lon="5.59356">
        <ele>751</ele>
        <time>2017-11-22T20:09:55Z</time>
      </trkpt>
      <trkpt lat="44.96246" lon="5.59327">
        <ele>758</ele>
        <time>2017-11-22T20:10:10Z</time>
      </trkpt>
      <trkpt lat="44.96253" lon="5.59311">
        <ele>774</ele>
        <time>2017-11-22T20:10:19Z</time>
      </trkpt>
      <trkpt lat="44.96259" lon="5.59308">
        <ele>775</ele>
        <time>2017-11-22T20:10:22Z</time>
      </trkpt>
      <trkpt lat="44.96266" lon="5.5931">
        <ele>776</ele>
        <time>2017-11-22T20:10:33Z</time>
      </trkpt>
      <trkpt lat="44.96268" lon="5.59315">
        <ele>776</ele>
        <time>2017-11-22T20:10:53Z</time>
      </trkpt>
      <trkpt lat="44.96267" lon="5.5934">
        <ele>773</ele>
        <time>2017-11-22T20:10:59Z</time>
      </trkpt>
      <trkpt lat="44.96264" lon="5.59354">
        <ele>774</ele>
        <time>2017-11-22T20:11:03Z</time>
      </trkpt>
      <trkpt lat="44.96264" lon="5.59367">
        <ele>774</ele>
        <time>2017-11-22T20:11:11Z</time>
      </trkpt>
      <trkpt lat="44.96268" lon="5.59378">
        <ele>774</ele>
        <time>2017-11-22T20:11:26Z</time>
      </trkpt>
      <trkpt lat="44.96283" lon="5.59392">
        <ele>776</ele>
        <time>2017-11-22T20:11:29Z</time>
      </trkpt>
      <trkpt lat="44.96309" lon="5.59409">
        <ele>783</ele>
        <time>2017-11-22T20:11:35Z</time>
      </trkpt>
      <trkpt lat="44.96333" lon="5.59424">
        <ele>783</ele>
        <time>2017-11-22T20:11:49Z</time>
      </trkpt>
      <trkpt lat="44.96352" lon="5.59442">
        <ele>783</ele>
        <time>2017-11-22T20:12:07Z</time>
      </trkpt>
      <trkpt lat="44.96364" lon="5.59449">
        <ele>783</ele>
        <time>2017-11-22T20:12:26Z</time>
      </trkpt>
      <trkpt lat="44.96377" lon="5.59452">
        <ele>783</ele>
        <time>2017-11-22T20:12:31Z</time>
      </trkpt>
      <trkpt lat="44.96388" lon="5.59452">
        <ele>784</ele>
        <time>2017-11-22T20:12:40Z</time>
      </trkpt>
      <trkpt lat="44.96401" lon="5.59449">
        <ele>787</ele>
        <time>2017-11-22T20:12:51Z</time>
      </trkpt>
      <trkpt lat="44.9642" lon="5.59446">
        <ele>799</ele>
        <time>2017-11-22T20:13:05Z</time>
      </trkpt>
      <trkpt lat="44.96434" lon="5.59446">
        <ele>800</ele>
        <time>2017-11-22T20:13:19Z</time>
      </trkpt>
      <trkpt lat="44.96446" lon="5.5945">
        <ele>799</ele>
        <time>2017-11-22T20:13:28Z</time>
      </trkpt>
      <trkpt lat="44.96461" lon="5.59458">
        <ele>799</ele>
        <time>2017-11-22T20:13:37Z</time>
      </trkpt>
      <trkpt lat="44.9647" lon="5.59465">
        <ele>799</ele>
        <time>2017-11-22T20:13:47Z</time>
      </trkpt>
      <trkpt lat="44.96484" lon="5.59479">
        <ele>797</ele>
        <time>2017-11-22T20:13:53Z</time>
      </trkpt>
      <trkpt lat="44.9652" lon="5.59541">
        <ele>799</ele>
        <time>2017-11-22T20:14:02Z</time>
      </trkpt>
      <trkpt lat="44.96527" lon="5.59557">
        <ele>798</ele>
        <time>2017-11-22T20:14:19Z</time>
      </trkpt>
      <trkpt lat="44.9653" lon="5.59572">
        <ele>796</ele>
        <time>2017-11-22T20:14:30Z</time>
      </trkpt>
      <trkpt lat="44.96533" lon="5.59601">
        <ele>788</ele>
        <time>2017-11-22T20:14:43Z</time>
      </trkpt>
      <trkpt lat="44.96538" lon="5.5964">
        <ele>788</ele>
        <time>2017-11-22T20:14:59Z</time>
      </trkpt>
      <trkpt lat="44.96549" lon="5.59667">
        <ele>783</ele>
        <time>2017-11-22T20:15:05Z</time>
      </trkpt>
      <trkpt lat="44.96564" lon="5.59683">
        <ele>787</ele>
        <time>2017-11-22T20:15:18Z</time>
      </trkpt>
      <trkpt lat="44.96586" lon="5.59697">
        <ele>807</ele>
        <time>2017-11-22T20:15:32Z</time>
      </trkpt>
      <trkpt lat="44.96607" lon="5.59709">
        <ele>808</ele>
        <time>2017-11-22T20:15:41Z</time>
      </trkpt>
      <trkpt lat="44.9662" lon="5.59723">
        <ele>809</ele>
        <time>2017-11-22T20:15:48Z</time>
      </trkpt>
      <trkpt lat="44.96628" lon="5.59737">
        <ele>810</ele>
        <time>2017-11-22T20:16:08Z</time>
      </trkpt>
      <trkpt lat="44.96633" lon="5.59754">
        <ele>803</ele>
        <time>2017-11-22T20:16:18Z</time>
      </trkpt>
      <trkpt lat="44.96635" lon="5.59774">
        <ele>802</ele>
        <time>2017-11-22T20:16:38Z</time>
      </trkpt>
      <trkpt lat="44.96643" lon="5.59846">
        <ele>800</ele>
        <time>2017-11-22T20:16:40Z</time>
      </trkpt>
      <trkpt lat="44.96655" lon="5.59885">
        <ele>799</ele>
        <time>2017-11-22T20:16:50Z</time>
      </trkpt>
      <trkpt lat="44.9666" lon="5.59903">
        <ele>802</ele>
        <time>2017-11-22T20:17:06Z</time>
      </trkpt>
      <trkpt lat="44.96664" lon="5.59931">
        <ele>803</ele>
        <time>2017-11-22T20:17:24Z</time>
      </trkpt>
      <trkpt lat="44.96678" lon="5.60016">
        <ele>821</ele>
        <time>2017-11-22T20:17:43Z</time>
      </trkpt>
      <trkpt lat="44.96684" lon="5.60053">
        <ele>826</ele>
        <time>2017-11-22T20:18:02Z</time>
      </trkpt>
      <trkpt lat="44.96685" lon="5.60074">
        <ele>824</ele>
        <time>2017-11-22T20:18:12Z</time>
      </trkpt>
      <trkpt lat="44.96681" lon="5.60093">
        <ele>828</ele>
        <time>2017-11-22T20:18:32Z</time>
      </trkpt>
      <trkpt lat="44.96673" lon="5.60116">
        <ele>833</ele>
        <time>2017-11-22T20:18:52Z</time>
      </trkpt>
      <trkpt lat="44.96646" lon="5.60186">
        <ele>826</ele>
        <time>2017-11-22T20:19:11Z</time>
      </trkpt>
      <trkpt lat="44.96636" lon="5.60201">
        <ele>825</ele>
        <time>2017-11-22T20:19:20Z</time>
      </trkpt>
      <trkpt lat="44.96622" lon="5.60216">
        <ele>823</ele>
        <time>2017-11-22T20:19:38Z</time>
      </trkpt>
      <trkpt lat="44.96616" lon="5.60237">
        <ele>823</ele>
        <time>2017-11-22T20:19:49Z</time>
      </trkpt>
      <trkpt lat="44.96612" lon="5.60261">
        <ele>828</ele>
        <time>2017-11-22T20:19:57Z</time>
      </trkpt>
      <trkpt lat="44.9661" lon="5.60288">
        <ele>829</ele>
        <time>2017-11-22T20:20:08Z</time>
      </trkpt>
      <trkpt lat="44.96616" lon="5.60323">
        <ele>830</ele>
        <time>2017-11-22T20:20:13Z</time>
      </trkpt>
      <trkpt lat="44.9663" lon="5.60374">
        <ele>834</ele>
        <time>2017-11-22T20:20:21Z</time>
      </trkpt>
      <trkpt lat="44.96645" lon="5.60418">
        <ele>837</ele>
        <time>2017-11-22T20:20:40Z</time>
      </trkpt>
      <trkpt lat="44.96663" lon="5.60466">
        <ele>836</ele>
        <time>2017-11-22T20:20:42Z</time>
      </trkpt>
      <trkpt lat="44.9668" lon="5.60502">
        <ele>847</ele>
        <time>2017-11-22T20:20:55Z</time>
      </trkpt>
      <trkpt lat="44.96695" lon="5.60531">
        <ele>849</ele>
        <time>2017-11-22T20:21:08Z</time>
      </trkpt>
      <trkpt lat="44.96713" lon="5.60551">
        <ele>851</ele>
        <time>2017-11-22T20:21:23Z</time>
      </trkpt>
      <trkpt lat="44.96754" lon="5.60591">
        <ele>856</ele>
        <time>2017-11-22T20:21:26Z</time>
      </trkpt>
      <trkpt lat="44.96783" lon="5.6062">
        <ele>857</ele>
        <time>2017-11-22T20:21:39Z</time>
      </trkpt>
      <trkpt lat="44.9684" lon="5.60669">
        <ele>862</ele>
        <time>2017-11-22T20:21:59Z</time>
      </trkpt>
      <trkpt lat="44.96947" lon="5.60775">
        <ele>874</ele>
        <time>2017-11-22T20:22:08Z</time>
      </trkpt>
      <trkpt lat="44.96977" lon="5.60807">
        <ele>875</ele>
        <time>2017-11-22T20:22:11Z</time>
      </trkpt>
      <trkpt lat="44.96987" lon="5.60821">
        <ele>876</ele>
        <time>2017-11-22T20:22:13Z</time>
      </trkpt>
      <trkpt lat="44.97004" lon="5.60854">
        <ele>881</ele>
        <time>2017-11-22T20:22:24Z</time>
      </trkpt>
      <trkpt lat="44.97013" lon="5.60887">
        <ele>882</ele>
        <time>2017-11-22T20:22:37Z</time>
      </trkpt>
      <trkpt lat="44.97019" lon="5.60928">
        <ele>878</ele>
        <time>2017-11-22T20:22:57Z</time>
      </trkpt>
      <trkpt lat="44.97021" lon="5.60941">
        <ele>879</ele>
        <time>2017-11-22T20:23:13Z</time>
      </trkpt>
      <trkpt lat="44.97025" lon="5.60952">
        <ele>879</ele>
        <time>2017-11-22T20:23:26Z</time>
      </trkpt>
      <trkpt lat="44.9703" lon="5.60958">
        <ele>879</ele>
        <time>2017-11-22T20:23:32Z</time>
      </trkpt>
      <trkpt lat="44.9704" lon="5.60964">
        <ele>880</ele>
        <time>2017-11-22T20:23:47Z</time>
      </trkpt>
      <trkpt lat="44.97078" lon="5.60975">
        <ele>882</ele>
        <time>2017-11-22T20:23:55Z</time>
      </trkpt>
      <trkpt lat="44.97092" lon="5.60984">
        <ele>890</ele>
        <time>2017-11-22T20:24:13Z</time>
      </trkpt>
      <trkpt lat="44.9711" lon="5.6101">
        <ele>884</ele>
        <time>2017-11-22T20:24:16Z</time>
      </trkpt>
      <trkpt lat="44.97128" lon="5.61031">
        <ele>885</ele>
        <time>2017-11-22T20:24:23Z</time>
      </trkpt>
      <trkpt lat="44.97164" lon="5.61066">
        <ele>888</ele>
        <time>2017-11-22T20:24:32Z</time>
      </trkpt>
      <trkpt lat="44.97174" lon="5.6108">
        <ele>896</ele>
        <time>2017-11-22T20:24:42Z</time>
      </trkpt>
      <trkpt lat="44.97178" lon="5.6109">
        <ele>896</ele>
        <time>2017-11-22T20:24:48Z</time>
      </trkpt>
      <trkpt lat="44.97186" lon="5.61127">
        <ele>898</ele>
        <time>2017-11-22T20:25:05Z</time>
      </trkpt>
      <trkpt lat="44.97192" lon="5.61165">
        <ele>895</ele>
        <time>2017-11-22T20:25:18Z</time>
      </trkpt>
      <trkpt lat="44.97204" lon="5.61191">
        <ele>890</ele>
        <time>2017-11-22T20:25:23Z</time>
      </trkpt>
      <trkpt lat="44.97272" lon="5.61299">
        <ele>886</ele>
        <time>2017-11-22T20:25:28Z</time>
      </trkpt>
      <trkpt lat="44.97292" lon="5.61322">
        <ele>885</ele>
        <time>2017-11-22T20:25:42Z</time>
      </trkpt>
      <trkpt lat="44.97317" lon="5.61332">
        <ele>885</ele>
        <time>2017-11-22T20:25:57Z</time>
      </trkpt>
      <trkpt lat="44.97322" lon="5.61341">
        <ele>878</ele>
        <time>2017-11-22T20:26:16Z</time>
      </trkpt>
      <trkpt lat="44.97323" lon="5.6135">
        <ele>876</ele>
        <time>2017-11-22T20:26:23Z</time>
      </trkpt>
      <trkpt lat="44.97321" lon="5.61358">
        <ele>874</ele>
        <time>2017-11-22T20:26:27Z</time>
      </trkpt>
      <trkpt lat="44.97315" lon="5.61363">
        <ele>873</ele>
        <time>2017-11-22T20:26:46Z</time>
      </trkpt>
      <trkpt lat="44.97308" lon="5.61363">
        <ele>872</ele>
        <time>2017-11-22T20:26:59Z</time>
      </trkpt>
      <trkpt lat="44.97298" lon="5.61356">
        <ele>872</ele>
        <time>2017-11-22T20:27:12Z</time>
      </trkpt>
      <trkpt lat="44.97288" lon="5.61345">
        <ele>872</ele>
        <time>2017-11-22T20:27:25Z</time>
      </trkpt>
      <trkpt lat="44.9727" lon="5.61332">
        <ele>881</ele>
        <time>2017-11-22T20:27:40Z</time>
      </trkpt>
      <trkpt lat="44.97223" lon="5.6131">
        <ele>872</ele>
        <time>2017-11-22T20:27:54Z</time>
      </trkpt>
      <trkpt lat="44.97206" lon="5.61289">
        <ele>872</ele>
        <time>2017-11-22T20:28:14Z</time>
      </trkpt>
      <trkpt lat="44.97195" lon="5.61279">
        <ele>872</ele>
        <time>2017-11-22T20:28:25Z</time>
      </trkpt>
      <trkpt lat="44.9719" lon="5.61278">
        <ele>871</ele>
        <time>2017-11-22T20:28:42Z</time>
      </trkpt>
      <trkpt lat="44.97184" lon="5.6128">
        <ele>870</ele>
        <time>2017-11-22T20:28:47Z</time>
      </trkpt>
      <trkpt lat="44.97181" lon="5.61286">
        <ele>869</ele>
        <time>2017-11-22T20:28:56Z</time>
      </trkpt>
      <trkpt lat="44.9718" lon="5.61291">
        <ele>869</ele>
        <time>2017-11-22T20:28:58Z</time>
      </trkpt>
      <trkpt lat="44.97181" lon="5.61299">
        <ele>867</ele>
        <time>2017-11-22T20:29:10Z</time>
      </trkpt>
      <trkpt lat="44.97186" lon="5.61307">
        <ele>866</ele>
        <time>2017-11-22T20:29:13Z</time>
      </trkpt>
      <trkpt lat="44.97202" lon="5.61325">
        <ele>867</ele>
        <time>2017-11-22T20:29:22Z</time>
      </trkpt>
      <trkpt lat="44.97272" lon="5.61405">
        <ele>863</ele>
        <time>2017-11-22T20:29:38Z</time>
      </trkpt>
      <trkpt lat="44.97302" lon="5.61453">
        <ele>849</ele>
        <time>2017-11-22T20:29:50Z</time>
      </trkpt>
      <trkpt lat="44.97314" lon="5.61468">
        <ele>847</ele>
        <time>2017-11-22T20:29:59Z</time>
      </trkpt>
      <trkpt lat="44.97323" lon="5.61477">
        <ele>846</ele>
        <time>2017-11-22T20:30:03Z</time>
      </trkpt>
      <trkpt lat="44.97338" lon="5.61488">
        <ele>850</ele>
        <time>2017-11-22T20:30:15Z</time>
      </trkpt>
      <trkpt lat="44.97383" lon="5.61512">
        <ele>843</ele>
        <time>2017-11-22T20:30:31Z</time>
      </trkpt>
      <trkpt lat="44.97417" lon="5.61533">
        <ele>847</ele>
        <time>2017-11-22T20:30:35Z</time>
      </trkpt>
      <trkpt lat="44.97436" lon="5.61548">
        <ele>846</ele>
        <time>2017-11-22T20:30:37Z</time>
      </trkpt>
      <trkpt lat="44.97449" lon="5.61554">
        <ele>846</ele>
        <time>2017-11-22T20:30:54Z</time>
      </trkpt>
      <trkpt lat="44.97457" lon="5.61561">
        <ele>845</ele>
        <time>2017-11-22T20:31:06Z</time>
      </trkpt>
      <trkpt lat="44.97461" lon="5.61571">
        <ele>845</ele>
        <time>2017-11-22T20:31:16Z</time>
      </trkpt>
      <trkpt lat="44.97459" lon="5.61578">
        <ele>844</ele>
        <time>2017-11-22T20:31:28Z</time>
      </trkpt>
      <trkpt lat="44.97456" lon="5.61583">
        <ele>844</ele>
        <time>2017-11-22T20:31:36Z</time>
      </trkpt>
      <trkpt lat="44.97449" lon="5.61587">
        <ele>831</ele>
        <time>2017-11-22T20:31:55Z</time>
      </trkpt>
      <trkpt lat="44.97444" lon="5.61587">
        <ele>832</ele>
        <time>2017-11-22T20:32:03Z</time>
      </trkpt>
      <trkpt lat="44.9743" lon="5.61582">
        <ele>840</ele>
        <time>2017-11-22T20:32:05Z</time>
      </trkpt>
      <trkpt lat="44.97409" lon="5.61572">
        <ele>838</ele>
        <time>2017-11-22T20:32:11Z</time>
      </trkpt>
      <trkpt lat="44.97396" lon="5.61572">
        <ele>838</ele>
        <time>2017-11-22T20:32:27Z</time>
      </trkpt>
      <trkpt lat="44.97384" lon="5.61575">
        <ele>838</ele>
        <time>2017-11-22T20:32:44Z</time>
      </trkpt>
      <trkpt lat="44.97379" lon="5.61578">
        <ele>838</ele>
        <time>2017-11-22T20:32:52Z</time>
      </trkpt>
      <trkpt lat="44.97371" lon="5.61585">
        <ele>827</ele>
        <time>2017-11-22T20:32:57Z</time>
      </trkpt>
      <trkpt lat="44.97362" lon="5.61599">
        <ele>826</ele>
        <time>2017-11-22T20:33:00Z</time>
      </trkpt>
      <trkpt lat="44.97347" lon="5.61619">
        <ele>823</ele>
        <time>2017-11-22T20:33:05Z</time>
      </trkpt>
      <trkpt lat="44.97338" lon="5.61627">
        <ele>822</ele>
        <time>2017-11-22T20:33:10Z</time>
      </trkpt>
      <trkpt lat="44.97327" lon="5.61633">
        <ele>814</ele>
        <time>2017-11-22T20:33:25Z</time>
      </trkpt>
      <trkpt lat="44.9732" lon="5.61634">
        <ele>813</ele>
        <time>2017-11-22T20:33:32Z</time>
      </trkpt>
      <trkpt lat="44.97311" lon="5.61634">
        <ele>813</ele>
        <time>2017-11-22T20:33:46Z</time>
      </trkpt>
      <trkpt lat="44.97301" lon="5.6163">
        <ele>812</ele>
        <time>2017-11-22T20:34:01Z</time>
      </trkpt>
      <trkpt lat="44.97275" lon="5.61615">
        <ele>809</ele>
        <time>2017-11-22T20:34:07Z</time>
      </trkpt>
      <trkpt lat="44.97264" lon="5.61616">
        <ele>808</ele>
        <time>2017-11-22T20:34:25Z</time>
      </trkpt>
      <trkpt lat="44.97255" lon="5.61622">
        <ele>807</ele>
        <time>2017-11-22T20:34:45Z</time>
      </trkpt>
      <trkpt lat="44.97251" lon="5.61627">
        <ele>807</ele>
        <time>2017-11-22T20:34:49Z</time>
      </trkpt>
      <trkpt lat="44.97247" lon="5.61636">
        <ele>790</ele>
        <time>2017-11-22T20:35:04Z</time>
      </trkpt>
      <trkpt lat="44.97236" lon="5.61661">
        <ele>791</ele>
        <time>2017-11-22T20:35:08Z</time>
      </trkpt>
      <trkpt lat="44.97227" lon="5.61698">
        <ele>785</ele>
        <time>2017-11-22T20:35:10Z</time>
      </trkpt>
      <trkpt lat="44.97222" lon="5.6174">
        <ele>785</ele>
        <time>2017-11-22T20:35:30Z</time>
      </trkpt>
      <trkpt lat="44.97226" lon="5.61759">
        <ele>785</ele>
        <time>2017-11-22T20:35:40Z</time>
      </trkpt>
      <trkpt lat="44.97233" lon="5.61772">
        <ele>785</ele>
        <time>2017-11-22T20:35:54Z</time>
      </trkpt>
      <trkpt lat="44.97244" lon="5.61781">
        <ele>785</ele>
        <time>2017-11-22T20:36:10Z</time>
      </trkpt>
      <trkpt lat="44.97252" lon="5.61783">
        <ele>793</ele>
        <time>2017-11-22T20:36:25Z</time>
      </trkpt>
      <trkpt lat="44.97267" lon="5.61779">
        <ele>793</ele>
        <time>2017-11-22T20:36:42Z</time>
      </trkpt>
      <trkpt lat="44.97298" lon="5.61771">
        <ele>793</ele>
        <time>2017-11-22T20:36:54Z</time>
      </trkpt>
      <trkpt lat="44.97345" lon="5.61766">
        <ele>794</ele>
        <time>2017-11-22T20:37:04Z</time>
      </trkpt>
      <trkpt lat="44.97358" lon="5.61765">
        <ele>794</ele>
        <time>2017-11-22T20:37:21Z</time>
      </trkpt>
      <trkpt lat="44.97365" lon="5.61767">
        <ele>793</ele>
        <time>2017-11-22T20:37:35Z</time>
      </trkpt>
      <trkpt lat="44.97371" lon="5.61775">
        <ele>793</ele>
        <time>2017-11-22T20:37:48Z</time>
      </trkpt>
      <trkpt lat="44.97371" lon="5.61785">
        <ele>792</ele>
        <time>2017-11-22T20:37:52Z</time>
      </trkpt>
      <trkpt lat="44.9737" lon="5.61792">
        <ele>791</ele>
        <time>2017-11-22T20:38:09Z</time>
      </trkpt>
      <trkpt lat="44.97363" lon="5.61799">
        <ele>791</ele>
        <time>2017-11-22T20:38:27Z</time>
      </trkpt>
      <trkpt lat="44.97339" lon="5.6181">
        <ele>790</ele>
        <time>2017-11-22T20:38:32Z</time>
      </trkpt>
      <trkpt lat="44.97318" lon="5.61819">
        <ele>790</ele>
        <time>2017-11-22T20:38:47Z</time>
      </trkpt>
      <trkpt lat="44.97305" lon="5.61828">
        <ele>790</ele>
        <time>2017-11-22T20:38:57Z</time>
      </trkpt>
      <trkpt lat="44.97274" lon="5.61862">
        <ele>783</ele>
        <time>2017-11-22T20:39:08Z</time>
      </trkpt>
      <trkpt lat="44.9725" lon="5.61895">
        <ele>774</ele>
        <time>2017-11-22T20:39:22Z</time>
      </trkpt>
      <trkpt lat="44.97239" lon="5.6191">
        <ele>773</ele>
        <time>2017-11-22T20:39:36Z</time>
      </trkpt>
      <trkpt lat="44.97227" lon="5.61918">
        <ele>767</ele>
        <time>2017-11-22T20:39:55Z</time>
      </trkpt>
      <trkpt lat="44.97214" lon="5.61925">
        <ele>765</ele>
        <time>2017-11-22T20:40:05Z</time>
      </trkpt>
      <trkpt lat="44.97209" lon="5.61932">
        <ele>764</ele>
        <time>2017-11-22T20:40:13Z</time>
      </trkpt>
      <trkpt lat="44.97209" lon="5.61943">
        <ele>763</ele>
        <time>2017-11-22T20:40:33Z</time>
      </trkpt>
      <trkpt lat="44.97214" lon="5.6195">
        <ele>763</ele>
        <time>2017-11-22T20:40:50Z</time>
      </trkpt>
      <trkpt lat="44.97223" lon="5.61953">
        <ele>764</ele>
        <time>2017-11-22T20:40:55Z</time>
      </trkpt>
      <trkpt lat="44.97248" lon="5.61948">
        <ele>766</ele>
        <time>2017-11-22T20:41:01Z</time>
      </trkpt>
      <trkpt lat="44.97266" lon="5.61948">
        <ele>770</ele>
        <time>2017-11-22T20:41:15Z</time>
      </trkpt>
      <trkpt lat="44.97276" lon="5.61951">
        <ele>770</ele>
        <time>2017-11-22T20:41:17Z</time>
      </trkpt>
      <trkpt lat="44.97291" lon="5.61959">
        <ele>770</ele>
        <time>2017-11-22T20:41:24Z</time>
      </trkpt>
      <trkpt lat="44.97304" lon="5.61973">
        <ele>769</ele>
        <time>2017-11-22T20:41:42Z</time>
      </trkpt>
      <trkpt lat="44.97312" lon="5.61989">
        <ele>768</ele>
        <time>2017-11-22T20:41:51Z</time>
      </trkpt>
      <trkpt lat="44.97319" lon="5.62015">
        <ele>759</ele>
        <time>2017-11-22T20:41:59Z</time>
      </trkpt>
      <trkpt lat="44.97327" lon="5.6203">
        <ele>757</ele>
        <time>2017-11-22T20:42:19Z</time>
      </trkpt>
      <trkpt lat="44.97342" lon="5.62044">
        <ele>758</ele>
        <time>2017-11-22T20:42:26Z</time>
      </trkpt>
      <trkpt lat="44.97355" lon="5.62052">
        <ele>757</ele>
        <time>2017-11-22T20:42:28Z</time>
      </trkpt>
      <trkpt lat="44.97368" lon="5.62057">
        <ele>758</ele>
        <time>2017-11-22T20:42:41Z</time>
      </trkpt>
      <trkpt lat="44.97393" lon="5.62065">
        <ele>758</ele>
        <time>2017-11-22T20:42:51Z</time>
      </trkpt>
      <trkpt lat="44.97428" lon="5.62076">
        <ele>758</ele>
        <time>2017-11-22T20:42:56Z</time>
      </trkpt>
      <trkpt lat="44.97462" lon="5.62091">
        <ele>748</ele>
        <time>2017-11-22T20:43:02Z</time>
      </trkpt>
      <trkpt lat="44.97491" lon="5.62097">
        <ele>750</ele>
        <time>2017-11-22T20:43:22Z</time>
      </trkpt>
      <trkpt lat="44.97518" lon="5.62101">
        <ele>747</ele>
        <time>2017-11-22T20:43:33Z</time>
      </trkpt>
      <trkpt lat="44.97598" lon="5.62116">
        <ele>740</ele>
        <time>2017-11-22T20:43:35Z</time>
      </trkpt>
      <trkpt lat="44.97615" lon="5.62124">
        <ele>739</ele>
        <time>2017-11-22T20:43:38Z</time>
      </trkpt>
      <trkpt lat="44.97639" lon="5.62141">
        <ele>737</ele>
        <time>2017-11-22T20:43:49Z</time>
      </trkpt>
      <trkpt lat="44.97666" lon="5.6216">
        <ele>733</ele>
        <time>2017-11-22T20:43:56Z</time>
      </trkpt>
      <trkpt lat="44.97678" lon="5.62165">
        <ele>733</ele>
        <time>2017-11-22T20:44:08Z</time>
      </trkpt>
      <trkpt lat="44.97709" lon="5.62171">
        <ele>726</ele>
        <time>2017-11-22T20:44:19Z</time>
      </trkpt>
      <trkpt lat="44.97758" lon="5.62175">
        <ele>725</ele>
        <time>2017-11-22T20:44:37Z</time>
      </trkpt>
      <trkpt lat="44.97871" lon="5.62182">
        <ele>722</ele>
        <time>2017-11-22T20:44:45Z</time>
      </trkpt>
      <trkpt lat="44.9792" lon="5.62182">
        <ele>724</ele>
        <time>2017-11-22T20:44:56Z</time>
      </trkpt>
      <trkpt lat="44.97942" lon="5.62186">
        <ele>723</ele>
        <time>2017-11-22T20:45:02Z</time>
      </trkpt>
      <trkpt lat="44.97955" lon="5.62191">
        <ele>723</ele>
        <time>2017-11-22T20:45:04Z</time>
      </trkpt>
      <trkpt lat="44.97969" lon="5.62203">
        <ele>723</ele>
        <time>2017-11-22T20:45:14Z</time>
      </trkpt>
      <trkpt lat="44.98003" lon="5.62234">
        <ele>722</ele>
        <time>2017-11-22T20:45:25Z</time>
      </trkpt>
      <trkpt lat="44.98017" lon="5.62247">
        <ele>722</ele>
        <time>2017-11-22T20:45:38Z</time>
      </trkpt>
      <trkpt lat="44.9806" lon="5.62278">
        <ele>716</ele>
        <time>2017-11-22T20:45:47Z</time>
      </trkpt>
      <trkpt lat="44.98085" lon="5.62294">
        <ele>717</ele>
        <time>2017-11-22T20:46:03Z</time>
      </trkpt>
      <trkpt lat="44.981" lon="5.62301">
        <ele>717</ele>
        <time>2017-11-22T20:46:18Z</time>
      </trkpt>
      <trkpt lat="44.98118" lon="5.62305">
        <ele>717</ele>
        <time>2017-11-22T20:46:34Z</time>
      </trkpt>
      <trkpt lat="44.98184" lon="5.62304">
        <ele>716</ele>
        <time>2017-11-22T20:46:36Z</time>
      </trkpt>
      <trkpt lat="44.98226" lon="5.62304">
        <ele>715</ele>
        <time>2017-11-22T20:46:52Z</time>
      </trkpt>
      <trkpt lat="44.98274" lon="5.62297">
        <ele>711</ele>
        <time>2017-11-22T20:47:11Z</time>
      </trkpt>
      <trkpt lat="44.98317" lon="5.62286">
        <ele>710</ele>
        <time>2017-11-22T20:47:31Z</time>
      </trkpt>
      <trkpt lat="44.98375" lon="5.62276">
        <ele>708</ele>
        <time>2017-11-22T20:47:47Z</time>
      </trkpt>
      <trkpt lat="44.98396" lon="5.62273">
        <ele>708</ele>
        <time>2017-11-22T20:47:54Z</time>
      </trkpt>
      <trkpt lat="44.98413" lon="5.62276">
        <ele>708</ele>
        <time>2017-11-22T20:48:00Z</time>
      </trkpt>
      <trkpt lat="44.9843" lon="5.62288">
        <ele>705</ele>
        <time>2017-11-22T20:48:06Z</time>
      </trkpt>
      <trkpt lat="44.98447" lon="5.62306">
        <ele>704</ele>
        <time>2017-11-22T20:48:24Z</time>
      </trkpt>
      <trkpt lat="44.98463" lon="5.62317">
        <ele>702</ele>
        <time>2017-11-22T20:48:31Z</time>
      </trkpt>
      <trkpt lat="44.9848" lon="5.62317">
        <ele>701</ele>
        <time>2017-11-22T20:48:35Z</time>
      </trkpt>
      <trkpt lat="44.98517" lon="5.62307">
        <ele>699</ele>
        <time>2017-11-22T20:48:47Z</time>
      </trkpt>
      <trkpt lat="44.98609" lon="5.62279">
        <ele>695</ele>
        <time>2017-11-22T20:49:05Z</time>
      </trkpt>
      <trkpt lat="44.98644" lon="5.62264">
        <ele>694</ele>
        <time>2017-11-22T20:49:15Z</time>
      </trkpt>
      <trkpt lat="44.98665" lon="5.62251">
        <ele>694</ele>
        <time>2017-11-22T20:49:32Z</time>
      </trkpt>
      <trkpt lat="44.98674" lon="5.62242">
        <ele>693</ele>
        <time>2017-11-22T20:49:50Z</time>
      </trkpt>
      <trkpt lat="44.98684" lon="5.62223">
        <ele>692</ele>
        <time>2017-11-22T20:50:00Z</time>
      </trkpt>
      <trkpt lat="44.98688" lon="5.62195">
        <ele>693</ele>
        <time>2017-11-22T20:50:03Z</time>
      </trkpt>
      <trkpt lat="44.98686" lon="5.62169">
        <ele>695</ele>
        <time>2017-11-22T20:50:06Z</time>
      </trkpt>
      <trkpt lat="44.98688" lon="5.6212">
        <ele>701</ele>
        <time>2017-11-22T20:50:20Z</time>
      </trkpt>
      <trkpt lat="44.98693" lon="5.62098">
        <ele>702</ele>
        <time>2017-11-22T20:50:26Z</time>
      </trkpt>
      <trkpt lat="44.98701" lon="5.62091">
        <ele>702</ele>
        <time>2017-11-22T20:50:41Z</time>
      </trkpt>
      <trkpt lat="44.98707" lon="5.62089">
        <ele>701</ele>
        <time>2017-11-22T20:50:57Z</time>
      </trkpt>
      <trkpt lat="44.98715" lon="5.62091">
        <ele>701</ele>
        <time>2017-11-22T20:51:14Z</time>
      </trkpt>
      <trkpt lat="44.98729" lon="5.62095">
        <ele>700</ele>
        <time>2017-11-22T20:51:29Z</time>
      </trkpt>
      <trkpt lat="44.9874" lon="5.6211">
        <ele>700</ele>
        <time>2017-11-22T20:51:47Z</time>
      </trkpt>
      <trkpt lat="44.9876" lon="5.6214">
        <ele>697</ele>
        <time>2017-11-22T20:51:55Z</time>
      </trkpt>
      <trkpt lat="44.98777" lon="5.62157">
        <ele>696</ele>
        <time>2017-11-22T20:52:05Z</time>
      </trkpt>
      <trkpt lat="44.98792" lon="5.62176">
        <ele>689</ele>
        <time>2017-11-22T20:52:10Z</time>
      </trkpt>
      <trkpt lat="44.98809" lon="5.62206">
        <ele>687</ele>
        <time>2017-11-22T20:52:25Z</time>
      </trkpt>
      <trkpt lat="44.98817" lon="5.6222">
        <ele>685</ele>
        <time>2017-11-22T20:52:43Z</time>
      </trkpt>
      <trkpt lat="44.98822" lon="5.62225">
        <ele>684</ele>
        <time>2017-11-22T20:53:00Z</time>
      </trkpt>
      <trkpt lat="44.98834" lon="5.62231">
        <ele>683</ele>
        <time>2017-11-22T20:53:16Z</time>
      </trkpt>
      <trkpt lat="44.98847" lon="5.62231">
        <ele>684</ele>
        <time>2017-11-22T20:53:33Z</time>
      </trkpt>
      <trkpt lat="44.98856" lon="5.62225">
        <ele>685</ele>
        <time>2017-11-22T20:53:38Z</time>
      </trkpt>
      <trkpt lat="44.98864" lon="5.62215">
        <ele>686</ele>
        <time>2017-11-22T20:53:58Z</time>
      </trkpt>
      <trkpt lat="44.98879" lon="5.62186">
        <ele>688</ele>
        <time>2017-11-22T20:54:07Z</time>
      </trkpt>
      <trkpt lat="44.98889" lon="5.62175">
        <ele>689</ele>
        <time>2017-11-22T20:54:14Z</time>
      </trkpt>
      <trkpt lat="44.98896" lon="5.62172">
        <ele>690</ele>
        <time>2017-11-22T20:54:24Z</time>
      </trkpt>
      <trkpt lat="44.98903" lon="5.62174">
        <ele>691</ele>
        <time>2017-11-22T20:54:42Z</time>
      </trkpt>
      <trkpt lat="44.98915" lon="5.62183">
        <ele>690</ele>
        <time>2017-11-22T20:54:53Z</time>
      </trkpt>
      <trkpt lat="44.98919" lon="5.62189">
        <ele>692</ele>
        <time>2017-11-22T20:55:12Z</time>
      </trkpt>
      <trkpt lat="44.98929" lon="5.62216">
        <ele>689</ele>
        <time>2017-11-22T20:55:25Z</time>
      </trkpt>
      <trkpt lat="44.98939" lon="5.62253">
        <ele>679</ele>
        <time>2017-11-22T20:55:32Z</time>
      </trkpt>
      <trkpt lat="44.98948" lon="5.62276">
        <ele>678</ele>
        <time>2017-11-22T20:55:38Z</time>
      </trkpt>
      <trkpt lat="44.98965" lon="5.62294">
        <ele>678</ele>
        <time>2017-11-22T20:55:50Z</time>
      </trkpt>
      <trkpt lat="44.99007" lon="5.62322">
        <ele>679</ele>
        <time>2017-11-22T20:56:10Z</time>
      </trkpt>
      <trkpt lat="44.99055" lon="5.62358">
        <ele>673</ele>
        <time>2017-11-22T20:56:12Z</time>
      </trkpt>
      <trkpt lat="44.99101" lon="5.62406">
        <ele>673</ele>
        <time>2017-11-22T20:56:14Z</time>
      </trkpt>
      <trkpt lat="44.99156" lon="5.62465">
        <ele>668</ele>
        <time>2017-11-22T20:56:33Z</time>
      </trkpt>
      <trkpt lat="44.99268" lon="5.62557">
        <ele>662</ele>
        <time>2017-11-22T20:56:44Z</time>
      </trkpt>
      <trkpt lat="44.99349" lon="5.62622">
        <ele>657</ele>
        <time>2017-11-22T20:56:54Z</time>
      </trkpt>
      <trkpt lat="44.99411" lon="5.62658">
        <ele>654</ele>
        <time>2017-11-22T20:56:56Z</time>
      </trkpt>
      <trkpt lat="44.99463" lon="5.62688">
        <ele>650</ele>
        <time>2017-11-22T20:57:06Z</time>
      </trkpt>
      <trkpt lat="44.99514" lon="5.62715">
        <ele>649</ele>
        <time>2017-11-22T20:57:23Z</time>
      </trkpt>
      <trkpt lat="44.99652" lon="5.62766">
        <ele>643</ele>
        <time>2017-11-22T20:57:35Z</time>
      </trkpt>
      <trkpt lat="44.99684" lon="5.62781">
        <ele>641</ele>
        <time>2017-11-22T20:57:41Z</time>
      </trkpt>
      <trkpt lat="44.99698" lon="5.62792">
        <ele>640</ele>
        <time>2017-11-22T20:57:50Z</time>
      </trkpt>
      <trkpt lat="44.99716" lon="5.6282">
        <ele>639</ele>
        <time>2017-11-22T20:57:56Z</time>
      </trkpt>
      <trkpt lat="44.99755" lon="5.62888">
        <ele>634</ele>
        <time>2017-11-22T20:58:02Z</time>
      </trkpt>
      <trkpt lat="44.99776" lon="5.62911">
        <ele>634</ele>
        <time>2017-11-22T20:58:13Z</time>
      </trkpt>
      <trkpt lat="44.99796" lon="5.62927">
        <ele>630</ele>
        <time>2017-11-22T20:58:27Z</time>
      </trkpt>
      <trkpt lat="44.99834" lon="5.62944">
        <ele>629</ele>
        <time>2017-11-22T20:58:31Z</time>
      </trkpt>
      <trkpt lat="44.99882" lon="5.62956">
        <ele>627</ele>
        <time>2017-11-22T20:58:49Z</time>
      </trkpt>
      <trkpt lat="44.99899" lon="5.62957">
        <ele>627</ele>
        <time>2017-11-22T20:58:52Z</time>
      </trkpt>
      <trkpt lat="44.99917" lon="5.62954">
        <ele>625</ele>
        <time>2017-11-22T20:58:59Z</time>
      </trkpt>
      <trkpt lat="44.99959" lon="5.62945">
        <ele>624</ele>
        <time>2017-11-22T20:59:15Z</time>
      </trkpt>
      <trkpt lat="44.99992" lon="5.62939">
        <ele>623</ele>
        <time>2017-11-22T20:59:26Z</time>
      </trkpt>
      <trkpt lat="44.99997" lon="5.62924">
        <ele>622</ele>
        <time>2017-11-22T20:59:42Z</time>
      </trkpt>
      <trkpt lat="45.00015" lon="5.62885">
        <ele>623</ele>
        <time>2017-11-22T20:59:48Z</time>
      </trkpt>
      <trkpt lat="45.00045" lon="5.62793">
        <ele>629</ele>
        <time>2017-11-22T20:59:58Z</time>
      </trkpt>
      <trkpt lat="45.00069" lon="5.62715">
        <ele>634</ele>
        <time>2017-11-22T21:00:07Z</time>
      </trkpt>
      <trkpt lat="45.00115" lon="5.62553">
        <ele>644</ele>
        <time>2017-11-22T21:00:19Z</time>
      </trkpt>
      <trkpt lat="45.00127" lon="5.62519">
        <ele>645</ele>
        <time>2017-11-22T21:00:36Z</time>
      </trkpt>
      <trkpt lat="45.00132" lon="5.62511">
        <ele>646</ele>
        <time>2017-11-22T21:00:54Z</time>
      </trkpt>
      <trkpt lat="45.00141" lon="5.62501">
        <ele>646</ele>
        <time>2017-11-22T21:01:09Z</time>
      </trkpt>
      <trkpt lat="45.00153" lon="5.62494">
        <ele>651</ele>
        <time>2017-11-22T21:01:16Z</time>
      </trkpt>
      <trkpt lat="45.00181" lon="5.62482">
        <ele>653</ele>
        <time>2017-11-22T21:01:20Z</time>
      </trkpt>
      <trkpt lat="45.00285" lon="5.6244">
        <ele>661</ele>
        <time>2017-11-22T21:01:22Z</time>
      </trkpt>
      <trkpt lat="45.00318" lon="5.62433">
        <ele>665</ele>
        <time>2017-11-22T21:01:41Z</time>
      </trkpt>
      <trkpt lat="45.00341" lon="5.62429">
        <ele>671</ele>
        <time>2017-11-22T21:01:47Z</time>
      </trkpt>
      <trkpt lat="45.00364" lon="5.6243">
        <ele>671</ele>
        <time>2017-11-22T21:01:54Z</time>
      </trkpt>
      <trkpt lat="45.004" lon="5.62442">
        <ele>673</ele>
        <time>2017-11-22T21:02:14Z</time>
      </trkpt>
      <trkpt lat="45.00421" lon="5.62463">
        <ele>674</ele>
        <time>2017-11-22T21:02:28Z</time>
      </trkpt>
      <trkpt lat="45.00433" lon="5.62477">
        <ele>672</ele>
        <time>2017-11-22T21:02:47Z</time>
      </trkpt>
      <trkpt lat="45.00443" lon="5.62479">
        <ele>672</ele>
        <time>2017-11-22T21:03:01Z</time>
      </trkpt>
      <trkpt lat="45.00447" lon="5.62475">
        <ele>673</ele>
        <time>2017-11-22T21:03:07Z</time>
      </trkpt>
      <trkpt lat="45.00451" lon="5.62469">
        <ele>674</ele>
        <time>2017-11-22T21:03:20Z</time>
      </trkpt>
      <trkpt lat="45.0045" lon="5.62455">
        <ele>676</ele>
        <time>2017-11-22T21:03:26Z</time>
      </trkpt>
      <trkpt lat="45.0044" lon="5.62442">
        <ele>678</ele>
        <time>2017-11-22T21:03:45Z</time>
      </trkpt>
      <trkpt lat="45.00414" lon="5.6242">
        <ele>683</ele>
        <time>2017-11-22T21:04:05Z</time>
      </trkpt>
      <trkpt lat="45.00386" lon="5.62397">
        <ele>694</ele>
        <time>2017-11-22T21:04:25Z</time>
      </trkpt>
      <trkpt lat="45.00347" lon="5.62375">
        <ele>697</ele>
        <time>2017-11-22T21:04:30Z</time>
      </trkpt>
      <trkpt lat="45.00255" lon="5.62341">
        <ele>699</ele>
        <time>2017-11-22T21:04:37Z</time>
      </trkpt>
      <trkpt lat="45.00213" lon="5.62321">
        <ele>710</ele>
        <time>2017-11-22T21:04:56Z</time>
      </trkpt>
      <trkpt lat="45.00174" lon="5.62298">
        <ele>712</ele>
        <time>2017-11-22T21:05:04Z</time>
      </trkpt>
      <trkpt lat="45.00089" lon="5.62235">
        <ele>724</ele>
        <time>2017-11-22T21:05:11Z</time>
      </trkpt>
      <trkpt lat="45.00061" lon="5.62221">
        <ele>720</ele>
        <time>2017-11-22T21:05:20Z</time>
      </trkpt>
      <trkpt lat="45.00033" lon="5.62212">
        <ele>721</ele>
        <time>2017-11-22T21:05:39Z</time>
      </trkpt>
      <trkpt lat="45.00005" lon="5.62204">
        <ele>721</ele>
        <time>2017-11-22T21:05:41Z</time>
      </trkpt>
      <trkpt lat="45" lon="5.622">
        <ele>720</ele>
        <time>2017-11-22T21:05:46Z</time>
      </trkpt>
      <trkpt lat="44.99996" lon="5.62191">
        <ele>722</ele>
        <time>2017-11-22T21:06:01Z</time>
      </trkpt>
      <trkpt lat="44.99997" lon="5.62185">
        <ele>724</ele>
        <time>2017-11-22T21:06:19Z</time>
      </trkpt>
      <trkpt lat="44.99999" lon="5.6218">
        <ele>726</ele>
        <time>2017-11-22T21:06:25Z</time>
      </trkpt>
      <trkpt lat="45.00004" lon="5.62177">
        <ele>728</ele>
        <time>2017-11-22T21:06:31Z</time>
      </trkpt>
      <trkpt lat="45.00009" lon="5.62177">
        <ele>728</ele>
        <time>2017-11-22T21:06:39Z</time>
      </trkpt>
      <trkpt lat="45.00014" lon="5.62179">
        <ele>727</ele>
        <time>2017-11-22T21:06:57Z</time>
      </trkpt>
      <trkpt lat="45.00032" lon="5.62192">
        <ele>724</ele>
        <time>2017-11-22T21:07:10Z</time>
      </trkpt>
      <trkpt lat="45.00044" lon="5.62197">
        <ele>724</ele>
        <time>2017-11-22T21:07:15Z</time>
      </trkpt>
      <trkpt lat="45.00083" lon="5.62198">
        <ele>727</ele>
        <time>2017-11-22T21:07:26Z</time>
      </trkpt>
      <trkpt lat="45.00094" lon="5.62199">
        <ele>737</ele>
        <time>2017-11-22T21:07:34Z</time>
      </trkpt>
      <trkpt lat="45.00108" lon="5.62206">
        <ele>736</ele>
        <time>2017-11-22T21:07:39Z</time>
      </trkpt>
      <trkpt lat="45.00144" lon="5.62223">
        <ele>737</ele>
        <time>2017-11-22T21:07:54Z</time>
      </trkpt>
      <trkpt lat="45.00178" lon="5.62234">
        <ele>743</ele>
        <time>2017-11-22T21:07:59Z</time>
      </trkpt>
      <trkpt lat="45.00203" lon="5.62242">
        <ele>746</ele>
        <time>2017-11-22T21:08:03Z</time>
      </trkpt>
      <trkpt lat="45.00236" lon="5.62248">
        <ele>744</ele>
        <time>2017-11-22T21:08:22Z</time>
      </trkpt>
      <trkpt lat="45.00327" lon="5.62252">
        <ele>740</ele>
        <time>2017-11-22T21:08:27Z</time>
      </trkpt>
      <trkpt lat="45.00372" lon="5.62251">
        <ele>737</ele>
        <time>2017-11-22T21:08:38Z</time>
      </trkpt>
      <trkpt lat="45.00417" lon="5.62247">
        <ele>750</ele>
        <time>2017-11-22T21:08:53Z</time>
      </trkpt>
      <trkpt lat="45.00467" lon="5.6224">
        <ele>761</ele>
        <time>2017-11-22T21:09:10Z</time>
      </trkpt>
      <trkpt lat="45.00483" lon="5.62235">
        <ele>760</ele>
        <time>2017-11-22T21:09:25Z</time>
      </trkpt>
      <trkpt lat="45.00494" lon="5.62225">
        <ele>762</ele>
        <time>2017-11-22T21:09:39Z</time>
      </trkpt>
      <trkpt lat="45.00512" lon="5.622">
        <ele>757</ele>
        <time>2017-11-22T21:09:59Z</time>
      </trkpt>
      <trkpt lat="45.00541" lon="5.62137">
        <ele>788</ele>
        <time>2017-11-22T21:10:10Z</time>
      </trkpt>
      <trkpt lat="45.00551" lon="5.62118">
        <ele>790</ele>
        <time>2017-11-22T21:10:22Z</time>
      </trkpt>
      <trkpt lat="45.00562" lon="5.62102">
        <ele>791</ele>
        <time>2017-11-22T21:10:33Z</time>
      </trkpt>
      <trkpt lat="45.00577" lon="5.62092">
        <ele>790</ele>
        <time>2017-11-22T21:10:39Z</time>
      </trkpt>
      <trkpt lat="45.00607" lon="5.62083">
        <ele>807</ele>
        <time>2017-11-22T21:10:43Z</time>
      </trkpt>
      <trkpt lat="45.00624" lon="5.62076">
        <ele>811</ele>
        <time>2017-11-22T21:10:58Z</time>
      </trkpt>
      <trkpt lat="45.00638" lon="5.62073">
        <ele>810</ele>
        <time>2017-11-22T21:11:07Z</time>
      </trkpt>
      <trkpt lat="45.00652" lon="5.62069">
        <ele>808</ele>
        <time>2017-11-22T21:11:25Z</time>
      </trkpt>
      <trkpt lat="45.0066" lon="5.62066">
        <ele>807</ele>
        <time>2017-11-22T21:11:32Z</time>
      </trkpt>
      <trkpt lat="45.00665" lon="5.62061">
        <ele>810</ele>
        <time>2017-11-22T21:11:44Z</time>
      </trkpt>
      <trkpt lat="45.00676" lon="5.62044">
        <ele>811</ele>
        <time>2017-11-22T21:12:01Z</time>
      </trkpt>
      <trkpt lat="45.00685" lon="5.6203">
        <ele>816</ele>
        <time>2017-11-22T21:12:05Z</time>
      </trkpt>
      <trkpt lat="45.00691" lon="5.62024">
        <ele>816</ele>
        <time>2017-11-22T21:12:14Z</time>
      </trkpt>
      <trkpt lat="45.007" lon="5.62019">
        <ele>815</ele>
        <time>2017-11-22T21:12:32Z</time>
      </trkpt>
      <trkpt lat="45.00728" lon="5.62011">
        <ele>810</ele>
        <time>2017-11-22T21:12:40Z</time>
      </trkpt>
      <trkpt lat="45.00753" lon="5.61996">
        <ele>810</ele>
        <time>2017-11-22T21:12:48Z</time>
      </trkpt>
      <trkpt lat="45.00761" lon="5.6199">
        <ele>813</ele>
        <time>2017-11-22T21:13:02Z</time>
      </trkpt>
      <trkpt lat="45.00769" lon="5.61991">
        <ele>814</ele>
        <time>2017-11-22T21:13:17Z</time>
      </trkpt>
      <trkpt lat="45.00775" lon="5.61994">
        <ele>815</ele>
        <time>2017-11-22T21:13:27Z</time>
      </trkpt>
      <trkpt lat="45.00779" lon="5.62002">
        <ele>804</ele>
        <time>2017-11-22T21:13:31Z</time>
      </trkpt>
      <trkpt lat="45.00779" lon="5.62012">
        <ele>803</ele>
        <time>2017-11-22T21:13:33Z</time>
      </trkpt>
      <trkpt lat="45.00773" lon="5.62033">
        <ele>802</ele>
        <time>2017-11-22T21:13:49Z</time>
      </trkpt>
      <trkpt lat="45.00766" lon="5.62066">
        <ele>797</ele>
        <time>2017-11-22T21:13:59Z</time>
      </trkpt>
      <trkpt lat="45.00765" lon="5.62112">
        <ele>788</ele>
        <time>2017-11-22T21:14:08Z</time>
      </trkpt>
      <trkpt lat="45.00769" lon="5.6214">
        <ele>786</ele>
        <time>2017-11-22T21:14:25Z</time>
      </trkpt>
      <trkpt lat="45.00774" lon="5.62152">
        <ele>785</ele>
        <time>2017-11-22T21:14:45Z</time>
      </trkpt>
      <trkpt lat="45.00781" lon="5.62157">
        <ele>786</ele>
        <time>2017-11-22T21:14:56Z</time>
      </trkpt>
      <trkpt lat="45.00788" lon="5.62157">
        <ele>786</ele>
        <time>2017-11-22T21:15:11Z</time>
      </trkpt>
      <trkpt lat="45.00801" lon="5.62148">
        <ele>787</ele>
        <time>2017-11-22T21:15:13Z</time>
      </trkpt>
      <trkpt lat="45.00813" lon="5.62133">
        <ele>789</ele>
        <time>2017-11-22T21:15:28Z</time>
      </trkpt>
      <trkpt lat="45.0082" lon="5.6212">
        <ele>791</ele>
        <time>2017-11-22T21:15:48Z</time>
      </trkpt>
      <trkpt lat="45.00834" lon="5.62084">
        <ele>803</ele>
        <time>2017-11-22T21:15:54Z</time>
      </trkpt>
      <trkpt lat="45.00841" lon="5.62058">
        <ele>803</ele>
        <time>2017-11-22T21:16:04Z</time>
      </trkpt>
      <trkpt lat="45.00847" lon="5.62017">
        <ele>805</ele>
        <time>2017-11-22T21:16:12Z</time>
      </trkpt>
      <trkpt lat="45.00855" lon="5.61984">
        <ele>811</ele>
        <time>2017-11-22T21:16:23Z</time>
      </trkpt>
      <trkpt lat="45.00866" lon="5.61956">
        <ele>814</ele>
        <time>2017-11-22T21:16:36Z</time>
      </trkpt>
      <trkpt lat="45.00879" lon="5.61937">
        <ele>815</ele>
        <time>2017-11-22T21:16:38Z</time>
      </trkpt>
      <trkpt lat="45.0089" lon="5.61933">
        <ele>816</ele>
        <time>2017-11-22T21:16:50Z</time>
      </trkpt>
      <trkpt lat="45.009" lon="5.61934">
        <ele>816</ele>
        <time>2017-11-22T21:17:01Z</time>
      </trkpt>
      <trkpt lat="45.00931" lon="5.61947">
        <ele>820</ele>
        <time>2017-11-22T21:17:08Z</time>
      </trkpt>
      <trkpt lat="45.00947" lon="5.61952">
        <ele>821</ele>
        <time>2017-11-22T21:17:20Z</time>
      </trkpt>
      <trkpt lat="45.00961" lon="5.61953">
        <ele>822</ele>
        <time>2017-11-22T21:17:29Z</time>
      </trkpt>
      <trkpt lat="45.00977" lon="5.61945">
        <ele>824</ele>
        <time>2017-11-22T21:17:48Z</time>
      </trkpt>
      <trkpt lat="45.00992" lon="5.61933">
        <ele>828</ele>
        <time>2017-11-22T21:17:58Z</time>
      </trkpt>
      <trkpt lat="45.01015" lon="5.61904">
        <ele>844</ele>
        <time>2017-11-22T21:18:11Z</time>
      </trkpt>
      <trkpt lat="45.01042" lon="5.61853">
        <ele>854</ele>
        <time>2017-11-22T21:18:30Z</time>
      </trkpt>
      <trkpt lat="45.01053" lon="5.61839">
        <ele>855</ele>
        <time>2017-11-22T21:18:39Z</time>
      </trkpt>
      <trkpt lat="45.01058" lon="5.61839">
        <ele>855</ele>
        <time>2017-11-22T21:18:41Z</time>
      </trkpt>
      <trkpt lat="45.01063" lon="5.61843">
        <ele>856</ele>
        <time>2017-11-22T21:18:55Z</time>
      </trkpt>
      <trkpt lat="45.01068" lon="5.61851">
        <ele>855</ele>
        <time>2017-11-22T21:19:12Z</time>
      </trkpt>
      <trkpt lat="45.0107" lon="5.61895">
        <ele>852</ele>
        <time>2017-11-22T21:19:21Z</time>
      </trkpt>
      <trkpt lat="45.0107" lon="5.61948">
        <ele>845</ele>
        <time>2017-11-22T21:19:35Z</time>
      </trkpt>
      <trkpt lat="45.01067" lon="5.62004">
        <ele>847</ele>
        <time>2017-11-22T21:19:47Z</time>
      </trkpt>
      <trkpt lat="45.01055" lon="5.62049">
        <ele>843</ele>
        <time>2017-11-22T21:19:54Z</time>
      </trkpt>
      <trkpt lat="45.01052" lon="5.62078">
        <ele>844</ele>
        <time>2017-11-22T21:20:14Z</time>
      </trkpt>
      <trkpt lat="45.01052" lon="5.62108">
        <ele>846</ele>
        <time>2017-11-22T21:20:16Z</time>
      </trkpt>
      <trkpt lat="45.01047" lon="5.62138">
        <ele>846</ele>
        <time>2017-11-22T21:20:32Z</time>
      </trkpt>
      <trkpt lat="45.01049" lon="5.6217">
        <ele>850</ele>
        <time>2017-11-22T21:20:36Z</time>
      </trkpt>
      <trkpt lat="45.01044" lon="5.62199">
        <ele>848</ele>
        <time>2017-11-22T21:20:43Z</time>
      </trkpt>
      <trkpt lat="45.01036" lon="5.62236">
        <ele>846</ele>
        <time>2017-11-22T21:20:52Z</time>
      </trkpt>
      <trkpt lat="45.01031" lon="5.62263">
        <ele>844</ele>
        <time>2017-11-22T21:21:04Z</time>
      </trkpt>
      <trkpt lat="45.01032" lon="5.62273">
        <ele>845</ele>
        <time>2017-11-22T21:21:19Z</time>
      </trkpt>
      <trkpt lat="45.01038" lon="5.62281">
        <ele>846</ele>
        <time>2017-11-22T21:21:30Z</time>
      </trkpt>
      <trkpt lat="45.01042" lon="5.62282">
        <ele>847</ele>
        <time>2017-11-22T21:21:45Z</time>
      </trkpt>
      <trkpt lat="45.01046" lon="5.62281">
        <ele>848</ele>
        <time>2017-11-22T21:22:02Z</time>
      </trkpt>
      <trkpt lat="45.01053" lon="5.62273">
        <ele>851</ele>
        <time>2017-11-22T21:22:18Z</time>
      </trkpt>
      <trkpt lat="45.01054" lon="5.6226">
        <ele>852</ele>
        <time>2017-11-22T21:22:25Z</time>
      </trkpt>
      <trkpt lat="45.01052" lon="5.62239">
        <ele>852</ele>
        <time>2017-11-22T21:22:30Z</time>
      </trkpt>
      <trkpt lat="45.01083" lon="5.62143">
        <ele>856</ele>
        <time>2017-11-22T21:22:40Z</time>
      </trkpt>
      <trkpt lat="45.01091" lon="5.62106">
        <ele>880</ele>
        <time>2017-11-22T21:22:45Z</time>
      </trkpt>
      <trkpt lat="45.01092" lon="5.62091">
        <ele>874</ele>
        <time>2017-11-22T21:22:57Z</time>
      </trkpt>
      <trkpt lat="45.01097" lon="5.62063">
        <ele>877</ele>
        <time>2017-11-22T21:23:02Z</time>
      </trkpt>
      <trkpt lat="45.01112" lon="5.62035">
        <ele>882</ele>
        <time>2017-11-22T21:23:18Z</time>
      </trkpt>
      <trkpt lat="45.01128" lon="5.61976">
        <ele>883</ele>
        <time>2017-11-22T21:23:34Z</time>
      </trkpt>
      <trkpt lat="45.0113" lon="5.61944">
        <ele>883</ele>
        <time>2017-11-22T21:23:41Z</time>
      </trkpt>
      <trkpt lat="45.01131" lon="5.61914">
        <ele>882</ele>
        <time>2017-11-22T21:23:49Z</time>
      </trkpt>
      <trkpt lat="45.01139" lon="5.61889">
        <ele>884</ele>
        <time>2017-11-22T21:23:56Z</time>
      </trkpt>
      <trkpt lat="45.01138" lon="5.61865">
        <ele>882</ele>
        <time>2017-11-22T21:24:15Z</time>
      </trkpt>
      <trkpt lat="45.01135" lon="5.61841">
        <ele>882</ele>
        <time>2017-11-22T21:24:24Z</time>
      </trkpt>
      <trkpt lat="45.01138" lon="5.61821">
        <ele>882</ele>
        <time>2017-11-22T21:24:27Z</time>
      </trkpt>
      <trkpt lat="45.01159" lon="5.61802">
        <ele>883</ele>
        <time>2017-11-22T21:24:36Z</time>
      </trkpt>
      <trkpt lat="45.01176" lon="5.61792">
        <ele>900</ele>
        <time>2017-11-22T21:24:49Z</time>
      </trkpt>
      <trkpt lat="45.01206" lon="5.61769">
        <ele>903</ele>
        <time>2017-11-22T21:25:05Z</time>
      </trkpt>
      <trkpt lat="45.01226" lon="5.61748">
        <ele>902</ele>
        <time>2017-11-22T21:25:13Z</time>
      </trkpt>
      <trkpt lat="45.01239" lon="5.61729">
        <ele>902</ele>
        <time>2017-11-22T21:25:33Z</time>
      </trkpt>
      <trkpt lat="45.01273" lon="5.61653">
        <ele>908</ele>
        <time>2017-11-22T21:25:51Z</time>
      </trkpt>
      <trkpt lat="45.01281" lon="5.61632">
        <ele>909</ele>
        <time>2017-11-22T21:25:58Z</time>
      </trkpt>
      <trkpt lat="45.01282" lon="5.61616">
        <ele>909</ele>
        <time>2017-11-22T21:26:00Z</time>
      </trkpt>
      <trkpt lat="45.01287" lon="5.61582">
        <ele>910</ele>
        <time>2017-11-22T21:26:18Z</time>
      </trkpt>
      <trkpt lat="45.01293" lon="5.61563">
        <ele>911</ele>
        <time>2017-11-22T21:26:20Z</time>
      </trkpt>
      <trkpt lat="45.01313" lon="5.61534">
        <ele>912</ele>
        <time>2017-11-22T21:26:35Z</time>
      </trkpt>
      <trkpt lat="45.01327" lon="5.61521">
        <ele>913</ele>
        <time>2017-11-22T21:26:50Z</time>
      </trkpt>
      <trkpt lat="45.01346" lon="5.6151">
        <ele>915</ele>
        <time>2017-11-22T21:27:08Z</time>
      </trkpt>
      <trkpt lat="45.01387" lon="5.61497">
        <ele>920</ele>
        <time>2017-11-22T21:27:14Z</time>
      </trkpt>
      <trkpt lat="45.01426" lon="5.61487">
        <ele>925</ele>
        <time>2017-11-22T21:27:19Z</time>
      </trkpt>
      <trkpt lat="45.01439" lon="5.6148">
        <ele>928</ele>
        <time>2017-11-22T21:27:22Z</time>
      </trkpt>
      <trkpt lat="45.01448" lon="5.61465">
        <ele>930</ele>
        <time>2017-11-22T21:27:24Z</time>
      </trkpt>
      <trkpt lat="45.0145" lon="5.61454">
        <ele>931</ele>
        <time>2017-11-22T21:27:27Z</time>
      </trkpt>
      <trkpt lat="45.01449" lon="5.61434">
        <ele>932</ele>
        <time>2017-11-22T21:27:47Z</time>
      </trkpt>
      <trkpt lat="45.01443" lon="5.61416">
        <ele>936</ele>
        <time>2017-11-22T21:27:51Z</time>
      </trkpt>
      <trkpt lat="45.0144" lon="5.61402">
        <ele>936</ele>
        <time>2017-11-22T21:28:08Z</time>
      </trkpt>
      <trkpt lat="45.01439" lon="5.61381">
        <ele>937</ele>
        <time>2017-11-22T21:28:21Z</time>
      </trkpt>
      <trkpt lat="45.01441" lon="5.6136">
        <ele>938</ele>
        <time>2017-11-22T21:28:33Z</time>
      </trkpt>
      <trkpt lat="45.01438" lon="5.61353">
        <ele>938</ele>
        <time>2017-11-22T21:28:49Z</time>
      </trkpt>
      <trkpt lat="45.01427" lon="5.61339">
        <ele>937</ele>
        <time>2017-11-22T21:28:54Z</time>
      </trkpt>
      <trkpt lat="45.01397" lon="5.6132">
        <ele>937</ele>
        <time>2017-11-22T21:29:02Z</time>
      </trkpt>
      <trkpt lat="45.01352" lon="5.61299">
        <ele>938</ele>
        <time>2017-11-22T21:29:17Z</time>
      </trkpt>
      <trkpt lat="45.01319" lon="5.61281">
        <ele>939</ele>
        <time>2017-11-22T21:29:23Z</time>
      </trkpt>
      <trkpt lat="45.01293" lon="5.61271">
        <ele>940</ele>
        <time>2017-11-22T21:29:42Z</time>
      </trkpt>
      <trkpt lat="45.01242" lon="5.61262">
        <ele>944</ele>
        <time>2017-11-22T21:29:51Z</time>
      </trkpt>
      <trkpt lat="45.01187" lon="5.6125">
        <ele>954</ele>
        <time>2017-11-22T21:30:03Z</time>
      </trkpt>
      <trkpt lat="45.01164" lon="5.61248">
        <ele>954</ele>
        <time>2017-11-22T21:30:18Z</time>
      </trkpt>
      <trkpt lat="45.0113" lon="5.61248">
        <ele>957</ele>
        <time>2017-11-22T21:30:23Z</time>
      </trkpt>
      <trkpt lat="45.01117" lon="5.61243">
        <ele>957</ele>
        <time>2017-11-22T21:30:35Z</time>
      </trkpt>
      <trkpt lat="45.01101" lon="5.61231">
        <ele>957</ele>
        <time>2017-11-22T21:30:53Z</time>
      </trkpt>
      <trkpt lat="45.01064" lon="5.61195">
        <ele>961</ele>
        <time>2017-11-22T21:30:55Z</time>
      </trkpt>
      <trkpt lat="45.01053" lon="5.61188">
        <ele>962</ele>
        <time>2017-11-22T21:31:10Z</time>
      </trkpt>
      <trkpt lat="45.01036" lon="5.61182">
        <ele>962</ele>
        <time>2017-11-22T21:31:25Z</time>
      </trkpt>
      <trkpt lat="45.01011" lon="5.61183">
        <ele>963</ele>
        <time>2017-11-22T21:31:32Z</time>
      </trkpt>
      <trkpt lat="45.00965" lon="5.61209">
        <ele>967</ele>
        <time>2017-11-22T21:31:48Z</time>
      </trkpt>
      <trkpt lat="45.00952" lon="5.61211">
        <ele>967</ele>
        <time>2017-11-22T21:32:00Z</time>
      </trkpt>
      <trkpt lat="45.00938" lon="5.61211">
        <ele>967</ele>
        <time>2017-11-22T21:32:16Z</time>
      </trkpt>
      <trkpt lat="45.00923" lon="5.61204">
        <ele>968</ele>
        <time>2017-11-22T21:32:19Z</time>
      </trkpt>
      <trkpt lat="45.00894" lon="5.61169">
        <ele>969</ele>
        <time>2017-11-22T21:32:37Z</time>
      </trkpt>
      <trkpt lat="45.00856" lon="5.61136">
        <ele>976</ele>
        <time>2017-11-22T21:32:52Z</time>
      </trkpt>
      <trkpt lat="45.00837" lon="5.61122">
        <ele>977</ele>
        <time>2017-11-22T21:33:08Z</time>
      </trkpt>
      <trkpt lat="45.00775" lon="5.61093">
        <ele>973</ele>
        <time>2017-11-22T21:33:25Z</time>
      </trkpt>
      <trkpt lat="45.00744" lon="5.61071">
        <ele>977</ele>
        <time>2017-11-22T21:33:32Z</time>
      </trkpt>
      <trkpt lat="45.00735" lon="5.61059">
        <ele>977</ele>
        <time>2017-11-22T21:33:48Z</time>
      </trkpt>
      <trkpt lat="45.00723" lon="5.61037">
        <ele>979</ele>
        <time>2017-11-22T21:34:07Z</time>
      </trkpt>
      <trkpt lat="45.00659" lon="5.60961">
        <ele>981</ele>
        <time>2017-11-22T21:34:25Z</time>
      </trkpt>
      <trkpt lat="45.00619" lon="5.60924">
        <ele>979</ele>
        <time>2017-11-22T21:34:38Z</time>
      </trkpt>
      <trkpt lat="45.00607" lon="5.60907">
        <ele>989</ele>
        <time>2017-11-22T21:34:50Z</time>
      </trkpt>
      <trkpt lat="45.00602" lon="5.60894">
        <ele>990</ele>
        <time>2017-11-22T21:34:57Z</time>
      </trkpt>
      <trkpt lat="45.00599" lon="5.60871">
        <ele>994</ele>
        <time>2017-11-22T21:35:17Z</time>
      </trkpt>
      <trkpt lat="45.00594" lon="5.60855">
        <ele>995</ele>
        <time>2017-11-22T21:35:20Z</time>
      </trkpt>
      <trkpt lat="45.00586" lon="5.6084">
        <ele>995</ele>
        <time>2017-11-22T21:35:27Z</time>
      </trkpt>
      <trkpt lat="45.00559" lon="5.60807">
        <ele>1000</ele>
        <time>2017-11-22T21:35:39Z</time>
      </trkpt>
      <trkpt lat="45.00532" lon="5.60784">
        <ele>1001</ele>
        <time>2017-11-22T21:35:42Z</time>
      </trkpt>
      <trkpt lat="45.00517" lon="5.60777">
        <ele>1002</ele>
        <time>2017-11-22T21:35:48Z</time>
      </trkpt>
      <trkpt lat="45.005" lon="5.60777">
        <ele>1002</ele>
        <time>2017-11-22T21:35:55Z</time>
      </trkpt>
      <trkpt lat="45.00487" lon="5.60779">
        <ele>993</ele>
        <time>2017-11-22T21:36:03Z</time>
      </trkpt>
      <trkpt lat="45.00473" lon="5.60776">
        <ele>992</ele>
        <time>2017-11-22T21:36:21Z</time>
      </trkpt>
      <trkpt lat="45.00465" lon="5.60771">
        <ele>992</ele>
        <time>2017-11-22T21:36:35Z</time>
      </trkpt>
      <trkpt lat="45.00461" lon="5.60764">
        <ele>993</ele>
        <time>2017-11-22T21:36:41Z</time>
      </trkpt>
      <trkpt lat="45.00457" lon="5.60752">
        <ele>993</ele>
        <time>2017-11-22T21:36:56Z</time>
      </trkpt>
      <trkpt lat="45.00451" lon="5.60736">
        <ele>1009</ele>
        <time>2017-11-22T21:37:04Z</time>
      </trkpt>
      <trkpt lat="45.00444" lon="5.60729">
        <ele>1009</ele>
        <time>2017-11-22T21:37:18Z</time>
      </trkpt>
      <trkpt lat="45.00429" lon="5.60724">
        <ele>1008</ele>
        <time>2017-11-22T21:37:30Z</time>
      </trkpt>
      <trkpt lat="45.004" lon="5.60721">
        <ele>1005</ele>
        <time>2017-11-22T21:37:32Z</time>
      </trkpt>
      <trkpt lat="45.00387" lon="5.60714">
        <ele>1006</ele>
        <time>2017-11-22T21:37:51Z</time>
      </trkpt>
      <trkpt lat="45.00356" lon="5.60686">
        <ele>1010</ele>
        <time>2017-11-22T21:37:54Z</time>
      </trkpt>
      <trkpt lat="45.0034" lon="5.60671">
        <ele>1013</ele>
        <time>2017-11-22T21:38:11Z</time>
      </trkpt>
      <trkpt lat="45.00326" lon="5.60668">
        <ele>1014</ele>
        <time>2017-11-22T21:38:27Z</time>
      </trkpt>
      <trkpt lat="45.0031" lon="5.60675">
        <ele>1013</ele>
        <time>2017-11-22T21:38:43Z</time>
      </trkpt>
      <trkpt lat="45.00293" lon="5.60692">
        <ele>1012</ele>
        <time>2017-11-22T21:38:46Z</time>
      </trkpt>
      <trkpt lat="45.00275" lon="5.60711">
        <ele>1011</ele>
        <time>2017-11-22T21:38:55Z</time>
      </trkpt>
      <trkpt lat="45.00264" lon="5.60718">
        <ele>1011</ele>
        <time>2017-11-22T21:39:12Z</time>
      </trkpt>
      <trkpt lat="45.00209" lon="5.60719">
        <ele>1018</ele>
        <time>2017-11-22T21:39:15Z</time>
      </trkpt>
      <trkpt lat="45.0019" lon="5.60717">
        <ele>1019</ele>
        <time>2017-11-22T21:39:25Z</time>
      </trkpt>
      <trkpt lat="45.00145" lon="5.60702">
        <ele>1026</ele>
        <time>2017-11-22T21:39:27Z</time>
      </trkpt>
      <trkpt lat="45.00115" lon="5.60696">
        <ele>1028</ele>
        <time>2017-11-22T21:39:30Z</time>
      </trkpt>
      <trkpt lat="45.00087" lon="5.60695">
        <ele>1029</ele>
        <time>2017-11-22T21:39:49Z</time>
      </trkpt>
      <trkpt lat="45.00062" lon="5.60691">
        <ele>1036</ele>
        <time>2017-11-22T21:39:51Z</time>
      </trkpt>
      <trkpt lat="45.00039" lon="5.60683">
        <ele>1038</ele>
        <time>2017-11-22T21:40:11Z</time>
      </trkpt>
      <trkpt lat="44.99941" lon="5.60631">
        <ele>1051</ele>
        <time>2017-11-22T21:40:27Z</time>
      </trkpt>
      <trkpt lat="44.9992" lon="5.60614">
        <ele>1052</ele>
        <time>2017-11-22T21:40:31Z</time>
      </trkpt>
      <trkpt lat="44.99908" lon="5.60608">
        <ele>1054</ele>
        <time>2017-11-22T21:40:45Z</time>
      </trkpt>
      <trkpt lat="44.99894" lon="5.60604">
        <ele>1055</ele>
        <time>2017-11-22T21:41:02Z</time>
      </trkpt>
      <trkpt lat="44.99838" lon="5.60594">
        <ele>1057</ele>
        <time>2017-11-22T21:41:22Z</time>
      </trkpt>
      <trkpt lat="44.99805" lon="5.60592">
        <ele>1061</ele>
        <time>2017-11-22T21:41:35Z</time>
      </trkpt>
      <trkpt lat="44.99792" lon="5.60587">
        <ele>1061</ele>
        <time>2017-11-22T21:41:49Z</time>
      </trkpt>
      <trkpt lat="44.9978" lon="5.60581">
        <ele>1063</ele>
        <time>2017-11-22T21:41:51Z</time>
      </trkpt>
      <trkpt lat="44.99751" lon="5.60559">
        <ele>1064</ele>
        <time>2017-11-22T21:42:00Z</time>
      </trkpt>
      <trkpt lat="44.99692" lon="5.60511">
        <ele>1065</ele>
        <time>2017-11-22T21:42:09Z</time>
      </trkpt>
      <trkpt lat="44.99686" lon="5.60504">
        <ele>1064</ele>
        <time>2017-11-22T21:42:14Z</time>
      </trkpt>
      <trkpt lat="44.99649" lon="5.60446">
        <ele>1067</ele>
        <time>2017-11-22T21:42:16Z</time>
      </trkpt>
      <trkpt lat="44.9957" lon="5.60326">
        <ele>1071</ele>
        <time>2017-11-22T21:42:20Z</time>
      </trkpt>
      <trkpt lat="44.99564" lon="5.60305">
        <ele>1074</ele>
        <time>2017-11-22T21:42:36Z</time>
      </trkpt>
      <trkpt lat="44.99564" lon="5.60295">
        <ele>1074</ele>
        <time>2017-11-22T21:42:56Z</time>
      </trkpt>
      <trkpt lat="44.99566" lon="5.60286">
        <ele>1075</ele>
        <time>2017-11-22T21:43:14Z</time>
      </trkpt>
      <trkpt lat="44.9957" lon="5.60278">
        <ele>1075</ele>
        <time>2017-11-22T21:43:25Z</time>
      </trkpt>
      <trkpt lat="44.99576" lon="5.60274">
        <ele>1074</ele>
        <time>2017-11-22T21:43:34Z</time>
      </trkpt>
      <trkpt lat="44.99583" lon="5.60273">
        <ele>1074</ele>
        <time>2017-11-22T21:43:53Z</time>
      </trkpt>
      <trkpt lat="44.99603" lon="5.60279">
        <ele>1071</ele>
        <time>2017-11-22T21:44:02Z</time>
      </trkpt>
      <trkpt lat="44.99649" lon="5.60302">
        <ele>1071</ele>
        <time>2017-11-22T21:44:14Z</time>
      </trkpt>
      <trkpt lat="44.99657" lon="5.60304">
        <ele>1071</ele>
        <time>2017-11-22T21:44:17Z</time>
      </trkpt>
      <trkpt lat="44.99665" lon="5.60305">
        <ele>1071</ele>
        <time>2017-11-22T21:44:32Z</time>
      </trkpt>
      <trkpt lat="44.99672" lon="5.60304">
        <ele>1074</ele>
        <time>2017-11-22T21:44:35Z</time>
      </trkpt>
      <trkpt lat="44.99684" lon="5.60296">
        <ele>1074</ele>
        <time>2017-11-22T21:44:52Z</time>
      </trkpt>
      <trkpt lat="44.99693" lon="5.60282">
        <ele>1075</ele>
        <time>2017-11-22T21:44:58Z</time>
      </trkpt>
      <trkpt lat="44.99698" lon="5.60261">
        <ele>1076</ele>
        <time>2017-11-22T21:45:17Z</time>
      </trkpt>
      <trkpt lat="44.99698" lon="5.60251">
        <ele>1076</ele>
        <time>2017-11-22T21:45:36Z</time>
      </trkpt>
      <trkpt lat="44.99694" lon="5.60236">
        <ele>1081</ele>
        <time>2017-11-22T21:45:56Z</time>
      </trkpt>
      <trkpt lat="44.99685" lon="5.6022">
        <ele>1081</ele>
        <time>2017-11-22T21:46:15Z</time>
      </trkpt>
      <trkpt lat="44.99621" lon="5.60137">
        <ele>1091</ele>
        <time>2017-11-22T21:46:18Z</time>
      </trkpt>
      <trkpt lat="44.99613" lon="5.60126">
        <ele>1092</ele>
        <time>2017-11-22T21:46:29Z</time>
      </trkpt>
      <trkpt lat="44.99607" lon="5.60113">
        <ele>1092</ele>
        <time>2017-11-22T21:46:44Z</time>
      </trkpt>
      <trkpt lat="44.99598" lon="5.60076">
        <ele>1100</ele>
        <time>2017-11-22T21:46:49Z</time>
      </trkpt>
      <trkpt lat="44.99594" lon="5.60067">
        <ele>1101</ele>
        <time>2017-11-22T21:47:08Z</time>
      </trkpt>
      <trkpt lat="44.99581" lon="5.60051">
        <ele>1098</ele>
        <time>2017-11-22T21:47:26Z</time>
      </trkpt>
      <trkpt lat="44.99552" lon="5.60025">
        <ele>1099</ele>
        <time>2017-11-22T21:47:36Z</time>
      </trkpt>
      <trkpt lat="44.9954" lon="5.60012">
        <ele>1099</ele>
        <time>2017-11-22T21:47:53Z</time>
      </trkpt>
      <trkpt lat="44.99532" lon="5.59999">
        <ele>1105</ele>
        <time>2017-11-22T21:48:13Z</time>
      </trkpt>
      <trkpt lat="44.99527" lon="5.59982">
        <ele>1105</ele>
        <time>2017-11-22T21:48:25Z</time>
      </trkpt>
      <trkpt lat="44.99516" lon="5.59944">
        <ele>1107</ele>
        <time>2017-11-22T21:48:37Z</time>
      </trkpt>
      <trkpt lat="44.99501" lon="5.59907">
        <ele>1111</ele>
        <time>2017-11-22T21:48:49Z</time>
      </trkpt>
      <trkpt lat="44.99465" lon="5.59847">
        <ele>1111</ele>
        <time>2017-11-22T21:49:03Z</time>
      </trkpt>
      <trkpt lat="44.99424" lon="5.5977">
        <ele>1119</ele>
        <time>2017-11-22T21:49:23Z</time>
      </trkpt>
      <trkpt lat="44.99418" lon="5.59755">
        <ele>1119</ele>
        <time>2017-11-22T21:49:31Z</time>
      </trkpt>
      <trkpt lat="44.99415" lon="5.59739">
        <ele>1121</ele>
        <time>2017-11-22T21:49:39Z</time>
      </trkpt>
      <trkpt lat="44.99419" lon="5.59694">
        <ele>1128</ele>
        <time>2017-11-22T21:49:45Z</time>
      </trkpt>
      <trkpt lat="44.99419" lon="5.59662">
        <ele>1130</ele>
        <time>2017-11-22T21:50:04Z</time>
      </trkpt>
      <trkpt lat="44.99415" lon="5.59647">
        <ele>1132</ele>
        <time>2017-11-22T21:50:13Z</time>
      </trkpt>
      <trkpt lat="44.99408" lon="5.59632">
        <ele>1134</ele>
        <time>2017-11-22T21:50:21Z</time>
      </trkpt>
      <trkpt lat="44.99397" lon="5.59616">
        <ele>1136</ele>
        <time>2017-11-22T21:50:33Z</time>
      </trkpt>
      <trkpt lat="44.99388" lon="5.59608">
        <ele>1137</ele>
        <time>2017-11-22T21:50:49Z</time>
      </trkpt>
      <trkpt lat="44.9936" lon="5.59596">
        <ele>1137</ele>
        <time>2017-11-22T21:51:08Z</time>
      </trkpt>
      <trkpt lat="44.9934" lon="5.59584">
        <ele>1139</ele>
        <time>2017-11-22T21:51:20Z</time>
      </trkpt>
      <trkpt lat="44.99334" lon="5.59576">
        <ele>1142</ele>
        <time>2017-11-22T21:51:35Z</time>
      </trkpt>
      <trkpt lat="44.99329" lon="5.59564">
        <ele>1145</ele>
        <time>2017-11-22T21:51:38Z</time>
      </trkpt>
      <trkpt lat="44.99323" lon="5.59547">
        <ele>1147</ele>
        <time>2017-11-22T21:51:49Z</time>
      </trkpt>
      <trkpt lat="44.99317" lon="5.59537">
        <ele>1148</ele>
        <time>2017-11-22T21:51:53Z</time>
      </trkpt>
      <trkpt lat="44.9931" lon="5.59531">
        <ele>1149</ele>
        <time>2017-11-22T21:51:55Z</time>
      </trkpt>
      <trkpt lat="44.99301" lon="5.59531">
        <ele>1149</ele>
        <time>2017-11-22T21:52:11Z</time>
      </trkpt>
      <trkpt lat="44.99271" lon="5.59545">
        <ele>1150</ele>
        <time>2017-11-22T21:52:30Z</time>
      </trkpt>
      <trkpt lat="44.99225" lon="5.59559">
        <ele>1155</ele>
        <time>2017-11-22T21:52:39Z</time>
      </trkpt>
      <trkpt lat="44.99217" lon="5.59563">
        <ele>1155</ele>
        <time>2017-11-22T21:52:43Z</time>
      </trkpt>
      <trkpt lat="44.99209" lon="5.5957">
        <ele>1155</ele>
        <time>2017-11-22T21:53:00Z</time>
      </trkpt>
      <trkpt lat="44.99198" lon="5.59585">
        <ele>1149</ele>
        <time>2017-11-22T21:53:02Z</time>
      </trkpt>
      <trkpt lat="44.99181" lon="5.59591">
        <ele>1150</ele>
        <time>2017-11-22T21:53:18Z</time>
      </trkpt>
      <trkpt lat="44.99171" lon="5.5959">
        <ele>1151</ele>
        <time>2017-11-22T21:53:26Z</time>
      </trkpt>
      <trkpt lat="44.99155" lon="5.59581">
        <ele>1155</ele>
        <time>2017-11-22T21:53:29Z</time>
      </trkpt>
      <trkpt lat="44.99109" lon="5.59553">
        <ele>1157</ele>
        <time>2017-11-22T21:53:33Z</time>
      </trkpt>
      <trkpt lat="44.99078" lon="5.59537">
        <ele>1157</ele>
        <time>2017-11-22T21:53:39Z</time>
      </trkpt>
      <trkpt lat="44.99015" lon="5.59501">
        <ele>1156</ele>
        <time>2017-11-22T21:53:42Z</time>
      </trkpt>
      <trkpt lat="44.98934" lon="5.59453">
        <ele>1153</ele>
        <time>2017-11-22T21:53:46Z</time>
      </trkpt>
      <trkpt lat="44.98918" lon="5.59439">
        <ele>1153</ele>
        <time>2017-11-22T21:54:05Z</time>
      </trkpt>
      <trkpt lat="44.98881" lon="5.59392">
        <ele>1149</ele>
        <time>2017-11-22T21:54:19Z</time>
      </trkpt>
      <trkpt lat="44.98843" lon="5.59339">
        <ele>1148</ele>
        <time>2017-11-22T21:54:35Z</time>
      </trkpt>
      <trkpt lat="44.98827" lon="5.59308">
        <ele>1146</ele>
        <time>2017-11-22T21:54:38Z</time>
      </trkpt>
      <trkpt lat="44.98798" lon="5.59279">
        <ele>1145</ele>
        <time>2017-11-22T21:54:49Z</time>
      </trkpt>
      <trkpt lat="44.98777" lon="5.59259">
        <ele>1143</ele>
        <time>2017-11-22T21:54:56Z</time>
      </trkpt>
      <trkpt lat="44.98758" lon="5.59239">
        <ele>1147</ele>
        <time>2017-11-22T21:55:09Z</time>
      </trkpt>
      <trkpt lat="44.98726" lon="5.59194">
        <ele>1136</ele>
        <time>2017-11-22T21:55:29Z</time>
      </trkpt>
      <trkpt lat="44.98714" lon="5.59168">
        <ele>1135</ele>
        <time>2017-11-22T21:55:43Z</time>
      </trkpt>
      <trkpt lat="44.98705" lon="5.59141">
        <ele>1139</ele>
        <time>2017-11-22T21:55:58Z</time>
      </trkpt>
      <trkpt lat="44.98699" lon="5.59116">
        <ele>1139</ele>
        <time>2017-11-22T21:56:02Z</time>
      </trkpt>
      <trkpt lat="44.98695" lon="5.59089">
        <ele>1137</ele>
        <time>2017-11-22T21:56:05Z</time>
      </trkpt>
      <trkpt lat="44.98688" lon="5.59057">
        <ele>1142</ele>
        <time>2017-11-22T21:56:10Z</time>
      </trkpt>
      <trkpt lat="44.98669" lon="5.5899">
        <ele>1141</ele>
        <time>2017-11-22T21:56:12Z</time>
      </trkpt>
      <trkpt lat="44.98659" lon="5.58955">
        <ele>1123</ele>
        <time>2017-11-22T21:56:14Z</time>
      </trkpt>
      <trkpt lat="44.98652" lon="5.58924">
        <ele>1126</ele>
        <time>2017-11-22T21:56:23Z</time>
      </trkpt>
      <trkpt lat="44.98653" lon="5.58899">
        <ele>1123</ele>
        <time>2017-11-22T21:56:35Z</time>
      </trkpt>
      <trkpt lat="44.9867" lon="5.58852">
        <ele>1136</ele>
        <time>2017-11-22T21:56:41Z</time>
      </trkpt>
      <trkpt lat="44.98679" lon="5.58811">
        <ele>1132</ele>
        <time>2017-11-22T21:56:52Z</time>
      </trkpt>
      <trkpt lat="44.98684" lon="5.58765">
        <ele>1130</ele>
        <time>2017-11-22T21:57:04Z</time>
      </trkpt>
      <trkpt lat="44.98686" lon="5.5872">
        <ele>1129</ele>
        <time>2017-11-22T21:57:20Z</time>
      </trkpt>
      <trkpt lat="44.98688" lon="5.58677">
        <ele>1126</ele>
        <time>2017-11-22T21:57:22Z</time>
      </trkpt>
      <trkpt lat="44.98684" lon="5.58644">
        <ele>1128</ele>
        <time>2017-11-22T21:57:39Z</time>
      </trkpt>
      <trkpt lat="44.98682" lon="5.58636">
        <ele>1129</ele>
        <time>2017-11-22T21:57:46Z</time>
      </trkpt>
      <trkpt lat="44.98671" lon="5.5861">
        <ele>1129</ele>
        <time>2017-11-22T21:57:54Z</time>
      </trkpt>
      <trkpt lat="44.9866" lon="5.58597">
        <ele>1117</ele>
        <time>2017-11-22T21:58:07Z</time>
      </trkpt>
      <trkpt lat="44.98651" lon="5.58589">
        <ele>1116</ele>
        <time>2017-11-22T21:58:21Z</time>
      </trkpt>
      <trkpt lat="44.98631" lon="5.58579">
        <ele>1124</ele>
        <time>2017-11-22T21:58:34Z</time>
      </trkpt>
      <trkpt lat="44.98615" lon="5.58574">
        <ele>1122</ele>
        <time>2017-11-22T21:58:38Z</time>
      </trkpt>
      <trkpt lat="44.98581" lon="5.58566">
        <ele>1108</ele>
        <time>2017-11-22T21:58:52Z</time>
      </trkpt>
      <trkpt lat="44.98561" lon="5.58556">
        <ele>1108</ele>
        <time>2017-11-22T21:58:57Z</time>
      </trkpt>
      <trkpt lat="44.98538" lon="5.58542">
        <ele>1107</ele>
        <time>2017-11-22T21:59:10Z</time>
      </trkpt>
      <trkpt lat="44.98514" lon="5.58526">
        <ele>1106</ele>
        <time>2017-11-22T21:59:14Z</time>
      </trkpt>
      <trkpt lat="44.9848" lon="5.58495">
        <ele>1106</ele>
        <time>2017-11-22T21:59:29Z</time>
      </trkpt>
      <trkpt lat="44.98426" lon="5.58442">
        <ele>1106</ele>
        <time>2017-11-22T21:59:48Z</time>
      </trkpt>
      <trkpt lat="44.98386" lon="5.58399">
        <ele>1104</ele>
        <time>2017-11-22T22:00:02Z</time>
      </trkpt>
      <trkpt lat="44.98364" lon="5.58381">
        <ele>1102</ele>
        <time>2017-11-22T22:00:21Z</time>
      </trkpt>
      <trkpt lat="44.98343" lon="5.58367">
        <ele>1102</ele>
        <time>2017-11-22T22:00:35Z</time>
      </trkpt>
      <trkpt lat="44.98318" lon="5.58354">
        <ele>1088</ele>
        <time>2017-11-22T22:00:50Z</time>
      </trkpt>
      <trkpt lat="44.98298" lon="5.58346">
        <ele>1085</ele>
        <time>2017-11-22T22:01:06Z</time>
      </trkpt>
      <trkpt lat="44.98248" lon="5.58319">
        <ele>1080</ele>
        <time>2017-11-22T22:01:17Z</time>
      </trkpt>
      <trkpt lat="44.98206" lon="5.58287">
        <ele>1079</ele>
        <time>2017-11-22T22:01:27Z</time>
      </trkpt>
      <trkpt lat="44.98162" lon="5.58246">
        <ele>1076</ele>
        <time>2017-11-22T22:01:35Z</time>
      </trkpt>
      <trkpt lat="44.98141" lon="5.58218">
        <ele>1072</ele>
        <time>2017-11-22T22:01:50Z</time>
      </trkpt>
      <trkpt lat="44.98122" lon="5.58185">
        <ele>1071</ele>
        <time>2017-11-22T22:02:09Z</time>
      </trkpt>
      <trkpt lat="44.98113" lon="5.5817">
        <ele>1070</ele>
        <time>2017-11-22T22:02:21Z</time>
      </trkpt>
      <trkpt lat="44.98096" lon="5.58153">
        <ele>1073</ele>
        <time>2017-11-22T22:02:36Z</time>
      </trkpt>
      <trkpt lat="44.98041" lon="5.58082">
        <ele>1063</ele>
        <time>2017-11-22T22:02:45Z</time>
      </trkpt>
      <trkpt lat="44.98035" lon="5.5808">
        <ele>1062</ele>
        <time>2017-11-22T22:02:53Z</time>
      </trkpt>
      <trkpt lat="44.98028" lon="5.58083">
        <ele>1062</ele>
        <time>2017-11-22T22:02:59Z</time>
      </trkpt>
      <trkpt lat="44.98022" lon="5.58091">
        <ele>1060</ele>
        <time>2017-11-22T22:03:19Z</time>
      </trkpt>
      <trkpt lat="44.9802" lon="5.58103">
        <ele>1060</ele>
        <time>2017-11-22T22:03:33Z</time>
      </trkpt>
      <trkpt lat="44.98022" lon="5.58114">
        <ele>1059</ele>
        <time>2017-11-22T22:03:51Z</time>
      </trkpt>
      <trkpt lat="44.98028" lon="5.58123">
        <ele>1059</ele>
        <time>2017-11-22T22:04:05Z</time>
      </trkpt>
      <trkpt lat="44.98061" lon="5.58149">
        <ele>1062</ele>
        <time>2017-11-22T22:04:21Z</time>
      </trkpt>
      <trkpt lat="44.98075" lon="5.58163">
        <ele>1064</ele>
        <time>2017-11-22T22:04:35Z</time>
      </trkpt>
      <trkpt lat="44.98086" lon="5.58181">
        <ele>1067</ele>
        <time>2017-11-22T22:04:45Z</time>
      </trkpt>
      <trkpt lat="44.98121" lon="5.58259">
        <ele>1051</ele>
        <time>2017-11-22T22:04:57Z</time>
      </trkpt>
      <trkpt lat="44.9816" lon="5.58343">
        <ele>1041</ele>
        <time>2017-11-22T22:05:08Z</time>
      </trkpt>
      <trkpt lat="44.98179" lon="5.58401">
        <ele>1046</ele>
        <time>2017-11-22T22:05:13Z</time>
      </trkpt>
      <trkpt lat="44.98195" lon="5.58446">
        <ele>1037</ele>
        <time>2017-11-22T22:05:31Z</time>
      </trkpt>
      <trkpt lat="44.98206" lon="5.5847">
        <ele>1036</ele>
        <time>2017-11-22T22:05:35Z</time>
      </trkpt>
      <trkpt lat="44.98216" lon="5.58487">
        <ele>1036</ele>
        <time>2017-11-22T22:05:52Z</time>
      </trkpt>
      <trkpt lat="44.98229" lon="5.58501">
        <ele>1029</ele>
        <time>2017-11-22T22:06:12Z</time>
      </trkpt>
      <trkpt lat="44.98244" lon="5.58514">
        <ele>1031</ele>
        <time>2017-11-22T22:06:23Z</time>
      </trkpt>
      <trkpt lat="44.9826" lon="5.58526">
        <ele>1038</ele>
        <time>2017-11-22T22:06:27Z</time>
      </trkpt>
      <trkpt lat="44.9827" lon="5.58538">
        <ele>1038</ele>
        <time>2017-11-22T22:06:44Z</time>
      </trkpt>
      <trkpt lat="44.98285" lon="5.58569">
        <ele>1036</ele>
        <time>2017-11-22T22:06:56Z</time>
      </trkpt>
      <trkpt lat="44.98299" lon="5.5861">
        <ele>1028</ele>
        <time>2017-11-22T22:07:16Z</time>
      </trkpt>
      <trkpt lat="44.9832" lon="5.58656">
        <ele>1027</ele>
        <time>2017-11-22T22:07:31Z</time>
      </trkpt>
      <trkpt lat="44.98319" lon="5.5867">
        <ele>1024</ele>
        <time>2017-11-22T22:07:47Z</time>
      </trkpt>
      <trkpt lat="44.98315" lon="5.58676">
        <ele>1022</ele>
        <time>2017-11-22T22:08:02Z</time>
      </trkpt>
      <trkpt lat="44.9831" lon="5.58677">
        <ele>1022</ele>
        <time>2017-11-22T22:08:13Z</time>
      </trkpt>
      <trkpt lat="44.98305" lon="5.58675">
        <ele>1021</ele>
        <time>2017-11-22T22:08:32Z</time>
      </trkpt>
      <trkpt lat="44.98297" lon="5.58666">
        <ele>1025</ele>
        <time>2017-11-22T22:08:49Z</time>
      </trkpt>
      <trkpt lat="44.98273" lon="5.5863">
        <ele>1024</ele>
        <time>2017-11-22T22:08:51Z</time>
      </trkpt>
      <trkpt lat="44.98263" lon="5.58616">
        <ele>1024</ele>
        <time>2017-11-22T22:09:01Z</time>
      </trkpt>
      <trkpt lat="44.98251" lon="5.58605">
        <ele>1024</ele>
        <time>2017-11-22T22:09:11Z</time>
      </trkpt>
      <trkpt lat="44.98217" lon="5.58585">
        <ele>1015</ele>
        <time>2017-11-22T22:09:27Z</time>
      </trkpt>
      <trkpt lat="44.98187" lon="5.58573">
        <ele>1017</ele>
        <time>2017-11-22T22:09:39Z</time>
      </trkpt>
      <trkpt lat="44.98163" lon="5.58554">
        <ele>1007</ele>
        <time>2017-11-22T22:09:43Z</time>
      </trkpt>
      <trkpt lat="44.98141" lon="5.5852">
        <ele>1008</ele>
        <time>2017-11-22T22:09:54Z</time>
      </trkpt>
      <trkpt lat="44.98097" lon="5.58434">
        <ele>1008</ele>
        <time>2017-11-22T22:10:06Z</time>
      </trkpt>
      <trkpt lat="44.98076" lon="5.58403">
        <ele>1001</ele>
        <time>2017-11-22T22:10:20Z</time>
      </trkpt>
      <trkpt lat="44.98049" lon="5.58381">
        <ele>1000</ele>
        <time>2017-11-22T22:10:28Z</time>
      </trkpt>
      <trkpt lat="44.97877" lon="5.5825">
        <ele>988</ele>
        <time>2017-11-22T22:10:42Z</time>
      </trkpt>
      <trkpt lat="44.97739" lon="5.58146">
        <ele>961</ele>
        <time>2017-11-22T22:10:55Z</time>
      </trkpt>
      <trkpt lat="44.97696" lon="5.58114">
        <ele>959</ele>
        <time>2017-11-22T22:11:12Z</time>
      </trkpt>
      <trkpt lat="44.97675" lon="5.58096">
        <ele>958</ele>
        <time>2017-11-22T22:11:29Z</time>
      </trkpt>
      <trkpt lat="44.97658" lon="5.58075">
        <ele>953</ele>
        <time>2017-11-22T22:11:39Z</time>
      </trkpt>
      <trkpt lat="44.97636" lon="5.58042">
        <ele>950</ele>
        <time>2017-11-22T22:11:48Z</time>
      </trkpt>
      <trkpt lat="44.97628" lon="5.58022">
        <ele>950</ele>
        <time>2017-11-22T22:11:59Z</time>
      </trkpt>
      <trkpt lat="44.97624" lon="5.57997">
        <ele>949</ele>
        <time>2017-11-22T22:12:04Z</time>
      </trkpt>
      <trkpt lat="44.97623" lon="5.57969">
        <ele>949</ele>
        <time>2017-11-22T22:12:21Z</time>
      </trkpt>
      <trkpt lat="44.97628" lon="5.57936">
        <ele>948</ele>
        <time>2017-11-22T22:12:24Z</time>
      </trkpt>
      <trkpt lat="44.97637" lon="5.57905">
        <ele>942</ele>
        <time>2017-11-22T22:12:43Z</time>
      </trkpt>
      <trkpt lat="44.97648" lon="5.57877">
        <ele>940</ele>
        <time>2017-11-22T22:12:58Z</time>
      </trkpt>
      <trkpt lat="44.97661" lon="5.57847">
        <ele>938</ele>
        <time>2017-11-22T22:13:06Z</time>
      </trkpt>
      <trkpt lat="44.97678" lon="5.57817">
        <ele>938</ele>
        <time>2017-11-22T22:13:24Z</time>
      </trkpt>
      <trkpt lat="44.97695" lon="5.57792">
        <ele>938</ele>
        <time>2017-11-22T22:13:28Z</time>
      </trkpt>
      <trkpt lat="44.97715" lon="5.57769">
        <ele>937</ele>
        <time>2017-11-22T22:13:35Z</time>
      </trkpt>
      <trkpt lat="44.97737" lon="5.57742">
        <ele>938</ele>
        <time>2017-11-22T22:13:47Z</time>
      </trkpt>
      <trkpt lat="44.97739" lon="5.5773">
        <ele>939</ele>
        <time>2017-11-22T22:14:01Z</time>
      </trkpt>
      <trkpt lat="44.97739" lon="5.57716">
        <ele>942</ele>
        <time>2017-11-22T22:14:06Z</time>
      </trkpt>
      <trkpt lat="44.97734" lon="5.57707">
        <ele>943</ele>
        <time>2017-11-22T22:14:11Z</time>
      </trkpt>
      <trkpt lat="44.97727" lon="5.57701">
        <ele>944</ele>
        <time>2017-11-22T22:14:27Z</time>
      </trkpt>
      <trkpt lat="44.97715" lon="5.57697">
        <ele>943</ele>
        <time>2017-11-22T22:14:30Z</time>
      </trkpt>
      <trkpt lat="44.97701" lon="5.57696">
        <ele>943</ele>
        <time>2017-11-22T22:14:35Z</time>
      </trkpt>
      <trkpt lat="44.97668" lon="5.57692">
        <ele>943</ele>
        <time>2017-11-22T22:14:39Z</time>
      </trkpt>
      <trkpt lat="44.97655" lon="5.57692">
        <ele>934</ele>
        <time>2017-11-22T22:14:56Z</time>
      </trkpt>
      <trkpt lat="44.97641" lon="5.57688">
        <ele>932</ele>
        <time>2017-11-22T22:15:00Z</time>
      </trkpt>
      <trkpt lat="44.97623" lon="5.57681">
        <ele>930</ele>
        <time>2017-11-22T22:15:14Z</time>
      </trkpt>
      <trkpt lat="44.97607" lon="5.5767">
        <ele>927</ele>
        <time>2017-11-22T22:15:23Z</time>
      </trkpt>
      <trkpt lat="44.97565" lon="5.57639">
        <ele>918</ele>
        <time>2017-11-22T22:15:30Z</time>
      </trkpt>
      <trkpt lat="44.97552" lon="5.57631">
        <ele>917</ele>
        <time>2017-11-22T22:15:49Z</time>
      </trkpt>
      <trkpt lat="44.97537" lon="5.57625">
        <ele>916</ele>
        <time>2017-11-22T22:16:03Z</time>
      </trkpt>
      <trkpt lat="44.97521" lon="5.57621">
        <ele>914</ele>
        <time>2017-11-22T22:16:12Z</time>
      </trkpt>
      <trkpt lat="44.97504" lon="5.5762">
        <ele>913</ele>
        <time>2017-11-22T22:16:25Z</time>
      </trkpt>
      <trkpt lat="44.97475" lon="5.57623">
        <ele>906</ele>
        <time>2017-11-22T22:16:35Z</time>
      </trkpt>
      <trkpt lat="44.97475" lon="5.57613">
        <ele>906</ele>
        <time>2017-11-22T22:16:55Z</time>
      </trkpt>
      <trkpt lat="44.97478" lon="5.576">
        <ele>906</ele>
        <time>2017-11-22T22:17:07Z</time>
      </trkpt>
      <trkpt lat="44.9749" lon="5.57565">
        <ele>904</ele>
        <time>2017-11-22T22:17:13Z</time>
      </trkpt>
      <trkpt lat="44.97508" lon="5.5751">
        <ele>906</ele>
        <time>2017-11-22T22:17:22Z</time>
      </trkpt>
      <trkpt lat="44.97522" lon="5.57478">
        <ele>908</ele>
        <time>2017-11-22T22:17:31Z</time>
      </trkpt>
      <trkpt lat="44.97534" lon="5.57459">
        <ele>910</ele>
        <time>2017-11-22T22:17:36Z</time>
      </trkpt>
      <trkpt lat="44.97536" lon="5.57447">
        <ele>910</ele>
        <time>2017-11-22T22:17:54Z</time>
      </trkpt>
      <trkpt lat="44.97534" lon="5.57433">
        <ele>910</ele>
        <time>2017-11-22T22:18:14Z</time>
      </trkpt>
      <trkpt lat="44.97527" lon="5.57422">
        <ele>910</ele>
        <time>2017-11-22T22:18:27Z</time>
      </trkpt>
      <trkpt lat="44.97516" lon="5.57417">
        <ele>909</ele>
        <time>2017-11-22T22:18:31Z</time>
      </trkpt>
      <trkpt lat="44.97486" lon="5.57417">
        <ele>905</ele>
        <time>2017-11-22T22:18:51Z</time>
      </trkpt>
      <trkpt lat="44.97469" lon="5.57414">
        <ele>907</ele>
        <time>2017-11-22T22:19:07Z</time>
      </trkpt>
      <trkpt lat="44.97454" lon="5.57408">
        <ele>906</ele>
        <time>2017-11-22T22:19:21Z</time>
      </trkpt>
      <trkpt lat="44.9744" lon="5.57399">
        <ele>905</ele>
        <time>2017-11-22T22:19:34Z</time>
      </trkpt>
      <trkpt lat="44.97429" lon="5.57388">
        <ele>905</ele>
        <time>2017-11-22T22:19:36Z</time>
      </trkpt>
      <trkpt lat="44.97418" lon="5.57373">
        <ele>906</ele>
        <time>2017-11-22T22:19:50Z</time>
      </trkpt>
      <trkpt lat="44.97412" lon="5.57358">
        <ele>900</ele>
        <time>2017-11-22T22:20:04Z</time>
      </trkpt>
      <trkpt lat="44.97408" lon="5.57343">
        <ele>902</ele>
        <time>2017-11-22T22:20:21Z</time>
      </trkpt>
      <trkpt lat="44.97408" lon="5.57332">
        <ele>904</ele>
        <time>2017-11-22T22:20:30Z</time>
      </trkpt>
      <trkpt lat="44.9741" lon="5.57317">
        <ele>903</ele>
        <time>2017-11-22T22:20:50Z</time>
      </trkpt>
      <trkpt lat="44.9742" lon="5.57299">
        <ele>908</ele>
        <time>2017-11-22T22:21:04Z</time>
      </trkpt>
      <trkpt lat="44.97442" lon="5.57276">
        <ele>908</ele>
        <time>2017-11-22T22:21:16Z</time>
      </trkpt>
      <trkpt lat="44.97486" lon="5.57244">
        <ele>911</ele>
        <time>2017-11-22T22:21:20Z</time>
      </trkpt>
      <trkpt lat="44.97497" lon="5.57234">
        <ele>911</ele>
        <time>2017-11-22T22:21:38Z</time>
      </trkpt>
      <trkpt lat="44.97503" lon="5.57225">
        <ele>916</ele>
        <time>2017-11-22T22:21:42Z</time>
      </trkpt>
      <trkpt lat="44.97506" lon="5.57213">
        <ele>917</ele>
        <time>2017-11-22T22:21:58Z</time>
      </trkpt>
      <trkpt lat="44.97505" lon="5.572">
        <ele>917</ele>
        <time>2017-11-22T22:22:05Z</time>
      </trkpt>
      <trkpt lat="44.975" lon="5.57189">
        <ele>917</ele>
        <time>2017-11-22T22:22:13Z</time>
      </trkpt>
      <trkpt lat="44.97496" lon="5.57185">
        <ele>912</ele>
        <time>2017-11-22T22:22:27Z</time>
      </trkpt>
      <trkpt lat="44.9749" lon="5.57183">
        <ele>912</ele>
        <time>2017-11-22T22:22:34Z</time>
      </trkpt>
      <trkpt lat="44.97473" lon="5.57184">
        <ele>911</ele>
        <time>2017-11-22T22:22:47Z</time>
      </trkpt>
      <trkpt lat="44.9744" lon="5.57191">
        <ele>910</ele>
        <time>2017-11-22T22:22:53Z</time>
      </trkpt>
      <trkpt lat="44.97424" lon="5.57192">
        <ele>909</ele>
        <time>2017-11-22T22:22:57Z</time>
      </trkpt>
      <trkpt lat="44.97416" lon="5.57191">
        <ele>905</ele>
        <time>2017-11-22T22:23:01Z</time>
      </trkpt>
      <trkpt lat="44.97409" lon="5.57183">
        <ele>906</ele>
        <time>2017-11-22T22:23:11Z</time>
      </trkpt>
      <trkpt lat="44.97401" lon="5.57156">
        <ele>909</ele>
        <time>2017-11-22T22:23:18Z</time>
      </trkpt>
      <trkpt lat="44.9739" lon="5.57104">
        <ele>910</ele>
        <time>2017-11-22T22:23:37Z</time>
      </trkpt>
      <trkpt lat="44.97384" lon="5.57068">
        <ele>916</ele>
        <time>2017-11-22T22:23:48Z</time>
      </trkpt>
      <trkpt lat="44.97382" lon="5.57042">
        <ele>917</ele>
        <time>2017-11-22T22:23:56Z</time>
      </trkpt>
      <trkpt lat="44.97374" lon="5.57011">
        <ele>918</ele>
        <time>2017-11-22T22:24:05Z</time>
      </trkpt>
      <trkpt lat="44.97359" lon="5.56985">
        <ele>926</ele>
        <time>2017-11-22T22:24:08Z</time>
      </trkpt>
      <trkpt lat="44.97351" lon="5.56975">
        <ele>926</ele>
        <time>2017-11-22T22:24:13Z</time>
      </trkpt>
      <trkpt lat="44.97341" lon="5.5697">
        <ele>926</ele>
        <time>2017-11-22T22:24:33Z</time>
      </trkpt>
      <trkpt lat="44.97322" lon="5.56968">
        <ele>925</ele>
        <time>2017-11-22T22:24:52Z</time>
      </trkpt>
      <trkpt lat="44.97292" lon="5.56976">
        <ele>926</ele>
        <time>2017-11-22T22:24:55Z</time>
      </trkpt>
      <trkpt lat="44.97279" lon="5.56981">
        <ele>926</ele>
        <time>2017-11-22T22:25:09Z</time>
      </trkpt>
      <trkpt lat="44.9727" lon="5.5698">
        <ele>926</ele>
        <time>2017-11-22T22:25:15Z</time>
      </trkpt>
      <trkpt lat="44.97264" lon="5.56977">
        <ele>926</ele>
        <time>2017-11-22T22:25:25Z</time>
      </trkpt>
      <trkpt lat="44.97259" lon="5.56962">
        <ele>927</ele>
        <time>2017-11-22T22:25:37Z</time>
      </trkpt>
      <trkpt lat="44.9726" lon="5.56917">
        <ele>932</ele>
        <time>2017-11-22T22:25:51Z</time>
      </trkpt>
      <trkpt lat="44.97259" lon="5.56892">
        <ele>931</ele>
        <time>2017-11-22T22:26:09Z</time>
      </trkpt>
      <trkpt lat="44.97262" lon="5.56875">
        <ele>929</ele>
        <time>2017-11-22T22:26:12Z</time>
      </trkpt>
      <trkpt lat="44.97268" lon="5.56863">
        <ele>927</ele>
        <time>2017-11-22T22:26:29Z</time>
      </trkpt>
      <trkpt lat="44.97277" lon="5.56854">
        <ele>927</ele>
        <time>2017-11-22T22:26:48Z</time>
      </trkpt>
      <trkpt lat="44.97305" lon="5.56842">
        <ele>929</ele>
        <time>2017-11-22T22:26:52Z</time>
      </trkpt>
      <trkpt lat="44.97345" lon="5.56822">
        <ele>936</ele>
        <time>2017-11-22T22:27:03Z</time>
      </trkpt>
      <trkpt lat="44.97356" lon="5.56813">
        <ele>938</ele>
        <time>2017-11-22T22:27:12Z</time>
      </trkpt>
      <trkpt lat="44.9737" lon="5.56796">
        <ele>940</ele>
        <time>2017-11-22T22:27:22Z</time>
      </trkpt>
      <trkpt lat="44.97382" lon="5.56784">
        <ele>941</ele>
        <time>2017-11-22T22:27:24Z</time>
      </trkpt>
      <trkpt lat="44.97392" lon="5.56767">
        <ele>942</ele>
        <time>2017-11-22T22:27:42Z</time>
      </trkpt>
      <trkpt lat="44.97397" lon="5.56752">
        <ele>944</ele>
        <time>2017-11-22T22:27:56Z</time>
      </trkpt>
      <trkpt lat="44.974" lon="5.56735">
        <ele>948</ele>
        <time>2017-11-22T22:27:59Z</time>
      </trkpt>
      <trkpt lat="44.97409" lon="5.56702">
        <ele>951</ele>
        <time>2017-11-22T22:28:05Z</time>
      </trkpt>
      <trkpt lat="44.97407" lon="5.56691">
        <ele>952</ele>
        <time>2017-11-22T22:28:09Z</time>
      </trkpt>
      <trkpt lat="44.97402" lon="5.56685">
        <ele>952</ele>
        <time>2017-11-22T22:28:19Z</time>
      </trkpt>
      <trkpt lat="44.97396" lon="5.5668">
        <ele>952</ele>
        <time>2017-11-22T22:28:21Z</time>
      </trkpt>
      <trkpt lat="44.97385" lon="5.5668">
        <ele>952</ele>
        <time>2017-11-22T22:28:23Z</time>
      </trkpt>
      <trkpt lat="44.97372" lon="5.56691">
        <ele>951</ele>
        <time>2017-11-22T22:28:28Z</time>
      </trkpt>
      <trkpt lat="44.97356" lon="5.5671">
        <ele>948</ele>
        <time>2017-11-22T22:28:34Z</time>
      </trkpt>
      <trkpt lat="44.9734" lon="5.56725">
        <ele>944</ele>
        <time>2017-11-22T22:28:42Z</time>
      </trkpt>
      <trkpt lat="44.97329" lon="5.56734">
        <ele>939</ele>
        <time>2017-11-22T22:28:59Z</time>
      </trkpt>
      <trkpt lat="44.97316" lon="5.56736">
        <ele>940</ele>
        <time>2017-11-22T22:29:07Z</time>
      </trkpt>
      <trkpt lat="44.97302" lon="5.56735">
        <ele>942</ele>
        <time>2017-11-22T22:29:19Z</time>
      </trkpt>
      <trkpt lat="44.97272" lon="5.56728">
        <ele>942</ele>
        <time>2017-11-22T22:29:24Z</time>
      </trkpt>
      <trkpt lat="44.97246" lon="5.5673">
        <ele>935</ele>
        <time>2017-11-22T22:29:34Z</time>
      </trkpt>
      <trkpt lat="44.97227" lon="5.56727">
        <ele>935</ele>
        <time>2017-11-22T22:29:50Z</time>
      </trkpt>
      <trkpt lat="44.97208" lon="5.5672">
        <ele>934</ele>
        <time>2017-11-22T22:30:04Z</time>
      </trkpt>
      <trkpt lat="44.97197" lon="5.56711">
        <ele>935</ele>
        <time>2017-11-22T22:30:21Z</time>
      </trkpt>
      <trkpt lat="44.97173" lon="5.56667">
        <ele>939</ele>
        <time>2017-11-22T22:30:40Z</time>
      </trkpt>
      <trkpt lat="44.9716" lon="5.56645">
        <ele>939</ele>
        <time>2017-11-22T22:30:47Z</time>
      </trkpt>
      <trkpt lat="44.97151" lon="5.56624">
        <ele>941</ele>
        <time>2017-11-22T22:31:04Z</time>
      </trkpt>
      <trkpt lat="44.97139" lon="5.56592">
        <ele>944</ele>
        <time>2017-11-22T22:31:09Z</time>
      </trkpt>
      <trkpt lat="44.97126" lon="5.56573">
        <ele>952</ele>
        <time>2017-11-22T22:31:15Z</time>
      </trkpt>
      <trkpt lat="44.97108" lon="5.56554">
        <ele>950</ele>
        <time>2017-11-22T22:31:27Z</time>
      </trkpt>
      <trkpt lat="44.97085" lon="5.56536">
        <ele>949</ele>
        <time>2017-11-22T22:31:34Z</time>
      </trkpt>
      <trkpt lat="44.97065" lon="5.56524">
        <ele>938</ele>
        <time>2017-11-22T22:31:36Z</time>
      </trkpt>
      <trkpt lat="44.97053" lon="5.5651">
        <ele>938</ele>
        <time>2017-11-22T22:31:56Z</time>
      </trkpt>
      <trkpt lat="44.97048" lon="5.56499">
        <ele>941</ele>
        <time>2017-11-22T22:32:08Z</time>
      </trkpt>
      <trkpt lat="44.97047" lon="5.56472">
        <ele>941</ele>
        <time>2017-11-22T22:32:21Z</time>
      </trkpt>
      <trkpt lat="44.97056" lon="5.56405">
        <ele>940</ele>
        <time>2017-11-22T22:32:23Z</time>
      </trkpt>
      <trkpt lat="44.97064" lon="5.56356">
        <ele>938</ele>
        <time>2017-11-22T22:32:42Z</time>
      </trkpt>
      <trkpt lat="44.9707" lon="5.56337">
        <ele>938</ele>
        <time>2017-11-22T22:32:49Z</time>
      </trkpt>
      <trkpt lat="44.97086" lon="5.56312">
        <ele>937</ele>
        <time>2017-11-22T22:33:02Z</time>
      </trkpt>
      <trkpt lat="44.97113" lon="5.5629">
        <ele>935</ele>
        <time>2017-11-22T22:33:14Z</time>
      </trkpt>
      <trkpt lat="44.97226" lon="5.56231">
        <ele>936</ele>
        <time>2017-11-22T22:33:31Z</time>
      </trkpt>
      <trkpt lat="44.97262" lon="5.56207">
        <ele>944</ele>
        <time>2017-11-22T22:33:42Z</time>
      </trkpt>
      <trkpt lat="44.97293" lon="5.56182">
        <ele>945</ele>
        <time>2017-11-22T22:33:51Z</time>
      </trkpt>
      <trkpt lat="44.9731" lon="5.56164">
        <ele>944</ele>
        <time>2017-11-22T22:34:03Z</time>
      </trkpt>
      <trkpt lat="44.97319" lon="5.56146">
        <ele>945</ele>
        <time>2017-11-22T22:34:22Z</time>
      </trkpt>
      <trkpt lat="44.97324" lon="5.56127">
        <ele>944</ele>
        <time>2017-11-22T22:34:41Z</time>
      </trkpt>
      <trkpt lat="44.97326" lon="5.56109">
        <ele>945</ele>
        <time>2017-11-22T22:34:45Z</time>
      </trkpt>
      <trkpt lat="44.97321" lon="5.56087">
        <ele>945</ele>
        <time>2017-11-22T22:35:02Z</time>
      </trkpt>
      <trkpt lat="44.97319" lon="5.56079">
        <ele>950</ele>
        <time>2017-11-22T22:35:08Z</time>
      </trkpt>
      <trkpt lat="44.97313" lon="5.56072">
        <ele>951</ele>
        <time>2017-11-22T22:35:23Z</time>
      </trkpt>
      <trkpt lat="44.97306" lon="5.56069">
        <ele>951</ele>
        <time>2017-11-22T22:35:27Z</time>
      </trkpt>
      <trkpt lat="44.97267" lon="5.56078">
        <ele>948</ele>
        <time>2017-11-22T22:35:46Z</time>
      </trkpt>
      <trkpt lat="44.97245" lon="5.56085">
        <ele>940</ele>
        <time>2017-11-22T22:35:58Z</time>
      </trkpt>
      <trkpt lat="44.97231" lon="5.56084">
        <ele>937</ele>
        <time>2017-11-22T22:36:09Z</time>
      </trkpt>
      <trkpt lat="44.97218" lon="5.56075">
        <ele>944</ele>
        <time>2017-11-22T22:36:17Z</time>
      </trkpt>
      <trkpt lat="44.97207" lon="5.56057">
        <ele>945</ele>
        <time>2017-11-22T22:36:33Z</time>
      </trkpt>
      <trkpt lat="44.972" lon="5.5602">
        <ele>948</ele>
        <time>2017-11-22T22:36:42Z</time>
      </trkpt>
      <trkpt lat="44.97196" lon="5.55994">
        <ele>958</ele>
        <time>2017-11-22T22:36:59Z</time>
      </trkpt>
      <trkpt lat="44.97187" lon="5.55972">
        <ele>959</ele>
        <time>2017-11-22T22:37:07Z</time>
      </trkpt>
      <trkpt lat="44.97172" lon="5.55959">
        <ele>959</ele>
        <time>2017-11-22T22:37:23Z</time>
      </trkpt>
      <trkpt lat="44.97154" lon="5.55951">
        <ele>952</ele>
        <time>2017-11-22T22:37:27Z</time>
      </trkpt>
      <trkpt lat="44.97115" lon="5.55941">
        <ele>950</ele>
        <time>2017-11-22T22:37:29Z</time>
      </trkpt>
      <trkpt lat="44.97106" lon="5.55929">
        <ele>950</ele>
        <time>2017-11-22T22:37:35Z</time>
      </trkpt>
      <trkpt lat="44.97098" lon="5.55904">
        <ele>955</ele>
        <time>2017-11-22T22:37:42Z</time>
      </trkpt>
      <trkpt lat="44.97094" lon="5.5588">
        <ele>958</ele>
        <time>2017-11-22T22:37:46Z</time>
      </trkpt>
      <trkpt lat="44.97094" lon="5.55867">
        <ele>959</ele>
        <time>2017-11-22T22:37:54Z</time>
      </trkpt>
      <trkpt lat="44.97091" lon="5.55847">
        <ele>959</ele>
        <time>2017-11-22T22:38:12Z</time>
      </trkpt>
      <trkpt lat="44.97082" lon="5.55829">
        <ele>958</ele>
        <time>2017-11-22T22:38:16Z</time>
      </trkpt>
      <trkpt lat="44.97047" lon="5.55806">
        <ele>957</ele>
        <time>2017-11-22T22:38:27Z</time>
      </trkpt>
      <trkpt lat="44.97032" lon="5.55788">
        <ele>957</ele>
        <time>2017-11-22T22:38:35Z</time>
      </trkpt>
      <trkpt lat="44.97023" lon="5.55765">
        <ele>957</ele>
        <time>2017-11-22T22:38:43Z</time>
      </trkpt>
      <trkpt lat="44.97017" lon="5.55708">
        <ele>963</ele>
        <time>2017-11-22T22:38:55Z</time>
      </trkpt>
      <trkpt lat="44.97007" lon="5.55647">
        <ele>965</ele>
        <time>2017-11-22T22:39:15Z</time>
      </trkpt>
      <trkpt lat="44.97003" lon="5.55594">
        <ele>964</ele>
        <time>2017-11-22T22:39:25Z</time>
      </trkpt>
      <trkpt lat="44.96998" lon="5.55574">
        <ele>960</ele>
        <time>2017-11-22T22:39:31Z</time>
      </trkpt>
      <trkpt lat="44.96989" lon="5.55559">
        <ele>959</ele>
        <time>2017-11-22T22:39:44Z</time>
      </trkpt>
      <trkpt lat="44.96977" lon="5.55545">
        <ele>959</ele>
        <time>2017-11-22T22:39:49Z</time>
      </trkpt>
      <trkpt lat="44.96963" lon="5.55534">
        <ele>959</ele>
        <time>2017-11-22T22:39:53Z</time>
      </trkpt>
      <trkpt lat="44.96953" lon="5.55529">
        <ele>959</ele>
        <time>2017-11-22T22:40:07Z</time>
      </trkpt>
      <trkpt lat="44.96943" lon="5.55527">
        <ele>959</ele>
        <time>2017-11-22T22:40:25Z</time>
      </trkpt>
      <trkpt lat="44.96938" lon="5.55527">
        <ele>959</ele>
        <time>2017-11-22T22:40:45Z</time>
      </trkpt>
      <trkpt lat="44.96938" lon="5.55522">
        <ele>959</ele>
        <time>2017-11-22T22:40:58Z</time>
      </trkpt>
      <trkpt lat="44.96935" lon="5.55511">
        <ele>959</ele>
        <time>2017-11-22T22:41:09Z</time>
      </trkpt>
      <trkpt lat="44.96932" lon="5.55504">
        <ele>959</ele>
        <time>2017-11-22T22:41:26Z</time>
      </trkpt>
      <trkpt lat="44.96926" lon="5.55499">
        <ele>962</ele>
        <time>2017-11-22T22:41:31Z</time>
      </trkpt>
      <trkpt lat="44.96904" lon="5.55504">
        <ele>959</ele>
        <time>2017-11-22T22:41:37Z</time>
      </trkpt>
      <trkpt lat="44.96887" lon="5.55508">
        <ele>958</ele>
        <time>2017-11-22T22:41:50Z</time>
      </trkpt>
      <trkpt lat="44.9687" lon="5.55506">
        <ele>958</ele>
        <time>2017-11-22T22:42:10Z</time>
      </trkpt>
      <trkpt lat="44.96832" lon="5.55499">
        <ele>963</ele>
        <time>2017-11-22T22:42:30Z</time>
      </trkpt>
      <trkpt lat="44.96812" lon="5.55497">
        <ele>966</ele>
        <time>2017-11-22T22:42:37Z</time>
      </trkpt>
      <trkpt lat="44.9679" lon="5.55497">
        <ele>968</ele>
        <time>2017-11-22T22:42:40Z</time>
      </trkpt>
      <trkpt lat="44.96769" lon="5.55497">
        <ele>969</ele>
        <time>2017-11-22T22:42:53Z</time>
      </trkpt>
      <trkpt lat="44.96754" lon="5.555">
        <ele>969</ele>
        <time>2017-11-22T22:43:02Z</time>
      </trkpt>
      <trkpt lat="44.96733" lon="5.5551">
        <ele>970</ele>
        <time>2017-11-22T22:43:18Z</time>
      </trkpt>
      <trkpt lat="44.967" lon="5.55522">
        <ele>972</ele>
        <time>2017-11-22T22:43:24Z</time>
      </trkpt>
      <trkpt lat="44.9668" lon="5.55534">
        <ele>973</ele>
        <time>2017-11-22T22:43:40Z</time>
      </trkpt>
      <trkpt lat="44.96669" lon="5.55548">
        <ele>973</ele>
        <time>2017-11-22T22:43:54Z</time>
      </trkpt>
      <trkpt lat="44.96662" lon="5.55566">
        <ele>976</ele>
        <time>2017-11-22T22:44:03Z</time>
      </trkpt>
      <trkpt lat="44.96661" lon="5.55585">
        <ele>975</ele>
        <time>2017-11-22T22:44:05Z</time>
      </trkpt>
      <trkpt lat="44.96671" lon="5.55624">
        <ele>972</ele>
        <time>2017-11-22T22:44:09Z</time>
      </trkpt>
      <trkpt lat="44.9667" lon="5.55636">
        <ele>973</ele>
        <time>2017-11-22T22:44:22Z</time>
      </trkpt>
      <trkpt lat="44.96666" lon="5.55643">
        <ele>978</ele>
        <time>2017-11-22T22:44:28Z</time>
      </trkpt>
      <trkpt lat="44.96658" lon="5.55645">
        <ele>979</ele>
        <time>2017-11-22T22:44:40Z</time>
      </trkpt>
      <trkpt lat="44.96651" lon="5.55637">
        <ele>979</ele>
        <time>2017-11-22T22:44:46Z</time>
      </trkpt>
      <trkpt lat="44.96643" lon="5.55622">
        <ele>978</ele>
        <time>2017-11-22T22:44:51Z</time>
      </trkpt>
      <trkpt lat="44.96635" lon="5.5561">
        <ele>978</ele>
        <time>2017-11-22T22:44:56Z</time>
      </trkpt>
      <trkpt lat="44.9661" lon="5.55588">
        <ele>979</ele>
        <time>2017-11-22T22:45:12Z</time>
      </trkpt>
      <trkpt lat="44.96595" lon="5.55568">
        <ele>979</ele>
        <time>2017-11-22T22:45:17Z</time>
      </trkpt>
      <trkpt lat="44.96583" lon="5.55547">
        <ele>981</ele>
        <time>2017-11-22T22:45:19Z</time>
      </trkpt>
      <trkpt lat="44.96555" lon="5.55484">
        <ele>984</ele>
        <time>2017-11-22T22:45:22Z</time>
      </trkpt>
      <trkpt lat="44.96535" lon="5.55449">
        <ele>986</ele>
        <time>2017-11-22T22:45:28Z</time>
      </trkpt>
      <trkpt lat="44.96527" lon="5.55436">
        <ele>987</ele>
        <time>2017-11-22T22:45:48Z</time>
      </trkpt>
      <trkpt lat="44.96519" lon="5.55429">
        <ele>987</ele>
        <time>2017-11-22T22:46:01Z</time>
      </trkpt>
      <trkpt lat="44.96509" lon="5.55425">
        <ele>988</ele>
        <time>2017-11-22T22:46:07Z</time>
      </trkpt>
      <trkpt lat="44.9649" lon="5.55422">
        <ele>989</ele>
        <time>2017-11-22T22:46:20Z</time>
      </trkpt>
      <trkpt lat="44.96445" lon="5.55421">
        <ele>988</ele>
        <time>2017-11-22T22:46:33Z</time>
      </trkpt>
      <trkpt lat="44.96414" lon="5.55425">
        <ele>990</ele>
        <time>2017-11-22T22:46:35Z</time>
      </trkpt>
      <trkpt lat="44.96366" lon="5.5544">
        <ele>991</ele>
        <time>2017-11-22T22:46:42Z</time>
      </trkpt>
      <trkpt lat="44.96332" lon="5.55448">
        <ele>998</ele>
        <time>2017-11-22T22:46:44Z</time>
      </trkpt>
      <trkpt lat="44.96313" lon="5.55449">
        <ele>998</ele>
        <time>2017-11-22T22:46:56Z</time>
      </trkpt>
      <trkpt lat="44.9628" lon="5.55447">
        <ele>1001</ele>
        <time>2017-11-22T22:47:11Z</time>
      </trkpt>
      <trkpt lat="44.96254" lon="5.55444">
        <ele>1003</ele>
        <time>2017-11-22T22:47:26Z</time>
      </trkpt>
      <trkpt lat="44.96224" lon="5.55438">
        <ele>1008</ele>
        <time>2017-11-22T22:47:42Z</time>
      </trkpt>
      <trkpt lat="44.96166" lon="5.55421">
        <ele>1016</ele>
        <time>2017-11-22T22:47:51Z</time>
      </trkpt>
      <trkpt lat="44.96146" lon="5.55411">
        <ele>1019</ele>
        <time>2017-11-22T22:48:03Z</time>
      </trkpt>
      <trkpt lat="44.96136" lon="5.55399">
        <ele>1019</ele>
        <time>2017-11-22T22:48:19Z</time>
      </trkpt>
      <trkpt lat="44.96126" lon="5.55379">
        <ele>1020</ele>
        <time>2017-11-22T22:48:25Z</time>
      </trkpt>
      <trkpt lat="44.96121" lon="5.55363">
        <ele>1020</ele>
        <time>2017-11-22T22:48:32Z</time>
      </trkpt>
      <trkpt lat="44.96123" lon="5.5535">
        <ele>1020</ele>
        <time>2017-11-22T22:48:40Z</time>
      </trkpt>
      <trkpt lat="44.9613" lon="5.55342">
        <ele>1021</ele>
        <time>2017-11-22T22:48:43Z</time>
      </trkpt>
      <trkpt lat="44.96135" lon="5.55332">
        <ele>1022</ele>
        <time>2017-11-22T22:48:47Z</time>
      </trkpt>
      <trkpt lat="44.96137" lon="5.55326">
        <ele>1022</ele>
        <time>2017-11-22T22:49:06Z</time>
      </trkpt>
      <trkpt lat="44.9614" lon="5.55309">
        <ele>1022</ele>
        <time>2017-11-22T22:49:21Z</time>
      </trkpt>
      <trkpt lat="44.96139" lon="5.55284">
        <ele>1023</ele>
        <time>2017-11-22T22:49:27Z</time>
      </trkpt>
      <trkpt lat="44.96128" lon="5.55243">
        <ele>1026</ele>
        <time>2017-11-22T22:49:39Z</time>
      </trkpt>
      <trkpt lat="44.96119" lon="5.55227">
        <ele>1026</ele>
        <time>2017-11-22T22:49:49Z</time>
      </trkpt>
      <trkpt lat="44.96107" lon="5.55212">
        <ele>1025</ele>
        <time>2017-11-22T22:50:06Z</time>
      </trkpt>
      <trkpt lat="44.9609" lon="5.55195">
        <ele>1025</ele>
        <time>2017-11-22T22:50:23Z</time>
      </trkpt>
      <trkpt lat="44.96066" lon="5.55167">
        <ele>1016</ele>
        <time>2017-11-22T22:50:29Z</time>
      </trkpt>
      <trkpt lat="44.96042" lon="5.55137">
        <ele>1020</ele>
        <time>2017-11-22T22:50:41Z</time>
      </trkpt>
      <trkpt lat="44.9603" lon="5.55127">
        <ele>1020</ele>
        <time>2017-11-22T22:50:44Z</time>
      </trkpt>
      <trkpt lat="44.96015" lon="5.55119">
        <ele>1019</ele>
        <time>2017-11-22T22:50:55Z</time>
      </trkpt>
      <trkpt lat="44.9597" lon="5.55101">
        <ele>1013</ele>
        <time>2017-11-22T22:51:08Z</time>
      </trkpt>
      <trkpt lat="44.9594" lon="5.55086">
        <ele>1012</ele>
        <time>2017-11-22T22:51:19Z</time>
      </trkpt>
      <trkpt lat="44.95908" lon="5.55065">
        <ele>1013</ele>
        <time>2017-11-22T22:51:37Z</time>
      </trkpt>
      <trkpt lat="44.95888" lon="5.55047">
        <ele>1013</ele>
        <time>2017-11-22T22:51:46Z</time>
      </trkpt>
      <trkpt lat="44.95864" lon="5.55021">
        <ele>1013</ele>
        <time>2017-11-22T22:51:53Z</time>
      </trkpt>
      <trkpt lat="44.95816" lon="5.54963">
        <ele>1017</ele>
        <time>2017-11-22T22:51:56Z</time>
      </trkpt>
      <trkpt lat="44.95797" lon="5.54942">
        <ele>1018</ele>
        <time>2017-11-22T22:52:14Z</time>
      </trkpt>
      <trkpt lat="44.95765" lon="5.54917">
        <ele>1018</ele>
        <time>2017-11-22T22:52:16Z</time>
      </trkpt>
      <trkpt lat="44.95735" lon="5.54895">
        <ele>1018</ele>
        <time>2017-11-22T22:52:27Z</time>
      </trkpt>
      <trkpt lat="44.95724" lon="5.54884">
        <ele>1017</ele>
        <time>2017-11-22T22:52:41Z</time>
      </trkpt>
      <trkpt lat="44.95714" lon="5.54869">
        <ele>1017</ele>
        <time>2017-11-22T22:52:55Z</time>
      </trkpt>
      <trkpt lat="44.95694" lon="5.54838">
        <ele>1016</ele>
        <time>2017-11-22T22:53:10Z</time>
      </trkpt>
      <trkpt lat="44.95677" lon="5.54813">
        <ele>1020</ele>
        <time>2017-11-22T22:53:21Z</time>
      </trkpt>
      <trkpt lat="44.95649" lon="5.54788">
        <ele>1015</ele>
        <time>2017-11-22T22:53:31Z</time>
      </trkpt>
      <trkpt lat="44.95602" lon="5.5476">
        <ele>1014</ele>
        <time>2017-11-22T22:53:47Z</time>
      </trkpt>
      <trkpt lat="44.95579" lon="5.54744">
        <ele>1016</ele>
        <time>2017-11-22T22:54:03Z</time>
      </trkpt>
      <trkpt lat="44.95569" lon="5.54734">
        <ele>1017</ele>
        <time>2017-11-22T22:54:17Z</time>
      </trkpt>
      <trkpt lat="44.95561" lon="5.54719">
        <ele>1019</ele>
        <time>2017-11-22T22:54:35Z</time>
      </trkpt>
      <trkpt lat="44.95553" lon="5.54704">
        <ele>1020</ele>
        <time>2017-11-22T22:54:38Z</time>
      </trkpt>
      <trkpt lat="44.95543" lon="5.54691">
        <ele>1021</ele>
        <time>2017-11-22T22:54:45Z</time>
      </trkpt>
      <trkpt lat="44.95533" lon="5.54686">
        <ele>1021</ele>
        <time>2017-11-22T22:54:52Z</time>
      </trkpt>
      <trkpt lat="44.95528" lon="5.54686">
        <ele>1021</ele>
        <time>2017-11-22T22:55:00Z</time>
      </trkpt>
      <trkpt lat="44.95493" lon="5.54701">
        <ele>1019</ele>
        <time>2017-11-22T22:55:17Z</time>
      </trkpt>
      <trkpt lat="44.95464" lon="5.54715">
        <ele>1017</ele>
        <time>2017-11-22T22:55:37Z</time>
      </trkpt>
      <trkpt lat="44.9545" lon="5.54717">
        <ele>1017</ele>
        <time>2017-11-22T22:55:52Z</time>
      </trkpt>
      <trkpt lat="44.95436" lon="5.54711">
        <ele>1018</ele>
        <time>2017-11-22T22:55:54Z</time>
      </trkpt>
      <trkpt lat="44.95423" lon="5.54701">
        <ele>1019</ele>
        <time>2017-11-22T22:56:02Z</time>
      </trkpt>
      <trkpt lat="44.95415" lon="5.5469">
        <ele>1022</ele>
        <time>2017-11-22T22:56:14Z</time>
      </trkpt>
      <trkpt lat="44.95409" lon="5.54676">
        <ele>1025</ele>
        <time>2017-11-22T22:56:26Z</time>
      </trkpt>
      <trkpt lat="44.95401" lon="5.54666">
        <ele>1031</ele>
        <time>2017-11-22T22:56:42Z</time>
      </trkpt>
      <trkpt lat="44.95391" lon="5.5466">
        <ele>1032</ele>
        <time>2017-11-22T22:56:47Z</time>
      </trkpt>
      <trkpt lat="44.95352" lon="5.54658">
        <ele>1031</ele>
        <time>2017-11-22T22:57:07Z</time>
      </trkpt>
      <trkpt lat="44.95291" lon="5.54656">
        <ele>1031</ele>
        <time>2017-11-22T22:57:18Z</time>
      </trkpt>
      <trkpt lat="44.9528" lon="5.54656">
        <ele>1031</ele>
        <time>2017-11-22T22:57:35Z</time>
      </trkpt>
      <trkpt lat="44.95261" lon="5.54649">
        <ele>1031</ele>
        <time>2017-11-22T22:57:40Z</time>
      </trkpt>
      <trkpt lat="44.95241" lon="5.54643">
        <ele>1028</ele>
        <time>2017-11-22T22:57:44Z</time>
      </trkpt>
      <trkpt lat="44.95223" lon="5.54635">
        <ele>1028</ele>
        <time>2017-11-22T22:58:04Z</time>
      </trkpt>
      <trkpt lat="44.95211" lon="5.54629">
        <ele>1028</ele>
        <time>2017-11-22T22:58:09Z</time>
      </trkpt>
      <trkpt lat="44.95188" lon="5.5461">
        <ele>1028</ele>
        <time>2017-11-22T22:58:29Z</time>
      </trkpt>
      <trkpt lat="44.95133" lon="5.54557">
        <ele>1037</ele>
        <time>2017-11-22T22:58:49Z</time>
      </trkpt>
      <trkpt lat="44.95115" lon="5.54544">
        <ele>1038</ele>
        <time>2017-11-22T22:58:59Z</time>
      </trkpt>
      <trkpt lat="44.95102" lon="5.54538">
        <ele>1039</ele>
        <time>2017-11-22T22:59:02Z</time>
      </trkpt>
      <trkpt lat="44.9509" lon="5.54542">
        <ele>1038</ele>
        <time>2017-11-22T22:59:08Z</time>
      </trkpt>
      <trkpt lat="44.95081" lon="5.54553">
        <ele>1044</ele>
        <time>2017-11-22T22:59:16Z</time>
      </trkpt>
      <trkpt lat="44.95074" lon="5.54586">
        <ele>1034</ele>
        <time>2017-11-22T22:59:33Z</time>
      </trkpt>
      <trkpt lat="44.9507" lon="5.54613">
        <ele>1037</ele>
        <time>2017-11-22T22:59:42Z</time>
      </trkpt>
      <trkpt lat="44.95063" lon="5.54632">
        <ele>1038</ele>
        <time>2017-11-22T22:59:55Z</time>
      </trkpt>
      <trkpt lat="44.95049" lon="5.54662">
        <ele>1038</ele>
        <time>2017-11-22T23:00:09Z</time>
      </trkpt>
      <trkpt lat="44.95006" lon="5.54751">
        <ele>1030</ele>
        <time>2017-11-22T23:00:29Z</time>
      </trkpt>
      <trkpt lat="44.95" lon="5.54759">
        <ele>1029</ele>
        <time>2017-11-22T23:00:33Z</time>
      </trkpt>
      <trkpt lat="44.94977" lon="5.54772">
        <ele>1031</ele>
        <time>2017-11-22T23:00:52Z</time>
      </trkpt>
      <trkpt lat="44.94919" lon="5.54801">
        <ele>1030</ele>
        <time>2017-11-22T23:01:00Z</time>
      </trkpt>
      <trkpt lat="44.9491" lon="5.54801">
        <ele>1030</ele>
        <time>2017-11-22T23:01:05Z</time>
      </trkpt>
      <trkpt lat="44.94901" lon="5.54796">
        <ele>1030</ele>
        <time>2017-11-22T23:01:08Z</time>
      </trkpt>
      <trkpt lat="44.94856" lon="5.54748">
        <ele>1046</ele>
        <time>2017-11-22T23:01:15Z</time>
      </trkpt>
      <trkpt lat="44.94837" lon="5.54731">
        <ele>1046</ele>
        <time>2017-11-22T23:01:18Z</time>
      </trkpt>
      <trkpt lat="44.94789" lon="5.54706">
        <ele>1050</ele>
        <time>2017-11-22T23:01:25Z</time>
      </trkpt>
      <trkpt lat="44.94776" lon="5.54702">
        <ele>1051</ele>
        <time>2017-11-22T23:01:31Z</time>
      </trkpt>
      <trkpt lat="44.94765" lon="5.54704">
        <ele>1051</ele>
        <time>2017-11-22T23:01:36Z</time>
      </trkpt>
      <trkpt lat="44.94751" lon="5.54711">
        <ele>1049</ele>
        <time>2017-11-22T23:01:44Z</time>
      </trkpt>
      <trkpt lat="44.94717" lon="5.54742">
        <ele>1044</ele>
        <time>2017-11-22T23:01:48Z</time>
      </trkpt>
      <trkpt lat="44.94697" lon="5.54756">
        <ele>1028</ele>
        <time>2017-11-22T23:02:00Z</time>
      </trkpt>
      <trkpt lat="44.94686" lon="5.54759">
        <ele>1029</ele>
        <time>2017-11-22T23:02:15Z</time>
      </trkpt>
      <trkpt lat="44.94675" lon="5.54757">
        <ele>1032</ele>
        <time>2017-11-22T23:02:17Z</time>
      </trkpt>
      <trkpt lat="44.94665" lon="5.54749">
        <ele>1037</ele>
        <time>2017-11-22T23:02:36Z</time>
      </trkpt>
      <trkpt lat="44.94631" lon="5.54709">
        <ele>1038</ele>
        <time>2017-11-22T23:02:40Z</time>
      </trkpt>
      <trkpt lat="44.94613" lon="5.54683">
        <ele>1039</ele>
        <time>2017-11-22T23:02:52Z</time>
      </trkpt>
      <trkpt lat="44.94603" lon="5.5466">
        <ele>1049</ele>
        <time>2017-11-22T23:02:55Z</time>
      </trkpt>
      <trkpt lat="44.94594" lon="5.54633">
        <ele>1052</ele>
        <time>2017-11-22T23:03:03Z</time>
      </trkpt>
      <trkpt lat="44.94582" lon="5.54594">
        <ele>1046</ele>
        <time>2017-11-22T23:03:15Z</time>
      </trkpt>
      <trkpt lat="44.94564" lon="5.54563">
        <ele>1049</ele>
        <time>2017-11-22T23:03:35Z</time>
      </trkpt>
      <trkpt lat="44.94552" lon="5.54544">
        <ele>1048</ele>
        <time>2017-11-22T23:03:46Z</time>
      </trkpt>
      <trkpt lat="44.94539" lon="5.54516">
        <ele>1048</ele>
        <time>2017-11-22T23:04:00Z</time>
      </trkpt>
      <trkpt lat="44.94522" lon="5.54471">
        <ele>1055</ele>
        <time>2017-11-22T23:04:16Z</time>
      </trkpt>
      <trkpt lat="44.94505" lon="5.54427">
        <ele>1053</ele>
        <time>2017-11-22T23:04:25Z</time>
      </trkpt>
      <trkpt lat="44.94495" lon="5.54401">
        <ele>1052</ele>
        <time>2017-11-22T23:04:28Z</time>
      </trkpt>
      <trkpt lat="44.94486" lon="5.54389">
        <ele>1054</ele>
        <time>2017-11-22T23:04:46Z</time>
      </trkpt>
      <trkpt lat="44.94474" lon="5.54378">
        <ele>1054</ele>
        <time>2017-11-22T23:04:56Z</time>
      </trkpt>
      <trkpt lat="44.94466" lon="5.54375">
        <ele>1055</ele>
        <time>2017-11-22T23:05:05Z</time>
      </trkpt>
      <trkpt lat="44.94453" lon="5.54378">
        <ele>1054</ele>
        <time>2017-11-22T23:05:23Z</time>
      </trkpt>
      <trkpt lat="44.94441" lon="5.54391">
        <ele>1053</ele>
        <time>2017-11-22T23:05:36Z</time>
      </trkpt>
      <trkpt lat="44.9442" lon="5.54416">
        <ele>1049</ele>
        <time>2017-11-22T23:05:55Z</time>
      </trkpt>
      <trkpt lat="44.944" lon="5.54427">
        <ele>1044</ele>
        <time>2017-11-22T23:06:11Z</time>
      </trkpt>
      <trkpt lat="44.94379" lon="5.54435">
        <ele>1042</ele>
        <time>2017-11-22T23:06:15Z</time>
      </trkpt>
      <trkpt lat="44.94365" lon="5.54438">
        <ele>1041</ele>
        <time>2017-11-22T23:06:21Z</time>
      </trkpt>
      <trkpt lat="44.94341" lon="5.54438">
        <ele>1041</ele>
        <time>2017-11-22T23:06:27Z</time>
      </trkpt>
      <trkpt lat="44.94301" lon="5.54429">
        <ele>1037</ele>
        <time>2017-11-22T23:06:46Z</time>
      </trkpt>
      <trkpt lat="44.94277" lon="5.54421">
        <ele>1035</ele>
        <time>2017-11-22T23:06:55Z</time>
      </trkpt>
      <trkpt lat="44.94268" lon="5.54414">
        <ele>1041</ele>
        <time>2017-11-22T23:06:58Z</time>
      </trkpt>
      <trkpt lat="44.94258" lon="5.54399">
        <ele>1042</ele>
        <time>2017-11-22T23:07:02Z</time>
      </trkpt>
      <trkpt lat="44.94246" lon="5.54376">
        <ele>1042</ele>
        <time>2017-11-22T23:07:09Z</time>
      </trkpt>
      <trkpt lat="44.94232" lon="5.54355">
        <ele>1045</ele>
        <time>2017-11-22T23:07:18Z</time>
      </trkpt>
      <trkpt lat="44.94218" lon="5.54342">
        <ele>1045</ele>
        <time>2017-11-22T23:07:23Z</time>
      </trkpt>
      <trkpt lat="44.94206" lon="5.54327">
        <ele>1055</ele>
        <time>2017-11-22T23:07:25Z</time>
      </trkpt>
      <trkpt lat="44.94198" lon="5.54314">
        <ele>1055</ele>
        <time>2017-11-22T23:07:32Z</time>
      </trkpt>
      <trkpt lat="44.94187" lon="5.54304">
        <ele>1056</ele>
        <time>2017-11-22T23:07:34Z</time>
      </trkpt>
      <trkpt lat="44.94174" lon="5.54304">
        <ele>1055</ele>
        <time>2017-11-22T23:07:50Z</time>
      </trkpt>
      <trkpt lat="44.94162" lon="5.54313">
        <ele>1057</ele>
        <time>2017-11-22T23:08:00Z</time>
      </trkpt>
      <trkpt lat="44.94145" lon="5.54334">
        <ele>1049</ele>
        <time>2017-11-22T23:08:06Z</time>
      </trkpt>
      <trkpt lat="44.94142" lon="5.54349">
        <ele>1049</ele>
        <time>2017-11-22T23:08:19Z</time>
      </trkpt>
      <trkpt lat="44.94151" lon="5.54373">
        <ele>1046</ele>
        <time>2017-11-22T23:08:32Z</time>
      </trkpt>
      <trkpt lat="44.94158" lon="5.54395">
        <ele>1043</ele>
        <time>2017-11-22T23:08:48Z</time>
      </trkpt>
      <trkpt lat="44.94161" lon="5.54416">
        <ele>1038</ele>
        <time>2017-11-22T23:09:06Z</time>
      </trkpt>
      <trkpt lat="44.94161" lon="5.54431">
        <ele>1035</ele>
        <time>2017-11-22T23:09:14Z</time>
      </trkpt>
      <trkpt lat="44.94154" lon="5.54446">
        <ele>1034</ele>
        <time>2017-11-22T23:09:32Z</time>
      </trkpt>
      <trkpt lat="44.94146" lon="5.54454">
        <ele>1034</ele>
        <time>2017-11-22T23:09:40Z</time>
      </trkpt>
      <trkpt lat="44.94129" lon="5.54465">
        <ele>1034</ele>
        <time>2017-11-22T23:09:50Z</time>
      </trkpt>
      <trkpt lat="44.94107" lon="5.54475">
        <ele>1033</ele>
        <time>2017-11-22T23:09:57Z</time>
      </trkpt>
      <trkpt lat="44.94092" lon="5.54478">
        <ele>1033</ele>
        <time>2017-11-22T23:10:10Z</time>
      </trkpt>
      <trkpt lat="44.9408" lon="5.54477">
        <ele>1037</ele>
        <time>2017-11-22T23:10:19Z</time>
      </trkpt>
      <trkpt lat="44.94066" lon="5.54473">
        <ele>1038</ele>
        <time>2017-11-22T23:10:37Z</time>
      </trkpt>
      <trkpt lat="44.94048" lon="5.54471">
        <ele>1040</ele>
        <time>2017-11-22T23:10:53Z</time>
      </trkpt>
      <trkpt lat="44.9404" lon="5.54474">
        <ele>1040</ele>
        <time>2017-11-22T23:11:11Z</time>
      </trkpt>
      <trkpt lat="44.94031" lon="5.5448">
        <ele>1040</ele>
        <time>2017-11-22T23:11:27Z</time>
      </trkpt>
      <trkpt lat="44.94016" lon="5.54497">
        <ele>1038</ele>
        <time>2017-11-22T23:11:44Z</time>
      </trkpt>
      <trkpt lat="44.93993" lon="5.54526">
        <ele>1033</ele>
        <time>2017-11-22T23:11:47Z</time>
      </trkpt>
      <trkpt lat="44.93978" lon="5.54541">
        <ele>1032</ele>
        <time>2017-11-22T23:11:59Z</time>
      </trkpt>
      <trkpt lat="44.9396" lon="5.54552">
        <ele>1032</ele>
        <time>2017-11-22T23:12:11Z</time>
      </trkpt>
      <trkpt lat="44.93946" lon="5.54556">
        <ele>1032</ele>
        <time>2017-11-22T23:12:20Z</time>
      </trkpt>
      <trkpt lat="44.93926" lon="5.54554">
        <ele>1032</ele>
        <time>2017-11-22T23:12:34Z</time>
      </trkpt>
      <trkpt lat="44.9389" lon="5.54548">
        <ele>1038</ele>
        <time>2017-11-22T23:12:52Z</time>
      </trkpt>
      <trkpt lat="44.9387" lon="5.54546">
        <ele>1039</ele>
        <time>2017-11-22T23:12:58Z</time>
      </trkpt>
      <trkpt lat="44.93863" lon="5.54548">
        <ele>1039</ele>
        <time>2017-11-22T23:13:07Z</time>
      </trkpt>
      <trkpt lat="44.93851" lon="5.54556">
        <ele>1038</ele>
        <time>2017-11-22T23:13:09Z</time>
      </trkpt>
      <trkpt lat="44.93844" lon="5.54572">
        <ele>1035</ele>
        <time>2017-11-22T23:13:13Z</time>
      </trkpt>
      <trkpt lat="44.93842" lon="5.5459">
        <ele>1027</ele>
        <time>2017-11-22T23:13:31Z</time>
      </trkpt>
      <trkpt lat="44.93837" lon="5.54602">
        <ele>1026</ele>
        <time>2017-11-22T23:13:38Z</time>
      </trkpt>
      <trkpt lat="44.93829" lon="5.54609">
        <ele>1025</ele>
        <time>2017-11-22T23:13:58Z</time>
      </trkpt>
      <trkpt lat="44.93818" lon="5.54611">
        <ele>1024</ele>
        <time>2017-11-22T23:14:13Z</time>
      </trkpt>
      <trkpt lat="44.93807" lon="5.54607">
        <ele>1023</ele>
        <time>2017-11-22T23:14:18Z</time>
      </trkpt>
      <trkpt lat="44.93801" lon="5.54603">
        <ele>1023</ele>
        <time>2017-11-22T23:14:33Z</time>
      </trkpt>
      <trkpt lat="44.93783" lon="5.54581">
        <ele>1033</ele>
        <time>2017-11-22T23:14:47Z</time>
      </trkpt>
      <trkpt lat="44.93758" lon="5.54558">
        <ele>1033</ele>
        <time>2017-11-22T23:14:54Z</time>
      </trkpt>
      <trkpt lat="44.93717" lon="5.54518">
        <ele>1028</ele>
        <time>2017-11-22T23:15:04Z</time>
      </trkpt>
      <trkpt lat="44.93702" lon="5.54497">
        <ele>1038</ele>
        <time>2017-11-22T23:15:21Z</time>
      </trkpt>
      <trkpt lat="44.93689" lon="5.54474">
        <ele>1039</ele>
        <time>2017-11-22T23:15:24Z</time>
      </trkpt>
      <trkpt lat="44.93683" lon="5.54465">
        <ele>1040</ele>
        <time>2017-11-22T23:15:39Z</time>
      </trkpt>
      <trkpt lat="44.93675" lon="5.54459">
        <ele>1041</ele>
        <time>2017-11-22T23:15:57Z</time>
      </trkpt>
      <trkpt lat="44.93668" lon="5.54456">
        <ele>1041</ele>
        <time>2017-11-22T23:16:01Z</time>
      </trkpt>
      <trkpt lat="44.9366" lon="5.54457">
        <ele>1041</ele>
        <time>2017-11-22T23:16:12Z</time>
      </trkpt>
      <trkpt lat="44.93644" lon="5.54467">
        <ele>1040</ele>
        <time>2017-11-22T23:16:29Z</time>
      </trkpt>
      <trkpt lat="44.93615" lon="5.54481">
        <ele>1040</ele>
        <time>2017-11-22T23:16:35Z</time>
      </trkpt>
      <trkpt lat="44.93593" lon="5.54495">
        <ele>1038</ele>
        <time>2017-11-22T23:16:44Z</time>
      </trkpt>
      <trkpt lat="44.9357" lon="5.5452">
        <ele>1027</ele>
        <time>2017-11-22T23:16:55Z</time>
      </trkpt>
      <trkpt lat="44.93553" lon="5.54533">
        <ele>1024</ele>
        <time>2017-11-22T23:17:06Z</time>
      </trkpt>
      <trkpt lat="44.93535" lon="5.54541">
        <ele>1023</ele>
        <time>2017-11-22T23:17:08Z</time>
      </trkpt>
      <trkpt lat="44.93513" lon="5.54543">
        <ele>1023</ele>
        <time>2017-11-22T23:17:28Z</time>
      </trkpt>
      <trkpt lat="44.93494" lon="5.54542">
        <ele>1021</ele>
        <time>2017-11-22T23:17:43Z</time>
      </trkpt>
      <trkpt lat="44.93476" lon="5.54547">
        <ele>1019</ele>
        <time>2017-11-22T23:17:56Z</time>
      </trkpt>
      <trkpt lat="44.93456" lon="5.54556">
        <ele>1017</ele>
        <time>2017-11-22T23:18:05Z</time>
      </trkpt>
      <trkpt lat="44.93446" lon="5.54555">
        <ele>1017</ele>
        <time>2017-11-22T23:18:23Z</time>
      </trkpt>
      <trkpt lat="44.93437" lon="5.54546">
        <ele>1017</ele>
        <time>2017-11-22T23:18:42Z</time>
      </trkpt>
      <trkpt lat="44.9341" lon="5.54493">
        <ele>1021</ele>
        <time>2017-11-22T23:18:59Z</time>
      </trkpt>
      <trkpt lat="44.93396" lon="5.54474">
        <ele>1025</ele>
        <time>2017-11-22T23:19:11Z</time>
      </trkpt>
      <trkpt lat="44.93388" lon="5.54465">
        <ele>1026</ele>
        <time>2017-11-22T23:19:18Z</time>
      </trkpt>
      <trkpt lat="44.93377" lon="5.54462">
        <ele>1027</ele>
        <time>2017-11-22T23:19:25Z</time>
      </trkpt>
      <trkpt lat="44.9337" lon="5.54464">
        <ele>1027</ele>
        <time>2017-11-22T23:19:45Z</time>
      </trkpt>
      <trkpt lat="44.93353" lon="5.54477">
        <ele>1025</ele>
        <time>2017-11-22T23:19:47Z</time>
      </trkpt>
      <trkpt lat="44.93347" lon="5.54489">
        <ele>1024</ele>
        <time>2017-11-22T23:19:52Z</time>
      </trkpt>
      <trkpt lat="44.93344" lon="5.54503">
        <ele>1018</ele>
        <time>2017-11-22T23:20:04Z</time>
      </trkpt>
      <trkpt lat="44.93338" lon="5.54526">
        <ele>1015</ele>
        <time>2017-11-22T23:20:24Z</time>
      </trkpt>
      <trkpt lat="44.93329" lon="5.5454">
        <ele>1016</ele>
        <time>2017-11-22T23:20:38Z</time>
      </trkpt>
      <trkpt lat="44.93316" lon="5.5455">
        <ele>1015</ele>
        <time>2017-11-22T23:20:52Z</time>
      </trkpt>
      <trkpt lat="44.933" lon="5.54554">
        <ele>1015</ele>
        <time>2017-11-22T23:21:04Z</time>
      </trkpt>
      <trkpt lat="44.93286" lon="5.5455">
        <ele>1016</ele>
        <time>2017-11-22T23:21:21Z</time>
      </trkpt>
      <trkpt lat="44.93266" lon="5.54544">
        <ele>1018</ele>
        <time>2017-11-22T23:21:41Z</time>
      </trkpt>
      <trkpt lat="44.93246" lon="5.54547">
        <ele>1016</ele>
        <time>2017-11-22T23:21:46Z</time>
      </trkpt>
      <trkpt lat="44.93218" lon="5.54553">
        <ele>1015</ele>
        <time>2017-11-22T23:21:50Z</time>
      </trkpt>
      <trkpt lat="44.93203" lon="5.54553">
        <ele>1014</ele>
        <time>2017-11-22T23:21:57Z</time>
      </trkpt>
      <trkpt lat="44.93193" lon="5.54551">
        <ele>1014</ele>
        <time>2017-11-22T23:22:04Z</time>
      </trkpt>
      <trkpt lat="44.93184" lon="5.54546">
        <ele>1014</ele>
        <time>2017-11-22T23:22:13Z</time>
      </trkpt>
      <trkpt lat="44.93175" lon="5.54537">
        <ele>1015</ele>
        <time>2017-11-22T23:22:18Z</time>
      </trkpt>
      <trkpt lat="44.93167" lon="5.54525">
        <ele>1016</ele>
        <time>2017-11-22T23:22:25Z</time>
      </trkpt>
      <trkpt lat="44.93148" lon="5.54484">
        <ele>1027</ele>
        <time>2017-11-22T23:22:33Z</time>
      </trkpt>
      <trkpt lat="44.93128" lon="5.54449">
        <ele>1033</ele>
        <time>2017-11-22T23:22:48Z</time>
      </trkpt>
      <trkpt lat="44.93118" lon="5.5444">
        <ele>1034</ele>
        <time>2017-11-22T23:22:59Z</time>
      </trkpt>
      <trkpt lat="44.93108" lon="5.5444">
        <ele>1035</ele>
        <time>2017-11-22T23:23:16Z</time>
      </trkpt>
      <trkpt lat="44.93099" lon="5.54449">
        <ele>1034</ele>
        <time>2017-11-22T23:23:35Z</time>
      </trkpt>
      <trkpt lat="44.93083" lon="5.5451">
        <ele>1019</ele>
        <time>2017-11-22T23:23:39Z</time>
      </trkpt>
      <trkpt lat="44.93074" lon="5.54531">
        <ele>1015</ele>
        <time>2017-11-22T23:23:48Z</time>
      </trkpt>
      <trkpt lat="44.93071" lon="5.54536">
        <ele>1014</ele>
        <time>2017-11-22T23:24:03Z</time>
      </trkpt>
      <trkpt lat="44.93063" lon="5.54541">
        <ele>1014</ele>
        <time>2017-11-22T23:24:10Z</time>
      </trkpt>
      <trkpt lat="44.93046" lon="5.54542">
        <ele>1014</ele>
        <time>2017-11-22T23:24:20Z</time>
      </trkpt>
      <trkpt lat="44.93026" lon="5.54537">
        <ele>1016</ele>
        <time>2017-11-22T23:24:40Z</time>
      </trkpt>
      <trkpt lat="44.93011" lon="5.54531">
        <ele>1018</ele>
        <time>2017-11-22T23:24:59Z</time>
      </trkpt>
      <trkpt lat="44.92989" lon="5.54524">
        <ele>1020</ele>
        <time>2017-11-22T23:25:09Z</time>
      </trkpt>
      <trkpt lat="44.92966" lon="5.54526">
        <ele>1018</ele>
        <time>2017-11-22T23:25:28Z</time>
      </trkpt>
      <trkpt lat="44.92947" lon="5.5453">
        <ele>1016</ele>
        <time>2017-11-22T23:25:35Z</time>
      </trkpt>
      <trkpt lat="44.92927" lon="5.54533">
        <ele>1016</ele>
        <time>2017-11-22T23:25:52Z</time>
      </trkpt>
      <trkpt lat="44.92918" lon="5.54533">
        <ele>1016</ele>
        <time>2017-11-22T23:26:12Z</time>
      </trkpt>
      <trkpt lat="44.92907" lon="5.5453">
        <ele>1014</ele>
        <time>2017-11-22T23:26:15Z</time>
      </trkpt>
      <trkpt lat="44.9288" lon="5.54519">
        <ele>1015</ele>
        <time>2017-11-22T23:26:18Z</time>
      </trkpt>
      <trkpt lat="44.92869" lon="5.54518">
        <ele>1015</ele>
        <time>2017-11-22T23:26:28Z</time>
      </trkpt>
      <trkpt lat="44.92859" lon="5.5452">
        <ele>1015</ele>
        <time>2017-11-22T23:26:35Z</time>
      </trkpt>
      <trkpt lat="44.92832" lon="5.5453">
        <ele>1015</ele>
        <time>2017-11-22T23:26:46Z</time>
      </trkpt>
      <trkpt lat="44.92811" lon="5.54541">
        <ele>1014</ele>
        <time>2017-11-22T23:27:03Z</time>
      </trkpt>
      <trkpt lat="44.92784" lon="5.54552">
        <ele>1013</ele>
        <time>2017-11-22T23:27:19Z</time>
      </trkpt>
      <trkpt lat="44.92761" lon="5.54554">
        <ele>1013</ele>
        <time>2017-11-22T23:27:27Z</time>
      </trkpt>
      <trkpt lat="44.92746" lon="5.54554">
        <ele>1014</ele>
        <time>2017-11-22T23:27:40Z</time>
      </trkpt>
      <trkpt lat="44.92734" lon="5.54558">
        <ele>1014</ele>
        <time>2017-11-22T23:27:58Z</time>
      </trkpt>
      <trkpt lat="44.92715" lon="5.54573">
        <ele>1013</ele>
        <time>2017-11-22T23:28:14Z</time>
      </trkpt>
      <trkpt lat="44.92703" lon="5.54578">
        <ele>1014</ele>
        <time>2017-11-22T23:28:26Z</time>
      </trkpt>
      <trkpt lat="44.92677" lon="5.54579">
        <ele>1012</ele>
        <time>2017-11-22T23:28:30Z</time>
      </trkpt>
      <trkpt lat="44.92657" lon="5.54575">
        <ele>1013</ele>
        <time>2017-11-22T23:28:38Z</time>
      </trkpt>
      <trkpt lat="44.92631" lon="5.54563">
        <ele>1016</ele>
        <time>2017-11-22T23:28:47Z</time>
      </trkpt>
      <trkpt lat="44.92612" lon="5.54555">
        <ele>1017</ele>
        <time>2017-11-22T23:28:50Z</time>
      </trkpt>
      <trkpt lat="44.92596" lon="5.54551">
        <ele>1017</ele>
        <time>2017-11-22T23:29:10Z</time>
      </trkpt>
      <trkpt lat="44.92585" lon="5.54553">
        <ele>1017</ele>
        <time>2017-11-22T23:29:26Z</time>
      </trkpt>
      <trkpt lat="44.92563" lon="5.54563">
        <ele>1017</ele>
        <time>2017-11-22T23:29:35Z</time>
      </trkpt>
      <trkpt lat="44.92553" lon="5.54567">
        <ele>1018</ele>
        <time>2017-11-22T23:29:38Z</time>
      </trkpt>
      <trkpt lat="44.92543" lon="5.5457">
        <ele>1018</ele>
        <time>2017-11-22T23:29:41Z</time>
      </trkpt>
      <trkpt lat="44.92526" lon="5.54567">
        <ele>1019</ele>
        <time>2017-11-22T23:29:46Z</time>
      </trkpt>
      <trkpt lat="44.92484" lon="5.54538">
        <ele>1021</ele>
        <time>2017-11-22T23:29:48Z</time>
      </trkpt>
      <trkpt lat="44.92459" lon="5.54531">
        <ele>1022</ele>
        <time>2017-11-22T23:29:56Z</time>
      </trkpt>
      <trkpt lat="44.92431" lon="5.54524">
        <ele>1021</ele>
        <time>2017-11-22T23:30:07Z</time>
      </trkpt>
      <trkpt lat="44.92358" lon="5.54497">
        <ele>1028</ele>
        <time>2017-11-22T23:30:27Z</time>
      </trkpt>
      <trkpt lat="44.92328" lon="5.54487">
        <ele>1032</ele>
        <time>2017-11-22T23:30:37Z</time>
      </trkpt>
      <trkpt lat="44.92312" lon="5.54484">
        <ele>1034</ele>
        <time>2017-11-22T23:30:53Z</time>
      </trkpt>
      <trkpt lat="44.92278" lon="5.54478">
        <ele>1037</ele>
        <time>2017-11-22T23:31:13Z</time>
      </trkpt>
      <trkpt lat="44.92257" lon="5.5447">
        <ele>1039</ele>
        <time>2017-11-22T23:31:31Z</time>
      </trkpt>
      <trkpt lat="44.92251" lon="5.54469">
        <ele>1039</ele>
        <time>2017-11-22T23:31:42Z</time>
      </trkpt>
      <trkpt lat="44.92238" lon="5.54471">
        <ele>1042</ele>
        <time>2017-11-22T23:31:47Z</time>
      </trkpt>
      <trkpt lat="44.92221" lon="5.54478">
        <ele>1042</ele>
        <time>2017-11-22T23:32:01Z</time>
      </trkpt>
      <trkpt lat="44.92193" lon="5.54481">
        <ele>1043</ele>
        <time>2017-11-22T23:32:12Z</time>
      </trkpt>
      <trkpt lat="44.92174" lon="5.54484">
        <ele>1043</ele>
        <time>2017-11-22T23:32:17Z</time>
      </trkpt>
      <trkpt lat="44.92126" lon="5.54508">
        <ele>1051</ele>
        <time>2017-11-22T23:32:30Z</time>
      </trkpt>
      <trkpt lat="44.92104" lon="5.54512">
        <ele>1051</ele>
        <time>2017-11-22T23:32:45Z</time>
      </trkpt>
      <trkpt lat="44.92055" lon="5.54516">
        <ele>1056</ele>
        <time>2017-11-22T23:32:59Z</time>
      </trkpt>
      <trkpt lat="44.91983" lon="5.54516">
        <ele>1060</ele>
        <time>2017-11-22T23:33:11Z</time>
      </trkpt>
      <trkpt lat="44.91969" lon="5.54518">
        <ele>1060</ele>
        <time>2017-11-22T23:33:21Z</time>
      </trkpt>
      <trkpt lat="44.91956" lon="5.54523">
        <ele>1061</ele>
        <time>2017-11-22T23:33:29Z</time>
      </trkpt>
      <trkpt lat="44.91931" lon="5.54536">
        <ele>1061</ele>
        <time>2017-11-22T23:33:43Z</time>
      </trkpt>
      <trkpt lat="44.9188" lon="5.54559">
        <ele>1065</ele>
        <time>2017-11-22T23:34:03Z</time>
      </trkpt>
      <trkpt lat="44.91865" lon="5.54567">
        <ele>1065</ele>
        <time>2017-11-22T23:34:18Z</time>
      </trkpt>
      <trkpt lat="44.91852" lon="5.54579">
        <ele>1066</ele>
        <time>2017-11-22T23:34:29Z</time>
      </trkpt>
      <trkpt lat="44.91827" lon="5.54608">
        <ele>1075</ele>
        <time>2017-11-22T23:34:37Z</time>
      </trkpt>
      <trkpt lat="44.91812" lon="5.54619">
        <ele>1078</ele>
        <time>2017-11-22T23:34:40Z</time>
      </trkpt>
      <trkpt lat="44.91794" lon="5.54627">
        <ele>1079</ele>
        <time>2017-11-22T23:34:51Z</time>
      </trkpt>
      <trkpt lat="44.91771" lon="5.54632">
        <ele>1081</ele>
        <time>2017-11-22T23:35:06Z</time>
      </trkpt>
      <trkpt lat="44.91744" lon="5.54633">
        <ele>1085</ele>
        <time>2017-11-22T23:35:10Z</time>
      </trkpt>
      <trkpt lat="44.91708" lon="5.54635">
        <ele>1085</ele>
        <time>2017-11-22T23:35:19Z</time>
      </trkpt>
      <trkpt lat="44.91671" lon="5.54642">
        <ele>1088</ele>
        <time>2017-11-22T23:35:22Z</time>
      </trkpt>
      <trkpt lat="44.91638" lon="5.54646">
        <ele>1091</ele>
        <time>2017-11-22T23:35:34Z</time>
      </trkpt>
      <trkpt lat="44.91605" lon="5.54654">
        <ele>1092</ele>
        <time>2017-11-22T23:35:36Z</time>
      </trkpt>
      <trkpt lat="44.91568" lon="5.5467">
        <ele>1103</ele>
        <time>2017-11-22T23:35:53Z</time>
      </trkpt>
      <trkpt lat="44.91525" lon="5.54697">
        <ele>1110</ele>
        <time>2017-11-22T23:36:06Z</time>
      </trkpt>
      <trkpt lat="44.91517" lon="5.547">
        <ele>1110</ele>
        <time>2017-11-22T23:36:15Z</time>
      </trkpt>
      <trkpt lat="44.91499" lon="5.54704">
        <ele>1113</ele>
        <time>2017-11-22T23:36:29Z</time>
      </trkpt>
      <trkpt lat="44.91458" lon="5.54713">
        <ele>1115</ele>
        <time>2017-11-22T23:36:38Z</time>
      </trkpt>
      <trkpt lat="44.91453" lon="5.54719">
        <ele>1116</ele>
        <time>2017-11-22T23:36:57Z</time>
      </trkpt>
      <trkpt lat="44.91453" lon="5.54725">
        <ele>1117</ele>
        <time>2017-11-22T23:37:13Z</time>
      </trkpt>
      <trkpt lat="44.91458" lon="5.5473">
        <ele>1117</ele>
        <time>2017-11-22T23:37:17Z</time>
      </trkpt>
      <trkpt lat="44.91488" lon="5.54734">
        <ele>1119</ele>
        <time>2017-11-22T23:37:27Z</time>
      </trkpt>
      <trkpt lat="44.91531" lon="5.54759">
        <ele>1132</ele>
        <time>2017-11-22T23:37:40Z</time>
      </trkpt>
      <trkpt lat="44.91547" lon="5.54765">
        <ele>1133</ele>
        <time>2017-11-22T23:37:42Z</time>
      </trkpt>
      <trkpt lat="44.91564" lon="5.54769">
        <ele>1132</ele>
        <time>2017-11-22T23:37:56Z</time>
      </trkpt>
      <trkpt lat="44.91616" lon="5.54777">
        <ele>1134</ele>
        <time>2017-11-22T23:38:05Z</time>
      </trkpt>
      <trkpt lat="44.91643" lon="5.54778">
        <ele>1134</ele>
        <time>2017-11-22T23:38:17Z</time>
      </trkpt>
      <trkpt lat="44.91666" lon="5.54784">
        <ele>1135</ele>
        <time>2017-11-22T23:38:26Z</time>
      </trkpt>
      <trkpt lat="44.91672" lon="5.54787">
        <ele>1136</ele>
        <time>2017-11-22T23:38:31Z</time>
      </trkpt>
      <trkpt lat="44.91675" lon="5.54792">
        <ele>1138</ele>
        <time>2017-11-22T23:38:43Z</time>
      </trkpt>
      <trkpt lat="44.91674" lon="5.54797">
        <ele>1139</ele>
        <time>2017-11-22T23:38:57Z</time>
      </trkpt>
      <trkpt lat="44.9167" lon="5.54801">
        <ele>1141</ele>
        <time>2017-11-22T23:39:02Z</time>
      </trkpt>
      <trkpt lat="44.91647" lon="5.548">
        <ele>1139</ele>
        <time>2017-11-22T23:39:12Z</time>
      </trkpt>
      <trkpt lat="44.91614" lon="5.54807">
        <ele>1140</ele>
        <time>2017-11-22T23:39:30Z</time>
      </trkpt>
      <trkpt lat="44.91597" lon="5.54811">
        <ele>1142</ele>
        <time>2017-11-22T23:39:44Z</time>
      </trkpt>
      <trkpt lat="44.91579" lon="5.54817">
        <ele>1145</ele>
        <time>2017-11-22T23:39:49Z</time>
      </trkpt>
      <trkpt lat="44.91556" lon="5.54825">
        <ele>1143</ele>
        <time>2017-11-22T23:39:54Z</time>
      </trkpt>
      <trkpt lat="44.91538" lon="5.54828">
        <ele>1142</ele>
        <time>2017-11-22T23:40:10Z</time>
      </trkpt>
      <trkpt lat="44.91521" lon="5.54843">
        <ele>1160</ele>
        <time>2017-11-22T23:40:13Z</time>
      </trkpt>
      <trkpt lat="44.915" lon="5.54871">
        <ele>1162</ele>
        <time>2017-11-22T23:40:23Z</time>
      </trkpt>
      <trkpt lat="44.91477" lon="5.54905">
        <ele>1169</ele>
        <time>2017-11-22T23:40:41Z</time>
      </trkpt>
      <trkpt lat="44.91452" lon="5.54932">
        <ele>1186</ele>
        <time>2017-11-22T23:40:48Z</time>
      </trkpt>
      <trkpt lat="44.91431" lon="5.54952">
        <ele>1188</ele>
        <time>2017-11-22T23:41:08Z</time>
      </trkpt>
      <trkpt lat="44.91415" lon="5.5496">
        <ele>1189</ele>
        <time>2017-11-22T23:41:16Z</time>
      </trkpt>
      <trkpt lat="44.9139" lon="5.54968">
        <ele>1190</ele>
        <time>2017-11-22T23:41:28Z</time>
      </trkpt>
      <trkpt lat="44.91375" lon="5.54968">
        <ele>1190</ele>
        <time>2017-11-22T23:41:33Z</time>
      </trkpt>
      <trkpt lat="44.91366" lon="5.5496">
        <ele>1190</ele>
        <time>2017-11-22T23:41:44Z</time>
      </trkpt>
      <trkpt lat="44.91359" lon="5.54948">
        <ele>1188</ele>
        <time>2017-11-22T23:42:03Z</time>
      </trkpt>
      <trkpt lat="44.91351" lon="5.54944">
        <ele>1188</ele>
        <time>2017-11-22T23:42:20Z</time>
      </trkpt>
      <trkpt lat="44.91334" lon="5.54942">
        <ele>1188</ele>
        <time>2017-11-22T23:42:39Z</time>
      </trkpt>
      <trkpt lat="44.91313" lon="5.54942">
        <ele>1192</ele>
        <time>2017-11-22T23:42:50Z</time>
      </trkpt>
      <trkpt lat="44.91281" lon="5.54945">
        <ele>1194</ele>
        <time>2017-11-22T23:42:53Z</time>
      </trkpt>
      <trkpt lat="44.91249" lon="5.54954">
        <ele>1198</ele>
        <time>2017-11-22T23:43:00Z</time>
      </trkpt>
      <trkpt lat="44.91218" lon="5.54966">
        <ele>1200</ele>
        <time>2017-11-22T23:43:10Z</time>
      </trkpt>
      <trkpt lat="44.91199" lon="5.54978">
        <ele>1201</ele>
        <time>2017-11-22T23:43:17Z</time>
      </trkpt>
      <trkpt lat="44.91188" lon="5.54992">
        <ele>1202</ele>
        <time>2017-11-22T23:43:26Z</time>
      </trkpt>
      <trkpt lat="44.91159" lon="5.55049">
        <ele>1219</ele>
        <time>2017-11-22T23:43:30Z</time>
      </trkpt>
      <trkpt lat="44.91142" lon="5.55076">
        <ele>1221</ele>
        <time>2017-11-22T23:43:46Z</time>
      </trkpt>
      <trkpt lat="44.91131" lon="5.55086">
        <ele>1230</ele>
        <time>2017-11-22T23:43:49Z</time>
      </trkpt>
      <trkpt lat="44.91114" lon="5.55094">
        <ele>1230</ele>
        <time>2017-11-22T23:43:54Z</time>
      </trkpt>
      <trkpt lat="44.9109" lon="5.55107">
        <ele>1230</ele>
        <time>2017-11-22T23:44:11Z</time>
      </trkpt>
      <trkpt lat="44.91069" lon="5.55124">
        <ele>1234</ele>
        <time>2017-11-22T23:44:15Z</time>
      </trkpt>
      <trkpt lat="44.9104" lon="5.55155">
        <ele>1235</ele>
        <time>2017-11-22T23:44:20Z</time>
      </trkpt>
      <trkpt lat="44.91" lon="5.55199">
        <ele>1234</ele>
        <time>2017-11-22T23:44:28Z</time>
      </trkpt>
      <trkpt lat="44.90941" lon="5.55273">
        <ele>1231</ele>
        <time>2017-11-22T23:44:45Z</time>
      </trkpt>
      <trkpt lat="44.90925" lon="5.55288">
        <ele>1230</ele>
        <time>2017-11-22T23:44:59Z</time>
      </trkpt>
      <trkpt lat="44.90911" lon="5.55295">
        <ele>1224</ele>
        <time>2017-11-22T23:45:16Z</time>
      </trkpt>
      <trkpt lat="44.909" lon="5.55296">
        <ele>1224</ele>
        <time>2017-11-22T23:45:32Z</time>
      </trkpt>
      <trkpt lat="44.90849" lon="5.55285">
        <ele>1222</ele>
        <time>2017-11-22T23:45:36Z</time>
      </trkpt>
      <trkpt lat="44.90836" lon="5.55282">
        <ele>1221</ele>
        <time>2017-11-22T23:45:41Z</time>
      </trkpt>
      <trkpt lat="44.90828" lon="5.5529">
        <ele>1224</ele>
        <time>2017-11-22T23:45:44Z</time>
      </trkpt>
      <trkpt lat="44.9082" lon="5.55311">
        <ele>1223</ele>
        <time>2017-11-22T23:46:01Z</time>
      </trkpt>
      <trkpt lat="44.90813" lon="5.55362">
        <ele>1220</ele>
        <time>2017-11-22T23:46:20Z</time>
      </trkpt>
      <trkpt lat="44.90805" lon="5.5543">
        <ele>1216</ele>
        <time>2017-11-22T23:46:31Z</time>
      </trkpt>
      <trkpt lat="44.90803" lon="5.55468">
        <ele>1216</ele>
        <time>2017-11-22T23:46:39Z</time>
      </trkpt>
      <trkpt lat="44.90815" lon="5.55644">
        <ele>1222</ele>
        <time>2017-11-22T23:46:49Z</time>
      </trkpt>
      <trkpt lat="44.9082" lon="5.55748">
        <ele>1221</ele>
        <time>2017-11-22T23:47:02Z</time>
      </trkpt>
      <trkpt lat="44.90823" lon="5.55769">
        <ele>1223</ele>
        <time>2017-11-22T23:47:19Z</time>
      </trkpt>
      <trkpt lat="44.9083" lon="5.55802">
        <ele>1222</ele>
        <time>2017-11-22T23:47:31Z</time>
      </trkpt>
      <trkpt lat="44.90846" lon="5.55874">
        <ele>1223</ele>
        <time>2017-11-22T23:47:44Z</time>
      </trkpt>
      <trkpt lat="44.90849" lon="5.55908">
        <ele>1218</ele>
        <time>2017-11-22T23:47:54Z</time>
      </trkpt>
      <trkpt lat="44.90849" lon="5.5593">
        <ele>1214</ele>
        <time>2017-11-22T23:47:58Z</time>
      </trkpt>
      <trkpt lat="44.90846" lon="5.55955">
        <ele>1215</ele>
        <time>2017-11-22T23:48:16Z</time>
      </trkpt>
      <trkpt lat="44.90835" lon="5.55992">
        <ele>1208</ele>
        <time>2017-11-22T23:48:36Z</time>
      </trkpt>
      <trkpt lat="44.90831" lon="5.56021">
        <ele>1210</ele>
        <time>2017-11-22T23:48:47Z</time>
      </trkpt>
      <trkpt lat="44.90833" lon="5.56052">
        <ele>1209</ele>
        <time>2017-11-22T23:48:59Z</time>
      </trkpt>
      <trkpt lat="44.90839" lon="5.56086">
        <ele>1195</ele>
        <time>2017-11-22T23:49:14Z</time>
      </trkpt>
      <trkpt lat="44.9085" lon="5.5612">
        <ele>1195</ele>
        <time>2017-11-22T23:49:21Z</time>
      </trkpt>
      <trkpt lat="44.90866" lon="5.56156">
        <ele>1193</ele>
        <time>2017-11-22T23:49:41Z</time>
      </trkpt>
      <trkpt lat="44.90882" lon="5.56185">
        <ele>1187</ele>
        <time>2017-11-22T23:49:50Z</time>
      </trkpt>
      <trkpt lat="44.909" lon="5.5621">
        <ele>1186</ele>
        <time>2017-11-22T23:49:53Z</time>
      </trkpt>
      <trkpt lat="44.90941" lon="5.56264">
        <ele>1177</ele>
        <time>2017-11-22T23:50:01Z</time>
      </trkpt>
      <trkpt lat="44.9096" lon="5.56296">
        <ele>1175</ele>
        <time>2017-11-22T23:50:10Z</time>
      </trkpt>
      <trkpt lat="44.91009" lon="5.56392">
        <ele>1170</ele>
        <time>2017-11-22T23:50:15Z</time>
      </trkpt>
      <trkpt lat="44.91024" lon="5.56424">
        <ele>1169</ele>
        <time>2017-11-22T23:50:19Z</time>
      </trkpt>
      <trkpt lat="44.91048" lon="5.56464">
        <ele>1168</ele>
        <time>2017-11-22T23:50:26Z</time>
      </trkpt>
      <trkpt lat="44.91083" lon="5.5651">
        <ele>1170</ele>
        <time>2017-11-22T23:50:29Z</time>
      </trkpt>
      <trkpt lat="44.91136" lon="5.56566">
        <ele>1167</ele>
        <time>2017-11-22T23:50:39Z</time>
      </trkpt>
      <trkpt lat="44.91166" lon="5.56602">
        <ele>1165</ele>
        <time>2017-11-22T23:50:51Z</time>
      </trkpt>
      <trkpt lat="44.91185" lon="5.56631">
        <ele>1164</ele>
        <time>2017-11-22T23:50:56Z</time>
      </trkpt>
      <trkpt lat="44.91232" lon="5.56709">
        <ele>1163</ele>
        <time>2017-11-22T23:51:05Z</time>
      </trkpt>
      <trkpt lat="44.91245" lon="5.56735">
        <ele>1162</ele>
        <time>2017-11-22T23:51:20Z</time>
      </trkpt>
      <trkpt lat="44.91256" lon="5.56766">
        <ele>1159</ele>
        <time>2017-11-22T23:51:40Z</time>
      </trkpt>
      <trkpt lat="44.91263" lon="5.56796">
        <ele>1158</ele>
        <time>2017-11-22T23:51:51Z</time>
      </trkpt>
      <trkpt lat="44.91273" lon="5.56845">
        <ele>1159</ele>
        <time>2017-11-22T23:51:53Z</time>
      </trkpt>
      <trkpt lat="44.91277" lon="5.56859">
        <ele>1159</ele>
        <time>2017-11-22T23:52:10Z</time>
      </trkpt>
      <trkpt lat="44.91259" lon="5.56866">
        <ele>1159</ele>
        <time>2017-11-22T23:52:21Z</time>
      </trkpt>
      <trkpt lat="44.9117" lon="5.56899">
        <ele>1160</ele>
        <time>2017-11-22T23:52:41Z</time>
      </trkpt>
      <trkpt lat="44.91052" lon="5.56943">
        <ele>1162</ele>
        <time>2017-11-22T23:52:48Z</time>
      </trkpt>
      <trkpt lat="44.91016" lon="5.56953">
        <ele>1162</ele>
        <time>2017-11-22T23:53:07Z</time>
      </trkpt>
      <trkpt lat="44.91001" lon="5.56955">
        <ele>1162</ele>
        <time>2017-11-22T23:53:11Z</time>
      </trkpt>
      <trkpt lat="44.90932" lon="5.56954">
        <ele>1163</ele>
        <time>2017-11-22T23:53:29Z</time>
      </trkpt>
      <trkpt lat="44.90841" lon="5.56947">
        <ele>1166</ele>
        <time>2017-11-22T23:53:33Z</time>
      </trkpt>
      <trkpt lat="44.90817" lon="5.56948">
        <ele>1167</ele>
        <time>2017-11-22T23:53:53Z</time>
      </trkpt>
      <trkpt lat="44.90782" lon="5.56957">
        <ele>1168</ele>
        <time>2017-11-22T23:54:06Z</time>
      </trkpt>
      <trkpt lat="44.90674" lon="5.56999">
        <ele>1172</ele>
        <time>2017-11-22T23:54:19Z</time>
      </trkpt>
      <trkpt lat="44.90632" lon="5.5701">
        <ele>1175</ele>
        <time>2017-11-22T23:54:35Z</time>
      </trkpt>
      <trkpt lat="44.90607" lon="5.57011">
        <ele>1175</ele>
        <time>2017-11-22T23:54:37Z</time>
      </trkpt>
      <trkpt lat="44.90583" lon="5.57008">
        <ele>1176</ele>
        <time>2017-11-22T23:54:49Z</time>
      </trkpt>
      <trkpt lat="44.90571" lon="5.57005">
        <ele>1177</ele>
        <time>2017-11-22T23:54:54Z</time>
      </trkpt>
      <trkpt lat="44.90547" lon="5.56991">
        <ele>1177</ele>
        <time>2017-11-22T23:55:05Z</time>
      </trkpt>
      <trkpt lat="44.90541" lon="5.56986">
        <ele>1177</ele>
        <time>2017-11-22T23:55:13Z</time>
      </trkpt>
      <trkpt lat="44.9052" lon="5.56974">
        <ele>1178</ele>
        <time>2017-11-22T23:55:20Z</time>
      </trkpt>
      <trkpt lat="44.90506" lon="5.56969">
        <ele>1179</ele>
        <time>2017-11-22T23:55:24Z</time>
      </trkpt>
      <trkpt lat="44.90484" lon="5.56964">
        <ele>1183</ele>
        <time>2017-11-22T23:55:31Z</time>
      </trkpt>
      <trkpt lat="44.90443" lon="5.5696">
        <ele>1184</ele>
        <time>2017-11-22T23:55:37Z</time>
      </trkpt>
      <trkpt lat="44.90375" lon="5.56949">
        <ele>1189</ele>
        <time>2017-11-22T23:55:50Z</time>
      </trkpt>
      <trkpt lat="44.90358" lon="5.56943">
        <ele>1189</ele>
        <time>2017-11-22T23:56:04Z</time>
      </trkpt>
      <trkpt lat="44.90349" lon="5.56938">
        <ele>1189</ele>
        <time>2017-11-22T23:56:12Z</time>
      </trkpt>
      <trkpt lat="44.90324" lon="5.5692">
        <ele>1192</ele>
        <time>2017-11-22T23:56:28Z</time>
      </trkpt>
      <trkpt lat="44.90296" lon="5.5689">
        <ele>1193</ele>
        <time>2017-11-22T23:56:38Z</time>
      </trkpt>
      <trkpt lat="44.90256" lon="5.56841">
        <ele>1194</ele>
        <time>2017-11-22T23:56:42Z</time>
      </trkpt>
      <trkpt lat="44.90242" lon="5.56818">
        <ele>1197</ele>
        <time>2017-11-22T23:56:46Z</time>
      </trkpt>
      <trkpt lat="44.90238" lon="5.56808">
        <ele>1198</ele>
        <time>2017-11-22T23:57:02Z</time>
      </trkpt>
      <trkpt lat="44.90239" lon="5.56789">
        <ele>1198</ele>
        <time>2017-11-22T23:57:15Z</time>
      </trkpt>
      <trkpt lat="44.90235" lon="5.56772">
        <ele>1198</ele>
        <time>2017-11-22T23:57:33Z</time>
      </trkpt>
      <trkpt lat="44.90223" lon="5.56731">
        <ele>1198</ele>
        <time>2017-11-22T23:57:44Z</time>
      </trkpt>
      <trkpt lat="44.90202" lon="5.56688">
        <ele>1199</ele>
        <time>2017-11-22T23:58:01Z</time>
      </trkpt>
      <trkpt lat="44.90189" lon="5.56666">
        <ele>1198</ele>
        <time>2017-11-22T23:58:14Z</time>
      </trkpt>
      <trkpt lat="44.90182" lon="5.56661">
        <ele>1199</ele>
        <time>2017-11-22T23:58:31Z</time>
      </trkpt>
      <trkpt lat="44.90142" lon="5.56644">
        <ele>1203</ele>
        <time>2017-11-22T23:58:48Z</time>
      </trkpt>
      <trkpt lat="44.90115" lon="5.56638">
        <ele>1205</ele>
        <time>2017-11-22T23:59:02Z</time>
      </trkpt>
      <trkpt lat="44.90103" lon="5.5664">
        <ele>1205</ele>
        <time>2017-11-22T23:59:06Z</time>
      </trkpt>
      <trkpt lat="44.90088" lon="5.56646">
        <ele>1206</ele>
        <time>2017-11-22T23:59:26Z</time>
      </trkpt>
      <trkpt lat="44.90079" lon="5.56645">
        <ele>1211</ele>
        <time>2017-11-22T23:59:45Z</time>
      </trkpt>
      <trkpt lat="44.9004" lon="5.56642">
        <ele>1214</ele>
        <time>2017-11-22T23:59:50Z</time>
      </trkpt>
      <trkpt lat="44.90026" lon="5.56644">
        <ele>1215</ele>
        <time>2017-11-22T23:59:58Z</time>
      </trkpt>
      <trkpt lat="44.9002" lon="5.5665">
        <ele>1215</ele>
        <time>2017-11-23T00:00:03Z</time>
      </trkpt>
      <trkpt lat="44.90011" lon="5.56665">
        <ele>1216</ele>
        <time>2017-11-23T00:00:20Z</time>
      </trkpt>
      <trkpt lat="44.89999" lon="5.5669">
        <ele>1224</ele>
        <time>2017-11-23T00:00:31Z</time>
      </trkpt>
      <trkpt lat="44.89991" lon="5.56697">
        <ele>1225</ele>
        <time>2017-11-23T00:00:35Z</time>
      </trkpt>
      <trkpt lat="44.89982" lon="5.567">
        <ele>1226</ele>
        <time>2017-11-23T00:00:54Z</time>
      </trkpt>
      <trkpt lat="44.89966" lon="5.56699">
        <ele>1227</ele>
        <time>2017-11-23T00:01:10Z</time>
      </trkpt>
      <trkpt lat="44.89931" lon="5.56692">
        <ele>1229</ele>
        <time>2017-11-23T00:01:25Z</time>
      </trkpt>
      <trkpt lat="44.89892" lon="5.56688">
        <ele>1235</ele>
        <time>2017-11-23T00:01:36Z</time>
      </trkpt>
      <trkpt lat="44.89872" lon="5.56689">
        <ele>1236</ele>
        <time>2017-11-23T00:01:47Z</time>
      </trkpt>
      <trkpt lat="44.89812" lon="5.56692">
        <ele>1241</ele>
        <time>2017-11-23T00:02:02Z</time>
      </trkpt>
      <trkpt lat="44.89719" lon="5.56699">
        <ele>1252</ele>
        <time>2017-11-23T00:02:08Z</time>
      </trkpt>
      <trkpt lat="44.89688" lon="5.56695">
        <ele>1254</ele>
        <time>2017-11-23T00:02:10Z</time>
      </trkpt>
      <trkpt lat="44.89659" lon="5.56686">
        <ele>1261</ele>
        <time>2017-11-23T00:02:15Z</time>
      </trkpt>
      <trkpt lat="44.8964" lon="5.56675">
        <ele>1262</ele>
        <time>2017-11-23T00:02:21Z</time>
      </trkpt>
      <trkpt lat="44.89621" lon="5.56652">
        <ele>1267</ele>
        <time>2017-11-23T00:02:36Z</time>
      </trkpt>
      <trkpt lat="44.89611" lon="5.56646">
        <ele>1268</ele>
        <time>2017-11-23T00:02:49Z</time>
      </trkpt>
      <trkpt lat="44.89606" lon="5.56647">
        <ele>1268</ele>
        <time>2017-11-23T00:02:55Z</time>
      </trkpt>
      <trkpt lat="44.89603" lon="5.5665">
        <ele>1269</ele>
        <time>2017-11-23T00:03:10Z</time>
      </trkpt>
      <trkpt lat="44.896" lon="5.56657">
        <ele>1269</ele>
        <time>2017-11-23T00:03:13Z</time>
      </trkpt>
      <trkpt lat="44.896" lon="5.56662">
        <ele>1269</ele>
        <time>2017-11-23T00:03:30Z</time>
      </trkpt>
      <trkpt lat="44.89603" lon="5.56672">
        <ele>1267</ele>
        <time>2017-11-23T00:03:43Z</time>
      </trkpt>
      <trkpt lat="44.89647" lon="5.56724">
        <ele>1264</ele>
        <time>2017-11-23T00:03:55Z</time>
      </trkpt>
      <trkpt lat="44.89656" lon="5.56739">
        <ele>1263</ele>
        <time>2017-11-23T00:04:05Z</time>
      </trkpt>
      <trkpt lat="44.8966" lon="5.56753">
        <ele>1263</ele>
        <time>2017-11-23T00:04:07Z</time>
      </trkpt>
      <trkpt lat="44.8966" lon="5.5677">
        <ele>1265</ele>
        <time>2017-11-23T00:04:11Z</time>
      </trkpt>
      <trkpt lat="44.89654" lon="5.56782">
        <ele>1265</ele>
        <time>2017-11-23T00:04:21Z</time>
      </trkpt>
      <trkpt lat="44.89617" lon="5.56818">
        <ele>1268</ele>
        <time>2017-11-23T00:04:38Z</time>
      </trkpt>
      <trkpt lat="44.89596" lon="5.56841">
        <ele>1269</ele>
        <time>2017-11-23T00:04:48Z</time>
      </trkpt>
      <trkpt lat="44.89585" lon="5.56863">
        <ele>1268</ele>
        <time>2017-11-23T00:05:02Z</time>
      </trkpt>
      <trkpt lat="44.89574" lon="5.56889">
        <ele>1271</ele>
        <time>2017-11-23T00:05:11Z</time>
      </trkpt>
      <trkpt lat="44.8957" lon="5.56894">
        <ele>1271</ele>
        <time>2017-11-23T00:05:31Z</time>
      </trkpt>
      <trkpt lat="44.8956" lon="5.56899">
        <ele>1271</ele>
        <time>2017-11-23T00:05:40Z</time>
      </trkpt>
      <trkpt lat="44.89492" lon="5.56878">
        <ele>1273</ele>
        <time>2017-11-23T00:05:45Z</time>
      </trkpt>
      <trkpt lat="44.89481" lon="5.56866">
        <ele>1274</ele>
        <time>2017-11-23T00:05:55Z</time>
      </trkpt>
      <trkpt lat="44.89474" lon="5.56847">
        <ele>1276</ele>
        <time>2017-11-23T00:06:00Z</time>
      </trkpt>
      <trkpt lat="44.89468" lon="5.56812">
        <ele>1282</ele>
        <time>2017-11-23T00:06:18Z</time>
      </trkpt>
      <trkpt lat="44.89463" lon="5.56793">
        <ele>1282</ele>
        <time>2017-11-23T00:06:38Z</time>
      </trkpt>
      <trkpt lat="44.89443" lon="5.56755">
        <ele>1284</ele>
        <time>2017-11-23T00:06:49Z</time>
      </trkpt>
      <trkpt lat="44.89432" lon="5.56739">
        <ele>1287</ele>
        <time>2017-11-23T00:07:00Z</time>
      </trkpt>
      <trkpt lat="44.89409" lon="5.56744">
        <ele>1292</ele>
        <time>2017-11-23T00:07:16Z</time>
      </trkpt>
      <trkpt lat="44.89395" lon="5.5675">
        <ele>1294</ele>
        <time>2017-11-23T00:07:19Z</time>
      </trkpt>
      <trkpt lat="44.89379" lon="5.56753">
        <ele>1288</ele>
        <time>2017-11-23T00:07:35Z</time>
      </trkpt>
      <trkpt lat="44.89334" lon="5.56755">
        <ele>1296</ele>
        <time>2017-11-23T00:07:44Z</time>
      </trkpt>
      <trkpt lat="44.89302" lon="5.56764">
        <ele>1296</ele>
        <time>2017-11-23T00:08:01Z</time>
      </trkpt>
      <trkpt lat="44.89268" lon="5.56768">
        <ele>1300</ele>
        <time>2017-11-23T00:08:13Z</time>
      </trkpt>
      <trkpt lat="44.89233" lon="5.56768">
        <ele>1307</ele>
        <time>2017-11-23T00:08:28Z</time>
      </trkpt>
      <trkpt lat="44.89174" lon="5.56778">
        <ele>1308</ele>
        <time>2017-11-23T00:08:36Z</time>
      </trkpt>
      <trkpt lat="44.8913" lon="5.56781">
        <ele>1308</ele>
        <time>2017-11-23T00:08:54Z</time>
      </trkpt>
      <trkpt lat="44.89103" lon="5.56781">
        <ele>1308</ele>
        <time>2017-11-23T00:09:10Z</time>
      </trkpt>
      <trkpt lat="44.89084" lon="5.56778">
        <ele>1309</ele>
        <time>2017-11-23T00:09:19Z</time>
      </trkpt>
      <trkpt lat="44.89054" lon="5.56769">
        <ele>1306</ele>
        <time>2017-11-23T00:09:36Z</time>
      </trkpt>
      <trkpt lat="44.89046" lon="5.56758">
        <ele>1306</ele>
        <time>2017-11-23T00:09:51Z</time>
      </trkpt>
      <trkpt lat="44.89032" lon="5.56721">
        <ele>1324</ele>
        <time>2017-11-23T00:10:06Z</time>
      </trkpt>
      <trkpt lat="44.89025" lon="5.56711">
        <ele>1325</ele>
        <time>2017-11-23T00:10:10Z</time>
      </trkpt>
      <trkpt lat="44.8901" lon="5.56705">
        <ele>1325</ele>
        <time>2017-11-23T00:10:22Z</time>
      </trkpt>
      <trkpt lat="44.89005" lon="5.56706">
        <ele>1325</ele>
        <time>2017-11-23T00:10:38Z</time>
      </trkpt>
      <trkpt lat="44.89" lon="5.56711">
        <ele>1324</ele>
        <time>2017-11-23T00:10:45Z</time>
      </trkpt>
      <trkpt lat="44.88983" lon="5.56742">
        <ele>1314</ele>
        <time>2017-11-23T00:10:53Z</time>
      </trkpt>
      <trkpt lat="44.88977" lon="5.56748">
        <ele>1315</ele>
        <time>2017-11-23T00:11:13Z</time>
      </trkpt>
      <trkpt lat="44.88972" lon="5.56749">
        <ele>1315</ele>
        <time>2017-11-23T00:11:26Z</time>
      </trkpt>
      <trkpt lat="44.88955" lon="5.56748">
        <ele>1315</ele>
        <time>2017-11-23T00:11:43Z</time>
      </trkpt>
      <trkpt lat="44.88912" lon="5.56742">
        <ele>1311</ele>
        <time>2017-11-23T00:11:59Z</time>
      </trkpt>
      <trkpt lat="44.88897" lon="5.56727">
        <ele>1314</ele>
        <time>2017-11-23T00:12:12Z</time>
      </trkpt>
      <trkpt lat="44.8889" lon="5.56714">
        <ele>1316</ele>
        <time>2017-11-23T00:12:29Z</time>
      </trkpt>
      <trkpt lat="44.88885" lon="5.5671">
        <ele>1316</ele>
        <time>2017-11-23T00:12:42Z</time>
      </trkpt>
      <trkpt lat="44.88871" lon="5.56707">
        <ele>1316</ele>
        <time>2017-11-23T00:12:46Z</time>
      </trkpt>
      <trkpt lat="44.88857" lon="5.56709">
        <ele>1316</ele>
        <time>2017-11-23T00:13:05Z</time>
      </trkpt>
      <trkpt lat="44.8882" lon="5.56684">
        <ele>1322</ele>
        <time>2017-11-23T00:13:20Z</time>
      </trkpt>
      <trkpt lat="44.88811" lon="5.56668">
        <ele>1323</ele>
        <time>2017-11-23T00:13:27Z</time>
      </trkpt>
      <trkpt lat="44.88802" lon="5.56651">
        <ele>1337</ele>
        <time>2017-11-23T00:13:40Z</time>
      </trkpt>
      <trkpt lat="44.88794" lon="5.5665">
        <ele>1338</ele>
        <time>2017-11-23T00:13:44Z</time>
      </trkpt>
      <trkpt lat="44.88786" lon="5.56658">
        <ele>1338</ele>
        <time>2017-11-23T00:13:50Z</time>
      </trkpt>
      <trkpt lat="44.88782" lon="5.56674">
        <ele>1326</ele>
        <time>2017-11-23T00:14:04Z</time>
      </trkpt>
      <trkpt lat="44.88776" lon="5.56692">
        <ele>1325</ele>
        <time>2017-11-23T00:14:15Z</time>
      </trkpt>
      <trkpt lat="44.88755" lon="5.5672">
        <ele>1322</ele>
        <time>2017-11-23T00:14:25Z</time>
      </trkpt>
      <trkpt lat="44.88739" lon="5.56727">
        <ele>1326</ele>
        <time>2017-11-23T00:14:37Z</time>
      </trkpt>
      <trkpt lat="44.88716" lon="5.56732">
        <ele>1328</ele>
        <time>2017-11-23T00:14:57Z</time>
      </trkpt>
      <trkpt lat="44.88698" lon="5.56724">
        <ele>1330</ele>
        <time>2017-11-23T00:15:01Z</time>
      </trkpt>
      <trkpt lat="44.88658" lon="5.56702">
        <ele>1339</ele>
        <time>2017-11-23T00:15:04Z</time>
      </trkpt>
      <trkpt lat="44.8865" lon="5.56701">
        <ele>1340</ele>
        <time>2017-11-23T00:15:11Z</time>
      </trkpt>
      <trkpt lat="44.88636" lon="5.56704">
        <ele>1340</ele>
        <time>2017-11-23T00:15:27Z</time>
      </trkpt>
      <trkpt lat="44.88623" lon="5.56709">
        <ele>1340</ele>
        <time>2017-11-23T00:15:42Z</time>
      </trkpt>
      <trkpt lat="44.88594" lon="5.56719">
        <ele>1339</ele>
        <time>2017-11-23T00:15:51Z</time>
      </trkpt>
      <trkpt lat="44.88573" lon="5.56721">
        <ele>1345</ele>
        <time>2017-11-23T00:16:08Z</time>
      </trkpt>
      <trkpt lat="44.88551" lon="5.5672">
        <ele>1347</ele>
        <time>2017-11-23T00:16:17Z</time>
      </trkpt>
      <trkpt lat="44.8845" lon="5.56701">
        <ele>1357</ele>
        <time>2017-11-23T00:16:32Z</time>
      </trkpt>
      <trkpt lat="44.88426" lon="5.56699">
        <ele>1358</ele>
        <time>2017-11-23T00:16:51Z</time>
      </trkpt>
      <trkpt lat="44.88402" lon="5.56704">
        <ele>1359</ele>
        <time>2017-11-23T00:16:53Z</time>
      </trkpt>
      <trkpt lat="44.8837" lon="5.56713">
        <ele>1359</ele>
        <time>2017-11-23T00:17:04Z</time>
      </trkpt>
      <trkpt lat="44.8834" lon="5.56709">
        <ele>1360</ele>
        <time>2017-11-23T00:17:08Z</time>
      </trkpt>
      <trkpt lat="44.88222" lon="5.56689">
        <ele>1356</ele>
        <time>2017-11-23T00:17:28Z</time>
      </trkpt>
      <trkpt lat="44.88193" lon="5.56686">
        <ele>1354</ele>
        <time>2017-11-23T00:17:46Z</time>
      </trkpt>
      <trkpt lat="44.8818" lon="5.56689">
        <ele>1354</ele>
        <time>2017-11-23T00:18:00Z</time>
      </trkpt>
      <trkpt lat="44.88152" lon="5.56704">
        <ele>1352</ele>
        <time>2017-11-23T00:18:05Z</time>
      </trkpt>
      <trkpt lat="44.88134" lon="5.56707">
        <ele>1352</ele>
        <time>2017-11-23T00:18:11Z</time>
      </trkpt>
      <trkpt lat="44.88116" lon="5.56702">
        <ele>1351</ele>
        <time>2017-11-23T00:18:28Z</time>
      </trkpt>
      <trkpt lat="44.88104" lon="5.56697">
        <ele>1349</ele>
        <time>2017-11-23T00:18:37Z</time>
      </trkpt>
      <trkpt lat="44.88094" lon="5.56694">
        <ele>1348</ele>
        <time>2017-11-23T00:18:55Z</time>
      </trkpt>
      <trkpt lat="44.88069" lon="5.56698">
        <ele>1345</ele>
        <time>2017-11-23T00:19:08Z</time>
      </trkpt>
      <trkpt lat="44.88024" lon="5.56691">
        <ele>1343</ele>
        <time>2017-11-23T00:19:10Z</time>
      </trkpt>
      <trkpt lat="44.88012" lon="5.56691">
        <ele>1342</ele>
        <time>2017-11-23T00:19:17Z</time>
      </trkpt>
      <trkpt lat="44.88" lon="5.56687">
        <ele>1340</ele>
        <time>2017-11-23T00:19:27Z</time>
      </trkpt>
      <trkpt lat="44.87962" lon="5.56669">
        <ele>1336</ele>
        <time>2017-11-23T00:19:42Z</time>
      </trkpt>
      <trkpt lat="44.87947" lon="5.56667">
        <ele>1334</ele>
        <time>2017-11-23T00:20:00Z</time>
      </trkpt>
      <trkpt lat="44.87924" lon="5.56674">
        <ele>1330</ele>
        <time>2017-11-23T00:20:14Z</time>
      </trkpt>
      <trkpt lat="44.87908" lon="5.5669">
        <ele>1330</ele>
        <time>2017-11-23T00:20:17Z</time>
      </trkpt>
      <trkpt lat="44.87898" lon="5.56694">
        <ele>1330</ele>
        <time>2017-11-23T00:20:21Z</time>
      </trkpt>
      <trkpt lat="44.8789" lon="5.56694">
        <ele>1330</ele>
        <time>2017-11-23T00:20:26Z</time>
      </trkpt>
      <trkpt lat="44.87866" lon="5.56689">
        <ele>1329</ele>
        <time>2017-11-23T00:20:45Z</time>
      </trkpt>
      <trkpt lat="44.87837" lon="5.56685">
        <ele>1325</ele>
        <time>2017-11-23T00:20:47Z</time>
      </trkpt>
      <trkpt lat="44.87804" lon="5.56665">
        <ele>1308</ele>
        <time>2017-11-23T00:20:57Z</time>
      </trkpt>
      <trkpt lat="44.87712" lon="5.56648">
        <ele>1301</ele>
        <time>2017-11-23T00:21:12Z</time>
      </trkpt>
      <trkpt lat="44.87686" lon="5.56639">
        <ele>1300</ele>
        <time>2017-11-23T00:21:19Z</time>
      </trkpt>
      <trkpt lat="44.87658" lon="5.56625">
        <ele>1294</ele>
        <time>2017-11-23T00:21:27Z</time>
      </trkpt>
      <trkpt lat="44.87622" lon="5.56608">
        <ele>1292</ele>
        <time>2017-11-23T00:21:34Z</time>
      </trkpt>
      <trkpt lat="44.87583" lon="5.56593">
        <ele>1284</ele>
        <time>2017-11-23T00:21:48Z</time>
      </trkpt>
      <trkpt lat="44.87544" lon="5.56581">
        <ele>1273</ele>
        <time>2017-11-23T00:22:05Z</time>
      </trkpt>
      <trkpt lat="44.87535" lon="5.56581">
        <ele>1273</ele>
        <time>2017-11-23T00:22:16Z</time>
      </trkpt>
      <trkpt lat="44.87509" lon="5.5659">
        <ele>1279</ele>
        <time>2017-11-23T00:22:27Z</time>
      </trkpt>
      <trkpt lat="44.87503" lon="5.56587">
        <ele>1278</ele>
        <time>2017-11-23T00:22:31Z</time>
      </trkpt>
      <trkpt lat="44.87503" lon="5.5658">
        <ele>1276</ele>
        <time>2017-11-23T00:22:41Z</time>
      </trkpt>
      <trkpt lat="44.87506" lon="5.56572">
        <ele>1274</ele>
        <time>2017-11-23T00:22:47Z</time>
      </trkpt>
      <trkpt lat="44.87522" lon="5.56561">
        <ele>1271</ele>
        <time>2017-11-23T00:22:51Z</time>
      </trkpt>
      <trkpt lat="44.87543" lon="5.56554">
        <ele>1270</ele>
        <time>2017-11-23T00:22:57Z</time>
      </trkpt>
      <trkpt lat="44.87572" lon="5.56548">
        <ele>1271</ele>
        <time>2017-11-23T00:23:00Z</time>
      </trkpt>
      <trkpt lat="44.87616" lon="5.56541">
        <ele>1271</ele>
        <time>2017-11-23T00:23:07Z</time>
      </trkpt>
      <trkpt lat="44.87668" lon="5.56525">
        <ele>1270</ele>
        <time>2017-11-23T00:23:19Z</time>
      </trkpt>
      <trkpt lat="44.87698" lon="5.5651">
        <ele>1271</ele>
        <time>2017-11-23T00:23:35Z</time>
      </trkpt>
      <trkpt lat="44.87709" lon="5.56496">
        <ele>1260</ele>
        <time>2017-11-23T00:23:55Z</time>
      </trkpt>
      <trkpt lat="44.87712" lon="5.56484">
        <ele>1259</ele>
        <time>2017-11-23T00:24:15Z</time>
      </trkpt>
      <trkpt lat="44.87714" lon="5.56449">
        <ele>1257</ele>
        <time>2017-11-23T00:24:28Z</time>
      </trkpt>
      <trkpt lat="44.87717" lon="5.56395">
        <ele>1246</ele>
        <time>2017-11-23T00:24:48Z</time>
      </trkpt>
      <trkpt lat="44.87732" lon="5.56279">
        <ele>1238</ele>
        <time>2017-11-23T00:24:59Z</time>
      </trkpt>
      <trkpt lat="44.8773" lon="5.56253">
        <ele>1239</ele>
        <time>2017-11-23T00:25:12Z</time>
      </trkpt>
      <trkpt lat="44.87727" lon="5.56245">
        <ele>1241</ele>
        <time>2017-11-23T00:25:27Z</time>
      </trkpt>
      <trkpt lat="44.87722" lon="5.5624">
        <ele>1241</ele>
        <time>2017-11-23T00:25:40Z</time>
      </trkpt>
      <trkpt lat="44.87669" lon="5.56215">
        <ele>1236</ele>
        <time>2017-11-23T00:26:00Z</time>
      </trkpt>
      <trkpt lat="44.87617" lon="5.56181">
        <ele>1221</ele>
        <time>2017-11-23T00:26:20Z</time>
      </trkpt>
      <trkpt lat="44.87604" lon="5.5617">
        <ele>1219</ele>
        <time>2017-11-23T00:26:35Z</time>
      </trkpt>
      <trkpt lat="44.87594" lon="5.56155">
        <ele>1222</ele>
        <time>2017-11-23T00:26:42Z</time>
      </trkpt>
      <trkpt lat="44.87583" lon="5.56131">
        <ele>1212</ele>
        <time>2017-11-23T00:26:59Z</time>
      </trkpt>
      <trkpt lat="44.87576" lon="5.56111">
        <ele>1214</ele>
        <time>2017-11-23T00:27:09Z</time>
      </trkpt>
      <trkpt lat="44.87529" lon="5.5602">
        <ele>1211</ele>
        <time>2017-11-23T00:27:29Z</time>
      </trkpt>
      <trkpt lat="44.8751" lon="5.55987">
        <ele>1209</ele>
        <time>2017-11-23T00:27:35Z</time>
      </trkpt>
      <trkpt lat="44.87505" lon="5.55972">
        <ele>1212</ele>
        <time>2017-11-23T00:27:39Z</time>
      </trkpt>
      <trkpt lat="44.87501" lon="5.55937">
        <ele>1212</ele>
        <time>2017-11-23T00:27:53Z</time>
      </trkpt>
      <trkpt lat="44.87498" lon="5.55929">
        <ele>1202</ele>
        <time>2017-11-23T00:28:11Z</time>
      </trkpt>
      <trkpt lat="44.87492" lon="5.55922">
        <ele>1202</ele>
        <time>2017-11-23T00:28:25Z</time>
      </trkpt>
      <trkpt lat="44.87472" lon="5.55911">
        <ele>1209</ele>
        <time>2017-11-23T00:28:27Z</time>
      </trkpt>
      <trkpt lat="44.87459" lon="5.5591">
        <ele>1209</ele>
        <time>2017-11-23T00:28:38Z</time>
      </trkpt>
      <trkpt lat="44.87448" lon="5.55911">
        <ele>1208</ele>
        <time>2017-11-23T00:28:53Z</time>
      </trkpt>
      <trkpt lat="44.87407" lon="5.5593">
        <ele>1193</ele>
        <time>2017-11-23T00:29:04Z</time>
      </trkpt>
      <trkpt lat="44.87386" lon="5.55939">
        <ele>1189</ele>
        <time>2017-11-23T00:29:08Z</time>
      </trkpt>
      <trkpt lat="44.87352" lon="5.5595">
        <ele>1187</ele>
        <time>2017-11-23T00:29:26Z</time>
      </trkpt>
      <trkpt lat="44.87328" lon="5.55954">
        <ele>1177</ele>
        <time>2017-11-23T00:29:43Z</time>
      </trkpt>
      <trkpt lat="44.87312" lon="5.55954">
        <ele>1175</ele>
        <time>2017-11-23T00:29:51Z</time>
      </trkpt>
      <trkpt lat="44.87293" lon="5.55948">
        <ele>1173</ele>
        <time>2017-11-23T00:29:53Z</time>
      </trkpt>
      <trkpt lat="44.87277" lon="5.55939">
        <ele>1172</ele>
        <time>2017-11-23T00:29:56Z</time>
      </trkpt>
      <trkpt lat="44.87266" lon="5.55926">
        <ele>1171</ele>
        <time>2017-11-23T00:30:13Z</time>
      </trkpt>
      <trkpt lat="44.87257" lon="5.55908">
        <ele>1175</ele>
        <time>2017-11-23T00:30:29Z</time>
      </trkpt>
      <trkpt lat="44.87247" lon="5.55875">
        <ele>1167</ele>
        <time>2017-11-23T00:30:39Z</time>
      </trkpt>
      <trkpt lat="44.87239" lon="5.55856">
        <ele>1170</ele>
        <time>2017-11-23T00:30:56Z</time>
      </trkpt>
      <trkpt lat="44.87236" lon="5.55849">
        <ele>1171</ele>
        <time>2017-11-23T00:31:04Z</time>
      </trkpt>
      <trkpt lat="44.87231" lon="5.55847">
        <ele>1170</ele>
        <time>2017-11-23T00:31:11Z</time>
      </trkpt>
      <trkpt lat="44.87226" lon="5.55845">
        <ele>1169</ele>
        <time>2017-11-23T00:31:25Z</time>
      </trkpt>
      <trkpt lat="44.87219" lon="5.55844">
        <ele>1167</ele>
        <time>2017-11-23T00:31:38Z</time>
      </trkpt>
      <trkpt lat="44.87199" lon="5.55847">
        <ele>1163</ele>
        <time>2017-11-23T00:31:58Z</time>
      </trkpt>
      <trkpt lat="44.87188" lon="5.55847">
        <ele>1161</ele>
        <time>2017-11-23T00:32:12Z</time>
      </trkpt>
      <trkpt lat="44.87182" lon="5.55845">
        <ele>1160</ele>
        <time>2017-11-23T00:32:25Z</time>
      </trkpt>
      <trkpt lat="44.87172" lon="5.55838">
        <ele>1159</ele>
        <time>2017-11-23T00:32:43Z</time>
      </trkpt>
      <trkpt lat="44.8716" lon="5.55828">
        <ele>1159</ele>
        <time>2017-11-23T00:32:55Z</time>
      </trkpt>
      <trkpt lat="44.87146" lon="5.55821">
        <ele>1159</ele>
        <time>2017-11-23T00:33:08Z</time>
      </trkpt>
      <trkpt lat="44.87099" lon="5.55804">
        <ele>1157</ele>
        <time>2017-11-23T00:33:28Z</time>
      </trkpt>
      <trkpt lat="44.87075" lon="5.55807">
        <ele>1148</ele>
        <time>2017-11-23T00:33:47Z</time>
      </trkpt>
      <trkpt lat="44.87059" lon="5.55813">
        <ele>1147</ele>
        <time>2017-11-23T00:33:54Z</time>
      </trkpt>
      <trkpt lat="44.87044" lon="5.55821">
        <ele>1146</ele>
        <time>2017-11-23T00:34:02Z</time>
      </trkpt>
      <trkpt lat="44.87025" lon="5.55833">
        <ele>1143</ele>
        <time>2017-11-23T00:34:04Z</time>
      </trkpt>
      <trkpt lat="44.87013" lon="5.55836">
        <ele>1133</ele>
        <time>2017-11-23T00:34:12Z</time>
      </trkpt>
      <trkpt lat="44.86998" lon="5.55835">
        <ele>1132</ele>
        <time>2017-11-23T00:34:19Z</time>
      </trkpt>
      <trkpt lat="44.86984" lon="5.55829">
        <ele>1134</ele>
        <time>2017-11-23T00:34:28Z</time>
      </trkpt>
      <trkpt lat="44.86972" lon="5.55818">
        <ele>1134</ele>
        <time>2017-11-23T00:34:32Z</time>
      </trkpt>
      <trkpt lat="44.86959" lon="5.55805">
        <ele>1134</ele>
        <time>2017-11-23T00:34:35Z</time>
      </trkpt>
      <trkpt lat="44.8693" lon="5.55769">
        <ele>1135</ele>
        <time>2017-11-23T00:34:46Z</time>
      </trkpt>
      <trkpt lat="44.86918" lon="5.55757">
        <ele>1134</ele>
        <time>2017-11-23T00:35:03Z</time>
      </trkpt>
      <trkpt lat="44.869" lon="5.55746">
        <ele>1132</ele>
        <time>2017-11-23T00:35:05Z</time>
      </trkpt>
      <trkpt lat="44.86879" lon="5.55728">
        <ele>1131</ele>
        <time>2017-11-23T00:35:21Z</time>
      </trkpt>
      <trkpt lat="44.8686" lon="5.55703">
        <ele>1130</ele>
        <time>2017-11-23T00:35:34Z</time>
      </trkpt>
      <trkpt lat="44.86841" lon="5.55666">
        <ele>1128</ele>
        <time>2017-11-23T00:35:47Z</time>
      </trkpt>
      <trkpt lat="44.86833" lon="5.5566">
        <ele>1130</ele>
        <time>2017-11-23T00:35:59Z</time>
      </trkpt>
      <trkpt lat="44.86826" lon="5.55657">
        <ele>1132</ele>
        <time>2017-11-23T00:36:07Z</time>
      </trkpt>
      <trkpt lat="44.86818" lon="5.5566">
        <ele>1133</ele>
        <time>2017-11-23T00:36:14Z</time>
      </trkpt>
      <trkpt lat="44.8681" lon="5.5567">
        <ele>1135</ele>
        <time>2017-11-23T00:36:23Z</time>
      </trkpt>
      <trkpt lat="44.86803" lon="5.5571">
        <ele>1138</ele>
        <time>2017-11-23T00:36:41Z</time>
      </trkpt>
      <trkpt lat="44.86796" lon="5.55785">
        <ele>1133</ele>
        <time>2017-11-23T00:36:53Z</time>
      </trkpt>
      <trkpt lat="44.86801" lon="5.55829">
        <ele>1130</ele>
        <time>2017-11-23T00:36:56Z</time>
      </trkpt>
      <trkpt lat="44.86803" lon="5.55847">
        <ele>1124</ele>
        <time>2017-11-23T00:37:04Z</time>
      </trkpt>
      <trkpt lat="44.86802" lon="5.55855">
        <ele>1124</ele>
        <time>2017-11-23T00:37:09Z</time>
      </trkpt>
      <trkpt lat="44.86795" lon="5.55867">
        <ele>1125</ele>
        <time>2017-11-23T00:37:13Z</time>
      </trkpt>
      <trkpt lat="44.8679" lon="5.55871">
        <ele>1125</ele>
        <time>2017-11-23T00:37:20Z</time>
      </trkpt>
      <trkpt lat="44.86781" lon="5.55873">
        <ele>1126</ele>
        <time>2017-11-23T00:37:39Z</time>
      </trkpt>
      <trkpt lat="44.86682" lon="5.55865">
        <ele>1143</ele>
        <time>2017-11-23T00:37:51Z</time>
      </trkpt>
      <trkpt lat="44.86665" lon="5.55867">
        <ele>1150</ele>
        <time>2017-11-23T00:37:54Z</time>
      </trkpt>
      <trkpt lat="44.86656" lon="5.55876">
        <ele>1149</ele>
        <time>2017-11-23T00:38:05Z</time>
      </trkpt>
      <trkpt lat="44.86653" lon="5.55884">
        <ele>1148</ele>
        <time>2017-11-23T00:38:21Z</time>
      </trkpt>
      <trkpt lat="44.86647" lon="5.55912">
        <ele>1146</ele>
        <time>2017-11-23T00:38:39Z</time>
      </trkpt>
      <trkpt lat="44.86636" lon="5.5595">
        <ele>1146</ele>
        <time>2017-11-23T00:38:43Z</time>
      </trkpt>
      <trkpt lat="44.86625" lon="5.5597">
        <ele>1148</ele>
        <time>2017-11-23T00:38:58Z</time>
      </trkpt>
      <trkpt lat="44.86609" lon="5.55984">
        <ele>1150</ele>
        <time>2017-11-23T00:39:02Z</time>
      </trkpt>
      <trkpt lat="44.86592" lon="5.55991">
        <ele>1152</ele>
        <time>2017-11-23T00:39:11Z</time>
      </trkpt>
      <trkpt lat="44.86585" lon="5.55991">
        <ele>1153</ele>
        <time>2017-11-23T00:39:29Z</time>
      </trkpt>
      <trkpt lat="44.86576" lon="5.55988">
        <ele>1156</ele>
        <time>2017-11-23T00:39:36Z</time>
      </trkpt>
      <trkpt lat="44.86569" lon="5.55982">
        <ele>1157</ele>
        <time>2017-11-23T00:39:38Z</time>
      </trkpt>
      <trkpt lat="44.86554" lon="5.55959">
        <ele>1158</ele>
        <time>2017-11-23T00:39:53Z</time>
      </trkpt>
      <trkpt lat="44.86547" lon="5.55944">
        <ele>1158</ele>
        <time>2017-11-23T00:40:02Z</time>
      </trkpt>
      <trkpt lat="44.86543" lon="5.5593">
        <ele>1158</ele>
        <time>2017-11-23T00:40:09Z</time>
      </trkpt>
      <trkpt lat="44.86542" lon="5.55911">
        <ele>1161</ele>
        <time>2017-11-23T00:40:25Z</time>
      </trkpt>
      <trkpt lat="44.86543" lon="5.55897">
        <ele>1161</ele>
        <time>2017-11-23T00:40:38Z</time>
      </trkpt>
      <trkpt lat="44.86546" lon="5.55883">
        <ele>1162</ele>
        <time>2017-11-23T00:40:49Z</time>
      </trkpt>
      <trkpt lat="44.86551" lon="5.55874">
        <ele>1162</ele>
        <time>2017-11-23T00:40:55Z</time>
      </trkpt>
      <trkpt lat="44.86566" lon="5.55859">
        <ele>1161</ele>
        <time>2017-11-23T00:41:13Z</time>
      </trkpt>
      <trkpt lat="44.86569" lon="5.5585">
        <ele>1161</ele>
        <time>2017-11-23T00:41:20Z</time>
      </trkpt>
      <trkpt lat="44.86567" lon="5.55842">
        <ele>1161</ele>
        <time>2017-11-23T00:41:37Z</time>
      </trkpt>
      <trkpt lat="44.86563" lon="5.55839">
        <ele>1161</ele>
        <time>2017-11-23T00:41:54Z</time>
      </trkpt>
      <trkpt lat="44.86557" lon="5.55839">
        <ele>1162</ele>
        <time>2017-11-23T00:41:56Z</time>
      </trkpt>
      <trkpt lat="44.86529" lon="5.55846">
        <ele>1164</ele>
        <time>2017-11-23T00:42:07Z</time>
      </trkpt>
      <trkpt lat="44.86516" lon="5.55853">
        <ele>1165</ele>
        <time>2017-11-23T00:42:22Z</time>
      </trkpt>
      <trkpt lat="44.86506" lon="5.55865">
        <ele>1165</ele>
        <time>2017-11-23T00:42:41Z</time>
      </trkpt>
      <trkpt lat="44.86498" lon="5.55878">
        <ele>1169</ele>
        <time>2017-11-23T00:42:49Z</time>
      </trkpt>
      <trkpt lat="44.8649" lon="5.55886">
        <ele>1169</ele>
        <time>2017-11-23T00:43:06Z</time>
      </trkpt>
      <trkpt lat="44.86484" lon="5.55888">
        <ele>1169</ele>
        <time>2017-11-23T00:43:24Z</time>
      </trkpt>
      <trkpt lat="44.86476" lon="5.5589">
        <ele>1169</ele>
        <time>2017-11-23T00:43:40Z</time>
      </trkpt>
      <trkpt lat="44.86437" lon="5.55885">
        <ele>1169</ele>
        <time>2017-11-23T00:43:56Z</time>
      </trkpt>
      <trkpt lat="44.86406" lon="5.55881">
        <ele>1164</ele>
        <time>2017-11-23T00:44:04Z</time>
      </trkpt>
      <trkpt lat="44.86391" lon="5.55876">
        <ele>1164</ele>
        <time>2017-11-23T00:44:20Z</time>
      </trkpt>
      <trkpt lat="44.86381" lon="5.55869">
        <ele>1163</ele>
        <time>2017-11-23T00:44:25Z</time>
      </trkpt>
      <trkpt lat="44.8635" lon="5.55822">
        <ele>1165</ele>
        <time>2017-11-23T00:44:33Z</time>
      </trkpt>
      <trkpt lat="44.86303" lon="5.55756">
        <ele>1153</ele>
        <time>2017-11-23T00:44:44Z</time>
      </trkpt>
      <trkpt lat="44.86289" lon="5.55741">
        <ele>1159</ele>
        <time>2017-11-23T00:44:52Z</time>
      </trkpt>
      <trkpt lat="44.86261" lon="5.55715">
        <ele>1157</ele>
        <time>2017-11-23T00:45:02Z</time>
      </trkpt>
      <trkpt lat="44.86223" lon="5.55683">
        <ele>1149</ele>
        <time>2017-11-23T00:45:14Z</time>
      </trkpt>
      <trkpt lat="44.86198" lon="5.55672">
        <ele>1147</ele>
        <time>2017-11-23T00:45:32Z</time>
      </trkpt>
      <trkpt lat="44.86184" lon="5.55667">
        <ele>1147</ele>
        <time>2017-11-23T00:45:51Z</time>
      </trkpt>
      <trkpt lat="44.86175" lon="5.55666">
        <ele>1154</ele>
        <time>2017-11-23T00:46:07Z</time>
      </trkpt>
      <trkpt lat="44.86165" lon="5.55669">
        <ele>1149</ele>
        <time>2017-11-23T00:46:26Z</time>
      </trkpt>
      <trkpt lat="44.86156" lon="5.55676">
        <ele>1150</ele>
        <time>2017-11-23T00:46:35Z</time>
      </trkpt>
      <trkpt lat="44.8615" lon="5.55688">
        <ele>1151</ele>
        <time>2017-11-23T00:46:41Z</time>
      </trkpt>
      <trkpt lat="44.86146" lon="5.55716">
        <ele>1148</ele>
        <time>2017-11-23T00:46:43Z</time>
      </trkpt>
      <trkpt lat="44.86144" lon="5.55747">
        <ele>1144</ele>
        <time>2017-11-23T00:46:52Z</time>
      </trkpt>
      <trkpt lat="44.86139" lon="5.55777">
        <ele>1131</ele>
        <time>2017-11-23T00:47:06Z</time>
      </trkpt>
      <trkpt lat="44.86133" lon="5.55796">
        <ele>1128</ele>
        <time>2017-11-23T00:47:11Z</time>
      </trkpt>
      <trkpt lat="44.86124" lon="5.55811">
        <ele>1127</ele>
        <time>2017-11-23T00:47:28Z</time>
      </trkpt>
      <trkpt lat="44.86117" lon="5.55819">
        <ele>1127</ele>
        <time>2017-11-23T00:47:48Z</time>
      </trkpt>
      <trkpt lat="44.86103" lon="5.55827">
        <ele>1126</ele>
        <time>2017-11-23T00:48:01Z</time>
      </trkpt>
      <trkpt lat="44.86089" lon="5.55833">
        <ele>1124</ele>
        <time>2017-11-23T00:48:11Z</time>
      </trkpt>
      <trkpt lat="44.86074" lon="5.55833">
        <ele>1126</ele>
        <time>2017-11-23T00:48:16Z</time>
      </trkpt>
      <trkpt lat="44.86013" lon="5.55817">
        <ele>1126</ele>
        <time>2017-11-23T00:48:26Z</time>
      </trkpt>
      <trkpt lat="44.86003" lon="5.55818">
        <ele>1124</ele>
        <time>2017-11-23T00:48:29Z</time>
      </trkpt>
      <trkpt lat="44.85989" lon="5.55825">
        <ele>1119</ele>
        <time>2017-11-23T00:48:40Z</time>
      </trkpt>
      <trkpt lat="44.85979" lon="5.55831">
        <ele>1120</ele>
        <time>2017-11-23T00:48:43Z</time>
      </trkpt>
      <trkpt lat="44.85963" lon="5.55848">
        <ele>1110</ele>
        <time>2017-11-23T00:49:03Z</time>
      </trkpt>
      <trkpt lat="44.85981" lon="5.55873">
        <ele>1108</ele>
        <time>2017-11-23T00:49:10Z</time>
      </trkpt>
      <trkpt lat="44.85998" lon="5.55892">
        <ele>1105</ele>
        <time>2017-11-23T00:49:29Z</time>
      </trkpt>
      <trkpt lat="44.86019" lon="5.5591">
        <ele>1102</ele>
        <time>2017-11-23T00:49:37Z</time>
      </trkpt>
      <trkpt lat="44.86039" lon="5.5592">
        <ele>1098</ele>
        <time>2017-11-23T00:49:46Z</time>
      </trkpt>
      <trkpt lat="44.86064" lon="5.55924">
        <ele>1097</ele>
        <time>2017-11-23T00:50:06Z</time>
      </trkpt>
      <trkpt lat="44.86146" lon="5.55934">
        <ele>1092</ele>
        <time>2017-11-23T00:50:16Z</time>
      </trkpt>
      <trkpt lat="44.86165" lon="5.55942">
        <ele>1091</ele>
        <time>2017-11-23T00:50:19Z</time>
      </trkpt>
      <trkpt lat="44.86188" lon="5.55956">
        <ele>1094</ele>
        <time>2017-11-23T00:50:26Z</time>
      </trkpt>
      <trkpt lat="44.8623" lon="5.55989">
        <ele>1095</ele>
        <time>2017-11-23T00:50:35Z</time>
      </trkpt>
      <trkpt lat="44.86259" lon="5.56016">
        <ele>1095</ele>
        <time>2017-11-23T00:50:50Z</time>
      </trkpt>
      <trkpt lat="44.86343" lon="5.56116">
        <ele>1084</ele>
        <time>2017-11-23T00:51:02Z</time>
      </trkpt>
      <trkpt lat="44.86364" lon="5.56138">
        <ele>1082</ele>
        <time>2017-11-23T00:51:19Z</time>
      </trkpt>
      <trkpt lat="44.86376" lon="5.56146">
        <ele>1082</ele>
        <time>2017-11-23T00:51:36Z</time>
      </trkpt>
      <trkpt lat="44.86388" lon="5.56155">
        <ele>1081</ele>
        <time>2017-11-23T00:51:55Z</time>
      </trkpt>
      <trkpt lat="44.86393" lon="5.56164">
        <ele>1080</ele>
        <time>2017-11-23T00:52:12Z</time>
      </trkpt>
      <trkpt lat="44.8641" lon="5.56209">
        <ele>1077</ele>
        <time>2017-11-23T00:52:26Z</time>
      </trkpt>
      <trkpt lat="44.86417" lon="5.56218">
        <ele>1075</ele>
        <time>2017-11-23T00:52:41Z</time>
      </trkpt>
      <trkpt lat="44.86434" lon="5.56228">
        <ele>1075</ele>
        <time>2017-11-23T00:52:55Z</time>
      </trkpt>
      <trkpt lat="44.86459" lon="5.56238">
        <ele>1075</ele>
        <time>2017-11-23T00:52:59Z</time>
      </trkpt>
      <trkpt lat="44.86471" lon="5.56245">
        <ele>1074</ele>
        <time>2017-11-23T00:53:03Z</time>
      </trkpt>
      <trkpt lat="44.86481" lon="5.56253">
        <ele>1073</ele>
        <time>2017-11-23T00:53:23Z</time>
      </trkpt>
      <trkpt lat="44.86499" lon="5.56284">
        <ele>1074</ele>
        <time>2017-11-23T00:53:35Z</time>
      </trkpt>
      <trkpt lat="44.86524" lon="5.56357">
        <ele>1071</ele>
        <time>2017-11-23T00:53:43Z</time>
      </trkpt>
      <trkpt lat="44.8653" lon="5.56367">
        <ele>1072</ele>
        <time>2017-11-23T00:54:03Z</time>
      </trkpt>
      <trkpt lat="44.8657" lon="5.56416">
        <ele>1068</ele>
        <time>2017-11-23T00:54:18Z</time>
      </trkpt>
      <trkpt lat="44.86579" lon="5.56419">
        <ele>1071</ele>
        <time>2017-11-23T00:54:25Z</time>
      </trkpt>
      <trkpt lat="44.86589" lon="5.56417">
        <ele>1066</ele>
        <time>2017-11-23T00:54:36Z</time>
      </trkpt>
      <trkpt lat="44.86616" lon="5.56399">
        <ele>1056</ele>
        <time>2017-11-23T00:54:45Z</time>
      </trkpt>
      <trkpt lat="44.86626" lon="5.56397">
        <ele>1055</ele>
        <time>2017-11-23T00:54:54Z</time>
      </trkpt>
      <trkpt lat="44.86638" lon="5.564">
        <ele>1053</ele>
        <time>2017-11-23T00:55:09Z</time>
      </trkpt>
      <trkpt lat="44.86676" lon="5.5643">
        <ele>1048</ele>
        <time>2017-11-23T00:55:16Z</time>
      </trkpt>
      <trkpt lat="44.86685" lon="5.56446">
        <ele>1050</ele>
        <time>2017-11-23T00:55:26Z</time>
      </trkpt>
      <trkpt lat="44.86698" lon="5.56489">
        <ele>1053</ele>
        <time>2017-11-23T00:55:31Z</time>
      </trkpt>
      <trkpt lat="44.86709" lon="5.56517">
        <ele>1058</ele>
        <time>2017-11-23T00:55:50Z</time>
      </trkpt>
      <trkpt lat="44.86723" lon="5.56536">
        <ele>1057</ele>
        <time>2017-11-23T00:56:02Z</time>
      </trkpt>
      <trkpt lat="44.86742" lon="5.56557">
        <ele>1055</ele>
        <time>2017-11-23T00:56:04Z</time>
      </trkpt>
      <trkpt lat="44.86758" lon="5.5657">
        <ele>1039</ele>
        <time>2017-11-23T00:56:07Z</time>
      </trkpt>
      <trkpt lat="44.86808" lon="5.56599">
        <ele>1036</ele>
        <time>2017-11-23T00:56:22Z</time>
      </trkpt>
      <trkpt lat="44.86818" lon="5.566">
        <ele>1033</ele>
        <time>2017-11-23T00:56:41Z</time>
      </trkpt>
      <trkpt lat="44.86832" lon="5.566">
        <ele>1029</ele>
        <time>2017-11-23T00:56:54Z</time>
      </trkpt>
      <trkpt lat="44.86843" lon="5.56607">
        <ele>1016</ele>
        <time>2017-11-23T00:56:57Z</time>
      </trkpt>
      <trkpt lat="44.86853" lon="5.56622">
        <ele>1018</ele>
        <time>2017-11-23T00:57:00Z</time>
      </trkpt>
      <trkpt lat="44.86869" lon="5.56646">
        <ele>1019</ele>
        <time>2017-11-23T00:57:12Z</time>
      </trkpt>
      <trkpt lat="44.86889" lon="5.56663">
        <ele>1014</ele>
        <time>2017-11-23T00:57:19Z</time>
      </trkpt>
      <trkpt lat="44.869" lon="5.5668">
        <ele>1020</ele>
        <time>2017-11-23T00:57:30Z</time>
      </trkpt>
      <trkpt lat="44.86908" lon="5.56696">
        <ele>1023</ele>
        <time>2017-11-23T00:57:34Z</time>
      </trkpt>
      <trkpt lat="44.86917" lon="5.56747">
        <ele>1013</ele>
        <time>2017-11-23T00:57:41Z</time>
      </trkpt>
      <trkpt lat="44.8692" lon="5.56795">
        <ele>1003</ele>
        <time>2017-11-23T00:58:01Z</time>
      </trkpt>
      <trkpt lat="44.86915" lon="5.56844">
        <ele>1029</ele>
        <time>2017-11-23T00:58:05Z</time>
      </trkpt>
      <trkpt lat="44.86916" lon="5.56906">
        <ele>1026</ele>
        <time>2017-11-23T00:58:11Z</time>
      </trkpt>
      <trkpt lat="44.86903" lon="5.56963">
        <ele>1025</ele>
        <time>2017-11-23T00:58:23Z</time>
      </trkpt>
      <trkpt lat="44.86887" lon="5.57002">
        <ele>1013</ele>
        <time>2017-11-23T00:58:27Z</time>
      </trkpt>
      <trkpt lat="44.86875" lon="5.5704">
        <ele>1014</ele>
        <time>2017-11-23T00:58:43Z</time>
      </trkpt>
      <trkpt lat="44.86868" lon="5.5706">
        <ele>1014</ele>
        <time>2017-11-23T00:58:54Z</time>
      </trkpt>
      <trkpt lat="44.86861" lon="5.57076">
        <ele>1016</ele>
        <time>2017-11-23T00:58:58Z</time>
      </trkpt>
      <trkpt lat="44.86856" lon="5.57087">
        <ele>1008</ele>
        <time>2017-11-23T00:59:18Z</time>
      </trkpt>
      <trkpt lat="44.86856" lon="5.57092">
        <ele>1008</ele>
        <time>2017-11-23T00:59:26Z</time>
      </trkpt>
      <trkpt lat="44.8686" lon="5.571">
        <ele>1005</ele>
        <time>2017-11-23T00:59:32Z</time>
      </trkpt>
      <trkpt lat="44.86865" lon="5.571">
        <ele>1003</ele>
        <time>2017-11-23T00:59:51Z</time>
      </trkpt>
      <trkpt lat="44.8687" lon="5.57095">
        <ele>1001</ele>
        <time>2017-11-23T01:00:02Z</time>
      </trkpt>
      <trkpt lat="44.86878" lon="5.57074">
        <ele>1009</ele>
        <time>2017-11-23T01:00:21Z</time>
      </trkpt>
      <trkpt lat="44.86886" lon="5.57045">
        <ele>1010</ele>
        <time>2017-11-23T01:00:38Z</time>
      </trkpt>
      <trkpt lat="44.86895" lon="5.57022">
        <ele>1010</ele>
        <time>2017-11-23T01:00:49Z</time>
      </trkpt>
      <trkpt lat="44.86905" lon="5.57005">
        <ele>1005</ele>
        <time>2017-11-23T01:01:00Z</time>
      </trkpt>
      <trkpt lat="44.86919" lon="5.56982">
        <ele>995</ele>
        <time>2017-11-23T01:01:18Z</time>
      </trkpt>
      <trkpt lat="44.86936" lon="5.56947">
        <ele>995</ele>
        <time>2017-11-23T01:01:29Z</time>
      </trkpt>
      <trkpt lat="44.86947" lon="5.56921">
        <ele>995</ele>
        <time>2017-11-23T01:01:34Z</time>
      </trkpt>
      <trkpt lat="44.86952" lon="5.56901">
        <ele>996</ele>
        <time>2017-11-23T01:01:39Z</time>
      </trkpt>
      <trkpt lat="44.86959" lon="5.56826">
        <ele>994</ele>
        <time>2017-11-23T01:01:43Z</time>
      </trkpt>
      <trkpt lat="44.8697" lon="5.56766">
        <ele>990</ele>
        <time>2017-11-23T01:01:56Z</time>
      </trkpt>
      <trkpt lat="44.86978" lon="5.56716">
        <ele>991</ele>
        <time>2017-11-23T01:02:08Z</time>
      </trkpt>
      <trkpt lat="44.86987" lon="5.56701">
        <ele>991</ele>
        <time>2017-11-23T01:02:19Z</time>
      </trkpt>
      <trkpt lat="44.87" lon="5.56685">
        <ele>990</ele>
        <time>2017-11-23T01:02:33Z</time>
      </trkpt>
      <trkpt lat="44.87007" lon="5.56685">
        <ele>991</ele>
        <time>2017-11-23T01:02:43Z</time>
      </trkpt>
      <trkpt lat="44.87015" lon="5.56692">
        <ele>992</ele>
        <time>2017-11-23T01:02:54Z</time>
      </trkpt>
      <trkpt lat="44.87027" lon="5.56712">
        <ele>992</ele>
        <time>2017-11-23T01:02:58Z</time>
      </trkpt>
      <trkpt lat="44.87045" lon="5.56741">
        <ele>992</ele>
        <time>2017-11-23T01:03:09Z</time>
      </trkpt>
      <trkpt lat="44.87054" lon="5.56764">
        <ele>986</ele>
        <time>2017-11-23T01:03:28Z</time>
      </trkpt>
      <trkpt lat="44.87054" lon="5.56775">
        <ele>986</ele>
        <time>2017-11-23T01:03:46Z</time>
      </trkpt>
      <trkpt lat="44.8705" lon="5.56782">
        <ele>985</ele>
        <time>2017-11-23T01:04:04Z</time>
      </trkpt>
      <trkpt lat="44.87043" lon="5.5679">
        <ele>984</ele>
        <time>2017-11-23T01:04:21Z</time>
      </trkpt>
      <trkpt lat="44.87038" lon="5.56802">
        <ele>984</ele>
        <time>2017-11-23T01:04:37Z</time>
      </trkpt>
      <trkpt lat="44.87037" lon="5.56832">
        <ele>983</ele>
        <time>2017-11-23T01:04:39Z</time>
      </trkpt>
      <trkpt lat="44.87025" lon="5.56869">
        <ele>986</ele>
        <time>2017-11-23T01:04:46Z</time>
      </trkpt>
      <trkpt lat="44.87024" lon="5.56886">
        <ele>986</ele>
        <time>2017-11-23T01:05:04Z</time>
      </trkpt>
      <trkpt lat="44.87025" lon="5.56905">
        <ele>986</ele>
        <time>2017-11-23T01:05:06Z</time>
      </trkpt>
      <trkpt lat="44.87026" lon="5.56928">
        <ele>989</ele>
        <time>2017-11-23T01:05:12Z</time>
      </trkpt>
      <trkpt lat="44.87025" lon="5.56944">
        <ele>990</ele>
        <time>2017-11-23T01:05:23Z</time>
      </trkpt>
      <trkpt lat="44.87012" lon="5.56971">
        <ele>987</ele>
        <time>2017-11-23T01:05:30Z</time>
      </trkpt>
      <trkpt lat="44.87007" lon="5.56987">
        <ele>982</ele>
        <time>2017-11-23T01:05:33Z</time>
      </trkpt>
      <trkpt lat="44.87006" lon="5.5701">
        <ele>981</ele>
        <time>2017-11-23T01:05:37Z</time>
      </trkpt>
      <trkpt lat="44.87007" lon="5.57034">
        <ele>987</ele>
        <time>2017-11-23T01:05:44Z</time>
      </trkpt>
      <trkpt lat="44.87006" lon="5.5705">
        <ele>987</ele>
        <time>2017-11-23T01:06:01Z</time>
      </trkpt>
      <trkpt lat="44.86995" lon="5.57085">
        <ele>971</ele>
        <time>2017-11-23T01:06:04Z</time>
      </trkpt>
      <trkpt lat="44.8699" lon="5.571">
        <ele>971</ele>
        <time>2017-11-23T01:06:19Z</time>
      </trkpt>
      <trkpt lat="44.86991" lon="5.57113">
        <ele>970</ele>
        <time>2017-11-23T01:06:32Z</time>
      </trkpt>
      <trkpt lat="44.87005" lon="5.57163">
        <ele>971</ele>
        <time>2017-11-23T01:06:51Z</time>
      </trkpt>
      <trkpt lat="44.87013" lon="5.57206">
        <ele>978</ele>
        <time>2017-11-23T01:07:04Z</time>
      </trkpt>
      <trkpt lat="44.87014" lon="5.57242">
        <ele>966</ele>
        <time>2017-11-23T01:07:18Z</time>
      </trkpt>
      <trkpt lat="44.87008" lon="5.57282">
        <ele>967</ele>
        <time>2017-11-23T01:07:32Z</time>
      </trkpt>
      <trkpt lat="44.87007" lon="5.57326">
        <ele>955</ele>
        <time>2017-11-23T01:07:35Z</time>
      </trkpt>
      <trkpt lat="44.87001" lon="5.57352">
        <ele>960</ele>
        <time>2017-11-23T01:07:38Z</time>
      </trkpt>
      <trkpt lat="44.86988" lon="5.57374">
        <ele>938</ele>
        <time>2017-11-23T01:07:41Z</time>
      </trkpt>
      <trkpt lat="44.86986" lon="5.57386">
        <ele>938</ele>
        <time>2017-11-23T01:07:45Z</time>
      </trkpt>
      <trkpt lat="44.86987" lon="5.574">
        <ele>940</ele>
        <time>2017-11-23T01:07:51Z</time>
      </trkpt>
      <trkpt lat="44.86983" lon="5.57415">
        <ele>941</ele>
        <time>2017-11-23T01:08:04Z</time>
      </trkpt>
      <trkpt lat="44.86967" lon="5.57439">
        <ele>936</ele>
        <time>2017-11-23T01:08:24Z</time>
      </trkpt>
      <trkpt lat="44.86957" lon="5.57462">
        <ele>933</ele>
        <time>2017-11-23T01:08:36Z</time>
      </trkpt>
      <trkpt lat="44.86949" lon="5.57489">
        <ele>931</ele>
        <time>2017-11-23T01:08:43Z</time>
      </trkpt>
      <trkpt lat="44.86941" lon="5.57536">
        <ele>933</ele>
        <time>2017-11-23T01:08:45Z</time>
      </trkpt>
      <trkpt lat="44.86946" lon="5.5758">
        <ele>933</ele>
        <time>2017-11-23T01:09:02Z</time>
      </trkpt>
      <trkpt lat="44.86946" lon="5.57595">
        <ele>939</ele>
        <time>2017-11-23T01:09:21Z</time>
      </trkpt>
      <trkpt lat="44.86944" lon="5.57601">
        <ele>939</ele>
        <time>2017-11-23T01:09:26Z</time>
      </trkpt>
      <trkpt lat="44.86941" lon="5.57608">
        <ele>939</ele>
        <time>2017-11-23T01:09:42Z</time>
      </trkpt>
      <trkpt lat="44.86932" lon="5.57618">
        <ele>937</ele>
        <time>2017-11-23T01:09:47Z</time>
      </trkpt>
      <trkpt lat="44.86916" lon="5.57633">
        <ele>915</ele>
        <time>2017-11-23T01:09:51Z</time>
      </trkpt>
      <trkpt lat="44.86909" lon="5.57644">
        <ele>915</ele>
        <time>2017-11-23T01:10:06Z</time>
      </trkpt>
      <trkpt lat="44.86905" lon="5.57658">
        <ele>917</ele>
        <time>2017-11-23T01:10:14Z</time>
      </trkpt>
      <trkpt lat="44.86905" lon="5.57676">
        <ele>917</ele>
        <time>2017-11-23T01:10:24Z</time>
      </trkpt>
      <trkpt lat="44.86907" lon="5.57703">
        <ele>916</ele>
        <time>2017-11-23T01:10:39Z</time>
      </trkpt>
      <trkpt lat="44.86898" lon="5.57727">
        <ele>917</ele>
        <time>2017-11-23T01:10:46Z</time>
      </trkpt>
      <trkpt lat="44.86892" lon="5.57764">
        <ele>921</ele>
        <time>2017-11-23T01:11:00Z</time>
      </trkpt>
      <trkpt lat="44.86872" lon="5.5779">
        <ele>916</ele>
        <time>2017-11-23T01:11:06Z</time>
      </trkpt>
      <trkpt lat="44.86865" lon="5.57806">
        <ele>914</ele>
        <time>2017-11-23T01:11:20Z</time>
      </trkpt>
      <trkpt lat="44.86857" lon="5.57832">
        <ele>910</ele>
        <time>2017-11-23T01:11:39Z</time>
      </trkpt>
      <trkpt lat="44.86848" lon="5.57859">
        <ele>919</ele>
        <time>2017-11-23T01:11:53Z</time>
      </trkpt>
      <trkpt lat="44.86836" lon="5.57885">
        <ele>921</ele>
        <time>2017-11-23T01:12:11Z</time>
      </trkpt>
      <trkpt lat="44.86818" lon="5.57916">
        <ele>902</ele>
        <time>2017-11-23T01:12:23Z</time>
      </trkpt>
      <trkpt lat="44.86802" lon="5.57938">
        <ele>907</ele>
        <time>2017-11-23T01:12:42Z</time>
      </trkpt>
      <trkpt lat="44.86768" lon="5.57975">
        <ele>905</ele>
        <time>2017-11-23T01:12:50Z</time>
      </trkpt>
      <trkpt lat="44.86755" lon="5.57985">
        <ele>904</ele>
        <time>2017-11-23T01:12:54Z</time>
      </trkpt>
      <trkpt lat="44.86741" lon="5.57992">
        <ele>894</ele>
        <time>2017-11-23T01:13:13Z</time>
      </trkpt>
      <trkpt lat="44.86728" lon="5.57996">
        <ele>890</ele>
        <time>2017-11-23T01:13:31Z</time>
      </trkpt>
      <trkpt lat="44.86714" lon="5.58003">
        <ele>898</ele>
        <time>2017-11-23T01:13:40Z</time>
      </trkpt>
      <trkpt lat="44.86701" lon="5.58013">
        <ele>896</ele>
        <time>2017-11-23T01:13:51Z</time>
      </trkpt>
      <trkpt lat="44.86687" lon="5.5802">
        <ele>894</ele>
        <time>2017-11-23T01:13:56Z</time>
      </trkpt>
      <trkpt lat="44.86662" lon="5.58026">
        <ele>877</ele>
        <time>2017-11-23T01:13:58Z</time>
      </trkpt>
      <trkpt lat="44.86653" lon="5.58028">
        <ele>876</ele>
        <time>2017-11-23T01:14:08Z</time>
      </trkpt>
      <trkpt lat="44.86646" lon="5.58035">
        <ele>876</ele>
        <time>2017-11-23T01:14:26Z</time>
      </trkpt>
      <trkpt lat="44.86636" lon="5.5805">
        <ele>877</ele>
        <time>2017-11-23T01:14:32Z</time>
      </trkpt>
      <trkpt lat="44.86623" lon="5.58081">
        <ele>876</ele>
        <time>2017-11-23T01:14:45Z</time>
      </trkpt>
      <trkpt lat="44.86609" lon="5.58121">
        <ele>883</ele>
        <time>2017-11-23T01:15:01Z</time>
      </trkpt>
      <trkpt lat="44.86597" lon="5.58163">
        <ele>880</ele>
        <time>2017-11-23T01:15:18Z</time>
      </trkpt>
      <trkpt lat="44.8658" lon="5.58241">
        <ele>877</ele>
        <time>2017-11-23T01:15:20Z</time>
      </trkpt>
      <trkpt lat="44.86577" lon="5.58264">
        <ele>875</ele>
        <time>2017-11-23T01:15:40Z</time>
      </trkpt>
      <trkpt lat="44.86584" lon="5.58369">
        <ele>886</ele>
        <time>2017-11-23T01:15:49Z</time>
      </trkpt>
      <trkpt lat="44.86591" lon="5.58387">
        <ele>884</ele>
        <time>2017-11-23T01:16:04Z</time>
      </trkpt>
      <trkpt lat="44.86616" lon="5.58429">
        <ele>877</ele>
        <time>2017-11-23T01:16:16Z</time>
      </trkpt>
      <trkpt lat="44.86648" lon="5.5848">
        <ele>879</ele>
        <time>2017-11-23T01:16:30Z</time>
      </trkpt>
      <trkpt lat="44.86656" lon="5.58506">
        <ele>876</ele>
        <time>2017-11-23T01:16:46Z</time>
      </trkpt>
      <trkpt lat="44.8666" lon="5.58607">
        <ele>867</ele>
        <time>2017-11-23T01:16:49Z</time>
      </trkpt>
      <trkpt lat="44.86663" lon="5.58631">
        <ele>865</ele>
        <time>2017-11-23T01:16:58Z</time>
      </trkpt>
      <trkpt lat="44.86666" lon="5.58643">
        <ele>865</ele>
        <time>2017-11-23T01:17:00Z</time>
      </trkpt>
      <trkpt lat="44.86673" lon="5.58655">
        <ele>877</ele>
        <time>2017-11-23T01:17:07Z</time>
      </trkpt>
      <trkpt lat="44.86699" lon="5.58685">
        <ele>878</ele>
        <time>2017-11-23T01:17:19Z</time>
      </trkpt>
      <trkpt lat="44.8671" lon="5.58703">
        <ele>879</ele>
        <time>2017-11-23T01:17:31Z</time>
      </trkpt>
      <trkpt lat="44.8672" lon="5.58725">
        <ele>879</ele>
        <time>2017-11-23T01:17:33Z</time>
      </trkpt>
      <trkpt lat="44.86727" lon="5.58749">
        <ele>880</ele>
        <time>2017-11-23T01:17:43Z</time>
      </trkpt>
      <trkpt lat="44.86729" lon="5.58791">
        <ele>872</ele>
        <time>2017-11-23T01:17:50Z</time>
      </trkpt>
      <trkpt lat="44.86724" lon="5.58821">
        <ele>871</ele>
        <time>2017-11-23T01:18:05Z</time>
      </trkpt>
      <trkpt lat="44.86715" lon="5.58859">
        <ele>869</ele>
        <time>2017-11-23T01:18:24Z</time>
      </trkpt>
      <trkpt lat="44.867" lon="5.58908">
        <ele>868</ele>
        <time>2017-11-23T01:18:43Z</time>
      </trkpt>
      <trkpt lat="44.8669" lon="5.58922">
        <ele>870</ele>
        <time>2017-11-23T01:18:45Z</time>
      </trkpt>
      <trkpt lat="44.86676" lon="5.58935">
        <ele>869</ele>
        <time>2017-11-23T01:18:58Z</time>
      </trkpt>
      <trkpt lat="44.86665" lon="5.58946">
        <ele>854</ele>
        <time>2017-11-23T01:19:02Z</time>
      </trkpt>
      <trkpt lat="44.8666" lon="5.58961">
        <ele>854</ele>
        <time>2017-11-23T01:19:05Z</time>
      </trkpt>
      <trkpt lat="44.86659" lon="5.58997">
        <ele>864</ele>
        <time>2017-11-23T01:19:24Z</time>
      </trkpt>
      <trkpt lat="44.8666" lon="5.59051">
        <ele>859</ele>
        <time>2017-11-23T01:19:38Z</time>
      </trkpt>
      <trkpt lat="44.86662" lon="5.59071">
        <ele>864</ele>
        <time>2017-11-23T01:19:42Z</time>
      </trkpt>
      <trkpt lat="44.86671" lon="5.59101">
        <ele>879</ele>
        <time>2017-11-23T01:19:52Z</time>
      </trkpt>
      <trkpt lat="44.86684" lon="5.59165">
        <ele>876</ele>
        <time>2017-11-23T01:20:01Z</time>
      </trkpt>
      <trkpt lat="44.86693" lon="5.59216">
        <ele>872</ele>
        <time>2017-11-23T01:20:07Z</time>
      </trkpt>
      <trkpt lat="44.86697" lon="5.59229">
        <ele>872</ele>
        <time>2017-11-23T01:20:10Z</time>
      </trkpt>
      <trkpt lat="44.86702" lon="5.59237">
        <ele>872</ele>
        <time>2017-11-23T01:20:21Z</time>
      </trkpt>
      <trkpt lat="44.86712" lon="5.59244">
        <ele>874</ele>
        <time>2017-11-23T01:20:30Z</time>
      </trkpt>
      <trkpt lat="44.86746" lon="5.59259">
        <ele>876</ele>
        <time>2017-11-23T01:20:36Z</time>
      </trkpt>
      <trkpt lat="44.86794" lon="5.59279">
        <ele>886</ele>
        <time>2017-11-23T01:20:49Z</time>
      </trkpt>
      <trkpt lat="44.86803" lon="5.59291">
        <ele>886</ele>
        <time>2017-11-23T01:21:02Z</time>
      </trkpt>
      <trkpt lat="44.86832" lon="5.59358">
        <ele>884</ele>
        <time>2017-11-23T01:21:19Z</time>
      </trkpt>
      <trkpt lat="44.86835" lon="5.59378">
        <ele>895</ele>
        <time>2017-11-23T01:21:28Z</time>
      </trkpt>
      <trkpt lat="44.86834" lon="5.5939">
        <ele>895</ele>
        <time>2017-11-23T01:21:34Z</time>
      </trkpt>
      <trkpt lat="44.86821" lon="5.59413">
        <ele>886</ele>
        <time>2017-11-23T01:21:50Z</time>
      </trkpt>
      <trkpt lat="44.86812" lon="5.59431">
        <ele>884</ele>
        <time>2017-11-23T01:22:03Z</time>
      </trkpt>
      <trkpt lat="44.86811" lon="5.59439">
        <ele>883</ele>
        <time>2017-11-23T01:22:21Z</time>
      </trkpt>
      <trkpt lat="44.86823" lon="5.59464">
        <ele>883</ele>
        <time>2017-11-23T01:22:38Z</time>
      </trkpt>
      <trkpt lat="44.86826" lon="5.59467">
        <ele>883</ele>
        <time>2017-11-23T01:22:47Z</time>
      </trkpt>
      <trkpt lat="44.8683" lon="5.59468">
        <ele>884</ele>
        <time>2017-11-23T01:22:56Z</time>
      </trkpt>
      <trkpt lat="44.86847" lon="5.59457">
        <ele>892</ele>
        <time>2017-11-23T01:23:05Z</time>
      </trkpt>
      <trkpt lat="44.86861" lon="5.59454">
        <ele>893</ele>
        <time>2017-11-23T01:23:18Z</time>
      </trkpt>
      <trkpt lat="44.86871" lon="5.59455">
        <ele>893</ele>
        <time>2017-11-23T01:23:36Z</time>
      </trkpt>
      <trkpt lat="44.86888" lon="5.59462">
        <ele>894</ele>
        <time>2017-11-23T01:23:54Z</time>
      </trkpt>
      <trkpt lat="44.86903" lon="5.59468">
        <ele>894</ele>
        <time>2017-11-23T01:24:05Z</time>
      </trkpt>
      <trkpt lat="44.86906" lon="5.5947">
        <ele>894</ele>
        <time>2017-11-23T01:24:25Z</time>
      </trkpt>
      <trkpt lat="44.86913" lon="5.59481">
        <ele>894</ele>
        <time>2017-11-23T01:24:37Z</time>
      </trkpt>
      <trkpt lat="44.86919" lon="5.59499">
        <ele>894</ele>
        <time>2017-11-23T01:24:55Z</time>
      </trkpt>
      <trkpt lat="44.86929" lon="5.59532">
        <ele>891</ele>
        <time>2017-11-23T01:25:10Z</time>
      </trkpt>
      <trkpt lat="44.8695" lon="5.59577">
        <ele>889</ele>
        <time>2017-11-23T01:25:20Z</time>
      </trkpt>
      <trkpt lat="44.86981" lon="5.59617">
        <ele>882</ele>
        <time>2017-11-23T01:25:33Z</time>
      </trkpt>
      <trkpt lat="44.86995" lon="5.59637">
        <ele>882</ele>
        <time>2017-11-23T01:25:49Z</time>
      </trkpt>
      <trkpt lat="44.87003" lon="5.59658">
        <ele>887</ele>
        <time>2017-11-23T01:26:08Z</time>
      </trkpt>
      <trkpt lat="44.8701" lon="5.59677">
        <ele>887</ele>
        <time>2017-11-23T01:26:24Z</time>
      </trkpt>
      <trkpt lat="44.8698" lon="5.59698">
        <ele>875</ele>
        <time>2017-11-23T01:26:36Z</time>
      </trkpt>
      <trkpt lat="44.86953" lon="5.59726">
        <ele>871</ele>
        <time>2017-11-23T01:26:55Z</time>
      </trkpt>
      <trkpt lat="44.86946" lon="5.59738">
        <ele>869</ele>
        <time>2017-11-23T01:27:02Z</time>
      </trkpt>
      <trkpt lat="44.86943" lon="5.59752">
        <ele>866</ele>
        <time>2017-11-23T01:27:19Z</time>
      </trkpt>
      <trkpt lat="44.86941" lon="5.59805">
        <ele>866</ele>
        <time>2017-11-23T01:27:33Z</time>
      </trkpt>
      <trkpt lat="44.8694" lon="5.59877">
        <ele>862</ele>
        <time>2017-11-23T01:27:40Z</time>
      </trkpt>
      <trkpt lat="44.86927" lon="5.59936">
        <ele>854</ele>
        <time>2017-11-23T01:28:00Z</time>
      </trkpt>
      <trkpt lat="44.86898" lon="5.60008">
        <ele>842</ele>
        <time>2017-11-23T01:28:05Z</time>
      </trkpt>
      <trkpt lat="44.86868" lon="5.60073">
        <ele>838</ele>
        <time>2017-11-23T01:28:23Z</time>
      </trkpt>
      <trkpt lat="44.86856" lon="5.60101">
        <ele>836</ele>
        <time>2017-11-23T01:28:43Z</time>
      </trkpt>
      <trkpt lat="44.86851" lon="5.60119">
        <ele>836</ele>
        <time>2017-11-23T01:28:58Z</time>
      </trkpt>
      <trkpt lat="44.86844" lon="5.6017">
        <ele>833</ele>
        <time>2017-11-23T01:29:04Z</time>
      </trkpt>
      <trkpt lat="44.86839" lon="5.60189">
        <ele>836</ele>
        <time>2017-11-23T01:29:22Z</time>
      </trkpt>
      <trkpt lat="44.86833" lon="5.60198">
        <ele>824</ele>
        <time>2017-11-23T01:29:36Z</time>
      </trkpt>
      <trkpt lat="44.86812" lon="5.60211">
        <ele>823</ele>
        <time>2017-11-23T01:29:38Z</time>
      </trkpt>
      <trkpt lat="44.86782" lon="5.60237">
        <ele>819</ele>
        <time>2017-11-23T01:29:49Z</time>
      </trkpt>
      <trkpt lat="44.86764" lon="5.60254">
        <ele>816</ele>
        <time>2017-11-23T01:30:05Z</time>
      </trkpt>
      <trkpt lat="44.86751" lon="5.60274">
        <ele>817</ele>
        <time>2017-11-23T01:30:18Z</time>
      </trkpt>
      <trkpt lat="44.86743" lon="5.60296">
        <ele>806</ele>
        <time>2017-11-23T01:30:27Z</time>
      </trkpt>
      <trkpt lat="44.86737" lon="5.60321">
        <ele>807</ele>
        <time>2017-11-23T01:30:35Z</time>
      </trkpt>
      <trkpt lat="44.86735" lon="5.6035">
        <ele>809</ele>
        <time>2017-11-23T01:30:54Z</time>
      </trkpt>
      <trkpt lat="44.86738" lon="5.60381">
        <ele>809</ele>
        <time>2017-11-23T01:30:58Z</time>
      </trkpt>
      <trkpt lat="44.86741" lon="5.60402">
        <ele>809</ele>
        <time>2017-11-23T01:31:04Z</time>
      </trkpt>
      <trkpt lat="44.86737" lon="5.60409">
        <ele>809</ele>
        <time>2017-11-23T01:31:18Z</time>
      </trkpt>
      <trkpt lat="44.86735" lon="5.60429">
        <ele>810</ele>
        <time>2017-11-23T01:31:25Z</time>
      </trkpt>
      <trkpt lat="44.86742" lon="5.60491">
        <ele>809</ele>
        <time>2017-11-23T01:31:37Z</time>
      </trkpt>
      <trkpt lat="44.86744" lon="5.60509">
        <ele>807</ele>
        <time>2017-11-23T01:31:40Z</time>
      </trkpt>
      <trkpt lat="44.86735" lon="5.60417">
        <ele>810</ele>
        <time>2017-11-23T01:31:48Z</time>
      </trkpt>
      <trkpt lat="44.86741" lon="5.60402">
        <ele>809</ele>
        <time>2017-11-23T01:32:05Z</time>
      </trkpt>
      <trkpt lat="44.86751" lon="5.60469">
        <ele>812</ele>
        <time>2017-11-23T01:32:15Z</time>
      </trkpt>
      <trkpt lat="44.86762" lon="5.60551">
        <ele>810</ele>
        <time>2017-11-23T01:32:28Z</time>
      </trkpt>
      <trkpt lat="44.86762" lon="5.60573">
        <ele>808</ele>
        <time>2017-11-23T01:32:34Z</time>
      </trkpt>
      <trkpt lat="44.8676" lon="5.60577">
        <ele>808</ele>
        <time>2017-11-23T01:32:48Z</time>
      </trkpt>
      <trkpt lat="44.86754" lon="5.60582">
        <ele>806</ele>
        <time>2017-11-23T01:33:03Z</time>
      </trkpt>
      <trkpt lat="44.86753" lon="5.60578">
        <ele>806</ele>
        <time>2017-11-23T01:33:22Z</time>
      </trkpt>
      <trkpt lat="44.86743" lon="5.60554">
        <ele>806</ele>
        <time>2017-11-23T01:33:32Z</time>
      </trkpt>
      <trkpt lat="44.86725" lon="5.60509">
        <ele>807</ele>
        <time>2017-11-23T01:33:39Z</time>
      </trkpt>
      <trkpt lat="44.86711" lon="5.60475">
        <ele>810</ele>
        <time>2017-11-23T01:33:51Z</time>
      </trkpt>
      <trkpt lat="44.86701" lon="5.60445">
        <ele>810</ele>
        <time>2017-11-23T01:33:55Z</time>
      </trkpt>
      <trkpt lat="44.86694" lon="5.60411">
        <ele>809</ele>
        <time>2017-11-23T01:34:13Z</time>
      </trkpt>
      <trkpt lat="44.8669" lon="5.6037">
        <ele>807</ele>
        <time>2017-11-23T01:34:29Z</time>
      </trkpt>
      <trkpt lat="44.86691" lon="5.60283">
        <ele>800</ele>
        <time>2017-11-23T01:34:31Z</time>
      </trkpt>
      <trkpt lat="44.86696" lon="5.60185">
        <ele>794</ele>
        <time>2017-11-23T01:34:37Z</time>
      </trkpt>
      <trkpt lat="44.8669" lon="5.60116">
        <ele>796</ele>
        <time>2017-11-23T01:34:46Z</time>
      </trkpt>
      <trkpt lat="44.86673" lon="5.60043">
        <ele>800</ele>
        <time>2017-11-23T01:34:57Z</time>
      </trkpt>
      <trkpt lat="44.86661" lon="5.60008">
        <ele>788</ele>
        <time>2017-11-23T01:35:10Z</time>
      </trkpt>
      <trkpt lat="44.86638" lon="5.59964">
        <ele>782</ele>
        <time>2017-11-23T01:35:21Z</time>
      </trkpt>
      <trkpt lat="44.86617" lon="5.59935">
        <ele>778</ele>
        <time>2017-11-23T01:35:26Z</time>
      </trkpt>
      <trkpt lat="44.86582" lon="5.59898">
        <ele>767</ele>
        <time>2017-11-23T01:35:36Z</time>
      </trkpt>
      <trkpt lat="44.8654" lon="5.59872">
        <ele>765</ele>
        <time>2017-11-23T01:35:54Z</time>
      </trkpt>
      <trkpt lat="44.865" lon="5.59858">
        <ele>767</ele>
        <time>2017-11-23T01:36:06Z</time>
      </trkpt>
      <trkpt lat="44.86469" lon="5.59853">
        <ele>774</ele>
        <time>2017-11-23T01:36:19Z</time>
      </trkpt>
      <trkpt lat="44.86431" lon="5.59856">
        <ele>780</ele>
        <time>2017-11-23T01:36:32Z</time>
      </trkpt>
      <trkpt lat="44.86397" lon="5.59866">
        <ele>787</ele>
        <time>2017-11-23T01:36:42Z</time>
      </trkpt>
      <trkpt lat="44.86369" lon="5.59879">
        <ele>787</ele>
        <time>2017-11-23T01:36:52Z</time>
      </trkpt>
      <trkpt lat="44.86345" lon="5.59894">
        <ele>785</ele>
        <time>2017-11-23T01:37:03Z</time>
      </trkpt>
      <trkpt lat="44.86323" lon="5.5991">
        <ele>789</ele>
        <time>2017-11-23T01:37:11Z</time>
      </trkpt>
      <trkpt lat="44.86296" lon="5.59936">
        <ele>787</ele>
        <time>2017-11-23T01:37:23Z</time>
      </trkpt>
      <trkpt lat="44.8625" lon="5.59995">
        <ele>794</ele>
        <time>2017-11-23T01:37:26Z</time>
      </trkpt>
      <trkpt lat="44.86214" lon="5.60064">
        <ele>802</ele>
        <time>2017-11-23T01:37:41Z</time>
      </trkpt>
      <trkpt lat="44.8617" lon="5.60176">
        <ele>799</ele>
        <time>2017-11-23T01:38:01Z</time>
      </trkpt>
      <trkpt lat="44.86069" lon="5.60436">
        <ele>801</ele>
        <time>2017-11-23T01:38:12Z</time>
      </trkpt>
      <trkpt lat="44.85982" lon="5.60665">
        <ele>799</ele>
        <time>2017-11-23T01:38:27Z</time>
      </trkpt>
      <trkpt lat="44.85967" lon="5.60703">
        <ele>796</ele>
        <time>2017-11-23T01:38:37Z</time>
      </trkpt>
      <trkpt lat="44.85944" lon="5.60748">
        <ele>796</ele>
        <time>2017-11-23T01:38:52Z</time>
      </trkpt>
      <trkpt lat="44.85893" lon="5.6084">
        <ele>793</ele>
        <time>2017-11-23T01:39:08Z</time>
      </trkpt>
      <trkpt lat="44.85866" lon="5.60878">
        <ele>793</ele>
        <time>2017-11-23T01:39:24Z</time>
      </trkpt>
      <trkpt lat="44.85806" lon="5.60954">
        <ele>788</ele>
        <time>2017-11-23T01:39:42Z</time>
      </trkpt>
      <trkpt lat="44.85707" lon="5.61063">
        <ele>788</ele>
        <time>2017-11-23T01:39:52Z</time>
      </trkpt>
      <trkpt lat="44.85661" lon="5.61118">
        <ele>790</ele>
        <time>2017-11-23T01:39:57Z</time>
      </trkpt>
      <trkpt lat="44.85629" lon="5.61172">
        <ele>782</ele>
        <time>2017-11-23T01:40:10Z</time>
      </trkpt>
      <trkpt lat="44.85537" lon="5.61371">
        <ele>775</ele>
        <time>2017-11-23T01:40:14Z</time>
      </trkpt>
      <trkpt lat="44.85464" lon="5.61533">
        <ele>760</ele>
        <time>2017-11-23T01:40:34Z</time>
      </trkpt>
      <trkpt lat="44.85414" lon="5.6164">
        <ele>758</ele>
        <time>2017-11-23T01:40:41Z</time>
      </trkpt>
      <trkpt lat="44.85386" lon="5.61723">
        <ele>755</ele>
        <time>2017-11-23T01:40:56Z</time>
      </trkpt>
      <trkpt lat="44.85347" lon="5.61851">
        <ele>751</ele>
        <time>2017-11-23T01:41:13Z</time>
      </trkpt>
      <trkpt lat="44.85338" lon="5.61878">
        <ele>750</ele>
        <time>2017-11-23T01:41:26Z</time>
      </trkpt>
      <trkpt lat="44.85327" lon="5.61901">
        <ele>752</ele>
        <time>2017-11-23T01:41:38Z</time>
      </trkpt>
      <trkpt lat="44.85306" lon="5.61945">
        <ele>750</ele>
        <time>2017-11-23T01:41:51Z</time>
      </trkpt>
      <trkpt lat="44.85282" lon="5.61985">
        <ele>749</ele>
        <time>2017-11-23T01:41:57Z</time>
      </trkpt>
      <trkpt lat="44.85277" lon="5.61987">
        <ele>749</ele>
        <time>2017-11-23T01:42:02Z</time>
      </trkpt>
      <trkpt lat="44.85265" lon="5.62003">
        <ele>747</ele>
        <time>2017-11-23T01:42:07Z</time>
      </trkpt>
      <trkpt lat="44.85244" lon="5.62022">
        <ele>747</ele>
        <time>2017-11-23T01:42:14Z</time>
      </trkpt>
      <trkpt lat="44.85214" lon="5.62043">
        <ele>746</ele>
        <time>2017-11-23T01:42:27Z</time>
      </trkpt>
      <trkpt lat="44.85181" lon="5.62062">
        <ele>746</ele>
        <time>2017-11-23T01:42:34Z</time>
      </trkpt>
      <trkpt lat="44.85152" lon="5.62072">
        <ele>748</ele>
        <time>2017-11-23T01:42:52Z</time>
      </trkpt>
      <trkpt lat="44.85122" lon="5.6208">
        <ele>750</ele>
        <time>2017-11-23T01:43:08Z</time>
      </trkpt>
      <trkpt lat="44.8511" lon="5.62082">
        <ele>750</ele>
        <time>2017-11-23T01:43:10Z</time>
      </trkpt>
      <trkpt lat="44.85073" lon="5.62082">
        <ele>753</ele>
        <time>2017-11-23T01:43:14Z</time>
      </trkpt>
      <trkpt lat="44.85064" lon="5.62084">
        <ele>750</ele>
        <time>2017-11-23T01:43:26Z</time>
      </trkpt>
      <trkpt lat="44.85038" lon="5.62075">
        <ele>755</ele>
        <time>2017-11-23T01:43:42Z</time>
      </trkpt>
      <trkpt lat="44.85012" lon="5.62065">
        <ele>756</ele>
        <time>2017-11-23T01:44:01Z</time>
      </trkpt>
      <trkpt lat="44.84981" lon="5.62047">
        <ele>753</ele>
        <time>2017-11-23T01:44:09Z</time>
      </trkpt>
      <trkpt lat="44.84951" lon="5.62025">
        <ele>751</ele>
        <time>2017-11-23T01:44:16Z</time>
      </trkpt>
      <trkpt lat="44.84924" lon="5.61995">
        <ele>753</ele>
        <time>2017-11-23T01:44:32Z</time>
      </trkpt>
      <trkpt lat="44.84868" lon="5.61914">
        <ele>754</ele>
        <time>2017-11-23T01:44:44Z</time>
      </trkpt>
      <trkpt lat="44.84849" lon="5.61891">
        <ele>753</ele>
        <time>2017-11-23T01:44:58Z</time>
      </trkpt>
      <trkpt lat="44.84826" lon="5.6187">
        <ele>747</ele>
        <time>2017-11-23T01:45:03Z</time>
      </trkpt>
      <trkpt lat="44.84805" lon="5.61857">
        <ele>747</ele>
        <time>2017-11-23T01:45:10Z</time>
      </trkpt>
      <trkpt lat="44.84778" lon="5.61846">
        <ele>746</ele>
        <time>2017-11-23T01:45:20Z</time>
      </trkpt>
      <trkpt lat="44.8475" lon="5.6184">
        <ele>747</ele>
        <time>2017-11-23T01:45:25Z</time>
      </trkpt>
      <trkpt lat="44.84725" lon="5.61839">
        <ele>747</ele>
        <time>2017-11-23T01:45:37Z</time>
      </trkpt>
      <trkpt lat="44.84667" lon="5.61853">
        <ele>753</ele>
        <time>2017-11-23T01:45:47Z</time>
      </trkpt>
      <trkpt lat="44.84638" lon="5.61856">
        <ele>753</ele>
        <time>2017-11-23T01:45:51Z</time>
      </trkpt>
      <trkpt lat="44.84607" lon="5.61853">
        <ele>754</ele>
        <time>2017-11-23T01:46:06Z</time>
      </trkpt>
      <trkpt lat="44.84578" lon="5.61843">
        <ele>756</ele>
        <time>2017-11-23T01:46:08Z</time>
      </trkpt>
      <trkpt lat="44.8455" lon="5.61829">
        <ele>764</ele>
        <time>2017-11-23T01:46:18Z</time>
      </trkpt>
      <trkpt lat="44.84498" lon="5.61783">
        <ele>756</ele>
        <time>2017-11-23T01:46:24Z</time>
      </trkpt>
      <trkpt lat="44.84469" lon="5.61759">
        <ele>757</ele>
        <time>2017-11-23T01:46:37Z</time>
      </trkpt>
      <trkpt lat="44.84456" lon="5.61751">
        <ele>756</ele>
        <time>2017-11-23T01:46:55Z</time>
      </trkpt>
      <trkpt lat="44.84433" lon="5.61742">
        <ele>765</ele>
        <time>2017-11-23T01:47:01Z</time>
      </trkpt>
      <trkpt lat="44.8441" lon="5.61739">
        <ele>762</ele>
        <time>2017-11-23T01:47:12Z</time>
      </trkpt>
      <trkpt lat="44.84402" lon="5.61738">
        <ele>764</ele>
        <time>2017-11-23T01:47:24Z</time>
      </trkpt>
      <trkpt lat="44.84392" lon="5.6174">
        <ele>766</ele>
        <time>2017-11-23T01:47:31Z</time>
      </trkpt>
      <trkpt lat="44.84376" lon="5.61745">
        <ele>767</ele>
        <time>2017-11-23T01:47:49Z</time>
      </trkpt>
      <trkpt lat="44.8436" lon="5.61756">
        <ele>756</ele>
        <time>2017-11-23T01:47:51Z</time>
      </trkpt>
      <trkpt lat="44.84314" lon="5.61789">
        <ele>760</ele>
        <time>2017-11-23T01:47:56Z</time>
      </trkpt>
      <trkpt lat="44.84286" lon="5.61806">
        <ele>759</ele>
        <time>2017-11-23T01:48:13Z</time>
      </trkpt>
      <trkpt lat="44.84262" lon="5.61814">
        <ele>759</ele>
        <time>2017-11-23T01:48:24Z</time>
      </trkpt>
      <trkpt lat="44.84237" lon="5.61816">
        <ele>760</ele>
        <time>2017-11-23T01:48:35Z</time>
      </trkpt>
      <trkpt lat="44.84215" lon="5.61812">
        <ele>760</ele>
        <time>2017-11-23T01:48:39Z</time>
      </trkpt>
      <trkpt lat="44.84195" lon="5.61803">
        <ele>759</ele>
        <time>2017-11-23T01:48:57Z</time>
      </trkpt>
      <trkpt lat="44.84176" lon="5.61788">
        <ele>761</ele>
        <time>2017-11-23T01:49:07Z</time>
      </trkpt>
      <trkpt lat="44.84157" lon="5.61769">
        <ele>753</ele>
        <time>2017-11-23T01:49:12Z</time>
      </trkpt>
      <trkpt lat="44.84138" lon="5.61739">
        <ele>761</ele>
        <time>2017-11-23T01:49:27Z</time>
      </trkpt>
      <trkpt lat="44.84118" lon="5.61703">
        <ele>760</ele>
        <time>2017-11-23T01:49:30Z</time>
      </trkpt>
      <trkpt lat="44.84078" lon="5.61622">
        <ele>755</ele>
        <time>2017-11-23T01:49:39Z</time>
      </trkpt>
      <trkpt lat="44.84059" lon="5.61583">
        <ele>765</ele>
        <time>2017-11-23T01:49:53Z</time>
      </trkpt>
      <trkpt lat="44.84045" lon="5.61537">
        <ele>762</ele>
        <time>2017-11-23T01:50:04Z</time>
      </trkpt>
      <trkpt lat="44.84036" lon="5.61495">
        <ele>766</ele>
        <time>2017-11-23T01:50:19Z</time>
      </trkpt>
      <trkpt lat="44.84023" lon="5.61373">
        <ele>768</ele>
        <time>2017-11-23T01:50:30Z</time>
      </trkpt>
      <trkpt lat="44.84016" lon="5.61336">
        <ele>766</ele>
        <time>2017-11-23T01:50:41Z</time>
      </trkpt>
      <trkpt lat="44.84004" lon="5.61295">
        <ele>770</ele>
        <time>2017-11-23T01:50:43Z</time>
      </trkpt>
      <trkpt lat="44.83988" lon="5.61248">
        <ele>764</ele>
        <time>2017-11-23T01:50:47Z</time>
      </trkpt>
      <trkpt lat="44.83971" lon="5.61212">
        <ele>763</ele>
        <time>2017-11-23T01:51:00Z</time>
      </trkpt>
      <trkpt lat="44.83946" lon="5.61168">
        <ele>763</ele>
        <time>2017-11-23T01:51:17Z</time>
      </trkpt>
      <trkpt lat="44.83895" lon="5.61104">
        <ele>765</ele>
        <time>2017-11-23T01:51:24Z</time>
      </trkpt>
      <trkpt lat="44.83829" lon="5.61023">
        <ele>763</ele>
        <time>2017-11-23T01:51:37Z</time>
      </trkpt>
      <trkpt lat="44.83811" lon="5.61">
        <ele>763</ele>
        <time>2017-11-23T01:51:42Z</time>
      </trkpt>
      <trkpt lat="44.83796" lon="5.60974">
        <ele>769</ele>
        <time>2017-11-23T01:51:48Z</time>
      </trkpt>
      <trkpt lat="44.83784" lon="5.60949">
        <ele>769</ele>
        <time>2017-11-23T01:52:01Z</time>
      </trkpt>
      <trkpt lat="44.83776" lon="5.60927">
        <ele>769</ele>
        <time>2017-11-23T01:52:04Z</time>
      </trkpt>
      <trkpt lat="44.83767" lon="5.60896">
        <ele>777</ele>
        <time>2017-11-23T01:52:09Z</time>
      </trkpt>
      <trkpt lat="44.8376" lon="5.60849">
        <ele>779</ele>
        <time>2017-11-23T01:52:17Z</time>
      </trkpt>
      <trkpt lat="44.83753" lon="5.60779">
        <ele>788</ele>
        <time>2017-11-23T01:52:26Z</time>
      </trkpt>
      <trkpt lat="44.83747" lon="5.60748">
        <ele>779</ele>
        <time>2017-11-23T01:52:28Z</time>
      </trkpt>
      <trkpt lat="44.83736" lon="5.60713">
        <ele>777</ele>
        <time>2017-11-23T01:52:34Z</time>
      </trkpt>
      <trkpt lat="44.83722" lon="5.60684">
        <ele>780</ele>
        <time>2017-11-23T01:52:46Z</time>
      </trkpt>
      <trkpt lat="44.83702" lon="5.60656">
        <ele>786</ele>
        <time>2017-11-23T01:52:55Z</time>
      </trkpt>
      <trkpt lat="44.83652" lon="5.60589">
        <ele>774</ele>
        <time>2017-11-23T01:53:12Z</time>
      </trkpt>
      <trkpt lat="44.83623" lon="5.60538">
        <ele>775</ele>
        <time>2017-11-23T01:53:17Z</time>
      </trkpt>
      <trkpt lat="44.8361" lon="5.60504">
        <ele>775</ele>
        <time>2017-11-23T01:53:37Z</time>
      </trkpt>
      <trkpt lat="44.83598" lon="5.60465">
        <ele>781</ele>
        <time>2017-11-23T01:53:42Z</time>
      </trkpt>
      <trkpt lat="44.83588" lon="5.60422">
        <ele>783</ele>
        <time>2017-11-23T01:53:59Z</time>
      </trkpt>
      <trkpt lat="44.83582" lon="5.60376">
        <ele>778</ele>
        <time>2017-11-23T01:54:08Z</time>
      </trkpt>
      <trkpt lat="44.83579" lon="5.60333">
        <ele>783</ele>
        <time>2017-11-23T01:54:22Z</time>
      </trkpt>
      <trkpt lat="44.83576" lon="5.60268">
        <ele>777</ele>
        <time>2017-11-23T01:54:36Z</time>
      </trkpt>
      <trkpt lat="44.83573" lon="5.60236">
        <ele>777</ele>
        <time>2017-11-23T01:54:52Z</time>
      </trkpt>
      <trkpt lat="44.83565" lon="5.60193">
        <ele>775</ele>
        <time>2017-11-23T01:55:11Z</time>
      </trkpt>
      <trkpt lat="44.83554" lon="5.60157">
        <ele>780</ele>
        <time>2017-11-23T01:55:28Z</time>
      </trkpt>
      <trkpt lat="44.8354" lon="5.60122">
        <ele>781</ele>
        <time>2017-11-23T01:55:30Z</time>
      </trkpt>
      <trkpt lat="44.83526" lon="5.60095">
        <ele>781</ele>
        <time>2017-11-23T01:55:32Z</time>
      </trkpt>
      <trkpt lat="44.83501" lon="5.60059">
        <ele>793</ele>
        <time>2017-11-23T01:55:47Z</time>
      </trkpt>
      <trkpt lat="44.83433" lon="5.59973">
        <ele>793</ele>
        <time>2017-11-23T01:56:04Z</time>
      </trkpt>
      <trkpt lat="44.83394" lon="5.59912">
        <ele>795</ele>
        <time>2017-11-23T01:56:15Z</time>
      </trkpt>
      <trkpt lat="44.83379" lon="5.59886">
        <ele>795</ele>
        <time>2017-11-23T01:56:20Z</time>
      </trkpt>
      <trkpt lat="44.83357" lon="5.5986">
        <ele>795</ele>
        <time>2017-11-23T01:56:32Z</time>
      </trkpt>
      <trkpt lat="44.83312" lon="5.59822">
        <ele>795</ele>
        <time>2017-11-23T01:56:46Z</time>
      </trkpt>
      <trkpt lat="44.83288" lon="5.59796">
        <ele>795</ele>
        <time>2017-11-23T01:56:48Z</time>
      </trkpt>
      <trkpt lat="44.83268" lon="5.59776">
        <ele>795</ele>
        <time>2017-11-23T01:57:08Z</time>
      </trkpt>
      <trkpt lat="44.83261" lon="5.59771">
        <ele>795</ele>
        <time>2017-11-23T01:57:23Z</time>
      </trkpt>
      <trkpt lat="44.83251" lon="5.59768">
        <ele>794</ele>
        <time>2017-11-23T01:57:32Z</time>
      </trkpt>
      <trkpt lat="44.83233" lon="5.59768">
        <ele>793</ele>
        <time>2017-11-23T01:57:46Z</time>
      </trkpt>
      <trkpt lat="44.83215" lon="5.59774">
        <ele>793</ele>
        <time>2017-11-23T01:57:54Z</time>
      </trkpt>
      <trkpt lat="44.83201" lon="5.59785">
        <ele>794</ele>
        <time>2017-11-23T01:57:56Z</time>
      </trkpt>
      <trkpt lat="44.83195" lon="5.59793">
        <ele>795</ele>
        <time>2017-11-23T01:58:07Z</time>
      </trkpt>
      <trkpt lat="44.83184" lon="5.59813">
        <ele>796</ele>
        <time>2017-11-23T01:58:19Z</time>
      </trkpt>
      <trkpt lat="44.83179" lon="5.59835">
        <ele>800</ele>
        <time>2017-11-23T01:58:39Z</time>
      </trkpt>
      <trkpt lat="44.83177" lon="5.59858">
        <ele>798</ele>
        <time>2017-11-23T01:58:55Z</time>
      </trkpt>
      <trkpt lat="44.8318" lon="5.59881">
        <ele>799</ele>
        <time>2017-11-23T01:59:13Z</time>
      </trkpt>
      <trkpt lat="44.83186" lon="5.59903">
        <ele>801</ele>
        <time>2017-11-23T01:59:15Z</time>
      </trkpt>
      <trkpt lat="44.83203" lon="5.59935">
        <ele>803</ele>
        <time>2017-11-23T01:59:20Z</time>
      </trkpt>
      <trkpt lat="44.83221" lon="5.59961">
        <ele>802</ele>
        <time>2017-11-23T01:59:31Z</time>
      </trkpt>
      <trkpt lat="44.8324" lon="5.59979">
        <ele>803</ele>
        <time>2017-11-23T01:59:40Z</time>
      </trkpt>
      <trkpt lat="44.83259" lon="5.59994">
        <ele>796</ele>
        <time>2017-11-23T01:59:59Z</time>
      </trkpt>
      <trkpt lat="44.83274" lon="5.60014">
        <ele>798</ele>
        <time>2017-11-23T02:00:15Z</time>
      </trkpt>
      <trkpt lat="44.83285" lon="5.60042">
        <ele>797</ele>
        <time>2017-11-23T02:00:22Z</time>
      </trkpt>
      <trkpt lat="44.83298" lon="5.60096">
        <ele>802</ele>
        <time>2017-11-23T02:00:34Z</time>
      </trkpt>
      <trkpt lat="44.83304" lon="5.60127">
        <ele>803</ele>
        <time>2017-11-23T02:00:40Z</time>
      </trkpt>
      <trkpt lat="44.83305" lon="5.60156">
        <ele>803</ele>
        <time>2017-11-23T02:00:53Z</time>
      </trkpt>
      <trkpt lat="44.833" lon="5.60206">
        <ele>808</ele>
        <time>2017-11-23T02:01:03Z</time>
      </trkpt>
      <trkpt lat="44.83293" lon="5.60248">
        <ele>809</ele>
        <time>2017-11-23T02:01:20Z</time>
      </trkpt>
      <trkpt lat="44.83284" lon="5.60282">
        <ele>809</ele>
        <time>2017-11-23T02:01:35Z</time>
      </trkpt>
      <trkpt lat="44.83264" lon="5.60333">
        <ele>816</ele>
        <time>2017-11-23T02:01:55Z</time>
      </trkpt>
      <trkpt lat="44.83251" lon="5.6037">
        <ele>808</ele>
        <time>2017-11-23T02:02:09Z</time>
      </trkpt>
      <trkpt lat="44.83243" lon="5.60404">
        <ele>824</ele>
        <time>2017-11-23T02:02:28Z</time>
      </trkpt>
      <trkpt lat="44.83236" lon="5.60441">
        <ele>824</ele>
        <time>2017-11-23T02:02:36Z</time>
      </trkpt>
      <trkpt lat="44.83234" lon="5.60474">
        <ele>823</ele>
        <time>2017-11-23T02:02:55Z</time>
      </trkpt>
      <trkpt lat="44.83236" lon="5.60557">
        <ele>823</ele>
        <time>2017-11-23T02:03:04Z</time>
      </trkpt>
      <trkpt lat="44.83232" lon="5.60669">
        <ele>824</ele>
        <time>2017-11-23T02:03:24Z</time>
      </trkpt>
      <trkpt lat="44.83226" lon="5.60693">
        <ele>825</ele>
        <time>2017-11-23T02:03:36Z</time>
      </trkpt>
      <trkpt lat="44.8322" lon="5.60704">
        <ele>826</ele>
        <time>2017-11-23T02:03:46Z</time>
      </trkpt>
      <trkpt lat="44.83208" lon="5.60716">
        <ele>827</ele>
        <time>2017-11-23T02:03:48Z</time>
      </trkpt>
      <trkpt lat="44.83193" lon="5.60727">
        <ele>827</ele>
        <time>2017-11-23T02:03:55Z</time>
      </trkpt>
      <trkpt lat="44.83181" lon="5.6073">
        <ele>828</ele>
        <time>2017-11-23T02:04:07Z</time>
      </trkpt>
      <trkpt lat="44.83166" lon="5.60731">
        <ele>830</ele>
        <time>2017-11-23T02:04:14Z</time>
      </trkpt>
      <trkpt lat="44.8314" lon="5.60727">
        <ele>830</ele>
        <time>2017-11-23T02:04:24Z</time>
      </trkpt>
      <trkpt lat="44.83078" lon="5.60719">
        <ele>831</ele>
        <time>2017-11-23T02:04:43Z</time>
      </trkpt>
      <trkpt lat="44.83045" lon="5.60717">
        <ele>831</ele>
        <time>2017-11-23T02:04:49Z</time>
      </trkpt>
      <trkpt lat="44.83027" lon="5.60718">
        <ele>831</ele>
        <time>2017-11-23T02:05:04Z</time>
      </trkpt>
      <trkpt lat="44.82983" lon="5.60728">
        <ele>829</ele>
        <time>2017-11-23T02:05:09Z</time>
      </trkpt>
      <trkpt lat="44.82944" lon="5.60741">
        <ele>829</ele>
        <time>2017-11-23T02:05:23Z</time>
      </trkpt>
      <trkpt lat="44.82923" lon="5.60752">
        <ele>827</ele>
        <time>2017-11-23T02:05:31Z</time>
      </trkpt>
      <trkpt lat="44.82887" lon="5.60775">
        <ele>825</ele>
        <time>2017-11-23T02:05:51Z</time>
      </trkpt>
      <trkpt lat="44.82866" lon="5.60792">
        <ele>824</ele>
        <time>2017-11-23T02:06:08Z</time>
      </trkpt>
      <trkpt lat="44.82845" lon="5.60812">
        <ele>823</ele>
        <time>2017-11-23T02:06:14Z</time>
      </trkpt>
      <trkpt lat="44.82825" lon="5.60835">
        <ele>821</ele>
        <time>2017-11-23T02:06:31Z</time>
      </trkpt>
      <trkpt lat="44.82812" lon="5.60847">
        <ele>820</ele>
        <time>2017-11-23T02:06:42Z</time>
      </trkpt>
      <trkpt lat="44.82792" lon="5.60877">
        <ele>820</ele>
        <time>2017-11-23T02:06:59Z</time>
      </trkpt>
      <trkpt lat="44.82764" lon="5.60926">
        <ele>819</ele>
        <time>2017-11-23T02:07:14Z</time>
      </trkpt>
      <trkpt lat="44.82753" lon="5.6095">
        <ele>819</ele>
        <time>2017-11-23T02:07:27Z</time>
      </trkpt>
      <trkpt lat="44.82741" lon="5.60976">
        <ele>823</ele>
        <time>2017-11-23T02:07:43Z</time>
      </trkpt>
      <trkpt lat="44.82725" lon="5.61019">
        <ele>824</ele>
        <time>2017-11-23T02:07:46Z</time>
      </trkpt>
      <trkpt lat="44.82716" lon="5.61056">
        <ele>826</ele>
        <time>2017-11-23T02:07:57Z</time>
      </trkpt>
      <trkpt lat="44.8268" lon="5.6125">
        <ele>832</ele>
        <time>2017-11-23T02:08:09Z</time>
      </trkpt>
      <trkpt lat="44.82669" lon="5.61302">
        <ele>828</ele>
        <time>2017-11-23T02:08:16Z</time>
      </trkpt>
      <trkpt lat="44.82644" lon="5.61374">
        <ele>830</ele>
        <time>2017-11-23T02:08:29Z</time>
      </trkpt>
      <trkpt lat="44.82614" lon="5.61434">
        <ele>826</ele>
        <time>2017-11-23T02:08:44Z</time>
      </trkpt>
      <trkpt lat="44.82591" lon="5.6147">
        <ele>825</ele>
        <time>2017-11-23T02:09:00Z</time>
      </trkpt>
      <trkpt lat="44.82573" lon="5.61494">
        <ele>828</ele>
        <time>2017-11-23T02:09:13Z</time>
      </trkpt>
      <trkpt lat="44.8254" lon="5.61532">
        <ele>826</ele>
        <time>2017-11-23T02:09:19Z</time>
      </trkpt>
      <trkpt lat="44.82515" lon="5.61559">
        <ele>825</ele>
        <time>2017-11-23T02:09:30Z</time>
      </trkpt>
      <trkpt lat="44.82475" lon="5.61607">
        <ele>826</ele>
        <time>2017-11-23T02:09:43Z</time>
      </trkpt>
      <trkpt lat="44.82458" lon="5.6163">
        <ele>826</ele>
        <time>2017-11-23T02:09:55Z</time>
      </trkpt>
      <trkpt lat="44.82428" lon="5.61677">
        <ele>823</ele>
        <time>2017-11-23T02:10:01Z</time>
      </trkpt>
      <trkpt lat="44.82407" lon="5.61716">
        <ele>825</ele>
        <time>2017-11-23T02:10:14Z</time>
      </trkpt>
      <trkpt lat="44.82391" lon="5.61756">
        <ele>821</ele>
        <time>2017-11-23T02:10:29Z</time>
      </trkpt>
      <trkpt lat="44.82371" lon="5.61809">
        <ele>822</ele>
        <time>2017-11-23T02:10:42Z</time>
      </trkpt>
      <trkpt lat="44.82353" lon="5.61868">
        <ele>822</ele>
        <time>2017-11-23T02:10:53Z</time>
      </trkpt>
      <trkpt lat="44.82323" lon="5.61991">
        <ele>826</ele>
        <time>2017-11-23T02:11:07Z</time>
      </trkpt>
      <trkpt lat="44.82284" lon="5.62152">
        <ele>825</ele>
        <time>2017-11-23T02:11:27Z</time>
      </trkpt>
      <trkpt lat="44.82263" lon="5.62224">
        <ele>822</ele>
        <time>2017-11-23T02:11:46Z</time>
      </trkpt>
      <trkpt lat="44.82239" lon="5.62283">
        <ele>827</ele>
        <time>2017-11-23T02:12:03Z</time>
      </trkpt>
      <trkpt lat="44.82201" lon="5.62359">
        <ele>824</ele>
        <time>2017-11-23T02:12:18Z</time>
      </trkpt>
      <trkpt lat="44.82162" lon="5.62431">
        <ele>824</ele>
        <time>2017-11-23T02:12:38Z</time>
      </trkpt>
      <trkpt lat="44.82145" lon="5.62454">
        <ele>824</ele>
        <time>2017-11-23T02:12:42Z</time>
      </trkpt>
      <trkpt lat="44.8212" lon="5.62481">
        <ele>824</ele>
        <time>2017-11-23T02:12:51Z</time>
      </trkpt>
      <trkpt lat="44.82073" lon="5.62521">
        <ele>823</ele>
        <time>2017-11-23T02:12:55Z</time>
      </trkpt>
      <trkpt lat="44.82014" lon="5.62559">
        <ele>821</ele>
        <time>2017-11-23T02:12:57Z</time>
      </trkpt>
      <trkpt lat="44.81967" lon="5.6259">
        <ele>817</ele>
        <time>2017-11-23T02:13:07Z</time>
      </trkpt>
      <trkpt lat="44.81944" lon="5.62609">
        <ele>817</ele>
        <time>2017-11-23T02:13:22Z</time>
      </trkpt>
      <trkpt lat="44.81925" lon="5.6263">
        <ele>816</ele>
        <time>2017-11-23T02:13:25Z</time>
      </trkpt>
      <trkpt lat="44.81896" lon="5.62672">
        <ele>817</ele>
        <time>2017-11-23T02:13:32Z</time>
      </trkpt>
      <trkpt lat="44.8187" lon="5.62725">
        <ele>819</ele>
        <time>2017-11-23T02:13:51Z</time>
      </trkpt>
      <trkpt lat="44.81833" lon="5.62812">
        <ele>826</ele>
        <time>2017-11-23T02:14:06Z</time>
      </trkpt>
      <trkpt lat="44.81817" lon="5.62849">
        <ele>824</ele>
        <time>2017-11-23T02:14:21Z</time>
      </trkpt>
      <trkpt lat="44.81794" lon="5.62893">
        <ele>824</ele>
        <time>2017-11-23T02:14:38Z</time>
      </trkpt>
      <trkpt lat="44.81783" lon="5.62911">
        <ele>824</ele>
        <time>2017-11-23T02:14:43Z</time>
      </trkpt>
      <trkpt lat="44.81774" lon="5.62919">
        <ele>822</ele>
        <time>2017-11-23T02:14:51Z</time>
      </trkpt>
      <trkpt lat="44.81754" lon="5.62945">
        <ele>822</ele>
        <time>2017-11-23T02:15:10Z</time>
      </trkpt>
      <trkpt lat="44.81742" lon="5.62958">
        <ele>824</ele>
        <time>2017-11-23T02:15:14Z</time>
      </trkpt>
      <trkpt lat="44.81717" lon="5.62979">
        <ele>824</ele>
        <time>2017-11-23T02:15:19Z</time>
      </trkpt>
      <trkpt lat="44.81707" lon="5.62985">
        <ele>824</ele>
        <time>2017-11-23T02:15:28Z</time>
      </trkpt>
      <trkpt lat="44.81711" lon="5.62995">
        <ele>824</ele>
        <time>2017-11-23T02:15:48Z</time>
      </trkpt>
      <trkpt lat="44.81712" lon="5.63003">
        <ele>821</ele>
        <time>2017-11-23T02:16:00Z</time>
      </trkpt>
      <trkpt lat="44.8171" lon="5.63021">
        <ele>821</ele>
        <time>2017-11-23T02:16:03Z</time>
      </trkpt>
      <trkpt lat="44.81704" lon="5.63028">
        <ele>820</ele>
        <time>2017-11-23T02:16:09Z</time>
      </trkpt>
      <trkpt lat="44.81692" lon="5.63034">
        <ele>821</ele>
        <time>2017-11-23T02:16:16Z</time>
      </trkpt>
      <trkpt lat="44.81675" lon="5.63037">
        <ele>821</ele>
        <time>2017-11-23T02:16:18Z</time>
      </trkpt>
      <trkpt lat="44.81659" lon="5.63037">
        <ele>822</ele>
        <time>2017-11-23T02:16:20Z</time>
      </trkpt>
      <trkpt lat="44.81644" lon="5.63039">
        <ele>822</ele>
        <time>2017-11-23T02:16:25Z</time>
      </trkpt>
      <trkpt lat="44.81632" lon="5.63042">
        <ele>821</ele>
        <time>2017-11-23T02:16:37Z</time>
      </trkpt>
      <trkpt lat="44.81577" lon="5.6309">
        <ele>815</ele>
        <time>2017-11-23T02:16:54Z</time>
      </trkpt>
      <trkpt lat="44.81534" lon="5.63153">
        <ele>813</ele>
        <time>2017-11-23T02:16:58Z</time>
      </trkpt>
      <trkpt lat="44.81525" lon="5.63163">
        <ele>813</ele>
        <time>2017-11-23T02:17:18Z</time>
      </trkpt>
      <trkpt lat="44.81515" lon="5.63168">
        <ele>810</ele>
        <time>2017-11-23T02:17:36Z</time>
      </trkpt>
      <trkpt lat="44.81506" lon="5.63167">
        <ele>811</ele>
        <time>2017-11-23T02:17:38Z</time>
      </trkpt>
      <trkpt lat="44.81496" lon="5.63163">
        <ele>811</ele>
        <time>2017-11-23T02:17:46Z</time>
      </trkpt>
      <trkpt lat="44.81489" lon="5.63158">
        <ele>811</ele>
        <time>2017-11-23T02:18:06Z</time>
      </trkpt>
      <trkpt lat="44.81471" lon="5.63149">
        <ele>810</ele>
        <time>2017-11-23T02:18:10Z</time>
      </trkpt>
      <trkpt lat="44.8146" lon="5.63146">
        <ele>809</ele>
        <time>2017-11-23T02:18:15Z</time>
      </trkpt>
      <trkpt lat="44.81448" lon="5.63147">
        <ele>808</ele>
        <time>2017-11-23T02:18:26Z</time>
      </trkpt>
      <trkpt lat="44.81434" lon="5.6315">
        <ele>807</ele>
        <time>2017-11-23T02:18:41Z</time>
      </trkpt>
      <trkpt lat="44.81416" lon="5.63149">
        <ele>801</ele>
        <time>2017-11-23T02:18:44Z</time>
      </trkpt>
      <trkpt lat="44.81408" lon="5.63144">
        <ele>801</ele>
        <time>2017-11-23T02:18:55Z</time>
      </trkpt>
      <trkpt lat="44.81381" lon="5.63116">
        <ele>802</ele>
        <time>2017-11-23T02:19:15Z</time>
      </trkpt>
      <trkpt lat="44.81357" lon="5.63091">
        <ele>801</ele>
        <time>2017-11-23T02:19:19Z</time>
      </trkpt>
      <trkpt lat="44.81349" lon="5.63084">
        <ele>801</ele>
        <time>2017-11-23T02:19:35Z</time>
      </trkpt>
      <trkpt lat="44.81343" lon="5.63084">
        <ele>800</ele>
        <time>2017-11-23T02:19:53Z</time>
      </trkpt>
      <trkpt lat="44.81337" lon="5.63089">
        <ele>800</ele>
        <time>2017-11-23T02:20:13Z</time>
      </trkpt>
      <trkpt lat="44.81336" lon="5.63097">
        <ele>800</ele>
        <time>2017-11-23T02:20:18Z</time>
      </trkpt>
      <trkpt lat="44.81337" lon="5.63105">
        <ele>800</ele>
        <time>2017-11-23T02:20:27Z</time>
      </trkpt>
      <trkpt lat="44.81353" lon="5.63127">
        <ele>799</ele>
        <time>2017-11-23T02:20:38Z</time>
      </trkpt>
      <trkpt lat="44.81363" lon="5.63145">
        <ele>798</ele>
        <time>2017-11-23T02:20:47Z</time>
      </trkpt>
      <trkpt lat="44.81374" lon="5.63184">
        <ele>793</ele>
        <time>2017-11-23T02:20:56Z</time>
      </trkpt>
      <trkpt lat="44.81383" lon="5.63223">
        <ele>792</ele>
        <time>2017-11-23T02:21:01Z</time>
      </trkpt>
      <trkpt lat="44.8139" lon="5.63249">
        <ele>792</ele>
        <time>2017-11-23T02:21:14Z</time>
      </trkpt>
      <trkpt lat="44.81387" lon="5.63275">
        <ele>786</ele>
        <time>2017-11-23T02:21:26Z</time>
      </trkpt>
      <trkpt lat="44.81382" lon="5.63285">
        <ele>785</ele>
        <time>2017-11-23T02:21:38Z</time>
      </trkpt>
      <trkpt lat="44.81375" lon="5.6329">
        <ele>784</ele>
        <time>2017-11-23T02:21:55Z</time>
      </trkpt>
      <trkpt lat="44.81353" lon="5.63297">
        <ele>783</ele>
        <time>2017-11-23T02:22:11Z</time>
      </trkpt>
      <trkpt lat="44.81336" lon="5.63306">
        <ele>781</ele>
        <time>2017-11-23T02:22:22Z</time>
      </trkpt>
      <trkpt lat="44.81278" lon="5.63352">
        <ele>772</ele>
        <time>2017-11-23T02:22:24Z</time>
      </trkpt>
      <trkpt lat="44.81234" lon="5.63394">
        <ele>767</ele>
        <time>2017-11-23T02:22:42Z</time>
      </trkpt>
      <trkpt lat="44.81225" lon="5.63403">
        <ele>767</ele>
        <time>2017-11-23T02:22:56Z</time>
      </trkpt>
      <trkpt lat="44.81211" lon="5.63412">
        <ele>767</ele>
        <time>2017-11-23T02:23:03Z</time>
      </trkpt>
      <trkpt lat="44.81197" lon="5.63419">
        <ele>763</ele>
        <time>2017-11-23T02:23:18Z</time>
      </trkpt>
      <trkpt lat="44.81175" lon="5.63438">
        <ele>762</ele>
        <time>2017-11-23T02:23:37Z</time>
      </trkpt>
      <trkpt lat="44.81135" lon="5.6348">
        <ele>760</ele>
        <time>2017-11-23T02:23:41Z</time>
      </trkpt>
      <trkpt lat="44.81097" lon="5.63522">
        <ele>758</ele>
        <time>2017-11-23T02:23:50Z</time>
      </trkpt>
      <trkpt lat="44.81087" lon="5.63536">
        <ele>757</ele>
        <time>2017-11-23T02:23:55Z</time>
      </trkpt>
      <trkpt lat="44.81084" lon="5.63542">
        <ele>757</ele>
        <time>2017-11-23T02:24:15Z</time>
      </trkpt>
      <trkpt lat="44.81081" lon="5.63554">
        <ele>760</ele>
        <time>2017-11-23T02:24:29Z</time>
      </trkpt>
      <trkpt lat="44.81077" lon="5.636">
        <ele>759</ele>
        <time>2017-11-23T02:24:42Z</time>
      </trkpt>
      <trkpt lat="44.81072" lon="5.63677">
        <ele>758</ele>
        <time>2017-11-23T02:24:50Z</time>
      </trkpt>
      <trkpt lat="44.81068" lon="5.63702">
        <ele>758</ele>
        <time>2017-11-23T02:24:53Z</time>
      </trkpt>
      <trkpt lat="44.81062" lon="5.63725">
        <ele>758</ele>
        <time>2017-11-23T02:25:05Z</time>
      </trkpt>
      <trkpt lat="44.81053" lon="5.63744">
        <ele>758</ele>
        <time>2017-11-23T02:25:15Z</time>
      </trkpt>
      <trkpt lat="44.81023" lon="5.63798">
        <ele>757</ele>
        <time>2017-11-23T02:25:26Z</time>
      </trkpt>
      <trkpt lat="44.81002" lon="5.63824">
        <ele>756</ele>
        <time>2017-11-23T02:25:31Z</time>
      </trkpt>
      <trkpt lat="44.80981" lon="5.63836">
        <ele>757</ele>
        <time>2017-11-23T02:25:36Z</time>
      </trkpt>
      <trkpt lat="44.80954" lon="5.63846">
        <ele>758</ele>
        <time>2017-11-23T02:25:47Z</time>
      </trkpt>
      <trkpt lat="44.80945" lon="5.63852">
        <ele>759</ele>
        <time>2017-11-23T02:25:52Z</time>
      </trkpt>
      <trkpt lat="44.8094" lon="5.63863">
        <ele>759</ele>
        <time>2017-11-23T02:26:09Z</time>
      </trkpt>
      <trkpt lat="44.80939" lon="5.6387">
        <ele>759</ele>
        <time>2017-11-23T02:26:15Z</time>
      </trkpt>
      <trkpt lat="44.8094" lon="5.63887">
        <ele>759</ele>
        <time>2017-11-23T02:26:34Z</time>
      </trkpt>
      <trkpt lat="44.80946" lon="5.63968">
        <ele>757</ele>
        <time>2017-11-23T02:26:47Z</time>
      </trkpt>
      <trkpt lat="44.80941" lon="5.63988">
        <ele>758</ele>
        <time>2017-11-23T02:26:59Z</time>
      </trkpt>
      <trkpt lat="44.80931" lon="5.64006">
        <ele>758</ele>
        <time>2017-11-23T02:27:18Z</time>
      </trkpt>
      <trkpt lat="44.80923" lon="5.64013">
        <ele>758</ele>
        <time>2017-11-23T02:27:29Z</time>
      </trkpt>
      <trkpt lat="44.80894" lon="5.6403">
        <ele>764</ele>
        <time>2017-11-23T02:27:37Z</time>
      </trkpt>
      <trkpt lat="44.8088" lon="5.64041">
        <ele>765</ele>
        <time>2017-11-23T02:27:50Z</time>
      </trkpt>
      <trkpt lat="44.80868" lon="5.64056">
        <ele>765</ele>
        <time>2017-11-23T02:28:00Z</time>
      </trkpt>
      <trkpt lat="44.80844" lon="5.64099">
        <ele>763</ele>
        <time>2017-11-23T02:28:12Z</time>
      </trkpt>
      <trkpt lat="44.80826" lon="5.64142">
        <ele>770</ele>
        <time>2017-11-23T02:28:30Z</time>
      </trkpt>
      <trkpt lat="44.80798" lon="5.64209">
        <ele>769</ele>
        <time>2017-11-23T02:28:45Z</time>
      </trkpt>
      <trkpt lat="44.80781" lon="5.64258">
        <ele>768</ele>
        <time>2017-11-23T02:28:56Z</time>
      </trkpt>
      <trkpt lat="44.80777" lon="5.64294">
        <ele>768</ele>
        <time>2017-11-23T02:28:59Z</time>
      </trkpt>
      <trkpt lat="44.80773" lon="5.64356">
        <ele>766</ele>
        <time>2017-11-23T02:29:19Z</time>
      </trkpt>
      <trkpt lat="44.80769" lon="5.64381">
        <ele>765</ele>
        <time>2017-11-23T02:29:23Z</time>
      </trkpt>
      <trkpt lat="44.80767" lon="5.64388">
        <ele>764</ele>
        <time>2017-11-23T02:29:33Z</time>
      </trkpt>
      <trkpt lat="44.80762" lon="5.64395">
        <ele>764</ele>
        <time>2017-11-23T02:29:43Z</time>
      </trkpt>
      <trkpt lat="44.80754" lon="5.64398">
        <ele>764</ele>
        <time>2017-11-23T02:29:54Z</time>
      </trkpt>
      <trkpt lat="44.80744" lon="5.64394">
        <ele>763</ele>
        <time>2017-11-23T02:30:03Z</time>
      </trkpt>
      <trkpt lat="44.80731" lon="5.64385">
        <ele>764</ele>
        <time>2017-11-23T02:30:18Z</time>
      </trkpt>
      <trkpt lat="44.8072" lon="5.64377">
        <ele>764</ele>
        <time>2017-11-23T02:30:36Z</time>
      </trkpt>
      <trkpt lat="44.80696" lon="5.64368">
        <ele>764</ele>
        <time>2017-11-23T02:30:49Z</time>
      </trkpt>
      <trkpt lat="44.80629" lon="5.64354">
        <ele>759</ele>
        <time>2017-11-23T02:31:02Z</time>
      </trkpt>
      <trkpt lat="44.80571" lon="5.6433">
        <ele>759</ele>
        <time>2017-11-23T02:31:11Z</time>
      </trkpt>
      <trkpt lat="44.80548" lon="5.64319">
        <ele>759</ele>
        <time>2017-11-23T02:31:25Z</time>
      </trkpt>
      <trkpt lat="44.80528" lon="5.64314">
        <ele>758</ele>
        <time>2017-11-23T02:31:34Z</time>
      </trkpt>
      <trkpt lat="44.80515" lon="5.64313">
        <ele>757</ele>
        <time>2017-11-23T02:31:49Z</time>
      </trkpt>
      <trkpt lat="44.80486" lon="5.64317">
        <ele>755</ele>
        <time>2017-11-23T02:32:02Z</time>
      </trkpt>
      <trkpt lat="44.80455" lon="5.64322">
        <ele>757</ele>
        <time>2017-11-23T02:32:16Z</time>
      </trkpt>
      <trkpt lat="44.80428" lon="5.64329">
        <ele>758</ele>
        <time>2017-11-23T02:32:27Z</time>
      </trkpt>
      <trkpt lat="44.80393" lon="5.64341">
        <ele>759</ele>
        <time>2017-11-23T02:32:39Z</time>
      </trkpt>
      <trkpt lat="44.80377" lon="5.64339">
        <ele>759</ele>
        <time>2017-11-23T02:32:44Z</time>
      </trkpt>
      <trkpt lat="44.80357" lon="5.64332">
        <ele>762</ele>
        <time>2017-11-23T02:32:59Z</time>
      </trkpt>
      <trkpt lat="44.80332" lon="5.64322">
        <ele>765</ele>
        <time>2017-11-23T02:33:09Z</time>
      </trkpt>
      <trkpt lat="44.80286" lon="5.64324">
        <ele>768</ele>
        <time>2017-11-23T02:33:22Z</time>
      </trkpt>
      <trkpt lat="44.80255" lon="5.64322">
        <ele>768</ele>
        <time>2017-11-23T02:33:28Z</time>
      </trkpt>
      <trkpt lat="44.80238" lon="5.64315">
        <ele>770</ele>
        <time>2017-11-23T02:33:30Z</time>
      </trkpt>
      <trkpt lat="44.80193" lon="5.64292">
        <ele>772</ele>
        <time>2017-11-23T02:33:34Z</time>
      </trkpt>
      <trkpt lat="44.80175" lon="5.64287">
        <ele>772</ele>
        <time>2017-11-23T02:33:50Z</time>
      </trkpt>
      <trkpt lat="44.8017" lon="5.64288">
        <ele>772</ele>
        <time>2017-11-23T02:34:05Z</time>
      </trkpt>
      <trkpt lat="44.80165" lon="5.6429">
        <ele>773</ele>
        <time>2017-11-23T02:34:11Z</time>
      </trkpt>
      <trkpt lat="44.80149" lon="5.64308">
        <ele>773</ele>
        <time>2017-11-23T02:34:28Z</time>
      </trkpt>
      <trkpt lat="44.80136" lon="5.64332">
        <ele>773</ele>
        <time>2017-11-23T02:34:38Z</time>
      </trkpt>
      <trkpt lat="44.80124" lon="5.64374">
        <ele>772</ele>
        <time>2017-11-23T02:34:44Z</time>
      </trkpt>
      <trkpt lat="44.80113" lon="5.64403">
        <ele>772</ele>
        <time>2017-11-23T02:35:04Z</time>
      </trkpt>
      <trkpt lat="44.80104" lon="5.64422">
        <ele>773</ele>
        <time>2017-11-23T02:35:11Z</time>
      </trkpt>
      <trkpt lat="44.8008" lon="5.64461">
        <ele>779</ele>
        <time>2017-11-23T02:35:17Z</time>
      </trkpt>
      <trkpt lat="44.80047" lon="5.64528">
        <ele>780</ele>
        <time>2017-11-23T02:35:20Z</time>
      </trkpt>
      <trkpt lat="44.80028" lon="5.6457">
        <ele>781</ele>
        <time>2017-11-23T02:35:38Z</time>
      </trkpt>
      <trkpt lat="44.80017" lon="5.64585">
        <ele>783</ele>
        <time>2017-11-23T02:35:50Z</time>
      </trkpt>
      <trkpt lat="44.80005" lon="5.64591">
        <ele>784</ele>
        <time>2017-11-23T02:36:01Z</time>
      </trkpt>
      <trkpt lat="44.79977" lon="5.64602">
        <ele>782</ele>
        <time>2017-11-23T02:36:15Z</time>
      </trkpt>
      <trkpt lat="44.79939" lon="5.64602">
        <ele>781</ele>
        <time>2017-11-23T02:36:32Z</time>
      </trkpt>
      <trkpt lat="44.7989" lon="5.64594">
        <ele>777</ele>
        <time>2017-11-23T02:36:36Z</time>
      </trkpt>
      <trkpt lat="44.79867" lon="5.64587">
        <ele>775</ele>
        <time>2017-11-23T02:36:53Z</time>
      </trkpt>
      <trkpt lat="44.79852" lon="5.64577">
        <ele>781</ele>
        <time>2017-11-23T02:37:06Z</time>
      </trkpt>
      <trkpt lat="44.79834" lon="5.64559">
        <ele>782</ele>
        <time>2017-11-23T02:37:23Z</time>
      </trkpt>
      <trkpt lat="44.79821" lon="5.64536">
        <ele>775</ele>
        <time>2017-11-23T02:37:26Z</time>
      </trkpt>
      <trkpt lat="44.79809" lon="5.64501">
        <ele>777</ele>
        <time>2017-11-23T02:37:44Z</time>
      </trkpt>
      <trkpt lat="44.79798" lon="5.64417">
        <ele>779</ele>
        <time>2017-11-23T02:37:52Z</time>
      </trkpt>
      <trkpt lat="44.79786" lon="5.64382">
        <ele>778</ele>
        <time>2017-11-23T02:38:06Z</time>
      </trkpt>
      <trkpt lat="44.79775" lon="5.64365">
        <ele>777</ele>
        <time>2017-11-23T02:38:18Z</time>
      </trkpt>
      <trkpt lat="44.79761" lon="5.64351">
        <ele>776</ele>
        <time>2017-11-23T02:38:27Z</time>
      </trkpt>
      <trkpt lat="44.79743" lon="5.64342">
        <ele>770</ele>
        <time>2017-11-23T02:38:30Z</time>
      </trkpt>
      <trkpt lat="44.79725" lon="5.64337">
        <ele>768</ele>
        <time>2017-11-23T02:38:32Z</time>
      </trkpt>
      <trkpt lat="44.79712" lon="5.64334">
        <ele>767</ele>
        <time>2017-11-23T02:38:35Z</time>
      </trkpt>
      <trkpt lat="44.79692" lon="5.64321">
        <ele>771</ele>
        <time>2017-11-23T02:38:49Z</time>
      </trkpt>
      <trkpt lat="44.79672" lon="5.64302">
        <ele>772</ele>
        <time>2017-11-23T02:39:06Z</time>
      </trkpt>
      <trkpt lat="44.79664" lon="5.64299">
        <ele>768</ele>
        <time>2017-11-23T02:39:08Z</time>
      </trkpt>
      <trkpt lat="44.79654" lon="5.64299">
        <ele>768</ele>
        <time>2017-11-23T02:39:25Z</time>
      </trkpt>
      <trkpt lat="44.79639" lon="5.64303">
        <ele>768</ele>
        <time>2017-11-23T02:39:36Z</time>
      </trkpt>
      <trkpt lat="44.79613" lon="5.6431">
        <ele>766</ele>
        <time>2017-11-23T02:39:56Z</time>
      </trkpt>
      <trkpt lat="44.79598" lon="5.64309">
        <ele>765</ele>
        <time>2017-11-23T02:40:14Z</time>
      </trkpt>
      <trkpt lat="44.79581" lon="5.64296">
        <ele>763</ele>
        <time>2017-11-23T02:40:25Z</time>
      </trkpt>
      <trkpt lat="44.79564" lon="5.64278">
        <ele>765</ele>
        <time>2017-11-23T02:40:28Z</time>
      </trkpt>
      <trkpt lat="44.79547" lon="5.6427">
        <ele>765</ele>
        <time>2017-11-23T02:40:45Z</time>
      </trkpt>
      <trkpt lat="44.79508" lon="5.64265">
        <ele>764</ele>
        <time>2017-11-23T02:40:53Z</time>
      </trkpt>
      <trkpt lat="44.7948" lon="5.6426">
        <ele>762</ele>
        <time>2017-11-23T02:41:03Z</time>
      </trkpt>
      <trkpt lat="44.79454" lon="5.64249">
        <ele>766</ele>
        <time>2017-11-23T02:41:13Z</time>
      </trkpt>
      <trkpt lat="44.79426" lon="5.6423">
        <ele>765</ele>
        <time>2017-11-23T02:41:25Z</time>
      </trkpt>
      <trkpt lat="44.79407" lon="5.64218">
        <ele>764</ele>
        <time>2017-11-23T02:41:27Z</time>
      </trkpt>
      <trkpt lat="44.7938" lon="5.6422">
        <ele>764</ele>
        <time>2017-11-23T02:41:37Z</time>
      </trkpt>
      <trkpt lat="44.79358" lon="5.64225">
        <ele>764</ele>
        <time>2017-11-23T02:41:57Z</time>
      </trkpt>
      <trkpt lat="44.79351" lon="5.64232">
        <ele>763</ele>
        <time>2017-11-23T02:42:11Z</time>
      </trkpt>
      <trkpt lat="44.79349" lon="5.64239">
        <ele>763</ele>
        <time>2017-11-23T02:42:28Z</time>
      </trkpt>
      <trkpt lat="44.79347" lon="5.64276">
        <ele>764</ele>
        <time>2017-11-23T02:42:42Z</time>
      </trkpt>
      <trkpt lat="44.79349" lon="5.64286">
        <ele>765</ele>
        <time>2017-11-23T02:42:47Z</time>
      </trkpt>
      <trkpt lat="44.79367" lon="5.64304">
        <ele>765</ele>
        <time>2017-11-23T02:43:03Z</time>
      </trkpt>
      <trkpt lat="44.79425" lon="5.64364">
        <ele>763</ele>
        <time>2017-11-23T02:43:08Z</time>
      </trkpt>
      <trkpt lat="44.7947" lon="5.64412">
        <ele>763</ele>
        <time>2017-11-23T02:43:11Z</time>
      </trkpt>
      <trkpt lat="44.79486" lon="5.64443">
        <ele>767</ele>
        <time>2017-11-23T02:43:29Z</time>
      </trkpt>
      <trkpt lat="44.79497" lon="5.64482">
        <ele>769</ele>
        <time>2017-11-23T02:43:34Z</time>
      </trkpt>
      <trkpt lat="44.79504" lon="5.64525">
        <ele>764</ele>
        <time>2017-11-23T02:43:47Z</time>
      </trkpt>
      <trkpt lat="44.79509" lon="5.64565">
        <ele>766</ele>
        <time>2017-11-23T02:43:59Z</time>
      </trkpt>
      <trkpt lat="44.79508" lon="5.64605">
        <ele>768</ele>
        <time>2017-11-23T02:44:02Z</time>
      </trkpt>
      <trkpt lat="44.79497" lon="5.64689">
        <ele>774</ele>
        <time>2017-11-23T02:44:13Z</time>
      </trkpt>
      <trkpt lat="44.79485" lon="5.64773">
        <ele>772</ele>
        <time>2017-11-23T02:44:28Z</time>
      </trkpt>
      <trkpt lat="44.79461" lon="5.64921">
        <ele>771</ele>
        <time>2017-11-23T02:44:39Z</time>
      </trkpt>
      <trkpt lat="44.79449" lon="5.64997">
        <ele>772</ele>
        <time>2017-11-23T02:44:55Z</time>
      </trkpt>
      <trkpt lat="44.79443" lon="5.65042">
        <ele>772</ele>
        <time>2017-11-23T02:45:06Z</time>
      </trkpt>
      <trkpt lat="44.79443" lon="5.65097">
        <ele>773</ele>
        <time>2017-11-23T02:45:15Z</time>
      </trkpt>
      <trkpt lat="44.79451" lon="5.65189">
        <ele>772</ele>
        <time>2017-11-23T02:45:30Z</time>
      </trkpt>
      <trkpt lat="44.79459" lon="5.65303">
        <ele>773</ele>
        <time>2017-11-23T02:45:41Z</time>
      </trkpt>
      <trkpt lat="44.79457" lon="5.65345">
        <ele>774</ele>
        <time>2017-11-23T02:45:56Z</time>
      </trkpt>
      <trkpt lat="44.7945" lon="5.6542">
        <ele>775</ele>
        <time>2017-11-23T02:46:10Z</time>
      </trkpt>
      <trkpt lat="44.79441" lon="5.655">
        <ele>776</ele>
        <time>2017-11-23T02:46:16Z</time>
      </trkpt>
      <trkpt lat="44.79437" lon="5.65567">
        <ele>776</ele>
        <time>2017-11-23T02:46:36Z</time>
      </trkpt>
      <trkpt lat="44.79438" lon="5.65587">
        <ele>778</ele>
        <time>2017-11-23T02:46:44Z</time>
      </trkpt>
      <trkpt lat="44.79444" lon="5.65615">
        <ele>779</ele>
        <time>2017-11-23T02:46:57Z</time>
      </trkpt>
      <trkpt lat="44.7947" lon="5.65703">
        <ele>784</ele>
        <time>2017-11-23T02:47:17Z</time>
      </trkpt>
      <trkpt lat="44.79478" lon="5.65737">
        <ele>785</ele>
        <time>2017-11-23T02:47:29Z</time>
      </trkpt>
      <trkpt lat="44.79479" lon="5.65752">
        <ele>787</ele>
        <time>2017-11-23T02:47:41Z</time>
      </trkpt>
      <trkpt lat="44.79473" lon="5.65803">
        <ele>788</ele>
        <time>2017-11-23T02:47:44Z</time>
      </trkpt>
      <trkpt lat="44.79461" lon="5.65836">
        <ele>788</ele>
        <time>2017-11-23T02:47:58Z</time>
      </trkpt>
      <trkpt lat="44.79449" lon="5.65859">
        <ele>788</ele>
        <time>2017-11-23T02:48:18Z</time>
      </trkpt>
      <trkpt lat="44.79432" lon="5.65884">
        <ele>788</ele>
        <time>2017-11-23T02:48:27Z</time>
      </trkpt>
      <trkpt lat="44.79423" lon="5.65895">
        <ele>788</ele>
        <time>2017-11-23T02:48:38Z</time>
      </trkpt>
      <trkpt lat="44.79431" lon="5.65908">
        <ele>788</ele>
        <time>2017-11-23T02:48:55Z</time>
      </trkpt>
      <trkpt lat="44.79442" lon="5.65924">
        <ele>785</ele>
        <time>2017-11-23T02:49:02Z</time>
      </trkpt>
      <trkpt lat="44.79446" lon="5.65932">
        <ele>785</ele>
        <time>2017-11-23T02:49:15Z</time>
      </trkpt>
      <trkpt lat="44.79447" lon="5.65938">
        <ele>785</ele>
        <time>2017-11-23T02:49:22Z</time>
      </trkpt>
      <trkpt lat="44.79434" lon="5.65947">
        <ele>785</ele>
        <time>2017-11-23T02:49:40Z</time>
      </trkpt>
      <trkpt lat="44.79402" lon="5.65965">
        <ele>779</ele>
        <time>2017-11-23T02:49:56Z</time>
      </trkpt>
      <trkpt lat="44.79389" lon="5.65967">
        <ele>778</ele>
        <time>2017-11-23T02:50:01Z</time>
      </trkpt>
      <trkpt lat="44.79362" lon="5.65955">
        <ele>777</ele>
        <time>2017-11-23T02:50:10Z</time>
      </trkpt>
      <trkpt lat="44.79345" lon="5.65944">
        <ele>777</ele>
        <time>2017-11-23T02:50:25Z</time>
      </trkpt>
      <trkpt lat="44.79315" lon="5.65921">
        <ele>769</ele>
        <time>2017-11-23T02:50:31Z</time>
      </trkpt>
      <trkpt lat="44.79289" lon="5.65888">
        <ele>771</ele>
        <time>2017-11-23T02:50:48Z</time>
      </trkpt>
      <trkpt lat="44.79243" lon="5.65809">
        <ele>765</ele>
        <time>2017-11-23T02:51:03Z</time>
      </trkpt>
      <trkpt lat="44.79178" lon="5.65687">
        <ele>767</ele>
        <time>2017-11-23T02:51:18Z</time>
      </trkpt>
      <trkpt lat="44.79169" lon="5.65668">
        <ele>764</ele>
        <time>2017-11-23T02:51:30Z</time>
      </trkpt>
      <trkpt lat="44.79164" lon="5.6565">
        <ele>761</ele>
        <time>2017-11-23T02:51:37Z</time>
      </trkpt>
      <trkpt lat="44.79159" lon="5.65618">
        <ele>762</ele>
        <time>2017-11-23T02:51:44Z</time>
      </trkpt>
      <trkpt lat="44.79145" lon="5.65544">
        <ele>766</ele>
        <time>2017-11-23T02:52:03Z</time>
      </trkpt>
      <trkpt lat="44.79131" lon="5.6548">
        <ele>770</ele>
        <time>2017-11-23T02:52:12Z</time>
      </trkpt>
      <trkpt lat="44.79125" lon="5.65463">
        <ele>770</ele>
        <time>2017-11-23T02:52:17Z</time>
      </trkpt>
      <trkpt lat="44.79119" lon="5.65456">
        <ele>769</ele>
        <time>2017-11-23T02:52:25Z</time>
      </trkpt>
      <trkpt lat="44.79112" lon="5.65455">
        <ele>769</ele>
        <time>2017-11-23T02:52:44Z</time>
      </trkpt>
      <trkpt lat="44.79104" lon="5.65458">
        <ele>768</ele>
        <time>2017-11-23T02:53:00Z</time>
      </trkpt>
      <trkpt lat="44.79095" lon="5.65467">
        <ele>767</ele>
        <time>2017-11-23T02:53:15Z</time>
      </trkpt>
      <trkpt lat="44.7909" lon="5.65483">
        <ele>764</ele>
        <time>2017-11-23T02:53:17Z</time>
      </trkpt>
      <trkpt lat="44.7909" lon="5.65505">
        <ele>760</ele>
        <time>2017-11-23T02:53:36Z</time>
      </trkpt>
      <trkpt lat="44.79095" lon="5.65529">
        <ele>762</ele>
        <time>2017-11-23T02:53:40Z</time>
      </trkpt>
      <trkpt lat="44.79096" lon="5.65554">
        <ele>761</ele>
        <time>2017-11-23T02:54:00Z</time>
      </trkpt>
      <trkpt lat="44.79089" lon="5.65577">
        <ele>756</ele>
        <time>2017-11-23T02:54:18Z</time>
      </trkpt>
      <trkpt lat="44.79073" lon="5.65593">
        <ele>753</ele>
        <time>2017-11-23T02:54:24Z</time>
      </trkpt>
      <trkpt lat="44.79057" lon="5.65594">
        <ele>753</ele>
        <time>2017-11-23T02:54:40Z</time>
      </trkpt>
      <trkpt lat="44.79048" lon="5.6559">
        <ele>753</ele>
        <time>2017-11-23T02:54:47Z</time>
      </trkpt>
      <trkpt lat="44.7904" lon="5.65581">
        <ele>754</ele>
        <time>2017-11-23T02:54:49Z</time>
      </trkpt>
      <trkpt lat="44.79023" lon="5.65564">
        <ele>754</ele>
        <time>2017-11-23T02:55:06Z</time>
      </trkpt>
      <trkpt lat="44.79014" lon="5.65563">
        <ele>754</ele>
        <time>2017-11-23T02:55:09Z</time>
      </trkpt>
      <trkpt lat="44.79004" lon="5.65573">
        <ele>753</ele>
        <time>2017-11-23T02:55:27Z</time>
      </trkpt>
      <trkpt lat="44.78999" lon="5.65579">
        <ele>753</ele>
        <time>2017-11-23T02:55:29Z</time>
      </trkpt>
      <trkpt lat="44.78999" lon="5.65584">
        <ele>752</ele>
        <time>2017-11-23T02:55:33Z</time>
      </trkpt>
      <trkpt lat="44.78999" lon="5.65593">
        <ele>754</ele>
        <time>2017-11-23T02:55:53Z</time>
      </trkpt>
      <trkpt lat="44.79002" lon="5.65608">
        <ele>753</ele>
        <time>2017-11-23T02:56:08Z</time>
      </trkpt>
      <trkpt lat="44.79044" lon="5.65695">
        <ele>752</ele>
        <time>2017-11-23T02:56:12Z</time>
      </trkpt>
      <trkpt lat="44.79066" lon="5.65738">
        <ele>750</ele>
        <time>2017-11-23T02:56:22Z</time>
      </trkpt>
      <trkpt lat="44.79072" lon="5.65757">
        <ele>749</ele>
        <time>2017-11-23T02:56:33Z</time>
      </trkpt>
      <trkpt lat="44.79072" lon="5.65766">
        <ele>749</ele>
        <time>2017-11-23T02:56:46Z</time>
      </trkpt>
      <trkpt lat="44.79066" lon="5.65783">
        <ele>750</ele>
        <time>2017-11-23T02:56:48Z</time>
      </trkpt>
      <trkpt lat="44.79053" lon="5.65796">
        <ele>750</ele>
        <time>2017-11-23T02:56:54Z</time>
      </trkpt>
      <trkpt lat="44.79041" lon="5.65797">
        <ele>750</ele>
        <time>2017-11-23T02:57:10Z</time>
      </trkpt>
      <trkpt lat="44.79016" lon="5.65789">
        <ele>750</ele>
        <time>2017-11-23T02:57:22Z</time>
      </trkpt>
      <trkpt lat="44.78948" lon="5.65767">
        <ele>753</ele>
        <time>2017-11-23T02:57:30Z</time>
      </trkpt>
      <trkpt lat="44.78931" lon="5.65768">
        <ele>754</ele>
        <time>2017-11-23T02:57:48Z</time>
      </trkpt>
      <trkpt lat="44.78922" lon="5.65777">
        <ele>754</ele>
        <time>2017-11-23T02:58:04Z</time>
      </trkpt>
      <trkpt lat="44.78917" lon="5.65788">
        <ele>753</ele>
        <time>2017-11-23T02:58:21Z</time>
      </trkpt>
      <trkpt lat="44.78916" lon="5.65809">
        <ele>755</ele>
        <time>2017-11-23T02:58:25Z</time>
      </trkpt>
      <trkpt lat="44.78927" lon="5.65825">
        <ele>753</ele>
        <time>2017-11-23T02:58:39Z</time>
      </trkpt>
      <trkpt lat="44.7894" lon="5.6584">
        <ele>751</ele>
        <time>2017-11-23T02:58:53Z</time>
      </trkpt>
      <trkpt lat="44.78949" lon="5.65857">
        <ele>750</ele>
        <time>2017-11-23T02:59:08Z</time>
      </trkpt>
      <trkpt lat="44.78962" lon="5.65895">
        <ele>749</ele>
        <time>2017-11-23T02:59:16Z</time>
      </trkpt>
      <trkpt lat="44.78978" lon="5.6595">
        <ele>748</ele>
        <time>2017-11-23T02:59:21Z</time>
      </trkpt>
      <trkpt lat="44.78987" lon="5.66003">
        <ele>746</ele>
        <time>2017-11-23T02:59:28Z</time>
      </trkpt>
      <trkpt lat="44.79008" lon="5.66124">
        <ele>741</ele>
        <time>2017-11-23T02:59:43Z</time>
      </trkpt>
      <trkpt lat="44.79018" lon="5.66187">
        <ele>741</ele>
        <time>2017-11-23T02:59:52Z</time>
      </trkpt>
      <trkpt lat="44.79025" lon="5.6622">
        <ele>740</ele>
        <time>2017-11-23T02:59:55Z</time>
      </trkpt>
      <trkpt lat="44.79037" lon="5.66251">
        <ele>742</ele>
        <time>2017-11-23T03:00:11Z</time>
      </trkpt>
      <trkpt lat="44.79055" lon="5.66284">
        <ele>743</ele>
        <time>2017-11-23T03:00:22Z</time>
      </trkpt>
      <trkpt lat="44.79079" lon="5.66322">
        <ele>744</ele>
        <time>2017-11-23T03:00:27Z</time>
      </trkpt>
      <trkpt lat="44.79096" lon="5.66352">
        <ele>742</ele>
        <time>2017-11-23T03:00:34Z</time>
      </trkpt>
      <trkpt lat="44.79114" lon="5.66392">
        <ele>744</ele>
        <time>2017-11-23T03:00:52Z</time>
      </trkpt>
      <trkpt lat="44.79129" lon="5.66432">
        <ele>746</ele>
        <time>2017-11-23T03:01:10Z</time>
      </trkpt>
      <trkpt lat="44.79151" lon="5.66487">
        <ele>743</ele>
        <time>2017-11-23T03:01:12Z</time>
      </trkpt>
      <trkpt lat="44.79166" lon="5.66525">
        <ele>743</ele>
        <time>2017-11-23T03:01:28Z</time>
      </trkpt>
      <trkpt lat="44.7918" lon="5.66559">
        <ele>736</ele>
        <time>2017-11-23T03:01:40Z</time>
      </trkpt>
      <trkpt lat="44.79192" lon="5.66579">
        <ele>736</ele>
        <time>2017-11-23T03:01:56Z</time>
      </trkpt>
      <trkpt lat="44.79207" lon="5.66613">
        <ele>735</ele>
        <time>2017-11-23T03:02:00Z</time>
      </trkpt>
      <trkpt lat="44.79214" lon="5.66635">
        <ele>735</ele>
        <time>2017-11-23T03:02:05Z</time>
      </trkpt>
      <trkpt lat="44.79215" lon="5.66669">
        <ele>733</ele>
        <time>2017-11-23T03:02:21Z</time>
      </trkpt>
      <trkpt lat="44.79217" lon="5.66752">
        <ele>731</ele>
        <time>2017-11-23T03:02:23Z</time>
      </trkpt>
      <trkpt lat="44.79215" lon="5.66802">
        <ele>731</ele>
        <time>2017-11-23T03:02:35Z</time>
      </trkpt>
      <trkpt lat="44.79219" lon="5.66831">
        <ele>730</ele>
        <time>2017-11-23T03:02:40Z</time>
      </trkpt>
      <trkpt lat="44.79229" lon="5.66869">
        <ele>729</ele>
        <time>2017-11-23T03:02:57Z</time>
      </trkpt>
      <trkpt lat="44.79234" lon="5.6689">
        <ele>729</ele>
        <time>2017-11-23T03:03:07Z</time>
      </trkpt>
      <trkpt lat="44.79235" lon="5.66911">
        <ele>729</ele>
        <time>2017-11-23T03:03:18Z</time>
      </trkpt>
      <trkpt lat="44.79226" lon="5.67036">
        <ele>727</ele>
        <time>2017-11-23T03:03:25Z</time>
      </trkpt>
      <trkpt lat="44.79225" lon="5.6705">
        <ele>727</ele>
        <time>2017-11-23T03:03:37Z</time>
      </trkpt>
      <trkpt lat="44.79217" lon="5.67085">
        <ele>728</ele>
        <time>2017-11-23T03:03:57Z</time>
      </trkpt>
      <trkpt lat="44.79204" lon="5.67124">
        <ele>728</ele>
        <time>2017-11-23T03:03:59Z</time>
      </trkpt>
      <trkpt lat="44.79198" lon="5.6715">
        <ele>728</ele>
        <time>2017-11-23T03:04:08Z</time>
      </trkpt>
      <trkpt lat="44.79199" lon="5.67178">
        <ele>728</ele>
        <time>2017-11-23T03:04:18Z</time>
      </trkpt>
      <trkpt lat="44.79209" lon="5.67222">
        <ele>728</ele>
        <time>2017-11-23T03:04:28Z</time>
      </trkpt>
      <trkpt lat="44.79219" lon="5.67258">
        <ele>728</ele>
        <time>2017-11-23T03:04:39Z</time>
      </trkpt>
      <trkpt lat="44.79221" lon="5.67282">
        <ele>728</ele>
        <time>2017-11-23T03:04:59Z</time>
      </trkpt>
      <trkpt lat="44.79218" lon="5.67315">
        <ele>728</ele>
        <time>2017-11-23T03:05:13Z</time>
      </trkpt>
      <trkpt lat="44.79214" lon="5.67335">
        <ele>726</ele>
        <time>2017-11-23T03:05:20Z</time>
      </trkpt>
      <trkpt lat="44.79198" lon="5.67366">
        <ele>727</ele>
        <time>2017-11-23T03:05:23Z</time>
      </trkpt>
      <trkpt lat="44.79163" lon="5.6742">
        <ele>727</ele>
        <time>2017-11-23T03:05:33Z</time>
      </trkpt>
      <trkpt lat="44.7909" lon="5.67529">
        <ele>725</ele>
        <time>2017-11-23T03:05:48Z</time>
      </trkpt>
      <trkpt lat="44.79047" lon="5.67593">
        <ele>728</ele>
        <time>2017-11-23T03:06:08Z</time>
      </trkpt>
      <trkpt lat="44.79024" lon="5.67618">
        <ele>728</ele>
        <time>2017-11-23T03:06:17Z</time>
      </trkpt>
      <trkpt lat="44.78994" lon="5.67636">
        <ele>731</ele>
        <time>2017-11-23T03:06:23Z</time>
      </trkpt>
      <trkpt lat="44.78963" lon="5.67643">
        <ele>731</ele>
        <time>2017-11-23T03:06:29Z</time>
      </trkpt>
      <trkpt lat="44.78923" lon="5.67639">
        <ele>732</ele>
        <time>2017-11-23T03:06:45Z</time>
      </trkpt>
      <trkpt lat="44.78881" lon="5.67627">
        <ele>729</ele>
        <time>2017-11-23T03:07:00Z</time>
      </trkpt>
      <trkpt lat="44.7886" lon="5.67615">
        <ele>728</ele>
        <time>2017-11-23T03:07:05Z</time>
      </trkpt>
      <trkpt lat="44.78853" lon="5.67609">
        <ele>728</ele>
        <time>2017-11-23T03:07:15Z</time>
      </trkpt>
      <trkpt lat="44.78839" lon="5.67589">
        <ele>727</ele>
        <time>2017-11-23T03:07:34Z</time>
      </trkpt>
      <trkpt lat="44.78833" lon="5.67558">
        <ele>726</ele>
        <time>2017-11-23T03:07:44Z</time>
      </trkpt>
      <trkpt lat="44.78829" lon="5.67529">
        <ele>728</ele>
        <time>2017-11-23T03:07:54Z</time>
      </trkpt>
      <trkpt lat="44.7882" lon="5.67505">
        <ele>731</ele>
        <time>2017-11-23T03:08:03Z</time>
      </trkpt>
      <trkpt lat="44.78797" lon="5.67474">
        <ele>731</ele>
        <time>2017-11-23T03:08:13Z</time>
      </trkpt>
      <trkpt lat="44.78764" lon="5.67431">
        <ele>729</ele>
        <time>2017-11-23T03:08:24Z</time>
      </trkpt>
      <trkpt lat="44.78743" lon="5.67406">
        <ele>728</ele>
        <time>2017-11-23T03:08:38Z</time>
      </trkpt>
      <trkpt lat="44.78735" lon="5.67399">
        <ele>728</ele>
        <time>2017-11-23T03:08:51Z</time>
      </trkpt>
      <trkpt lat="44.78722" lon="5.67394">
        <ele>729</ele>
        <time>2017-11-23T03:09:06Z</time>
      </trkpt>
      <trkpt lat="44.78704" lon="5.67397">
        <ele>729</ele>
        <time>2017-11-23T03:09:22Z</time>
      </trkpt>
      <trkpt lat="44.78692" lon="5.67415">
        <ele>729</ele>
        <time>2017-11-23T03:09:26Z</time>
      </trkpt>
      <trkpt lat="44.78688" lon="5.6744">
        <ele>726</ele>
        <time>2017-11-23T03:09:34Z</time>
      </trkpt>
      <trkpt lat="44.78695" lon="5.67471">
        <ele>725</ele>
        <time>2017-11-23T03:09:46Z</time>
      </trkpt>
      <trkpt lat="44.7871" lon="5.6751">
        <ele>721</ele>
        <time>2017-11-23T03:10:01Z</time>
      </trkpt>
      <trkpt lat="44.78718" lon="5.67545">
        <ele>720</ele>
        <time>2017-11-23T03:10:12Z</time>
      </trkpt>
      <trkpt lat="44.78724" lon="5.67621">
        <ele>716</ele>
        <time>2017-11-23T03:10:25Z</time>
      </trkpt>
      <trkpt lat="44.78718" lon="5.67647">
        <ele>715</ele>
        <time>2017-11-23T03:10:35Z</time>
      </trkpt>
      <trkpt lat="44.78711" lon="5.67675">
        <ele>713</ele>
        <time>2017-11-23T03:10:45Z</time>
      </trkpt>
      <trkpt lat="44.78713" lon="5.67696">
        <ele>713</ele>
        <time>2017-11-23T03:11:01Z</time>
      </trkpt>
      <trkpt lat="44.78726" lon="5.67721">
        <ele>712</ele>
        <time>2017-11-23T03:11:03Z</time>
      </trkpt>
      <trkpt lat="44.78739" lon="5.67743">
        <ele>710</ele>
        <time>2017-11-23T03:11:23Z</time>
      </trkpt>
      <trkpt lat="44.7874" lon="5.67759">
        <ele>709</ele>
        <time>2017-11-23T03:11:40Z</time>
      </trkpt>
      <trkpt lat="44.78735" lon="5.67781">
        <ele>709</ele>
        <time>2017-11-23T03:11:58Z</time>
      </trkpt>
      <trkpt lat="44.78705" lon="5.67846">
        <ele>707</ele>
        <time>2017-11-23T03:12:09Z</time>
      </trkpt>
      <trkpt lat="44.787" lon="5.6788">
        <ele>707</ele>
        <time>2017-11-23T03:12:20Z</time>
      </trkpt>
      <trkpt lat="44.78698" lon="5.67904">
        <ele>707</ele>
        <time>2017-11-23T03:12:31Z</time>
      </trkpt>
      <trkpt lat="44.78697" lon="5.6792">
        <ele>702</ele>
        <time>2017-11-23T03:12:51Z</time>
      </trkpt>
      <trkpt lat="44.78688" lon="5.6794">
        <ele>702</ele>
        <time>2017-11-23T03:13:02Z</time>
      </trkpt>
      <trkpt lat="44.78679" lon="5.67952">
        <ele>701</ele>
        <time>2017-11-23T03:13:16Z</time>
      </trkpt>
      <trkpt lat="44.78658" lon="5.67969">
        <ele>707</ele>
        <time>2017-11-23T03:13:27Z</time>
      </trkpt>
      <trkpt lat="44.78615" lon="5.68">
        <ele>708</ele>
        <time>2017-11-23T03:13:29Z</time>
      </trkpt>
      <trkpt lat="44.78558" lon="5.68035">
        <ele>700</ele>
        <time>2017-11-23T03:13:37Z</time>
      </trkpt>
      <trkpt lat="44.78544" lon="5.68043">
        <ele>700</ele>
        <time>2017-11-23T03:13:50Z</time>
      </trkpt>
      <trkpt lat="44.78531" lon="5.68042">
        <ele>701</ele>
        <time>2017-11-23T03:14:07Z</time>
      </trkpt>
      <trkpt lat="44.78497" lon="5.68022">
        <ele>708</ele>
        <time>2017-11-23T03:14:16Z</time>
      </trkpt>
      <trkpt lat="44.78476" lon="5.68022">
        <ele>707</ele>
        <time>2017-11-23T03:14:21Z</time>
      </trkpt>
      <trkpt lat="44.78464" lon="5.68026">
        <ele>706</ele>
        <time>2017-11-23T03:14:26Z</time>
      </trkpt>
      <trkpt lat="44.78454" lon="5.68003">
        <ele>707</ele>
        <time>2017-11-23T03:14:40Z</time>
      </trkpt>
      <trkpt lat="44.78446" lon="5.67998">
        <ele>715</ele>
        <time>2017-11-23T03:14:58Z</time>
      </trkpt>
      <trkpt lat="44.78438" lon="5.67998">
        <ele>714</ele>
        <time>2017-11-23T03:15:07Z</time>
      </trkpt>
      <trkpt lat="44.78417" lon="5.68008">
        <ele>709</ele>
        <time>2017-11-23T03:15:24Z</time>
      </trkpt>
      <trkpt lat="44.78409" lon="5.6801">
        <ele>709</ele>
        <time>2017-11-23T03:15:41Z</time>
      </trkpt>
      <trkpt lat="44.78375" lon="5.6801">
        <ele>707</ele>
        <time>2017-11-23T03:16:00Z</time>
      </trkpt>
      <trkpt lat="44.78358" lon="5.68009">
        <ele>707</ele>
        <time>2017-11-23T03:16:09Z</time>
      </trkpt>
      <trkpt lat="44.78347" lon="5.68005">
        <ele>707</ele>
        <time>2017-11-23T03:16:22Z</time>
      </trkpt>
      <trkpt lat="44.78325" lon="5.6799">
        <ele>711</ele>
        <time>2017-11-23T03:16:31Z</time>
      </trkpt>
      <trkpt lat="44.78267" lon="5.67936">
        <ele>715</ele>
        <time>2017-11-23T03:16:38Z</time>
      </trkpt>
      <trkpt lat="44.78187" lon="5.67849">
        <ele>719</ele>
        <time>2017-11-23T03:16:44Z</time>
      </trkpt>
      <trkpt lat="44.7815" lon="5.67811">
        <ele>721</ele>
        <time>2017-11-23T03:16:54Z</time>
      </trkpt>
      <trkpt lat="44.78109" lon="5.67768">
        <ele>722</ele>
        <time>2017-11-23T03:17:05Z</time>
      </trkpt>
      <trkpt lat="44.78097" lon="5.67747">
        <ele>725</ele>
        <time>2017-11-23T03:17:16Z</time>
      </trkpt>
      <trkpt lat="44.78092" lon="5.67726">
        <ele>727</ele>
        <time>2017-11-23T03:17:20Z</time>
      </trkpt>
      <trkpt lat="44.78078" lon="5.67641">
        <ele>728</ele>
        <time>2017-11-23T03:17:23Z</time>
      </trkpt>
      <trkpt lat="44.78063" lon="5.6754">
        <ele>732</ele>
        <time>2017-11-23T03:17:29Z</time>
      </trkpt>
      <trkpt lat="44.78047" lon="5.67421">
        <ele>736</ele>
        <time>2017-11-23T03:17:46Z</time>
      </trkpt>
      <trkpt lat="44.78039" lon="5.67383">
        <ele>741</ele>
        <time>2017-11-23T03:17:55Z</time>
      </trkpt>
      <trkpt lat="44.78019" lon="5.67327">
        <ele>747</ele>
        <time>2017-11-23T03:18:13Z</time>
      </trkpt>
      <trkpt lat="44.78006" lon="5.67292">
        <ele>751</ele>
        <time>2017-11-23T03:18:19Z</time>
      </trkpt>
      <trkpt lat="44.77993" lon="5.67268">
        <ele>746</ele>
        <time>2017-11-23T03:18:39Z</time>
      </trkpt>
      <trkpt lat="44.77949" lon="5.67221">
        <ele>757</ele>
        <time>2017-11-23T03:18:42Z</time>
      </trkpt>
      <trkpt lat="44.77916" lon="5.67181">
        <ele>757</ele>
        <time>2017-11-23T03:18:44Z</time>
      </trkpt>
      <trkpt lat="44.77885" lon="5.67152">
        <ele>764</ele>
        <time>2017-11-23T03:19:04Z</time>
      </trkpt>
      <trkpt lat="44.77873" lon="5.67137">
        <ele>764</ele>
        <time>2017-11-23T03:19:08Z</time>
      </trkpt>
      <trkpt lat="44.77867" lon="5.67111">
        <ele>766</ele>
        <time>2017-11-23T03:19:12Z</time>
      </trkpt>
      <trkpt lat="44.77858" lon="5.67078">
        <ele>775</ele>
        <time>2017-11-23T03:19:31Z</time>
      </trkpt>
      <trkpt lat="44.77846" lon="5.67065">
        <ele>774</ele>
        <time>2017-11-23T03:19:49Z</time>
      </trkpt>
      <trkpt lat="44.77824" lon="5.67057">
        <ele>764</ele>
        <time>2017-11-23T03:19:58Z</time>
      </trkpt>
      <trkpt lat="44.7781" lon="5.67045">
        <ele>764</ele>
        <time>2017-11-23T03:20:14Z</time>
      </trkpt>
      <trkpt lat="44.778" lon="5.67027">
        <ele>765</ele>
        <time>2017-11-23T03:20:30Z</time>
      </trkpt>
      <trkpt lat="44.7779" lon="5.67014">
        <ele>765</ele>
        <time>2017-11-23T03:20:40Z</time>
      </trkpt>
      <trkpt lat="44.77774" lon="5.67">
        <ele>771</ele>
        <time>2017-11-23T03:20:48Z</time>
      </trkpt>
      <trkpt lat="44.77759" lon="5.66991">
        <ele>768</ele>
        <time>2017-11-23T03:20:54Z</time>
      </trkpt>
      <trkpt lat="44.77748" lon="5.66987">
        <ele>764</ele>
        <time>2017-11-23T03:21:06Z</time>
      </trkpt>
      <trkpt lat="44.77723" lon="5.66987">
        <ele>764</ele>
        <time>2017-11-23T03:21:17Z</time>
      </trkpt>
      <trkpt lat="44.77712" lon="5.66984">
        <ele>764</ele>
        <time>2017-11-23T03:21:22Z</time>
      </trkpt>
      <trkpt lat="44.77702" lon="5.66979">
        <ele>764</ele>
        <time>2017-11-23T03:21:30Z</time>
      </trkpt>
      <trkpt lat="44.7769" lon="5.66965">
        <ele>764</ele>
        <time>2017-11-23T03:21:45Z</time>
      </trkpt>
      <trkpt lat="44.77676" lon="5.66932">
        <ele>765</ele>
        <time>2017-11-23T03:21:58Z</time>
      </trkpt>
      <trkpt lat="44.77662" lon="5.66906">
        <ele>765</ele>
        <time>2017-11-23T03:22:17Z</time>
      </trkpt>
      <trkpt lat="44.77651" lon="5.66899">
        <ele>766</ele>
        <time>2017-11-23T03:22:34Z</time>
      </trkpt>
      <trkpt lat="44.77633" lon="5.66897">
        <ele>765</ele>
        <time>2017-11-23T03:22:44Z</time>
      </trkpt>
      <trkpt lat="44.77619" lon="5.66892">
        <ele>764</ele>
        <time>2017-11-23T03:22:52Z</time>
      </trkpt>
      <trkpt lat="44.77603" lon="5.66876">
        <ele>764</ele>
        <time>2017-11-23T03:22:55Z</time>
      </trkpt>
      <trkpt lat="44.77579" lon="5.66843">
        <ele>764</ele>
        <time>2017-11-23T03:23:11Z</time>
      </trkpt>
      <trkpt lat="44.77562" lon="5.66814">
        <ele>767</ele>
        <time>2017-11-23T03:23:30Z</time>
      </trkpt>
      <trkpt lat="44.77542" lon="5.66766">
        <ele>769</ele>
        <time>2017-11-23T03:23:34Z</time>
      </trkpt>
      <trkpt lat="44.77532" lon="5.66751">
        <ele>769</ele>
        <time>2017-11-23T03:23:36Z</time>
      </trkpt>
      <trkpt lat="44.77523" lon="5.66748">
        <ele>773</ele>
        <time>2017-11-23T03:23:54Z</time>
      </trkpt>
      <trkpt lat="44.77515" lon="5.66749">
        <ele>772</ele>
        <time>2017-11-23T03:24:12Z</time>
      </trkpt>
      <trkpt lat="44.77506" lon="5.66755">
        <ele>769</ele>
        <time>2017-11-23T03:24:19Z</time>
      </trkpt>
      <trkpt lat="44.77493" lon="5.66776">
        <ele>767</ele>
        <time>2017-11-23T03:24:30Z</time>
      </trkpt>
      <trkpt lat="44.77479" lon="5.66791">
        <ele>766</ele>
        <time>2017-11-23T03:24:34Z</time>
      </trkpt>
      <trkpt lat="44.77467" lon="5.66792">
        <ele>766</ele>
        <time>2017-11-23T03:24:42Z</time>
      </trkpt>
      <trkpt lat="44.7744" lon="5.66782">
        <ele>766</ele>
        <time>2017-11-23T03:24:59Z</time>
      </trkpt>
      <trkpt lat="44.77406" lon="5.66769">
        <ele>769</ele>
        <time>2017-11-23T03:25:06Z</time>
      </trkpt>
      <trkpt lat="44.77362" lon="5.66759">
        <ele>770</ele>
        <time>2017-11-23T03:25:13Z</time>
      </trkpt>
      <trkpt lat="44.77319" lon="5.66752">
        <ele>773</ele>
        <time>2017-11-23T03:25:24Z</time>
      </trkpt>
      <trkpt lat="44.77312" lon="5.66753">
        <ele>773</ele>
        <time>2017-11-23T03:25:37Z</time>
      </trkpt>
      <trkpt lat="44.77306" lon="5.66757">
        <ele>774</ele>
        <time>2017-11-23T03:25:50Z</time>
      </trkpt>
      <trkpt lat="44.77302" lon="5.66765">
        <ele>774</ele>
        <time>2017-11-23T03:26:03Z</time>
      </trkpt>
      <trkpt lat="44.77297" lon="5.66775">
        <ele>774</ele>
        <time>2017-11-23T03:26:21Z</time>
      </trkpt>
      <trkpt lat="44.77294" lon="5.66788">
        <ele>774</ele>
        <time>2017-11-23T03:26:30Z</time>
      </trkpt>
      <trkpt lat="44.77296" lon="5.66798">
        <ele>774</ele>
        <time>2017-11-23T03:26:44Z</time>
      </trkpt>
      <trkpt lat="44.77305" lon="5.66818">
        <ele>773</ele>
        <time>2017-11-23T03:26:46Z</time>
      </trkpt>
      <trkpt lat="44.77326" lon="5.66855">
        <ele>773</ele>
        <time>2017-11-23T03:26:57Z</time>
      </trkpt>
      <trkpt lat="44.77336" lon="5.66877">
        <ele>770</ele>
        <time>2017-11-23T03:27:04Z</time>
      </trkpt>
      <trkpt lat="44.77339" lon="5.66899">
        <ele>772</ele>
        <time>2017-11-23T03:27:12Z</time>
      </trkpt>
      <trkpt lat="44.77338" lon="5.66909">
        <ele>773</ele>
        <time>2017-11-23T03:27:20Z</time>
      </trkpt>
      <trkpt lat="44.77334" lon="5.66918">
        <ele>775</ele>
        <time>2017-11-23T03:27:29Z</time>
      </trkpt>
      <trkpt lat="44.7733" lon="5.66924">
        <ele>776</ele>
        <time>2017-11-23T03:27:37Z</time>
      </trkpt>
      <trkpt lat="44.77324" lon="5.66927">
        <ele>777</ele>
        <time>2017-11-23T03:27:56Z</time>
      </trkpt>
      <trkpt lat="44.77315" lon="5.66927">
        <ele>777</ele>
        <time>2017-11-23T03:28:14Z</time>
      </trkpt>
      <trkpt lat="44.77301" lon="5.66924">
        <ele>778</ele>
        <time>2017-11-23T03:28:19Z</time>
      </trkpt>
      <trkpt lat="44.77204" lon="5.66893">
        <ele>781</ele>
        <time>2017-11-23T03:28:39Z</time>
      </trkpt>
      <trkpt lat="44.77147" lon="5.66874">
        <ele>785</ele>
        <time>2017-11-23T03:28:45Z</time>
      </trkpt>
      <trkpt lat="44.77109" lon="5.66864">
        <ele>786</ele>
        <time>2017-11-23T03:28:55Z</time>
      </trkpt>
      <trkpt lat="44.77063" lon="5.66854">
        <ele>789</ele>
        <time>2017-11-23T03:29:01Z</time>
      </trkpt>
      <trkpt lat="44.77019" lon="5.66847">
        <ele>791</ele>
        <time>2017-11-23T03:29:08Z</time>
      </trkpt>
      <trkpt lat="44.7698" lon="5.66838">
        <ele>793</ele>
        <time>2017-11-23T03:29:10Z</time>
      </trkpt>
      <trkpt lat="44.76963" lon="5.66827">
        <ele>795</ele>
        <time>2017-11-23T03:29:29Z</time>
      </trkpt>
      <trkpt lat="44.76941" lon="5.66802">
        <ele>796</ele>
        <time>2017-11-23T03:29:33Z</time>
      </trkpt>
      <trkpt lat="44.76907" lon="5.66765">
        <ele>800</ele>
        <time>2017-11-23T03:29:42Z</time>
      </trkpt>
      <trkpt lat="44.76818" lon="5.66673">
        <ele>807</ele>
        <time>2017-11-23T03:29:50Z</time>
      </trkpt>
      <trkpt lat="44.76743" lon="5.666">
        <ele>812</ele>
        <time>2017-11-23T03:29:52Z</time>
      </trkpt>
      <trkpt lat="44.7671" lon="5.66562">
        <ele>815</ele>
        <time>2017-11-23T03:30:02Z</time>
      </trkpt>
      <trkpt lat="44.76691" lon="5.66531">
        <ele>816</ele>
        <time>2017-11-23T03:30:04Z</time>
      </trkpt>
      <trkpt lat="44.7668" lon="5.66516">
        <ele>817</ele>
        <time>2017-11-23T03:30:16Z</time>
      </trkpt>
      <trkpt lat="44.76663" lon="5.665">
        <ele>820</ele>
        <time>2017-11-23T03:30:22Z</time>
      </trkpt>
      <trkpt lat="44.76586" lon="5.66437">
        <ele>828</ele>
        <time>2017-11-23T03:30:35Z</time>
      </trkpt>
      <trkpt lat="44.76549" lon="5.66413">
        <ele>834</ele>
        <time>2017-11-23T03:30:50Z</time>
      </trkpt>
      <trkpt lat="44.76535" lon="5.66412">
        <ele>835</ele>
        <time>2017-11-23T03:31:05Z</time>
      </trkpt>
      <trkpt lat="44.76495" lon="5.66428">
        <ele>837</ele>
        <time>2017-11-23T03:31:15Z</time>
      </trkpt>
      <trkpt lat="44.7648" lon="5.66435">
        <ele>838</ele>
        <time>2017-11-23T03:31:30Z</time>
      </trkpt>
      <trkpt lat="44.76462" lon="5.66442">
        <ele>838</ele>
        <time>2017-11-23T03:31:49Z</time>
      </trkpt>
      <trkpt lat="44.76448" lon="5.66435">
        <ele>839</ele>
        <time>2017-11-23T03:32:03Z</time>
      </trkpt>
      <trkpt lat="44.76434" lon="5.66427">
        <ele>840</ele>
        <time>2017-11-23T03:32:22Z</time>
      </trkpt>
      <trkpt lat="44.76431" lon="5.6643">
        <ele>840</ele>
        <time>2017-11-23T03:32:24Z</time>
      </trkpt>
      <trkpt lat="44.76425" lon="5.66435">
        <ele>840</ele>
        <time>2017-11-23T03:32:27Z</time>
      </trkpt>
      <trkpt lat="44.76405" lon="5.66454">
        <ele>843</ele>
        <time>2017-11-23T03:32:42Z</time>
      </trkpt>
      <trkpt lat="44.76375" lon="5.66502">
        <ele>839</ele>
        <time>2017-11-23T03:32:53Z</time>
      </trkpt>
      <trkpt lat="44.76354" lon="5.66548">
        <ele>839</ele>
        <time>2017-11-23T03:33:08Z</time>
      </trkpt>
      <trkpt lat="44.76338" lon="5.66579">
        <ele>839</ele>
        <time>2017-11-23T03:33:18Z</time>
      </trkpt>
      <trkpt lat="44.76326" lon="5.66594">
        <ele>839</ele>
        <time>2017-11-23T03:33:34Z</time>
      </trkpt>
      <trkpt lat="44.76279" lon="5.66627">
        <ele>840</ele>
        <time>2017-11-23T03:33:40Z</time>
      </trkpt>
      <trkpt lat="44.76269" lon="5.66638">
        <ele>841</ele>
        <time>2017-11-23T03:33:57Z</time>
      </trkpt>
      <trkpt lat="44.7625" lon="5.66666">
        <ele>842</ele>
        <time>2017-11-23T03:34:10Z</time>
      </trkpt>
      <trkpt lat="44.76208" lon="5.66729">
        <ele>850</ele>
        <time>2017-11-23T03:34:18Z</time>
      </trkpt>
      <trkpt lat="44.76196" lon="5.66763">
        <ele>852</ele>
        <time>2017-11-23T03:34:31Z</time>
      </trkpt>
      <trkpt lat="44.76192" lon="5.66783">
        <ele>852</ele>
        <time>2017-11-23T03:34:50Z</time>
      </trkpt>
      <trkpt lat="44.76191" lon="5.66801">
        <ele>853</ele>
        <time>2017-11-23T03:34:56Z</time>
      </trkpt>
      <trkpt lat="44.76202" lon="5.66839">
        <ele>854</ele>
        <time>2017-11-23T03:35:00Z</time>
      </trkpt>
      <trkpt lat="44.76209" lon="5.66855">
        <ele>853</ele>
        <time>2017-11-23T03:35:07Z</time>
      </trkpt>
      <trkpt lat="44.76212" lon="5.6687">
        <ele>853</ele>
        <time>2017-11-23T03:35:23Z</time>
      </trkpt>
      <trkpt lat="44.76211" lon="5.66901">
        <ele>853</ele>
        <time>2017-11-23T03:35:35Z</time>
      </trkpt>
      <trkpt lat="44.76213" lon="5.66922">
        <ele>855</ele>
        <time>2017-11-23T03:35:55Z</time>
      </trkpt>
      <trkpt lat="44.76224" lon="5.66945">
        <ele>854</ele>
        <time>2017-11-23T03:35:57Z</time>
      </trkpt>
      <trkpt lat="44.76233" lon="5.66957">
        <ele>854</ele>
        <time>2017-11-23T03:36:09Z</time>
      </trkpt>
      <trkpt lat="44.76239" lon="5.66975">
        <ele>855</ele>
        <time>2017-11-23T03:36:12Z</time>
      </trkpt>
      <trkpt lat="44.76247" lon="5.67019">
        <ele>856</ele>
        <time>2017-11-23T03:36:27Z</time>
      </trkpt>
      <trkpt lat="44.76245" lon="5.67039">
        <ele>858</ele>
        <time>2017-11-23T03:36:40Z</time>
      </trkpt>
      <trkpt lat="44.76242" lon="5.67045">
        <ele>858</ele>
        <time>2017-11-23T03:36:46Z</time>
      </trkpt>
      <trkpt lat="44.76233" lon="5.67052">
        <ele>858</ele>
        <time>2017-11-23T03:37:01Z</time>
      </trkpt>
      <trkpt lat="44.76194" lon="5.6705">
        <ele>859</ele>
        <time>2017-11-23T03:37:11Z</time>
      </trkpt>
      <trkpt lat="44.76164" lon="5.6705">
        <ele>857</ele>
        <time>2017-11-23T03:37:22Z</time>
      </trkpt>
      <trkpt lat="44.76136" lon="5.67039">
        <ele>857</ele>
        <time>2017-11-23T03:37:30Z</time>
      </trkpt>
      <trkpt lat="44.76121" lon="5.67027">
        <ele>856</ele>
        <time>2017-11-23T03:37:36Z</time>
      </trkpt>
      <trkpt lat="44.76107" lon="5.67008">
        <ele>857</ele>
        <time>2017-11-23T03:37:42Z</time>
      </trkpt>
      <trkpt lat="44.76085" lon="5.66982">
        <ele>861</ele>
        <time>2017-11-23T03:37:57Z</time>
      </trkpt>
      <trkpt lat="44.76061" lon="5.66969">
        <ele>860</ele>
        <time>2017-11-23T03:37:59Z</time>
      </trkpt>
      <trkpt lat="44.76043" lon="5.66964">
        <ele>860</ele>
        <time>2017-11-23T03:38:08Z</time>
      </trkpt>
      <trkpt lat="44.76024" lon="5.66963">
        <ele>859</ele>
        <time>2017-11-23T03:38:13Z</time>
      </trkpt>
      <trkpt lat="44.7601" lon="5.66964">
        <ele>858</ele>
        <time>2017-11-23T03:38:22Z</time>
      </trkpt>
      <trkpt lat="44.75994" lon="5.66969">
        <ele>857</ele>
        <time>2017-11-23T03:38:39Z</time>
      </trkpt>
      <trkpt lat="44.75981" lon="5.66977">
        <ele>857</ele>
        <time>2017-11-23T03:38:48Z</time>
      </trkpt>
      <trkpt lat="44.75975" lon="5.66984">
        <ele>857</ele>
        <time>2017-11-23T03:38:53Z</time>
      </trkpt>
      <trkpt lat="44.75971" lon="5.66993">
        <ele>857</ele>
        <time>2017-11-23T03:39:03Z</time>
      </trkpt>
      <trkpt lat="44.75964" lon="5.67025">
        <ele>855</ele>
        <time>2017-11-23T03:39:10Z</time>
      </trkpt>
      <trkpt lat="44.75951" lon="5.67104">
        <ele>854</ele>
        <time>2017-11-23T03:39:21Z</time>
      </trkpt>
      <trkpt lat="44.75947" lon="5.67142">
        <ele>854</ele>
        <time>2017-11-23T03:39:37Z</time>
      </trkpt>
      <trkpt lat="44.75947" lon="5.67178">
        <ele>853</ele>
        <time>2017-11-23T03:39:45Z</time>
      </trkpt>
      <trkpt lat="44.75947" lon="5.67254">
        <ele>849</ele>
        <time>2017-11-23T03:39:58Z</time>
      </trkpt>
      <trkpt lat="44.75942" lon="5.6731">
        <ele>848</ele>
        <time>2017-11-23T03:40:03Z</time>
      </trkpt>
      <trkpt lat="44.75934" lon="5.6738">
        <ele>845</ele>
        <time>2017-11-23T03:40:13Z</time>
      </trkpt>
      <trkpt lat="44.75937" lon="5.67438">
        <ele>842</ele>
        <time>2017-11-23T03:40:32Z</time>
      </trkpt>
      <trkpt lat="44.7595" lon="5.67506">
        <ele>837</ele>
        <time>2017-11-23T03:40:36Z</time>
      </trkpt>
      <trkpt lat="44.75955" lon="5.67545">
        <ele>836</ele>
        <time>2017-11-23T03:40:41Z</time>
      </trkpt>
      <trkpt lat="44.75951" lon="5.67567">
        <ele>836</ele>
        <time>2017-11-23T03:40:45Z</time>
      </trkpt>
      <trkpt lat="44.75947" lon="5.67576">
        <ele>837</ele>
        <time>2017-11-23T03:40:52Z</time>
      </trkpt>
      <trkpt lat="44.75934" lon="5.67585">
        <ele>837</ele>
        <time>2017-11-23T03:41:07Z</time>
      </trkpt>
      <trkpt lat="44.75914" lon="5.67598">
        <ele>841</ele>
        <time>2017-11-23T03:41:24Z</time>
      </trkpt>
      <trkpt lat="44.7589" lon="5.6761">
        <ele>841</ele>
        <time>2017-11-23T03:41:32Z</time>
      </trkpt>
      <trkpt lat="44.75836" lon="5.6762">
        <ele>841</ele>
        <time>2017-11-23T03:41:41Z</time>
      </trkpt>
      <trkpt lat="44.75815" lon="5.67624">
        <ele>844</ele>
        <time>2017-11-23T03:41:50Z</time>
      </trkpt>
      <trkpt lat="44.75805" lon="5.67628">
        <ele>845</ele>
        <time>2017-11-23T03:42:07Z</time>
      </trkpt>
      <trkpt lat="44.75801" lon="5.67631">
        <ele>845</ele>
        <time>2017-11-23T03:42:24Z</time>
      </trkpt>
      <trkpt lat="44.75799" lon="5.67653">
        <ele>844</ele>
        <time>2017-11-23T03:42:39Z</time>
      </trkpt>
      <trkpt lat="44.75794" lon="5.67676">
        <ele>841</ele>
        <time>2017-11-23T03:42:57Z</time>
      </trkpt>
      <trkpt lat="44.75791" lon="5.67693">
        <ele>841</ele>
        <time>2017-11-23T03:43:06Z</time>
      </trkpt>
      <trkpt lat="44.75788" lon="5.67713">
        <ele>840</ele>
        <time>2017-11-23T03:43:24Z</time>
      </trkpt>
      <trkpt lat="44.75785" lon="5.67767">
        <ele>836</ele>
        <time>2017-11-23T03:43:36Z</time>
      </trkpt>
      <trkpt lat="44.75785" lon="5.67811">
        <ele>835</ele>
        <time>2017-11-23T03:43:53Z</time>
      </trkpt>
      <trkpt lat="44.75783" lon="5.67831">
        <ele>835</ele>
        <time>2017-11-23T03:44:00Z</time>
      </trkpt>
      <trkpt lat="44.75779" lon="5.67845">
        <ele>832</ele>
        <time>2017-11-23T03:44:08Z</time>
      </trkpt>
      <trkpt lat="44.75761" lon="5.67884">
        <ele>831</ele>
        <time>2017-11-23T03:44:20Z</time>
      </trkpt>
      <trkpt lat="44.75744" lon="5.67921">
        <ele>831</ele>
        <time>2017-11-23T03:44:36Z</time>
      </trkpt>
      <trkpt lat="44.75709" lon="5.67996">
        <ele>829</ele>
        <time>2017-11-23T03:44:56Z</time>
      </trkpt>
      <trkpt lat="44.75687" lon="5.68029">
        <ele>823</ele>
        <time>2017-11-23T03:45:02Z</time>
      </trkpt>
      <trkpt lat="44.75679" lon="5.68034">
        <ele>823</ele>
        <time>2017-11-23T03:45:08Z</time>
      </trkpt>
      <trkpt lat="44.75653" lon="5.68041">
        <ele>819</ele>
        <time>2017-11-23T03:45:28Z</time>
      </trkpt>
      <trkpt lat="44.75618" lon="5.68033">
        <ele>819</ele>
        <time>2017-11-23T03:45:42Z</time>
      </trkpt>
      <trkpt lat="44.75581" lon="5.68022">
        <ele>817</ele>
        <time>2017-11-23T03:46:00Z</time>
      </trkpt>
      <trkpt lat="44.7556" lon="5.68021">
        <ele>816</ele>
        <time>2017-11-23T03:46:12Z</time>
      </trkpt>
      <trkpt lat="44.75544" lon="5.68025">
        <ele>815</ele>
        <time>2017-11-23T03:46:26Z</time>
      </trkpt>
      <trkpt lat="44.75514" lon="5.68033">
        <ele>815</ele>
        <time>2017-11-23T03:46:44Z</time>
      </trkpt>
      <trkpt lat="44.75506" lon="5.68032">
        <ele>815</ele>
        <time>2017-11-23T03:46:46Z</time>
      </trkpt>
      <trkpt lat="44.75492" lon="5.68026">
        <ele>815</ele>
        <time>2017-11-23T03:47:01Z</time>
      </trkpt>
      <trkpt lat="44.7546" lon="5.68003">
        <ele>815</ele>
        <time>2017-11-23T03:47:12Z</time>
      </trkpt>
      <trkpt lat="44.75443" lon="5.67993">
        <ele>822</ele>
        <time>2017-11-23T03:47:32Z</time>
      </trkpt>
      <trkpt lat="44.75427" lon="5.67991">
        <ele>820</ele>
        <time>2017-11-23T03:47:40Z</time>
      </trkpt>
      <trkpt lat="44.75417" lon="5.67994">
        <ele>817</ele>
        <time>2017-11-23T03:47:56Z</time>
      </trkpt>
      <trkpt lat="44.7541" lon="5.68001">
        <ele>815</ele>
        <time>2017-11-23T03:48:05Z</time>
      </trkpt>
      <trkpt lat="44.75404" lon="5.6801">
        <ele>815</ele>
        <time>2017-11-23T03:48:08Z</time>
      </trkpt>
      <trkpt lat="44.75399" lon="5.6802">
        <ele>815</ele>
        <time>2017-11-23T03:48:14Z</time>
      </trkpt>
      <trkpt lat="44.75398" lon="5.68035">
        <ele>815</ele>
        <time>2017-11-23T03:48:21Z</time>
      </trkpt>
      <trkpt lat="44.754" lon="5.68051">
        <ele>815</ele>
        <time>2017-11-23T03:48:32Z</time>
      </trkpt>
      <trkpt lat="44.75408" lon="5.6807">
        <ele>814</ele>
        <time>2017-11-23T03:48:34Z</time>
      </trkpt>
      <trkpt lat="44.75428" lon="5.68093">
        <ele>814</ele>
        <time>2017-11-23T03:48:43Z</time>
      </trkpt>
      <trkpt lat="44.75462" lon="5.68129">
        <ele>817</ele>
        <time>2017-11-23T03:48:49Z</time>
      </trkpt>
      <trkpt lat="44.75493" lon="5.68157">
        <ele>817</ele>
        <time>2017-11-23T03:49:05Z</time>
      </trkpt>
      <trkpt lat="44.75528" lon="5.68178">
        <ele>820</ele>
        <time>2017-11-23T03:49:13Z</time>
      </trkpt>
      <trkpt lat="44.75569" lon="5.68201">
        <ele>819</ele>
        <time>2017-11-23T03:49:19Z</time>
      </trkpt>
      <trkpt lat="44.75617" lon="5.68228">
        <ele>813</ele>
        <time>2017-11-23T03:49:34Z</time>
      </trkpt>
      <trkpt lat="44.75657" lon="5.68253">
        <ele>815</ele>
        <time>2017-11-23T03:49:54Z</time>
      </trkpt>
      <trkpt lat="44.75669" lon="5.68266">
        <ele>809</ele>
        <time>2017-11-23T03:50:11Z</time>
      </trkpt>
      <trkpt lat="44.75677" lon="5.68276">
        <ele>810</ele>
        <time>2017-11-23T03:50:26Z</time>
      </trkpt>
      <trkpt lat="44.75685" lon="5.68296">
        <ele>812</ele>
        <time>2017-11-23T03:50:32Z</time>
      </trkpt>
      <trkpt lat="44.75697" lon="5.68326">
        <ele>814</ele>
        <time>2017-11-23T03:50:43Z</time>
      </trkpt>
      <trkpt lat="44.75716" lon="5.68356">
        <ele>823</ele>
        <time>2017-11-23T03:50:49Z</time>
      </trkpt>
      <trkpt lat="44.75727" lon="5.6837">
        <ele>823</ele>
        <time>2017-11-23T03:50:52Z</time>
      </trkpt>
      <trkpt lat="44.75738" lon="5.68376">
        <ele>823</ele>
        <time>2017-11-23T03:51:01Z</time>
      </trkpt>
      <trkpt lat="44.75766" lon="5.68391">
        <ele>812</ele>
        <time>2017-11-23T03:51:07Z</time>
      </trkpt>
      <trkpt lat="44.75794" lon="5.68402">
        <ele>809</ele>
        <time>2017-11-23T03:51:15Z</time>
      </trkpt>
      <trkpt lat="44.7582" lon="5.6842">
        <ele>815</ele>
        <time>2017-11-23T03:51:20Z</time>
      </trkpt>
      <trkpt lat="44.75834" lon="5.68434">
        <ele>805</ele>
        <time>2017-11-23T03:51:29Z</time>
      </trkpt>
      <trkpt lat="44.7586" lon="5.68472">
        <ele>806</ele>
        <time>2017-11-23T03:51:42Z</time>
      </trkpt>
      <trkpt lat="44.75882" lon="5.68525">
        <ele>811</ele>
        <time>2017-11-23T03:51:49Z</time>
      </trkpt>
      <trkpt lat="44.75909" lon="5.68591">
        <ele>811</ele>
        <time>2017-11-23T03:52:04Z</time>
      </trkpt>
      <trkpt lat="44.75917" lon="5.68636">
        <ele>802</ele>
        <time>2017-11-23T03:52:12Z</time>
      </trkpt>
      <trkpt lat="44.75918" lon="5.68695">
        <ele>806</ele>
        <time>2017-11-23T03:52:31Z</time>
      </trkpt>
      <trkpt lat="44.75916" lon="5.68728">
        <ele>819</ele>
        <time>2017-11-23T03:52:43Z</time>
      </trkpt>
      <trkpt lat="44.75916" lon="5.68753">
        <ele>815</ele>
        <time>2017-11-23T03:52:52Z</time>
      </trkpt>
      <trkpt lat="44.75926" lon="5.68806">
        <ele>810</ele>
        <time>2017-11-23T03:53:03Z</time>
      </trkpt>
      <trkpt lat="44.75942" lon="5.68865">
        <ele>809</ele>
        <time>2017-11-23T03:53:12Z</time>
      </trkpt>
      <trkpt lat="44.75946" lon="5.68888">
        <ele>809</ele>
        <time>2017-11-23T03:53:17Z</time>
      </trkpt>
      <trkpt lat="44.75956" lon="5.6895">
        <ele>809</ele>
        <time>2017-11-23T03:53:32Z</time>
      </trkpt>
      <trkpt lat="44.75972" lon="5.69">
        <ele>809</ele>
        <time>2017-11-23T03:53:42Z</time>
      </trkpt>
      <trkpt lat="44.76007" lon="5.691">
        <ele>806</ele>
        <time>2017-11-23T03:53:55Z</time>
      </trkpt>
      <trkpt lat="44.76019" lon="5.69123">
        <ele>807</ele>
        <time>2017-11-23T03:54:02Z</time>
      </trkpt>
      <trkpt lat="44.76033" lon="5.69142">
        <ele>807</ele>
        <time>2017-11-23T03:54:06Z</time>
      </trkpt>
      <trkpt lat="44.76046" lon="5.69156">
        <ele>806</ele>
        <time>2017-11-23T03:54:22Z</time>
      </trkpt>
      <trkpt lat="44.76063" lon="5.69174">
        <ele>809</ele>
        <time>2017-11-23T03:54:41Z</time>
      </trkpt>
      <trkpt lat="44.7608" lon="5.69199">
        <ele>810</ele>
        <time>2017-11-23T03:54:46Z</time>
      </trkpt>
      <trkpt lat="44.76094" lon="5.69224">
        <ele>805</ele>
        <time>2017-11-23T03:55:01Z</time>
      </trkpt>
      <trkpt lat="44.76102" lon="5.69243">
        <ele>806</ele>
        <time>2017-11-23T03:55:05Z</time>
      </trkpt>
      <trkpt lat="44.76127" lon="5.69325">
        <ele>809</ele>
        <time>2017-11-23T03:55:23Z</time>
      </trkpt>
      <trkpt lat="44.76149" lon="5.6939">
        <ele>812</ele>
        <time>2017-11-23T03:55:35Z</time>
      </trkpt>
      <trkpt lat="44.76161" lon="5.69415">
        <ele>810</ele>
        <time>2017-11-23T03:55:44Z</time>
      </trkpt>
      <trkpt lat="44.76175" lon="5.69436">
        <ele>808</ele>
        <time>2017-11-23T03:55:51Z</time>
      </trkpt>
      <trkpt lat="44.76195" lon="5.69459">
        <ele>807</ele>
        <time>2017-11-23T03:55:59Z</time>
      </trkpt>
      <trkpt lat="44.76246" lon="5.69513">
        <ele>810</ele>
        <time>2017-11-23T03:56:16Z</time>
      </trkpt>
      <trkpt lat="44.76292" lon="5.6956">
        <ele>807</ele>
        <time>2017-11-23T03:56:33Z</time>
      </trkpt>
      <trkpt lat="44.76315" lon="5.6958">
        <ele>806</ele>
        <time>2017-11-23T03:56:46Z</time>
      </trkpt>
      <trkpt lat="44.76341" lon="5.696">
        <ele>805</ele>
        <time>2017-11-23T03:56:57Z</time>
      </trkpt>
      <trkpt lat="44.76356" lon="5.69615">
        <ele>805</ele>
        <time>2017-11-23T03:57:16Z</time>
      </trkpt>
      <trkpt lat="44.76373" lon="5.6964">
        <ele>806</ele>
        <time>2017-11-23T03:57:22Z</time>
      </trkpt>
      <trkpt lat="44.76413" lon="5.69712">
        <ele>810</ele>
        <time>2017-11-23T03:57:40Z</time>
      </trkpt>
      <trkpt lat="44.76446" lon="5.69749">
        <ele>804</ele>
        <time>2017-11-23T03:57:45Z</time>
      </trkpt>
      <trkpt lat="44.76463" lon="5.69764">
        <ele>806</ele>
        <time>2017-11-23T03:58:05Z</time>
      </trkpt>
      <trkpt lat="44.76489" lon="5.69778">
        <ele>804</ele>
        <time>2017-11-23T03:58:22Z</time>
      </trkpt>
      <trkpt lat="44.76517" lon="5.69787">
        <ele>801</ele>
        <time>2017-11-23T03:58:38Z</time>
      </trkpt>
      <trkpt lat="44.76545" lon="5.6979">
        <ele>800</ele>
        <time>2017-11-23T03:58:50Z</time>
      </trkpt>
      <trkpt lat="44.76572" lon="5.69786">
        <ele>799</ele>
        <time>2017-11-23T03:59:08Z</time>
      </trkpt>
      <trkpt lat="44.76602" lon="5.69779">
        <ele>796</ele>
        <time>2017-11-23T03:59:14Z</time>
      </trkpt>
      <trkpt lat="44.76633" lon="5.69776">
        <ele>796</ele>
        <time>2017-11-23T03:59:18Z</time>
      </trkpt>
      <trkpt lat="44.76768" lon="5.69779">
        <ele>794</ele>
        <time>2017-11-23T03:59:23Z</time>
      </trkpt>
      <trkpt lat="44.76796" lon="5.6978">
        <ele>794</ele>
        <time>2017-11-23T03:59:31Z</time>
      </trkpt>
      <trkpt lat="44.76806" lon="5.69782">
        <ele>794</ele>
        <time>2017-11-23T03:59:37Z</time>
      </trkpt>
      <trkpt lat="44.76818" lon="5.69788">
        <ele>794</ele>
        <time>2017-11-23T03:59:57Z</time>
      </trkpt>
      <trkpt lat="44.76925" lon="5.69843">
        <ele>792</ele>
        <time>2017-11-23T04:00:03Z</time>
      </trkpt>
      <trkpt lat="44.76953" lon="5.69863">
        <ele>791</ele>
        <time>2017-11-23T04:00:19Z</time>
      </trkpt>
      <trkpt lat="44.76962" lon="5.69871">
        <ele>790</ele>
        <time>2017-11-23T04:00:25Z</time>
      </trkpt>
      <trkpt lat="44.76969" lon="5.6988">
        <ele>790</ele>
        <time>2017-11-23T04:00:33Z</time>
      </trkpt>
      <trkpt lat="44.76975" lon="5.69891">
        <ele>790</ele>
        <time>2017-11-23T04:00:38Z</time>
      </trkpt>
      <trkpt lat="44.76982" lon="5.69919">
        <ele>790</ele>
        <time>2017-11-23T04:00:45Z</time>
      </trkpt>
      <trkpt lat="44.76987" lon="5.69969">
        <ele>790</ele>
        <time>2017-11-23T04:00:47Z</time>
      </trkpt>
      <trkpt lat="44.76989" lon="5.70022">
        <ele>790</ele>
        <time>2017-11-23T04:01:01Z</time>
      </trkpt>
      <trkpt lat="44.76991" lon="5.70072">
        <ele>789</ele>
        <time>2017-11-23T04:01:08Z</time>
      </trkpt>
      <trkpt lat="44.77004" lon="5.70158">
        <ele>786</ele>
        <time>2017-11-23T04:01:25Z</time>
      </trkpt>
      <trkpt lat="44.77024" lon="5.7029">
        <ele>789</ele>
        <time>2017-11-23T04:01:39Z</time>
      </trkpt>
      <trkpt lat="44.77028" lon="5.70331">
        <ele>789</ele>
        <time>2017-11-23T04:01:55Z</time>
      </trkpt>
      <trkpt lat="44.77027" lon="5.7037">
        <ele>788</ele>
        <time>2017-11-23T04:02:07Z</time>
      </trkpt>
      <trkpt lat="44.77017" lon="5.70452">
        <ele>785</ele>
        <time>2017-11-23T04:02:11Z</time>
      </trkpt>
      <trkpt lat="44.77017" lon="5.70468">
        <ele>785</ele>
        <time>2017-11-23T04:02:29Z</time>
      </trkpt>
      <trkpt lat="44.77012" lon="5.70477">
        <ele>785</ele>
        <time>2017-11-23T04:02:37Z</time>
      </trkpt>
      <trkpt lat="44.77004" lon="5.70498">
        <ele>786</ele>
        <time>2017-11-23T04:02:57Z</time>
      </trkpt>
      <trkpt lat="44.76968" lon="5.70611">
        <ele>789</ele>
        <time>2017-11-23T04:03:09Z</time>
      </trkpt>
      <trkpt lat="44.76911" lon="5.70787">
        <ele>792</ele>
        <time>2017-11-23T04:03:26Z</time>
      </trkpt>
      <trkpt lat="44.769" lon="5.70834">
        <ele>789</ele>
        <time>2017-11-23T04:03:34Z</time>
      </trkpt>
      <trkpt lat="44.7689" lon="5.70909">
        <ele>789</ele>
        <time>2017-11-23T04:03:43Z</time>
      </trkpt>
      <trkpt lat="44.76874" lon="5.7103">
        <ele>787</ele>
        <time>2017-11-23T04:03:56Z</time>
      </trkpt>
      <trkpt lat="44.76866" lon="5.71084">
        <ele>788</ele>
        <time>2017-11-23T04:04:09Z</time>
      </trkpt>
      <trkpt lat="44.76853" lon="5.71128">
        <ele>788</ele>
        <time>2017-11-23T04:04:27Z</time>
      </trkpt>
      <trkpt lat="44.76824" lon="5.71193">
        <ele>794</ele>
        <time>2017-11-23T04:04:41Z</time>
      </trkpt>
      <trkpt lat="44.7676" lon="5.71327">
        <ele>793</ele>
        <time>2017-11-23T04:04:56Z</time>
      </trkpt>
      <trkpt lat="44.76724" lon="5.71406">
        <ele>798</ele>
        <time>2017-11-23T04:05:01Z</time>
      </trkpt>
      <trkpt lat="44.76707" lon="5.7147">
        <ele>796</ele>
        <time>2017-11-23T04:05:09Z</time>
      </trkpt>
      <trkpt lat="44.76688" lon="5.71547">
        <ele>793</ele>
        <time>2017-11-23T04:05:15Z</time>
      </trkpt>
      <trkpt lat="44.76679" lon="5.71588">
        <ele>794</ele>
        <time>2017-11-23T04:05:35Z</time>
      </trkpt>
      <trkpt lat="44.76649" lon="5.71669">
        <ele>794</ele>
        <time>2017-11-23T04:05:46Z</time>
      </trkpt>
      <trkpt lat="44.76637" lon="5.71695">
        <ele>796</ele>
        <time>2017-11-23T04:05:49Z</time>
      </trkpt>
      <trkpt lat="44.76627" lon="5.71712">
        <ele>797</ele>
        <time>2017-11-23T04:06:09Z</time>
      </trkpt>
      <trkpt lat="44.76606" lon="5.71742">
        <ele>799</ele>
        <time>2017-11-23T04:06:20Z</time>
      </trkpt>
      <trkpt lat="44.76598" lon="5.71758">
        <ele>795</ele>
        <time>2017-11-23T04:06:40Z</time>
      </trkpt>
      <trkpt lat="44.76587" lon="5.71787">
        <ele>790</ele>
        <time>2017-11-23T04:06:45Z</time>
      </trkpt>
      <trkpt lat="44.76543" lon="5.71911">
        <ele>802</ele>
        <time>2017-11-23T04:06:53Z</time>
      </trkpt>
      <trkpt lat="44.765" lon="5.72038">
        <ele>786</ele>
        <time>2017-11-23T04:07:06Z</time>
      </trkpt>
      <trkpt lat="44.76484" lon="5.72073">
        <ele>797</ele>
        <time>2017-11-23T04:07:17Z</time>
      </trkpt>
      <trkpt lat="44.76466" lon="5.72112">
        <ele>792</ele>
        <time>2017-11-23T04:07:31Z</time>
      </trkpt>
      <trkpt lat="44.76448" lon="5.72162">
        <ele>792</ele>
        <time>2017-11-23T04:07:33Z</time>
      </trkpt>
      <trkpt lat="44.76432" lon="5.72201">
        <ele>786</ele>
        <time>2017-11-23T04:07:40Z</time>
      </trkpt>
      <trkpt lat="44.7641" lon="5.7224">
        <ele>795</ele>
        <time>2017-11-23T04:07:57Z</time>
      </trkpt>
      <trkpt lat="44.7638" lon="5.72271">
        <ele>795</ele>
        <time>2017-11-23T04:08:03Z</time>
      </trkpt>
      <trkpt lat="44.76364" lon="5.72287">
        <ele>797</ele>
        <time>2017-11-23T04:08:18Z</time>
      </trkpt>
      <trkpt lat="44.76352" lon="5.72303">
        <ele>796</ele>
        <time>2017-11-23T04:08:28Z</time>
      </trkpt>
      <trkpt lat="44.7634" lon="5.7232">
        <ele>796</ele>
        <time>2017-11-23T04:08:30Z</time>
      </trkpt>
      <trkpt lat="44.7633" lon="5.7234">
        <ele>797</ele>
        <time>2017-11-23T04:08:44Z</time>
      </trkpt>
      <trkpt lat="44.76301" lon="5.72409">
        <ele>795</ele>
        <time>2017-11-23T04:08:58Z</time>
      </trkpt>
      <trkpt lat="44.76281" lon="5.72457">
        <ele>785</ele>
        <time>2017-11-23T04:09:14Z</time>
      </trkpt>
      <trkpt lat="44.76281" lon="5.72468">
        <ele>784</ele>
        <time>2017-11-23T04:09:26Z</time>
      </trkpt>
      <trkpt lat="44.76266" lon="5.72489">
        <ele>784</ele>
        <time>2017-11-23T04:09:31Z</time>
      </trkpt>
      <trkpt lat="44.76236" lon="5.72528">
        <ele>787</ele>
        <time>2017-11-23T04:09:41Z</time>
      </trkpt>
      <trkpt lat="44.76211" lon="5.72558">
        <ele>787</ele>
        <time>2017-11-23T04:09:49Z</time>
      </trkpt>
      <trkpt lat="44.76045" lon="5.72775">
        <ele>793</ele>
        <time>2017-11-23T04:09:57Z</time>
      </trkpt>
      <trkpt lat="44.75973" lon="5.72869">
        <ele>805</ele>
        <time>2017-11-23T04:10:16Z</time>
      </trkpt>
      <trkpt lat="44.75933" lon="5.72925">
        <ele>798</ele>
        <time>2017-11-23T04:10:20Z</time>
      </trkpt>
      <trkpt lat="44.75882" lon="5.73014">
        <ele>798</ele>
        <time>2017-11-23T04:10:38Z</time>
      </trkpt>
      <trkpt lat="44.75812" lon="5.73143">
        <ele>803</ele>
        <time>2017-11-23T04:10:44Z</time>
      </trkpt>
      <trkpt lat="44.75647" lon="5.73444">
        <ele>806</ele>
        <time>2017-11-23T04:10:55Z</time>
      </trkpt>
      <trkpt lat="44.75582" lon="5.73562">
        <ele>809</ele>
        <time>2017-11-23T04:10:59Z</time>
      </trkpt>
      <trkpt lat="44.75575" lon="5.73574">
        <ele>808</ele>
        <time>2017-11-23T04:11:06Z</time>
      </trkpt>
      <trkpt lat="44.75562" lon="5.7359">
        <ele>806</ele>
        <time>2017-11-23T04:11:18Z</time>
      </trkpt>
      <trkpt lat="44.75555" lon="5.73597">
        <ele>807</ele>
        <time>2017-11-23T04:11:29Z</time>
      </trkpt>
      <trkpt lat="44.75536" lon="5.73607">
        <ele>808</ele>
        <time>2017-11-23T04:11:47Z</time>
      </trkpt>
      <trkpt lat="44.75516" lon="5.73619">
        <ele>809</ele>
        <time>2017-11-23T04:12:07Z</time>
      </trkpt>
      <trkpt lat="44.75495" lon="5.73636">
        <ele>815</ele>
        <time>2017-11-23T04:12:18Z</time>
      </trkpt>
      <trkpt lat="44.75465" lon="5.73663">
        <ele>816</ele>
        <time>2017-11-23T04:12:24Z</time>
      </trkpt>
      <trkpt lat="44.75423" lon="5.7369">
        <ele>812</ele>
        <time>2017-11-23T04:12:28Z</time>
      </trkpt>
      <trkpt lat="44.75377" lon="5.7372">
        <ele>816</ele>
        <time>2017-11-23T04:12:40Z</time>
      </trkpt>
      <trkpt lat="44.75319" lon="5.73764">
        <ele>815</ele>
        <time>2017-11-23T04:12:59Z</time>
      </trkpt>
      <trkpt lat="44.75226" lon="5.73835">
        <ele>816</ele>
        <time>2017-11-23T04:13:17Z</time>
      </trkpt>
      <trkpt lat="44.75194" lon="5.7386">
        <ele>818</ele>
        <time>2017-11-23T04:13:24Z</time>
      </trkpt>
      <trkpt lat="44.75177" lon="5.73876">
        <ele>818</ele>
        <time>2017-11-23T04:13:28Z</time>
      </trkpt>
      <trkpt lat="44.75141" lon="5.73912">
        <ele>828</ele>
        <time>2017-11-23T04:13:30Z</time>
      </trkpt>
      <trkpt lat="44.75108" lon="5.73954">
        <ele>825</ele>
        <time>2017-11-23T04:13:47Z</time>
      </trkpt>
      <trkpt lat="44.75063" lon="5.74027">
        <ele>829</ele>
        <time>2017-11-23T04:13:54Z</time>
      </trkpt>
      <trkpt lat="44.75023" lon="5.74084">
        <ele>825</ele>
        <time>2017-11-23T04:14:09Z</time>
      </trkpt>
      <trkpt lat="44.74902" lon="5.74246">
        <ele>835</ele>
        <time>2017-11-23T04:14:14Z</time>
      </trkpt>
      <trkpt lat="44.74877" lon="5.74275">
        <ele>835</ele>
        <time>2017-11-23T04:14:19Z</time>
      </trkpt>
      <trkpt lat="44.74865" lon="5.74288">
        <ele>835</ele>
        <time>2017-11-23T04:14:34Z</time>
      </trkpt>
      <trkpt lat="44.74851" lon="5.74297">
        <ele>836</ele>
        <time>2017-11-23T04:14:48Z</time>
      </trkpt>
      <trkpt lat="44.74738" lon="5.74362">
        <ele>839</ele>
        <time>2017-11-23T04:15:08Z</time>
      </trkpt>
      <trkpt lat="44.74711" lon="5.74377">
        <ele>840</ele>
        <time>2017-11-23T04:15:18Z</time>
      </trkpt>
      <trkpt lat="44.74697" lon="5.74382">
        <ele>840</ele>
        <time>2017-11-23T04:15:32Z</time>
      </trkpt>
      <trkpt lat="44.74682" lon="5.74385">
        <ele>840</ele>
        <time>2017-11-23T04:15:35Z</time>
      </trkpt>
      <trkpt lat="44.74668" lon="5.74387">
        <ele>840</ele>
        <time>2017-11-23T04:15:43Z</time>
      </trkpt>
      <trkpt lat="44.74654" lon="5.74394">
        <ele>844</ele>
        <time>2017-11-23T04:16:01Z</time>
      </trkpt>
      <trkpt lat="44.74606" lon="5.74424">
        <ele>845</ele>
        <time>2017-11-23T04:16:14Z</time>
      </trkpt>
      <trkpt lat="44.74567" lon="5.74449">
        <ele>848</ele>
        <time>2017-11-23T04:16:23Z</time>
      </trkpt>
      <trkpt lat="44.74556" lon="5.7446">
        <ele>848</ele>
        <time>2017-11-23T04:16:26Z</time>
      </trkpt>
      <trkpt lat="44.74537" lon="5.74487">
        <ele>849</ele>
        <time>2017-11-23T04:16:38Z</time>
      </trkpt>
      <trkpt lat="44.74529" lon="5.74496">
        <ele>849</ele>
        <time>2017-11-23T04:16:57Z</time>
      </trkpt>
      <trkpt lat="44.74518" lon="5.74502">
        <ele>850</ele>
        <time>2017-11-23T04:17:15Z</time>
      </trkpt>
      <trkpt lat="44.74485" lon="5.74513">
        <ele>852</ele>
        <time>2017-11-23T04:17:35Z</time>
      </trkpt>
      <trkpt lat="44.7448" lon="5.74516">
        <ele>852</ele>
        <time>2017-11-23T04:17:46Z</time>
      </trkpt>
      <trkpt lat="44.74474" lon="5.74523">
        <ele>852</ele>
        <time>2017-11-23T04:17:55Z</time>
      </trkpt>
      <trkpt lat="44.74472" lon="5.74536">
        <ele>853</ele>
        <time>2017-11-23T04:18:12Z</time>
      </trkpt>
      <trkpt lat="44.74473" lon="5.74562">
        <ele>852</ele>
        <time>2017-11-23T04:18:21Z</time>
      </trkpt>
      <trkpt lat="44.74471" lon="5.74601">
        <ele>853</ele>
        <time>2017-11-23T04:18:26Z</time>
      </trkpt>
      <trkpt lat="44.74452" lon="5.74687">
        <ele>858</ele>
        <time>2017-11-23T04:18:36Z</time>
      </trkpt>
      <trkpt lat="44.74447" lon="5.74702">
        <ele>858</ele>
        <time>2017-11-23T04:18:56Z</time>
      </trkpt>
      <trkpt lat="44.74438" lon="5.7472">
        <ele>859</ele>
        <time>2017-11-23T04:19:09Z</time>
      </trkpt>
      <trkpt lat="44.74419" lon="5.74751">
        <ele>861</ele>
        <time>2017-11-23T04:19:24Z</time>
      </trkpt>
      <trkpt lat="44.74388" lon="5.74785">
        <ele>862</ele>
        <time>2017-11-23T04:19:30Z</time>
      </trkpt>
      <trkpt lat="44.74367" lon="5.74811">
        <ele>862</ele>
        <time>2017-11-23T04:19:40Z</time>
      </trkpt>
      <trkpt lat="44.74359" lon="5.74826">
        <ele>863</ele>
        <time>2017-11-23T04:19:56Z</time>
      </trkpt>
      <trkpt lat="44.74354" lon="5.74844">
        <ele>865</ele>
        <time>2017-11-23T04:20:07Z</time>
      </trkpt>
      <trkpt lat="44.74353" lon="5.74863">
        <ele>865</ele>
        <time>2017-11-23T04:20:26Z</time>
      </trkpt>
      <trkpt lat="44.74354" lon="5.74878">
        <ele>866</ele>
        <time>2017-11-23T04:20:43Z</time>
      </trkpt>
      <trkpt lat="44.74363" lon="5.74952">
        <ele>865</ele>
        <time>2017-11-23T04:20:55Z</time>
      </trkpt>
      <trkpt lat="44.74363" lon="5.74965">
        <ele>865</ele>
        <time>2017-11-23T04:21:01Z</time>
      </trkpt>
      <trkpt lat="44.7434" lon="5.75026">
        <ele>865</ele>
        <time>2017-11-23T04:21:08Z</time>
      </trkpt>
      <trkpt lat="44.74331" lon="5.75057">
        <ele>871</ele>
        <time>2017-11-23T04:21:16Z</time>
      </trkpt>
      <trkpt lat="44.74325" lon="5.75108">
        <ele>871</ele>
        <time>2017-11-23T04:21:25Z</time>
      </trkpt>
      <trkpt lat="44.74309" lon="5.75147">
        <ele>870</ele>
        <time>2017-11-23T04:21:45Z</time>
      </trkpt>
      <trkpt lat="44.74298" lon="5.75169">
        <ele>870</ele>
        <time>2017-11-23T04:21:58Z</time>
      </trkpt>
      <trkpt lat="44.74257" lon="5.75236">
        <ele>876</ele>
        <time>2017-11-23T04:22:18Z</time>
      </trkpt>
      <trkpt lat="44.74231" lon="5.75289">
        <ele>884</ele>
        <time>2017-11-23T04:22:22Z</time>
      </trkpt>
      <trkpt lat="44.74211" lon="5.75326">
        <ele>885</ele>
        <time>2017-11-23T04:22:33Z</time>
      </trkpt>
      <trkpt lat="44.74178" lon="5.75389">
        <ele>881</ele>
        <time>2017-11-23T04:22:50Z</time>
      </trkpt>
      <trkpt lat="44.7415" lon="5.7545">
        <ele>893</ele>
        <time>2017-11-23T04:22:57Z</time>
      </trkpt>
      <trkpt lat="44.74134" lon="5.75497">
        <ele>892</ele>
        <time>2017-11-23T04:23:11Z</time>
      </trkpt>
      <trkpt lat="44.74124" lon="5.75518">
        <ele>888</ele>
        <time>2017-11-23T04:23:22Z</time>
      </trkpt>
      <trkpt lat="44.74115" lon="5.75546">
        <ele>887</ele>
        <time>2017-11-23T04:23:24Z</time>
      </trkpt>
      <trkpt lat="44.74103" lon="5.75595">
        <ele>881</ele>
        <time>2017-11-23T04:23:34Z</time>
      </trkpt>
      <trkpt lat="44.74095" lon="5.7561">
        <ele>880</ele>
        <time>2017-11-23T04:23:39Z</time>
      </trkpt>
      <trkpt lat="44.74081" lon="5.75628">
        <ele>892</ele>
        <time>2017-11-23T04:23:50Z</time>
      </trkpt>
      <trkpt lat="44.74059" lon="5.75652">
        <ele>891</ele>
        <time>2017-11-23T04:24:01Z</time>
      </trkpt>
      <trkpt lat="44.74046" lon="5.75669">
        <ele>884</ele>
        <time>2017-11-23T04:24:08Z</time>
      </trkpt>
      <trkpt lat="44.74022" lon="5.75716">
        <ele>885</ele>
        <time>2017-11-23T04:24:18Z</time>
      </trkpt>
      <trkpt lat="44.74013" lon="5.75742">
        <ele>882</ele>
        <time>2017-11-23T04:24:26Z</time>
      </trkpt>
      <trkpt lat="44.74013" lon="5.75756">
        <ele>879</ele>
        <time>2017-11-23T04:24:35Z</time>
      </trkpt>
      <trkpt lat="44.74026" lon="5.75786">
        <ele>877</ele>
        <time>2017-11-23T04:24:42Z</time>
      </trkpt>
      <trkpt lat="44.74068" lon="5.75857">
        <ele>877</ele>
        <time>2017-11-23T04:25:00Z</time>
      </trkpt>
      <trkpt lat="44.7408" lon="5.75879">
        <ele>878</ele>
        <time>2017-11-23T04:25:02Z</time>
      </trkpt>
      <trkpt lat="44.74089" lon="5.75905">
        <ele>879</ele>
        <time>2017-11-23T04:25:19Z</time>
      </trkpt>
      <trkpt lat="44.74097" lon="5.75935">
        <ele>881</ele>
        <time>2017-11-23T04:25:30Z</time>
      </trkpt>
      <trkpt lat="44.74111" lon="5.7598">
        <ele>882</ele>
        <time>2017-11-23T04:25:46Z</time>
      </trkpt>
      <trkpt lat="44.74115" lon="5.76017">
        <ele>885</ele>
        <time>2017-11-23T04:25:49Z</time>
      </trkpt>
      <trkpt lat="44.74113" lon="5.76128">
        <ele>891</ele>
        <time>2017-11-23T04:25:53Z</time>
      </trkpt>
      <trkpt lat="44.74114" lon="5.76179">
        <ele>894</ele>
        <time>2017-11-23T04:26:11Z</time>
      </trkpt>
      <trkpt lat="44.74118" lon="5.76211">
        <ele>895</ele>
        <time>2017-11-23T04:26:24Z</time>
      </trkpt>
      <trkpt lat="44.74129" lon="5.76246">
        <ele>895</ele>
        <time>2017-11-23T04:26:27Z</time>
      </trkpt>
      <trkpt lat="44.74142" lon="5.76272">
        <ele>898</ele>
        <time>2017-11-23T04:26:37Z</time>
      </trkpt>
      <trkpt lat="44.74163" lon="5.76303">
        <ele>898</ele>
        <time>2017-11-23T04:26:54Z</time>
      </trkpt>
      <trkpt lat="44.74171" lon="5.76318">
        <ele>898</ele>
        <time>2017-11-23T04:27:12Z</time>
      </trkpt>
      <trkpt lat="44.74175" lon="5.76336">
        <ele>900</ele>
        <time>2017-11-23T04:27:30Z</time>
      </trkpt>
      <trkpt lat="44.74181" lon="5.76381">
        <ele>901</ele>
        <time>2017-11-23T04:27:40Z</time>
      </trkpt>
      <trkpt lat="44.74181" lon="5.76436">
        <ele>905</ele>
        <time>2017-11-23T04:27:53Z</time>
      </trkpt>
      <trkpt lat="44.74168" lon="5.76502">
        <ele>908</ele>
        <time>2017-11-23T04:27:57Z</time>
      </trkpt>
      <trkpt lat="44.74163" lon="5.76533">
        <ele>909</ele>
        <time>2017-11-23T04:28:07Z</time>
      </trkpt>
      <trkpt lat="44.74163" lon="5.76542">
        <ele>909</ele>
        <time>2017-11-23T04:28:12Z</time>
      </trkpt>
      <trkpt lat="44.74163" lon="5.76548">
        <ele>910</ele>
        <time>2017-11-23T04:28:18Z</time>
      </trkpt>
      <trkpt lat="44.74166" lon="5.76552">
        <ele>910</ele>
        <time>2017-11-23T04:28:25Z</time>
      </trkpt>
      <trkpt lat="44.74195" lon="5.76565">
        <ele>908</ele>
        <time>2017-11-23T04:28:37Z</time>
      </trkpt>
      <trkpt lat="44.7422" lon="5.76576">
        <ele>907</ele>
        <time>2017-11-23T04:28:42Z</time>
      </trkpt>
      <trkpt lat="44.74258" lon="5.76593">
        <ele>907</ele>
        <time>2017-11-23T04:28:53Z</time>
      </trkpt>
      <trkpt lat="44.74291" lon="5.76625">
        <ele>908</ele>
        <time>2017-11-23T04:29:00Z</time>
      </trkpt>
      <trkpt lat="44.74341" lon="5.76677">
        <ele>912</ele>
        <time>2017-11-23T04:29:06Z</time>
      </trkpt>
      <trkpt lat="44.74422" lon="5.76764">
        <ele>915</ele>
        <time>2017-11-23T04:29:22Z</time>
      </trkpt>
      <trkpt lat="44.74454" lon="5.76796">
        <ele>917</ele>
        <time>2017-11-23T04:29:40Z</time>
      </trkpt>
      <trkpt lat="44.7448" lon="5.76816">
        <ele>918</ele>
        <time>2017-11-23T04:29:57Z</time>
      </trkpt>
      <trkpt lat="44.74486" lon="5.76821">
        <ele>919</ele>
        <time>2017-11-23T04:30:01Z</time>
      </trkpt>
      <trkpt lat="44.74499" lon="5.76821">
        <ele>919</ele>
        <time>2017-11-23T04:30:18Z</time>
      </trkpt>
      <trkpt lat="44.74537" lon="5.76814">
        <ele>922</ele>
        <time>2017-11-23T04:30:38Z</time>
      </trkpt>
      <trkpt lat="44.74556" lon="5.76809">
        <ele>923</ele>
        <time>2017-11-23T04:30:53Z</time>
      </trkpt>
      <trkpt lat="44.74575" lon="5.76809">
        <ele>924</ele>
        <time>2017-11-23T04:31:02Z</time>
      </trkpt>
      <trkpt lat="44.7459" lon="5.76806">
        <ele>929</ele>
        <time>2017-11-23T04:31:21Z</time>
      </trkpt>
      <trkpt lat="44.74597" lon="5.76801">
        <ele>929</ele>
        <time>2017-11-23T04:31:36Z</time>
      </trkpt>
      <trkpt lat="44.74622" lon="5.76749">
        <ele>924</ele>
        <time>2017-11-23T04:31:41Z</time>
      </trkpt>
      <trkpt lat="44.74629" lon="5.76741">
        <ele>924</ele>
        <time>2017-11-23T04:32:00Z</time>
      </trkpt>
      <trkpt lat="44.74638" lon="5.76737">
        <ele>924</ele>
        <time>2017-11-23T04:32:03Z</time>
      </trkpt>
      <trkpt lat="44.74657" lon="5.76743">
        <ele>927</ele>
        <time>2017-11-23T04:32:20Z</time>
      </trkpt>
      <trkpt lat="44.74759" lon="5.76799">
        <ele>931</ele>
        <time>2017-11-23T04:32:36Z</time>
      </trkpt>
      <trkpt lat="44.74783" lon="5.76809">
        <ele>932</ele>
        <time>2017-11-23T04:32:48Z</time>
      </trkpt>
      <trkpt lat="44.74802" lon="5.76812">
        <ele>931</ele>
        <time>2017-11-23T04:32:52Z</time>
      </trkpt>
      <trkpt lat="44.74855" lon="5.76808">
        <ele>930</ele>
        <time>2017-11-23T04:33:11Z</time>
      </trkpt>
      <trkpt lat="44.7489" lon="5.76805">
        <ele>931</ele>
        <time>2017-11-23T04:33:24Z</time>
      </trkpt>
      <trkpt lat="44.74904" lon="5.768">
        <ele>931</ele>
        <time>2017-11-23T04:33:43Z</time>
      </trkpt>
      <trkpt lat="44.74993" lon="5.76729">
        <ele>932</ele>
        <time>2017-11-23T04:33:58Z</time>
      </trkpt>
      <trkpt lat="44.75033" lon="5.76685">
        <ele>940</ele>
        <time>2017-11-23T04:34:12Z</time>
      </trkpt>
      <trkpt lat="44.75062" lon="5.76662">
        <ele>941</ele>
        <time>2017-11-23T04:34:16Z</time>
      </trkpt>
      <trkpt lat="44.75074" lon="5.76657">
        <ele>942</ele>
        <time>2017-11-23T04:34:31Z</time>
      </trkpt>
      <trkpt lat="44.75114" lon="5.76634">
        <ele>946</ele>
        <time>2017-11-23T04:34:43Z</time>
      </trkpt>
      <trkpt lat="44.75121" lon="5.76628">
        <ele>946</ele>
        <time>2017-11-23T04:35:01Z</time>
      </trkpt>
      <trkpt lat="44.75131" lon="5.76622">
        <ele>947</ele>
        <time>2017-11-23T04:35:11Z</time>
      </trkpt>
      <trkpt lat="44.75151" lon="5.76609">
        <ele>947</ele>
        <time>2017-11-23T04:35:29Z</time>
      </trkpt>
      <trkpt lat="44.7517" lon="5.76596">
        <ele>950</ele>
        <time>2017-11-23T04:35:37Z</time>
      </trkpt>
      <trkpt lat="44.75178" lon="5.76587">
        <ele>950</ele>
        <time>2017-11-23T04:35:48Z</time>
      </trkpt>
      <trkpt lat="44.75186" lon="5.76569">
        <ele>953</ele>
        <time>2017-11-23T04:35:50Z</time>
      </trkpt>
      <trkpt lat="44.75188" lon="5.76542">
        <ele>955</ele>
        <time>2017-11-23T04:36:07Z</time>
      </trkpt>
      <trkpt lat="44.75183" lon="5.76525">
        <ele>956</ele>
        <time>2017-11-23T04:36:20Z</time>
      </trkpt>
      <trkpt lat="44.75148" lon="5.76454">
        <ele>955</ele>
        <time>2017-11-23T04:36:30Z</time>
      </trkpt>
      <trkpt lat="44.75129" lon="5.76428">
        <ele>954</ele>
        <time>2017-11-23T04:36:43Z</time>
      </trkpt>
      <trkpt lat="44.75115" lon="5.7641">
        <ele>960</ele>
        <time>2017-11-23T04:36:54Z</time>
      </trkpt>
      <trkpt lat="44.7511" lon="5.764">
        <ele>960</ele>
        <time>2017-11-23T04:37:11Z</time>
      </trkpt>
      <trkpt lat="44.75111" lon="5.76383">
        <ele>962</ele>
        <time>2017-11-23T04:37:23Z</time>
      </trkpt>
      <trkpt lat="44.75115" lon="5.76378">
        <ele>963</ele>
        <time>2017-11-23T04:37:30Z</time>
      </trkpt>
      <trkpt lat="44.75122" lon="5.76378">
        <ele>963</ele>
        <time>2017-11-23T04:37:43Z</time>
      </trkpt>
      <trkpt lat="44.75138" lon="5.76399">
        <ele>964</ele>
        <time>2017-11-23T04:37:49Z</time>
      </trkpt>
      <trkpt lat="44.75154" lon="5.76422">
        <ele>961</ele>
        <time>2017-11-23T04:38:00Z</time>
      </trkpt>
      <trkpt lat="44.75217" lon="5.76467">
        <ele>970</ele>
        <time>2017-11-23T04:38:03Z</time>
      </trkpt>
      <trkpt lat="44.75239" lon="5.76469">
        <ele>971</ele>
        <time>2017-11-23T04:38:19Z</time>
      </trkpt>
      <trkpt lat="44.75251" lon="5.76471">
        <ele>982</ele>
        <time>2017-11-23T04:38:24Z</time>
      </trkpt>
      <trkpt lat="44.75261" lon="5.7648">
        <ele>980</ele>
        <time>2017-11-23T04:38:36Z</time>
      </trkpt>
      <trkpt lat="44.75267" lon="5.76488">
        <ele>980</ele>
        <time>2017-11-23T04:38:49Z</time>
      </trkpt>
      <trkpt lat="44.75272" lon="5.76494">
        <ele>980</ele>
        <time>2017-11-23T04:38:51Z</time>
      </trkpt>
      <trkpt lat="44.75289" lon="5.7651">
        <ele>973</ele>
        <time>2017-11-23T04:38:57Z</time>
      </trkpt>
      <trkpt lat="44.75301" lon="5.76517">
        <ele>975</ele>
        <time>2017-11-23T04:39:16Z</time>
      </trkpt>
      <trkpt lat="44.75305" lon="5.76518">
        <ele>975</ele>
        <time>2017-11-23T04:39:21Z</time>
      </trkpt>
      <trkpt lat="44.75344" lon="5.76524">
        <ele>988</ele>
        <time>2017-11-23T04:39:38Z</time>
      </trkpt>
      <trkpt lat="44.75368" lon="5.76529">
        <ele>991</ele>
        <time>2017-11-23T04:39:54Z</time>
      </trkpt>
      <trkpt lat="44.75382" lon="5.76535">
        <ele>993</ele>
        <time>2017-11-23T04:40:07Z</time>
      </trkpt>
      <trkpt lat="44.75401" lon="5.76554">
        <ele>993</ele>
        <time>2017-11-23T04:40:19Z</time>
      </trkpt>
      <trkpt lat="44.75434" lon="5.76591">
        <ele>998</ele>
        <time>2017-11-23T04:40:26Z</time>
      </trkpt>
      <trkpt lat="44.7545" lon="5.76624">
        <ele>999</ele>
        <time>2017-11-23T04:40:46Z</time>
      </trkpt>
      <trkpt lat="44.75453" lon="5.76637">
        <ele>998</ele>
        <time>2017-11-23T04:40:59Z</time>
      </trkpt>
      <trkpt lat="44.75462" lon="5.76654">
        <ele>998</ele>
        <time>2017-11-23T04:41:04Z</time>
      </trkpt>
      <trkpt lat="44.75468" lon="5.76657">
        <ele>998</ele>
        <time>2017-11-23T04:41:11Z</time>
      </trkpt>
      <trkpt lat="44.75488" lon="5.76662">
        <ele>1000</ele>
        <time>2017-11-23T04:41:17Z</time>
      </trkpt>
      <trkpt lat="44.75552" lon="5.76678">
        <ele>1007</ele>
        <time>2017-11-23T04:41:30Z</time>
      </trkpt>
      <trkpt lat="44.75581" lon="5.76686">
        <ele>1011</ele>
        <time>2017-11-23T04:41:34Z</time>
      </trkpt>
      <trkpt lat="44.75598" lon="5.76689">
        <ele>1024</ele>
        <time>2017-11-23T04:41:37Z</time>
      </trkpt>
      <trkpt lat="44.75602" lon="5.76693">
        <ele>1024</ele>
        <time>2017-11-23T04:41:54Z</time>
      </trkpt>
      <trkpt lat="44.75606" lon="5.76704">
        <ele>1025</ele>
        <time>2017-11-23T04:42:06Z</time>
      </trkpt>
      <trkpt lat="44.75606" lon="5.76718">
        <ele>1024</ele>
        <time>2017-11-23T04:42:15Z</time>
      </trkpt>
      <trkpt lat="44.756" lon="5.76727">
        <ele>1022</ele>
        <time>2017-11-23T04:42:31Z</time>
      </trkpt>
      <trkpt lat="44.75593" lon="5.76758">
        <ele>1013</ele>
        <time>2017-11-23T04:42:51Z</time>
      </trkpt>
      <trkpt lat="44.75603" lon="5.76782">
        <ele>1017</ele>
        <time>2017-11-23T04:43:09Z</time>
      </trkpt>
      <trkpt lat="44.75634" lon="5.76826">
        <ele>1020</ele>
        <time>2017-11-23T04:43:14Z</time>
      </trkpt>
      <trkpt lat="44.75638" lon="5.76829">
        <ele>1021</ele>
        <time>2017-11-23T04:43:19Z</time>
      </trkpt>
      <trkpt lat="44.7566" lon="5.76847">
        <ele>1019</ele>
        <time>2017-11-23T04:43:38Z</time>
      </trkpt>
      <trkpt lat="44.75672" lon="5.76845">
        <ele>1030</ele>
        <time>2017-11-23T04:43:47Z</time>
      </trkpt>
      <trkpt lat="44.75685" lon="5.76838">
        <ele>1032</ele>
        <time>2017-11-23T04:44:06Z</time>
      </trkpt>
      <trkpt lat="44.75692" lon="5.76837">
        <ele>1033</ele>
        <time>2017-11-23T04:44:23Z</time>
      </trkpt>
      <trkpt lat="44.75703" lon="5.76839">
        <ele>1036</ele>
        <time>2017-11-23T04:44:28Z</time>
      </trkpt>
      <trkpt lat="44.75712" lon="5.76843">
        <ele>1038</ele>
        <time>2017-11-23T04:44:30Z</time>
      </trkpt>
      <trkpt lat="44.75716" lon="5.76852">
        <ele>1038</ele>
        <time>2017-11-23T04:44:42Z</time>
      </trkpt>
      <trkpt lat="44.75717" lon="5.76868">
        <ele>1036</ele>
        <time>2017-11-23T04:44:56Z</time>
      </trkpt>
      <trkpt lat="44.75716" lon="5.7689">
        <ele>1034</ele>
        <time>2017-11-23T04:45:11Z</time>
      </trkpt>
      <trkpt lat="44.75715" lon="5.76908">
        <ele>1033</ele>
        <time>2017-11-23T04:45:15Z</time>
      </trkpt>
      <trkpt lat="44.75722" lon="5.76923">
        <ele>1027</ele>
        <time>2017-11-23T04:45:17Z</time>
      </trkpt>
      <trkpt lat="44.75731" lon="5.76951">
        <ele>1026</ele>
        <time>2017-11-23T04:45:21Z</time>
      </trkpt>
      <trkpt lat="44.7574" lon="5.76956">
        <ele>1026</ele>
        <time>2017-11-23T04:45:37Z</time>
      </trkpt>
      <trkpt lat="44.75756" lon="5.76954">
        <ele>1040</ele>
        <time>2017-11-23T04:45:51Z</time>
      </trkpt>
      <trkpt lat="44.75769" lon="5.76945">
        <ele>1042</ele>
        <time>2017-11-23T04:46:00Z</time>
      </trkpt>
      <trkpt lat="44.75775" lon="5.76937">
        <ele>1043</ele>
        <time>2017-11-23T04:46:03Z</time>
      </trkpt>
      <trkpt lat="44.75792" lon="5.76922">
        <ele>1046</ele>
        <time>2017-11-23T04:46:19Z</time>
      </trkpt>
      <trkpt lat="44.75799" lon="5.7692">
        <ele>1047</ele>
        <time>2017-11-23T04:46:24Z</time>
      </trkpt>
      <trkpt lat="44.75811" lon="5.76926">
        <ele>1050</ele>
        <time>2017-11-23T04:46:34Z</time>
      </trkpt>
      <trkpt lat="44.75851" lon="5.77002">
        <ele>1055</ele>
        <time>2017-11-23T04:46:40Z</time>
      </trkpt>
      <trkpt lat="44.75869" lon="5.77036">
        <ele>1062</ele>
        <time>2017-11-23T04:46:53Z</time>
      </trkpt>
      <trkpt lat="44.75875" lon="5.77054">
        <ele>1062</ele>
        <time>2017-11-23T04:46:55Z</time>
      </trkpt>
      <trkpt lat="44.75879" lon="5.7709">
        <ele>1061</ele>
        <time>2017-11-23T04:47:03Z</time>
      </trkpt>
      <trkpt lat="44.75873" lon="5.77117">
        <ele>1061</ele>
        <time>2017-11-23T04:47:07Z</time>
      </trkpt>
      <trkpt lat="44.75854" lon="5.77161">
        <ele>1059</ele>
        <time>2017-11-23T04:47:26Z</time>
      </trkpt>
      <trkpt lat="44.75843" lon="5.77187">
        <ele>1067</ele>
        <time>2017-11-23T04:47:36Z</time>
      </trkpt>
      <trkpt lat="44.75838" lon="5.77192">
        <ele>1068</ele>
        <time>2017-11-23T04:47:46Z</time>
      </trkpt>
      <trkpt lat="44.75816" lon="5.77197">
        <ele>1057</ele>
        <time>2017-11-23T04:47:59Z</time>
      </trkpt>
      <trkpt lat="44.75803" lon="5.77199">
        <ele>1056</ele>
        <time>2017-11-23T04:48:13Z</time>
      </trkpt>
      <trkpt lat="44.75799" lon="5.77204">
        <ele>1056</ele>
        <time>2017-11-23T04:48:24Z</time>
      </trkpt>
      <trkpt lat="44.75796" lon="5.77224">
        <ele>1058</ele>
        <time>2017-11-23T04:48:29Z</time>
      </trkpt>
      <trkpt lat="44.7579" lon="5.77277">
        <ele>1069</ele>
        <time>2017-11-23T04:48:32Z</time>
      </trkpt>
      <trkpt lat="44.75773" lon="5.77401">
        <ele>1085</ele>
        <time>2017-11-23T04:48:41Z</time>
      </trkpt>
      <trkpt lat="44.75769" lon="5.77408">
        <ele>1084</ele>
        <time>2017-11-23T04:49:00Z</time>
      </trkpt>
      <trkpt lat="44.7575" lon="5.77424">
        <ele>1085</ele>
        <time>2017-11-23T04:49:15Z</time>
      </trkpt>
      <trkpt lat="44.75738" lon="5.77434">
        <ele>1081</ele>
        <time>2017-11-23T04:49:30Z</time>
      </trkpt>
      <trkpt lat="44.75732" lon="5.77443">
        <ele>1083</ele>
        <time>2017-11-23T04:49:41Z</time>
      </trkpt>
      <trkpt lat="44.75732" lon="5.7746">
        <ele>1085</ele>
        <time>2017-11-23T04:49:51Z</time>
      </trkpt>
      <trkpt lat="44.75735" lon="5.77466">
        <ele>1086</ele>
        <time>2017-11-23T04:50:06Z</time>
      </trkpt>
      <trkpt lat="44.75739" lon="5.77469">
        <ele>1087</ele>
        <time>2017-11-23T04:50:08Z</time>
      </trkpt>
      <trkpt lat="44.75747" lon="5.77468">
        <ele>1087</ele>
        <time>2017-11-23T04:50:23Z</time>
      </trkpt>
      <trkpt lat="44.75761" lon="5.77453">
        <ele>1100</ele>
        <time>2017-11-23T04:50:27Z</time>
      </trkpt>
      <trkpt lat="44.75792" lon="5.77414">
        <ele>1091</ele>
        <time>2017-11-23T04:50:32Z</time>
      </trkpt>
      <trkpt lat="44.758" lon="5.77381">
        <ele>1089</ele>
        <time>2017-11-23T04:50:37Z</time>
      </trkpt>
      <trkpt lat="44.75802" lon="5.77356">
        <ele>1087</ele>
        <time>2017-11-23T04:50:57Z</time>
      </trkpt>
      <trkpt lat="44.7581" lon="5.77328">
        <ele>1078</ele>
        <time>2017-11-23T04:51:10Z</time>
      </trkpt>
      <trkpt lat="44.75821" lon="5.77299">
        <ele>1076</ele>
        <time>2017-11-23T04:51:12Z</time>
      </trkpt>
      <trkpt lat="44.75829" lon="5.77296">
        <ele>1076</ele>
        <time>2017-11-23T04:51:30Z</time>
      </trkpt>
      <trkpt lat="44.75834" lon="5.77299">
        <ele>1092</ele>
        <time>2017-11-23T04:51:35Z</time>
      </trkpt>
      <trkpt lat="44.75846" lon="5.77322">
        <ele>1094</ele>
        <time>2017-11-23T04:51:48Z</time>
      </trkpt>
      <trkpt lat="44.75857" lon="5.77335">
        <ele>1109</ele>
        <time>2017-11-23T04:52:00Z</time>
      </trkpt>
      <trkpt lat="44.75867" lon="5.77338">
        <ele>1113</ele>
        <time>2017-11-23T04:52:20Z</time>
      </trkpt>
      <trkpt lat="44.75884" lon="5.77337">
        <ele>1117</ele>
        <time>2017-11-23T04:52:34Z</time>
      </trkpt>
      <trkpt lat="44.75898" lon="5.77332">
        <ele>1106</ele>
        <time>2017-11-23T04:52:41Z</time>
      </trkpt>
      <trkpt lat="44.75926" lon="5.77315">
        <ele>1120</ele>
        <time>2017-11-23T04:52:45Z</time>
      </trkpt>
      <trkpt lat="44.75934" lon="5.77305">
        <ele>1120</ele>
        <time>2017-11-23T04:53:01Z</time>
      </trkpt>
      <trkpt lat="44.7594" lon="5.77286">
        <ele>1118</ele>
        <time>2017-11-23T04:53:19Z</time>
      </trkpt>
      <trkpt lat="44.7595" lon="5.77262">
        <ele>1116</ele>
        <time>2017-11-23T04:53:26Z</time>
      </trkpt>
      <trkpt lat="44.75963" lon="5.77246">
        <ele>1106</ele>
        <time>2017-11-23T04:53:38Z</time>
      </trkpt>
      <trkpt lat="44.76002" lon="5.77188">
        <ele>1113</ele>
        <time>2017-11-23T04:53:57Z</time>
      </trkpt>
      <trkpt lat="44.76016" lon="5.77166">
        <ele>1111</ele>
        <time>2017-11-23T04:54:15Z</time>
      </trkpt>
      <trkpt lat="44.76019" lon="5.77161">
        <ele>1111</ele>
        <time>2017-11-23T04:54:33Z</time>
      </trkpt>
      <trkpt lat="44.76025" lon="5.77159">
        <ele>1111</ele>
        <time>2017-11-23T04:54:39Z</time>
      </trkpt>
      <trkpt lat="44.76041" lon="5.77157">
        <ele>1112</ele>
        <time>2017-11-23T04:54:42Z</time>
      </trkpt>
      <trkpt lat="44.76048" lon="5.77169">
        <ele>1112</ele>
        <time>2017-11-23T04:54:47Z</time>
      </trkpt>
      <trkpt lat="44.76052" lon="5.772">
        <ele>1113</ele>
        <time>2017-11-23T04:54:52Z</time>
      </trkpt>
      <trkpt lat="44.76059" lon="5.77227">
        <ele>1115</ele>
        <time>2017-11-23T04:55:12Z</time>
      </trkpt>
      <trkpt lat="44.76068" lon="5.77243">
        <ele>1115</ele>
        <time>2017-11-23T04:55:23Z</time>
      </trkpt>
      <trkpt lat="44.76094" lon="5.77291">
        <ele>1101</ele>
        <time>2017-11-23T04:55:39Z</time>
      </trkpt>
      <trkpt lat="44.76103" lon="5.77315">
        <ele>1103</ele>
        <time>2017-11-23T04:55:52Z</time>
      </trkpt>
      <trkpt lat="44.76102" lon="5.77347">
        <ele>1102</ele>
        <time>2017-11-23T04:55:59Z</time>
      </trkpt>
      <trkpt lat="44.7609" lon="5.77375">
        <ele>1098</ele>
        <time>2017-11-23T04:56:03Z</time>
      </trkpt>
      <trkpt lat="44.76074" lon="5.7742">
        <ele>1115</ele>
        <time>2017-11-23T04:56:14Z</time>
      </trkpt>
      <trkpt lat="44.76069" lon="5.77459">
        <ele>1120</ele>
        <time>2017-11-23T04:56:27Z</time>
      </trkpt>
      <trkpt lat="44.76059" lon="5.77495">
        <ele>1117</ele>
        <time>2017-11-23T04:56:34Z</time>
      </trkpt>
      <trkpt lat="44.76057" lon="5.77512">
        <ele>1118</ele>
        <time>2017-11-23T04:56:45Z</time>
      </trkpt>
      <trkpt lat="44.7606" lon="5.77521">
        <ele>1118</ele>
        <time>2017-11-23T04:56:57Z</time>
      </trkpt>
      <trkpt lat="44.76075" lon="5.77546">
        <ele>1117</ele>
        <time>2017-11-23T04:56:59Z</time>
      </trkpt>
      <trkpt lat="44.76095" lon="5.77573">
        <ele>1091</ele>
        <time>2017-11-23T04:57:02Z</time>
      </trkpt>
      <trkpt lat="44.7612" lon="5.7761">
        <ele>1090</ele>
        <time>2017-11-23T04:57:12Z</time>
      </trkpt>
      <trkpt lat="44.7613" lon="5.77618">
        <ele>1088</ele>
        <time>2017-11-23T04:57:24Z</time>
      </trkpt>
      <trkpt lat="44.7614" lon="5.77621">
        <ele>1086</ele>
        <time>2017-11-23T04:57:30Z</time>
      </trkpt>
      <trkpt lat="44.76144" lon="5.77631">
        <ele>1086</ele>
        <time>2017-11-23T04:57:42Z</time>
      </trkpt>
      <trkpt lat="44.76144" lon="5.77639">
        <ele>1086</ele>
        <time>2017-11-23T04:57:50Z</time>
      </trkpt>
      <trkpt lat="44.7613" lon="5.77682">
        <ele>1101</ele>
        <time>2017-11-23T04:57:59Z</time>
      </trkpt>
      <trkpt lat="44.76124" lon="5.77714">
        <ele>1106</ele>
        <time>2017-11-23T04:58:05Z</time>
      </trkpt>
      <trkpt lat="44.76124" lon="5.77737">
        <ele>1108</ele>
        <time>2017-11-23T04:58:18Z</time>
      </trkpt>
      <trkpt lat="44.7613" lon="5.77749">
        <ele>1107</ele>
        <time>2017-11-23T04:58:37Z</time>
      </trkpt>
      <trkpt lat="44.76133" lon="5.77751">
        <ele>1119</ele>
        <time>2017-11-23T04:58:47Z</time>
      </trkpt>
      <trkpt lat="44.7615" lon="5.77752">
        <ele>1109</ele>
        <time>2017-11-23T04:59:00Z</time>
      </trkpt>
      <trkpt lat="44.76172" lon="5.77746">
        <ele>1088</ele>
        <time>2017-11-23T04:59:10Z</time>
      </trkpt>
      <trkpt lat="44.76186" lon="5.77734">
        <ele>1084</ele>
        <time>2017-11-23T04:59:17Z</time>
      </trkpt>
      <trkpt lat="44.76198" lon="5.77732">
        <ele>1083</ele>
        <time>2017-11-23T04:59:24Z</time>
      </trkpt>
      <trkpt lat="44.76208" lon="5.77742">
        <ele>1084</ele>
        <time>2017-11-23T04:59:44Z</time>
      </trkpt>
      <trkpt lat="44.76219" lon="5.77752">
        <ele>1103</ele>
        <time>2017-11-23T05:00:04Z</time>
      </trkpt>
      <trkpt lat="44.76231" lon="5.77748">
        <ele>1086</ele>
        <time>2017-11-23T05:00:20Z</time>
      </trkpt>
      <trkpt lat="44.7625" lon="5.77715">
        <ele>1083</ele>
        <time>2017-11-23T05:00:29Z</time>
      </trkpt>
      <trkpt lat="44.76259" lon="5.77702">
        <ele>1080</ele>
        <time>2017-11-23T05:00:33Z</time>
      </trkpt>
      <trkpt lat="44.76264" lon="5.777">
        <ele>1079</ele>
        <time>2017-11-23T05:00:45Z</time>
      </trkpt>
      <trkpt lat="44.76271" lon="5.77704">
        <ele>1081</ele>
        <time>2017-11-23T05:00:59Z</time>
      </trkpt>
      <trkpt lat="44.76282" lon="5.7772">
        <ele>1085</ele>
        <time>2017-11-23T05:01:02Z</time>
      </trkpt>
      <trkpt lat="44.76286" lon="5.77723">
        <ele>1085</ele>
        <time>2017-11-23T05:01:09Z</time>
      </trkpt>
      <trkpt lat="44.76291" lon="5.77723">
        <ele>1086</ele>
        <time>2017-11-23T05:01:14Z</time>
      </trkpt>
      <trkpt lat="44.76296" lon="5.7772">
        <ele>1085</ele>
        <time>2017-11-23T05:01:19Z</time>
      </trkpt>
      <trkpt lat="44.76299" lon="5.77713">
        <ele>1085</ele>
        <time>2017-11-23T05:01:27Z</time>
      </trkpt>
      <trkpt lat="44.76305" lon="5.77684">
        <ele>1081</ele>
        <time>2017-11-23T05:01:36Z</time>
      </trkpt>
      <trkpt lat="44.76306" lon="5.77663">
        <ele>1064</ele>
        <time>2017-11-23T05:01:46Z</time>
      </trkpt>
      <trkpt lat="44.76311" lon="5.77654">
        <ele>1064</ele>
        <time>2017-11-23T05:01:49Z</time>
      </trkpt>
      <trkpt lat="44.76317" lon="5.77645">
        <ele>1063</ele>
        <time>2017-11-23T05:01:57Z</time>
      </trkpt>
      <trkpt lat="44.76335" lon="5.77629">
        <ele>1065</ele>
        <time>2017-11-23T05:02:09Z</time>
      </trkpt>
      <trkpt lat="44.76362" lon="5.7761">
        <ele>1062</ele>
        <time>2017-11-23T05:02:27Z</time>
      </trkpt>
      <trkpt lat="44.76369" lon="5.77609">
        <ele>1062</ele>
        <time>2017-11-23T05:02:44Z</time>
      </trkpt>
      <trkpt lat="44.76378" lon="5.7761">
        <ele>1063</ele>
        <time>2017-11-23T05:02:49Z</time>
      </trkpt>
      <trkpt lat="44.76393" lon="5.77606">
        <ele>1062</ele>
        <time>2017-11-23T05:03:02Z</time>
      </trkpt>
      <trkpt lat="44.76433" lon="5.77584">
        <ele>1057</ele>
        <time>2017-11-23T05:03:08Z</time>
      </trkpt>
      <trkpt lat="44.76467" lon="5.77561">
        <ele>1045</ele>
        <time>2017-11-23T05:03:18Z</time>
      </trkpt>
      <trkpt lat="44.76487" lon="5.7755">
        <ele>1044</ele>
        <time>2017-11-23T05:03:20Z</time>
      </trkpt>
      <trkpt lat="44.76504" lon="5.77548">
        <ele>1040</ele>
        <time>2017-11-23T05:03:23Z</time>
      </trkpt>
      <trkpt lat="44.76513" lon="5.77544">
        <ele>1039</ele>
        <time>2017-11-23T05:03:41Z</time>
      </trkpt>
      <trkpt lat="44.76536" lon="5.77522">
        <ele>1037</ele>
        <time>2017-11-23T05:03:58Z</time>
      </trkpt>
      <trkpt lat="44.7657" lon="5.77503">
        <ele>1036</ele>
        <time>2017-11-23T05:04:11Z</time>
      </trkpt>
      <trkpt lat="44.76583" lon="5.77491">
        <ele>1032</ele>
        <time>2017-11-23T05:04:31Z</time>
      </trkpt>
      <trkpt lat="44.76614" lon="5.77452">
        <ele>1027</ele>
        <time>2017-11-23T05:04:33Z</time>
      </trkpt>
      <trkpt lat="44.76631" lon="5.77439">
        <ele>1026</ele>
        <time>2017-11-23T05:04:47Z</time>
      </trkpt>
      <trkpt lat="44.76646" lon="5.77435">
        <ele>1026</ele>
        <time>2017-11-23T05:05:02Z</time>
      </trkpt>
      <trkpt lat="44.76696" lon="5.77445">
        <ele>1023</ele>
        <time>2017-11-23T05:05:11Z</time>
      </trkpt>
      <trkpt lat="44.76711" lon="5.77446">
        <ele>1022</ele>
        <time>2017-11-23T05:05:15Z</time>
      </trkpt>
      <trkpt lat="44.76718" lon="5.77443">
        <ele>1022</ele>
        <time>2017-11-23T05:05:17Z</time>
      </trkpt>
      <trkpt lat="44.76737" lon="5.77427">
        <ele>1023</ele>
        <time>2017-11-23T05:05:34Z</time>
      </trkpt>
      <trkpt lat="44.76756" lon="5.77416">
        <ele>1024</ele>
        <time>2017-11-23T05:05:43Z</time>
      </trkpt>
      <trkpt lat="44.76767" lon="5.77416">
        <ele>1024</ele>
        <time>2017-11-23T05:05:53Z</time>
      </trkpt>
      <trkpt lat="44.76779" lon="5.77421">
        <ele>1022</ele>
        <time>2017-11-23T05:06:09Z</time>
      </trkpt>
      <trkpt lat="44.76801" lon="5.7745">
        <ele>1021</ele>
        <time>2017-11-23T05:06:25Z</time>
      </trkpt>
      <trkpt lat="44.76834" lon="5.77493">
        <ele>1017</ele>
        <time>2017-11-23T05:06:34Z</time>
      </trkpt>
      <trkpt lat="44.76904" lon="5.77586">
        <ele>1004</ele>
        <time>2017-11-23T05:06:43Z</time>
      </trkpt>
      <trkpt lat="44.76932" lon="5.77621">
        <ele>1005</ele>
        <time>2017-11-23T05:06:47Z</time>
      </trkpt>
      <trkpt lat="44.76961" lon="5.77642">
        <ele>1005</ele>
        <time>2017-11-23T05:07:04Z</time>
      </trkpt>
      <trkpt lat="44.76965" lon="5.77654">
        <ele>1004</ele>
        <time>2017-11-23T05:07:15Z</time>
      </trkpt>
      <trkpt lat="44.76963" lon="5.77666">
        <ele>1004</ele>
        <time>2017-11-23T05:07:21Z</time>
      </trkpt>
      <trkpt lat="44.76955" lon="5.77673">
        <ele>995</ele>
        <time>2017-11-23T05:07:34Z</time>
      </trkpt>
      <trkpt lat="44.76948" lon="5.77674">
        <ele>995</ele>
        <time>2017-11-23T05:07:36Z</time>
      </trkpt>
      <trkpt lat="44.76936" lon="5.77669">
        <ele>995</ele>
        <time>2017-11-23T05:07:40Z</time>
      </trkpt>
      <trkpt lat="44.76896" lon="5.77643">
        <ele>998</ele>
        <time>2017-11-23T05:07:56Z</time>
      </trkpt>
      <trkpt lat="44.76868" lon="5.7763">
        <ele>996</ele>
        <time>2017-11-23T05:08:16Z</time>
      </trkpt>
      <trkpt lat="44.76838" lon="5.77621">
        <ele>995</ele>
        <time>2017-11-23T05:08:31Z</time>
      </trkpt>
      <trkpt lat="44.76809" lon="5.7763">
        <ele>991</ele>
        <time>2017-11-23T05:08:38Z</time>
      </trkpt>
      <trkpt lat="44.76766" lon="5.7764">
        <ele>990</ele>
        <time>2017-11-23T05:08:40Z</time>
      </trkpt>
      <trkpt lat="44.76743" lon="5.77648">
        <ele>991</ele>
        <time>2017-11-23T05:08:42Z</time>
      </trkpt>
      <trkpt lat="44.76715" lon="5.77676">
        <ele>988</ele>
        <time>2017-11-23T05:08:52Z</time>
      </trkpt>
      <trkpt lat="44.76692" lon="5.77719">
        <ele>989</ele>
        <time>2017-11-23T05:09:04Z</time>
      </trkpt>
      <trkpt lat="44.76684" lon="5.77756">
        <ele>987</ele>
        <time>2017-11-23T05:09:15Z</time>
      </trkpt>
      <trkpt lat="44.76688" lon="5.77818">
        <ele>984</ele>
        <time>2017-11-23T05:09:19Z</time>
      </trkpt>
      <trkpt lat="44.76692" lon="5.77878">
        <ele>976</ele>
        <time>2017-11-23T05:09:26Z</time>
      </trkpt>
      <trkpt lat="44.76692" lon="5.77901">
        <ele>975</ele>
        <time>2017-11-23T05:09:43Z</time>
      </trkpt>
      <trkpt lat="44.76667" lon="5.77946">
        <ele>968</ele>
        <time>2017-11-23T05:09:45Z</time>
      </trkpt>
      <trkpt lat="44.76648" lon="5.77991">
        <ele>967</ele>
        <time>2017-11-23T05:09:56Z</time>
      </trkpt>
      <trkpt lat="44.76642" lon="5.78011">
        <ele>964</ele>
        <time>2017-11-23T05:10:13Z</time>
      </trkpt>
      <trkpt lat="44.76642" lon="5.78026">
        <ele>964</ele>
        <time>2017-11-23T05:10:19Z</time>
      </trkpt>
      <trkpt lat="44.76647" lon="5.78041">
        <ele>964</ele>
        <time>2017-11-23T05:10:39Z</time>
      </trkpt>
      <trkpt lat="44.76684" lon="5.78089">
        <ele>956</ele>
        <time>2017-11-23T05:10:42Z</time>
      </trkpt>
      <trkpt lat="44.76708" lon="5.78112">
        <ele>954</ele>
        <time>2017-11-23T05:11:01Z</time>
      </trkpt>
      <trkpt lat="44.76743" lon="5.78133">
        <ele>952</ele>
        <time>2017-11-23T05:11:05Z</time>
      </trkpt>
      <trkpt lat="44.76802" lon="5.78166">
        <ele>946</ele>
        <time>2017-11-23T05:11:11Z</time>
      </trkpt>
      <trkpt lat="44.76825" lon="5.78176">
        <ele>946</ele>
        <time>2017-11-23T05:11:25Z</time>
      </trkpt>
      <trkpt lat="44.76856" lon="5.78176">
        <ele>945</ele>
        <time>2017-11-23T05:11:32Z</time>
      </trkpt>
      <trkpt lat="44.76899" lon="5.78173">
        <ele>943</ele>
        <time>2017-11-23T05:11:39Z</time>
      </trkpt>
      <trkpt lat="44.76923" lon="5.78171">
        <ele>940</ele>
        <time>2017-11-23T05:11:54Z</time>
      </trkpt>
      <trkpt lat="44.76951" lon="5.78172">
        <ele>939</ele>
        <time>2017-11-23T05:12:05Z</time>
      </trkpt>
      <trkpt lat="44.77036" lon="5.78184">
        <ele>931</ele>
        <time>2017-11-23T05:12:24Z</time>
      </trkpt>
      <trkpt lat="44.77085" lon="5.78184">
        <ele>925</ele>
        <time>2017-11-23T05:12:44Z</time>
      </trkpt>
      <trkpt lat="44.77159" lon="5.78187">
        <ele>921</ele>
        <time>2017-11-23T05:12:55Z</time>
      </trkpt>
      <trkpt lat="44.77218" lon="5.78191">
        <ele>914</ele>
        <time>2017-11-23T05:12:57Z</time>
      </trkpt>
      <trkpt lat="44.77264" lon="5.78179">
        <ele>909</ele>
        <time>2017-11-23T05:13:06Z</time>
      </trkpt>
      <trkpt lat="44.77279" lon="5.78175">
        <ele>908</ele>
        <time>2017-11-23T05:13:23Z</time>
      </trkpt>
      <trkpt lat="44.77294" lon="5.78174">
        <ele>908</ele>
        <time>2017-11-23T05:13:36Z</time>
      </trkpt>
      <trkpt lat="44.7733" lon="5.78179">
        <ele>907</ele>
        <time>2017-11-23T05:13:47Z</time>
      </trkpt>
      <trkpt lat="44.7736" lon="5.78178">
        <ele>905</ele>
        <time>2017-11-23T05:13:57Z</time>
      </trkpt>
      <trkpt lat="44.7739" lon="5.78174">
        <ele>903</ele>
        <time>2017-11-23T05:14:10Z</time>
      </trkpt>
      <trkpt lat="44.77414" lon="5.78172">
        <ele>902</ele>
        <time>2017-11-23T05:14:25Z</time>
      </trkpt>
      <trkpt lat="44.77426" lon="5.78179">
        <ele>901</ele>
        <time>2017-11-23T05:14:27Z</time>
      </trkpt>
      <trkpt lat="44.77475" lon="5.78209">
        <ele>901</ele>
        <time>2017-11-23T05:14:38Z</time>
      </trkpt>
      <trkpt lat="44.77497" lon="5.78215">
        <ele>901</ele>
        <time>2017-11-23T05:14:56Z</time>
      </trkpt>
      <trkpt lat="44.77524" lon="5.78216">
        <ele>898</ele>
        <time>2017-11-23T05:15:06Z</time>
      </trkpt>
      <trkpt lat="44.77556" lon="5.78211">
        <ele>897</ele>
        <time>2017-11-23T05:15:22Z</time>
      </trkpt>
      <trkpt lat="44.7758" lon="5.78205">
        <ele>896</ele>
        <time>2017-11-23T05:15:27Z</time>
      </trkpt>
      <trkpt lat="44.77614" lon="5.78191">
        <ele>893</ele>
        <time>2017-11-23T05:15:43Z</time>
      </trkpt>
      <trkpt lat="44.77649" lon="5.78172">
        <ele>892</ele>
        <time>2017-11-23T05:15:48Z</time>
      </trkpt>
      <trkpt lat="44.77669" lon="5.78173">
        <ele>890</ele>
        <time>2017-11-23T05:16:00Z</time>
      </trkpt>
      <trkpt lat="44.77706" lon="5.78196">
        <ele>891</ele>
        <time>2017-11-23T05:16:11Z</time>
      </trkpt>
      <trkpt lat="44.77721" lon="5.78198">
        <ele>891</ele>
        <time>2017-11-23T05:16:31Z</time>
      </trkpt>
      <trkpt lat="44.77751" lon="5.78193">
        <ele>890</ele>
        <time>2017-11-23T05:16:34Z</time>
      </trkpt>
      <trkpt lat="44.77795" lon="5.78181">
        <ele>890</ele>
        <time>2017-11-23T05:16:36Z</time>
      </trkpt>
      <trkpt lat="44.77834" lon="5.78167">
        <ele>889</ele>
        <time>2017-11-23T05:16:54Z</time>
      </trkpt>
      <trkpt lat="44.77891" lon="5.78134">
        <ele>888</ele>
        <time>2017-11-23T05:17:11Z</time>
      </trkpt>
      <trkpt lat="44.77943" lon="5.78102">
        <ele>887</ele>
        <time>2017-11-23T05:17:30Z</time>
      </trkpt>
      <trkpt lat="44.7795" lon="5.78093">
        <ele>887</ele>
        <time>2017-11-23T05:17:33Z</time>
      </trkpt>
      <trkpt lat="44.77972" lon="5.78062">
        <ele>884</ele>
        <time>2017-11-23T05:17:48Z</time>
      </trkpt>
      <trkpt lat="44.77981" lon="5.78052">
        <ele>884</ele>
        <time>2017-11-23T05:17:59Z</time>
      </trkpt>
      <trkpt lat="44.77992" lon="5.78044">
        <ele>883</ele>
        <time>2017-11-23T05:18:08Z</time>
      </trkpt>
      <trkpt lat="44.78067" lon="5.78011">
        <ele>884</ele>
        <time>2017-11-23T05:18:22Z</time>
      </trkpt>
      <trkpt lat="44.78079" lon="5.78002">
        <ele>885</ele>
        <time>2017-11-23T05:18:30Z</time>
      </trkpt>
      <trkpt lat="44.78086" lon="5.77983">
        <ele>892</ele>
        <time>2017-11-23T05:18:34Z</time>
      </trkpt>
      <trkpt lat="44.78085" lon="5.77922">
        <ele>889</ele>
        <time>2017-11-23T05:18:38Z</time>
      </trkpt>
      <trkpt lat="44.78075" lon="5.77715">
        <ele>872</ele>
        <time>2017-11-23T05:18:46Z</time>
      </trkpt>
      <trkpt lat="44.78079" lon="5.77659">
        <ele>870</ele>
        <time>2017-11-23T05:19:02Z</time>
      </trkpt>
      <trkpt lat="44.78079" lon="5.77602">
        <ele>867</ele>
        <time>2017-11-23T05:19:14Z</time>
      </trkpt>
      <trkpt lat="44.78072" lon="5.77455">
        <ele>862</ele>
        <time>2017-11-23T05:19:33Z</time>
      </trkpt>
      <trkpt lat="44.78077" lon="5.77396">
        <ele>860</ele>
        <time>2017-11-23T05:19:37Z</time>
      </trkpt>
      <trkpt lat="44.78085" lon="5.77361">
        <ele>861</ele>
        <time>2017-11-23T05:19:44Z</time>
      </trkpt>
      <trkpt lat="44.78091" lon="5.77346">
        <ele>860</ele>
        <time>2017-11-23T05:19:47Z</time>
      </trkpt>
      <trkpt lat="44.78101" lon="5.77327">
        <ele>858</ele>
        <time>2017-11-23T05:19:52Z</time>
      </trkpt>
      <trkpt lat="44.78121" lon="5.77298">
        <ele>858</ele>
        <time>2017-11-23T05:19:56Z</time>
      </trkpt>
      <trkpt lat="44.78138" lon="5.77274">
        <ele>858</ele>
        <time>2017-11-23T05:20:07Z</time>
      </trkpt>
      <trkpt lat="44.78149" lon="5.77252">
        <ele>858</ele>
        <time>2017-11-23T05:20:26Z</time>
      </trkpt>
      <trkpt lat="44.78181" lon="5.77168">
        <ele>855</ele>
        <time>2017-11-23T05:20:40Z</time>
      </trkpt>
      <trkpt lat="44.782" lon="5.77139">
        <ele>851</ele>
        <time>2017-11-23T05:20:50Z</time>
      </trkpt>
      <trkpt lat="44.78223" lon="5.77119">
        <ele>851</ele>
        <time>2017-11-23T05:20:52Z</time>
      </trkpt>
      <trkpt lat="44.78234" lon="5.77105">
        <ele>850</ele>
        <time>2017-11-23T05:21:07Z</time>
      </trkpt>
      <trkpt lat="44.78249" lon="5.77068">
        <ele>848</ele>
        <time>2017-11-23T05:21:12Z</time>
      </trkpt>
      <trkpt lat="44.78257" lon="5.77047">
        <ele>849</ele>
        <time>2017-11-23T05:21:32Z</time>
      </trkpt>
      <trkpt lat="44.78271" lon="5.77022">
        <ele>848</ele>
        <time>2017-11-23T05:21:47Z</time>
      </trkpt>
      <trkpt lat="44.7832" lon="5.76957">
        <ele>847</ele>
        <time>2017-11-23T05:21:51Z</time>
      </trkpt>
      <trkpt lat="44.78336" lon="5.76945">
        <ele>850</ele>
        <time>2017-11-23T05:22:01Z</time>
      </trkpt>
      <trkpt lat="44.78347" lon="5.76939">
        <ele>850</ele>
        <time>2017-11-23T05:22:08Z</time>
      </trkpt>
      <trkpt lat="44.78358" lon="5.76935">
        <ele>850</ele>
        <time>2017-11-23T05:22:24Z</time>
      </trkpt>
      <trkpt lat="44.7838" lon="5.76926">
        <ele>850</ele>
        <time>2017-11-23T05:22:33Z</time>
      </trkpt>
      <trkpt lat="44.78399" lon="5.76913">
        <ele>849</ele>
        <time>2017-11-23T05:22:39Z</time>
      </trkpt>
      <trkpt lat="44.78416" lon="5.76901">
        <ele>849</ele>
        <time>2017-11-23T05:22:47Z</time>
      </trkpt>
      <trkpt lat="44.78432" lon="5.76885">
        <ele>850</ele>
        <time>2017-11-23T05:22:49Z</time>
      </trkpt>
      <trkpt lat="44.78449" lon="5.76864">
        <ele>850</ele>
        <time>2017-11-23T05:23:01Z</time>
      </trkpt>
      <trkpt lat="44.7847" lon="5.76839">
        <ele>850</ele>
        <time>2017-11-23T05:23:11Z</time>
      </trkpt>
      <trkpt lat="44.78487" lon="5.76825">
        <ele>848</ele>
        <time>2017-11-23T05:23:24Z</time>
      </trkpt>
      <trkpt lat="44.78512" lon="5.7681">
        <ele>848</ele>
        <time>2017-11-23T05:23:38Z</time>
      </trkpt>
      <trkpt lat="44.78569" lon="5.76776">
        <ele>847</ele>
        <time>2017-11-23T05:23:41Z</time>
      </trkpt>
      <trkpt lat="44.78612" lon="5.76755">
        <ele>846</ele>
        <time>2017-11-23T05:24:00Z</time>
      </trkpt>
      <trkpt lat="44.78691" lon="5.76732">
        <ele>844</ele>
        <time>2017-11-23T05:24:19Z</time>
      </trkpt>
      <trkpt lat="44.78745" lon="5.76714">
        <ele>844</ele>
        <time>2017-11-23T05:24:22Z</time>
      </trkpt>
      <trkpt lat="44.78777" lon="5.76701">
        <ele>846</ele>
        <time>2017-11-23T05:24:27Z</time>
      </trkpt>
      <trkpt lat="44.78789" lon="5.76695">
        <ele>846</ele>
        <time>2017-11-23T05:24:39Z</time>
      </trkpt>
      <trkpt lat="44.78806" lon="5.76682">
        <ele>847</ele>
        <time>2017-11-23T05:24:47Z</time>
      </trkpt>
      <trkpt lat="44.78819" lon="5.76662">
        <ele>846</ele>
        <time>2017-11-23T05:24:58Z</time>
      </trkpt>
      <trkpt lat="44.78825" lon="5.76647">
        <ele>845</ele>
        <time>2017-11-23T05:25:05Z</time>
      </trkpt>
      <trkpt lat="44.78835" lon="5.76611">
        <ele>850</ele>
        <time>2017-11-23T05:25:20Z</time>
      </trkpt>
      <trkpt lat="44.78843" lon="5.76583">
        <ele>844</ele>
        <time>2017-11-23T05:25:31Z</time>
      </trkpt>
      <trkpt lat="44.78856" lon="5.76549">
        <ele>845</ele>
        <time>2017-11-23T05:25:49Z</time>
      </trkpt>
      <trkpt lat="44.78873" lon="5.76513">
        <ele>844</ele>
        <time>2017-11-23T05:26:04Z</time>
      </trkpt>
      <trkpt lat="44.7889" lon="5.76485">
        <ele>839</ele>
        <time>2017-11-23T05:26:16Z</time>
      </trkpt>
      <trkpt lat="44.78905" lon="5.76466">
        <ele>838</ele>
        <time>2017-11-23T05:26:31Z</time>
      </trkpt>
      <trkpt lat="44.78934" lon="5.76434">
        <ele>841</ele>
        <time>2017-11-23T05:26:35Z</time>
      </trkpt>
      <trkpt lat="44.78959" lon="5.76397">
        <ele>837</ele>
        <time>2017-11-23T05:26:45Z</time>
      </trkpt>
      <trkpt lat="44.79035" lon="5.76266">
        <ele>835</ele>
        <time>2017-11-23T05:27:02Z</time>
      </trkpt>
      <trkpt lat="44.79079" lon="5.76209">
        <ele>828</ele>
        <time>2017-11-23T05:27:20Z</time>
      </trkpt>
      <trkpt lat="44.79092" lon="5.76193">
        <ele>833</ele>
        <time>2017-11-23T05:27:34Z</time>
      </trkpt>
      <trkpt lat="44.79131" lon="5.76156">
        <ele>828</ele>
        <time>2017-11-23T05:27:43Z</time>
      </trkpt>
      <trkpt lat="44.79162" lon="5.76125">
        <ele>827</ele>
        <time>2017-11-23T05:27:57Z</time>
      </trkpt>
      <trkpt lat="44.7919" lon="5.7609">
        <ele>832</ele>
        <time>2017-11-23T05:28:16Z</time>
      </trkpt>
      <trkpt lat="44.79217" lon="5.76045">
        <ele>826</ele>
        <time>2017-11-23T05:28:24Z</time>
      </trkpt>
      <trkpt lat="44.79236" lon="5.7601">
        <ele>825</ele>
        <time>2017-11-23T05:28:43Z</time>
      </trkpt>
      <trkpt lat="44.79254" lon="5.75988">
        <ele>826</ele>
        <time>2017-11-23T05:28:58Z</time>
      </trkpt>
      <trkpt lat="44.79273" lon="5.75975">
        <ele>827</ele>
        <time>2017-11-23T05:29:09Z</time>
      </trkpt>
      <trkpt lat="44.79285" lon="5.75966">
        <ele>827</ele>
        <time>2017-11-23T05:29:17Z</time>
      </trkpt>
      <trkpt lat="44.79288" lon="5.75952">
        <ele>826</ele>
        <time>2017-11-23T05:29:23Z</time>
      </trkpt>
      <trkpt lat="44.79271" lon="5.75961">
        <ele>825</ele>
        <time>2017-11-23T05:29:26Z</time>
      </trkpt>
      <trkpt lat="44.79253" lon="5.75966">
        <ele>825</ele>
        <time>2017-11-23T05:29:42Z</time>
      </trkpt>
      <trkpt lat="44.79233" lon="5.75968">
        <ele>816</ele>
        <time>2017-11-23T05:29:59Z</time>
      </trkpt>
      <trkpt lat="44.79214" lon="5.75965">
        <ele>815</ele>
        <time>2017-11-23T05:30:09Z</time>
      </trkpt>
      <trkpt lat="44.79145" lon="5.75942">
        <ele>809</ele>
        <time>2017-11-23T05:30:19Z</time>
      </trkpt>
      <trkpt lat="44.79075" lon="5.75916">
        <ele>803</ele>
        <time>2017-11-23T05:30:36Z</time>
      </trkpt>
      <trkpt lat="44.79054" lon="5.75913">
        <ele>800</ele>
        <time>2017-11-23T05:30:46Z</time>
      </trkpt>
      <trkpt lat="44.79041" lon="5.75917">
        <ele>806</ele>
        <time>2017-11-23T05:30:48Z</time>
      </trkpt>
      <trkpt lat="44.79026" lon="5.75924">
        <ele>806</ele>
        <time>2017-11-23T05:31:05Z</time>
      </trkpt>
      <trkpt lat="44.79012" lon="5.75929">
        <ele>805</ele>
        <time>2017-11-23T05:31:17Z</time>
      </trkpt>
      <trkpt lat="44.78996" lon="5.75931">
        <ele>804</ele>
        <time>2017-11-23T05:31:26Z</time>
      </trkpt>
      <trkpt lat="44.78979" lon="5.75929">
        <ele>805</ele>
        <time>2017-11-23T05:31:37Z</time>
      </trkpt>
      <trkpt lat="44.78952" lon="5.75922">
        <ele>804</ele>
        <time>2017-11-23T05:31:56Z</time>
      </trkpt>
      <trkpt lat="44.78916" lon="5.75912">
        <ele>800</ele>
        <time>2017-11-23T05:32:15Z</time>
      </trkpt>
      <trkpt lat="44.78884" lon="5.7591">
        <ele>800</ele>
        <time>2017-11-23T05:32:20Z</time>
      </trkpt>
      <trkpt lat="44.78859" lon="5.75913">
        <ele>800</ele>
        <time>2017-11-23T05:32:26Z</time>
      </trkpt>
      <trkpt lat="44.78847" lon="5.7591">
        <ele>801</ele>
        <time>2017-11-23T05:32:28Z</time>
      </trkpt>
      <trkpt lat="44.78838" lon="5.75904">
        <ele>801</ele>
        <time>2017-11-23T05:32:40Z</time>
      </trkpt>
      <trkpt lat="44.78832" lon="5.75896">
        <ele>805</ele>
        <time>2017-11-23T05:32:43Z</time>
      </trkpt>
      <trkpt lat="44.78827" lon="5.75881">
        <ele>806</ele>
        <time>2017-11-23T05:32:47Z</time>
      </trkpt>
      <trkpt lat="44.78826" lon="5.75867">
        <ele>807</ele>
        <time>2017-11-23T05:33:03Z</time>
      </trkpt>
      <trkpt lat="44.78827" lon="5.75853">
        <ele>807</ele>
        <time>2017-11-23T05:33:10Z</time>
      </trkpt>
      <trkpt lat="44.7884" lon="5.75826">
        <ele>805</ele>
        <time>2017-11-23T05:33:21Z</time>
      </trkpt>
      <trkpt lat="44.78856" lon="5.75798">
        <ele>806</ele>
        <time>2017-11-23T05:33:36Z</time>
      </trkpt>
      <trkpt lat="44.78884" lon="5.75768">
        <ele>805</ele>
        <time>2017-11-23T05:33:39Z</time>
      </trkpt>
      <trkpt lat="44.78916" lon="5.75744">
        <ele>805</ele>
        <time>2017-11-23T05:33:55Z</time>
      </trkpt>
      <trkpt lat="44.7892" lon="5.75736">
        <ele>803</ele>
        <time>2017-11-23T05:34:08Z</time>
      </trkpt>
      <trkpt lat="44.78921" lon="5.75728">
        <ele>803</ele>
        <time>2017-11-23T05:34:17Z</time>
      </trkpt>
      <trkpt lat="44.78918" lon="5.75722">
        <ele>803</ele>
        <time>2017-11-23T05:34:34Z</time>
      </trkpt>
      <trkpt lat="44.78912" lon="5.7572">
        <ele>811</ele>
        <time>2017-11-23T05:34:41Z</time>
      </trkpt>
      <trkpt lat="44.78905" lon="5.75723">
        <ele>811</ele>
        <time>2017-11-23T05:34:44Z</time>
      </trkpt>
      <trkpt lat="44.78884" lon="5.75739">
        <ele>812</ele>
        <time>2017-11-23T05:34:48Z</time>
      </trkpt>
      <trkpt lat="44.78848" lon="5.75765">
        <ele>811</ele>
        <time>2017-11-23T05:35:01Z</time>
      </trkpt>
      <trkpt lat="44.78825" lon="5.75791">
        <ele>817</ele>
        <time>2017-11-23T05:35:13Z</time>
      </trkpt>
      <trkpt lat="44.78812" lon="5.75804">
        <ele>816</ele>
        <time>2017-11-23T05:35:18Z</time>
      </trkpt>
      <trkpt lat="44.788" lon="5.75811">
        <ele>817</ele>
        <time>2017-11-23T05:35:21Z</time>
      </trkpt>
      <trkpt lat="44.78765" lon="5.75827">
        <ele>820</ele>
        <time>2017-11-23T05:35:28Z</time>
      </trkpt>
      <trkpt lat="44.78752" lon="5.75834">
        <ele>820</ele>
        <time>2017-11-23T05:35:32Z</time>
      </trkpt>
      <trkpt lat="44.78742" lon="5.75837">
        <ele>822</ele>
        <time>2017-11-23T05:35:36Z</time>
      </trkpt>
      <trkpt lat="44.78735" lon="5.75835">
        <ele>822</ele>
        <time>2017-11-23T05:35:40Z</time>
      </trkpt>
      <trkpt lat="44.78731" lon="5.75832">
        <ele>829</ele>
        <time>2017-11-23T05:35:57Z</time>
      </trkpt>
      <trkpt lat="44.78729" lon="5.75825">
        <ele>830</ele>
        <time>2017-11-23T05:36:16Z</time>
      </trkpt>
      <trkpt lat="44.78732" lon="5.75814">
        <ele>830</ele>
        <time>2017-11-23T05:36:25Z</time>
      </trkpt>
      <trkpt lat="44.78754" lon="5.7577">
        <ele>825</ele>
        <time>2017-11-23T05:36:38Z</time>
      </trkpt>
      <trkpt lat="44.78783" lon="5.75707">
        <ele>827</ele>
        <time>2017-11-23T05:36:40Z</time>
      </trkpt>
      <trkpt lat="44.78797" lon="5.75664">
        <ele>828</ele>
        <time>2017-11-23T05:36:49Z</time>
      </trkpt>
      <trkpt lat="44.78809" lon="5.75609">
        <ele>827</ele>
        <time>2017-11-23T05:36:57Z</time>
      </trkpt>
      <trkpt lat="44.78812" lon="5.75586">
        <ele>827</ele>
        <time>2017-11-23T05:37:00Z</time>
      </trkpt>
      <trkpt lat="44.78811" lon="5.75572">
        <ele>826</ele>
        <time>2017-11-23T05:37:03Z</time>
      </trkpt>
      <trkpt lat="44.78806" lon="5.7556">
        <ele>826</ele>
        <time>2017-11-23T05:37:05Z</time>
      </trkpt>
      <trkpt lat="44.78794" lon="5.7555">
        <ele>827</ele>
        <time>2017-11-23T05:37:24Z</time>
      </trkpt>
      <trkpt lat="44.78782" lon="5.75543">
        <ele>827</ele>
        <time>2017-11-23T05:37:38Z</time>
      </trkpt>
      <trkpt lat="44.78761" lon="5.75534">
        <ele>827</ele>
        <time>2017-11-23T05:37:46Z</time>
      </trkpt>
      <trkpt lat="44.78744" lon="5.75525">
        <ele>832</ele>
        <time>2017-11-23T05:37:53Z</time>
      </trkpt>
      <trkpt lat="44.78725" lon="5.75509">
        <ele>832</ele>
        <time>2017-11-23T05:37:56Z</time>
      </trkpt>
      <trkpt lat="44.78682" lon="5.75465">
        <ele>831</ele>
        <time>2017-11-23T05:38:04Z</time>
      </trkpt>
      <trkpt lat="44.78639" lon="5.75432">
        <ele>838</ele>
        <time>2017-11-23T05:38:24Z</time>
      </trkpt>
      <trkpt lat="44.78619" lon="5.75415">
        <ele>837</ele>
        <time>2017-11-23T05:38:26Z</time>
      </trkpt>
      <trkpt lat="44.78605" lon="5.75397">
        <ele>838</ele>
        <time>2017-11-23T05:38:30Z</time>
      </trkpt>
      <trkpt lat="44.78584" lon="5.7536">
        <ele>838</ele>
        <time>2017-11-23T05:38:49Z</time>
      </trkpt>
      <trkpt lat="44.78557" lon="5.75291">
        <ele>839</ele>
        <time>2017-11-23T05:38:58Z</time>
      </trkpt>
      <trkpt lat="44.78548" lon="5.75279">
        <ele>839</ele>
        <time>2017-11-23T05:39:14Z</time>
      </trkpt>
      <trkpt lat="44.78538" lon="5.7527">
        <ele>839</ele>
        <time>2017-11-23T05:39:18Z</time>
      </trkpt>
      <trkpt lat="44.78527" lon="5.75265">
        <ele>839</ele>
        <time>2017-11-23T05:39:36Z</time>
      </trkpt>
      <trkpt lat="44.78514" lon="5.75264">
        <ele>838</ele>
        <time>2017-11-23T05:39:54Z</time>
      </trkpt>
      <trkpt lat="44.78495" lon="5.75269">
        <ele>840</ele>
        <time>2017-11-23T05:40:02Z</time>
      </trkpt>
      <trkpt lat="44.78476" lon="5.75278">
        <ele>841</ele>
        <time>2017-11-23T05:40:17Z</time>
      </trkpt>
      <trkpt lat="44.78422" lon="5.75313">
        <ele>844</ele>
        <time>2017-11-23T05:40:19Z</time>
      </trkpt>
      <trkpt lat="44.78401" lon="5.75318">
        <ele>845</ele>
        <time>2017-11-23T05:40:21Z</time>
      </trkpt>
      <trkpt lat="44.78385" lon="5.75319">
        <ele>846</ele>
        <time>2017-11-23T05:40:28Z</time>
      </trkpt>
      <trkpt lat="44.78348" lon="5.75318">
        <ele>847</ele>
        <time>2017-11-23T05:40:37Z</time>
      </trkpt>
      <trkpt lat="44.78331" lon="5.75314">
        <ele>849</ele>
        <time>2017-11-23T05:40:54Z</time>
      </trkpt>
      <trkpt lat="44.78323" lon="5.75304">
        <ele>849</ele>
        <time>2017-11-23T05:41:01Z</time>
      </trkpt>
      <trkpt lat="44.78321" lon="5.75288">
        <ele>848</ele>
        <time>2017-11-23T05:41:13Z</time>
      </trkpt>
      <trkpt lat="44.78327" lon="5.7526">
        <ele>847</ele>
        <time>2017-11-23T05:41:30Z</time>
      </trkpt>
      <trkpt lat="44.78327" lon="5.75244">
        <ele>846</ele>
        <time>2017-11-23T05:41:36Z</time>
      </trkpt>
      <trkpt lat="44.78325" lon="5.75227">
        <ele>846</ele>
        <time>2017-11-23T05:41:54Z</time>
      </trkpt>
      <trkpt lat="44.78294" lon="5.75165">
        <ele>844</ele>
        <time>2017-11-23T05:42:07Z</time>
      </trkpt>
      <trkpt lat="44.78267" lon="5.75111">
        <ele>845</ele>
        <time>2017-11-23T05:42:17Z</time>
      </trkpt>
      <trkpt lat="44.78243" lon="5.75053">
        <ele>850</ele>
        <time>2017-11-23T05:42:35Z</time>
      </trkpt>
      <trkpt lat="44.78214" lon="5.74973">
        <ele>851</ele>
        <time>2017-11-23T05:42:41Z</time>
      </trkpt>
      <trkpt lat="44.78208" lon="5.74952">
        <ele>851</ele>
        <time>2017-11-23T05:42:57Z</time>
      </trkpt>
      <trkpt lat="44.78203" lon="5.74927">
        <ele>852</ele>
        <time>2017-11-23T05:43:15Z</time>
      </trkpt>
      <trkpt lat="44.78207" lon="5.74899">
        <ele>852</ele>
        <time>2017-11-23T05:43:31Z</time>
      </trkpt>
      <trkpt lat="44.78213" lon="5.74882">
        <ele>852</ele>
        <time>2017-11-23T05:43:37Z</time>
      </trkpt>
      <trkpt lat="44.78268" lon="5.7481">
        <ele>849</ele>
        <time>2017-11-23T05:43:39Z</time>
      </trkpt>
      <trkpt lat="44.78301" lon="5.74763">
        <ele>848</ele>
        <time>2017-11-23T05:43:48Z</time>
      </trkpt>
      <trkpt lat="44.78325" lon="5.7472">
        <ele>850</ele>
        <time>2017-11-23T05:43:51Z</time>
      </trkpt>
      <trkpt lat="44.78339" lon="5.74683">
        <ele>848</ele>
        <time>2017-11-23T05:44:04Z</time>
      </trkpt>
      <trkpt lat="44.78346" lon="5.74658">
        <ele>850</ele>
        <time>2017-11-23T05:44:13Z</time>
      </trkpt>
      <trkpt lat="44.78351" lon="5.74633">
        <ele>849</ele>
        <time>2017-11-23T05:44:16Z</time>
      </trkpt>
      <trkpt lat="44.78354" lon="5.74607">
        <ele>850</ele>
        <time>2017-11-23T05:44:20Z</time>
      </trkpt>
      <trkpt lat="44.78354" lon="5.74581">
        <ele>851</ele>
        <time>2017-11-23T05:44:38Z</time>
      </trkpt>
      <trkpt lat="44.78346" lon="5.74505">
        <ele>852</ele>
        <time>2017-11-23T05:44:44Z</time>
      </trkpt>
      <trkpt lat="44.78307" lon="5.74201">
        <ele>854</ele>
        <time>2017-11-23T05:45:04Z</time>
      </trkpt>
      <trkpt lat="44.78288" lon="5.74033">
        <ele>850</ele>
        <time>2017-11-23T05:45:11Z</time>
      </trkpt>
      <trkpt lat="44.78283" lon="5.74019">
        <ele>850</ele>
        <time>2017-11-23T05:45:22Z</time>
      </trkpt>
      <trkpt lat="44.78277" lon="5.74012">
        <ele>849</ele>
        <time>2017-11-23T05:45:38Z</time>
      </trkpt>
      <trkpt lat="44.78271" lon="5.74011">
        <ele>849</ele>
        <time>2017-11-23T05:45:55Z</time>
      </trkpt>
      <trkpt lat="44.78266" lon="5.74014">
        <ele>849</ele>
        <time>2017-11-23T05:45:57Z</time>
      </trkpt>
      <trkpt lat="44.78243" lon="5.74054">
        <ele>846</ele>
        <time>2017-11-23T05:46:12Z</time>
      </trkpt>
      <trkpt lat="44.78223" lon="5.74075">
        <ele>846</ele>
        <time>2017-11-23T05:46:24Z</time>
      </trkpt>
      <trkpt lat="44.78192" lon="5.74101">
        <ele>848</ele>
        <time>2017-11-23T05:46:44Z</time>
      </trkpt>
      <trkpt lat="44.78153" lon="5.74134">
        <ele>844</ele>
        <time>2017-11-23T05:46:50Z</time>
      </trkpt>
      <trkpt lat="44.78127" lon="5.74151">
        <ele>843</ele>
        <time>2017-11-23T05:47:08Z</time>
      </trkpt>
      <trkpt lat="44.78103" lon="5.74162">
        <ele>841</ele>
        <time>2017-11-23T05:47:16Z</time>
      </trkpt>
      <trkpt lat="44.78088" lon="5.74165">
        <ele>840</ele>
        <time>2017-11-23T05:47:29Z</time>
      </trkpt>
      <trkpt lat="44.78074" lon="5.74164">
        <ele>838</ele>
        <time>2017-11-23T05:47:44Z</time>
      </trkpt>
      <trkpt lat="44.78049" lon="5.74157">
        <ele>834</ele>
        <time>2017-11-23T05:48:04Z</time>
      </trkpt>
      <trkpt lat="44.78018" lon="5.74147">
        <ele>833</ele>
        <time>2017-11-23T05:48:15Z</time>
      </trkpt>
      <trkpt lat="44.7798" lon="5.74138">
        <ele>831</ele>
        <time>2017-11-23T05:48:28Z</time>
      </trkpt>
      <trkpt lat="44.77949" lon="5.74134">
        <ele>830</ele>
        <time>2017-11-23T05:48:44Z</time>
      </trkpt>
      <trkpt lat="44.77936" lon="5.74129">
        <ele>830</ele>
        <time>2017-11-23T05:48:58Z</time>
      </trkpt>
      <trkpt lat="44.77924" lon="5.7412">
        <ele>830</ele>
        <time>2017-11-23T05:49:13Z</time>
      </trkpt>
      <trkpt lat="44.77911" lon="5.74101">
        <ele>830</ele>
        <time>2017-11-23T05:49:24Z</time>
      </trkpt>
      <trkpt lat="44.77896" lon="5.7407">
        <ele>829</ele>
        <time>2017-11-23T05:49:33Z</time>
      </trkpt>
      <trkpt lat="44.77878" lon="5.74036">
        <ele>830</ele>
        <time>2017-11-23T05:49:49Z</time>
      </trkpt>
      <trkpt lat="44.77863" lon="5.74011">
        <ele>830</ele>
        <time>2017-11-23T05:50:02Z</time>
      </trkpt>
      <trkpt lat="44.77822" lon="5.73967">
        <ele>838</ele>
        <time>2017-11-23T05:50:16Z</time>
      </trkpt>
      <trkpt lat="44.77765" lon="5.73911">
        <ele>843</ele>
        <time>2017-11-23T05:50:35Z</time>
      </trkpt>
      <trkpt lat="44.77757" lon="5.73898">
        <ele>843</ele>
        <time>2017-11-23T05:50:46Z</time>
      </trkpt>
      <trkpt lat="44.77752" lon="5.73883">
        <ele>843</ele>
        <time>2017-11-23T05:50:50Z</time>
      </trkpt>
      <trkpt lat="44.77755" lon="5.73852">
        <ele>843</ele>
        <time>2017-11-23T05:51:03Z</time>
      </trkpt>
      <trkpt lat="44.77753" lon="5.73829">
        <ele>844</ele>
        <time>2017-11-23T05:51:16Z</time>
      </trkpt>
      <trkpt lat="44.77746" lon="5.73815">
        <ele>847</ele>
        <time>2017-11-23T05:51:22Z</time>
      </trkpt>
      <trkpt lat="44.77722" lon="5.73782">
        <ele>849</ele>
        <time>2017-11-23T05:51:39Z</time>
      </trkpt>
      <trkpt lat="44.7769" lon="5.73736">
        <ele>852</ele>
        <time>2017-11-23T05:51:48Z</time>
      </trkpt>
      <trkpt lat="44.77663" lon="5.73688">
        <ele>859</ele>
        <time>2017-11-23T05:51:50Z</time>
      </trkpt>
      <trkpt lat="44.77621" lon="5.73597">
        <ele>865</ele>
        <time>2017-11-23T05:52:04Z</time>
      </trkpt>
      <trkpt lat="44.77577" lon="5.73485">
        <ele>877</ele>
        <time>2017-11-23T05:52:15Z</time>
      </trkpt>
      <trkpt lat="44.7756" lon="5.73437">
        <ele>879</ele>
        <time>2017-11-23T05:52:27Z</time>
      </trkpt>
      <trkpt lat="44.77555" lon="5.73417">
        <ele>879</ele>
        <time>2017-11-23T05:52:37Z</time>
      </trkpt>
      <trkpt lat="44.77555" lon="5.73397">
        <ele>880</ele>
        <time>2017-11-23T05:52:53Z</time>
      </trkpt>
      <trkpt lat="44.77562" lon="5.73358">
        <ele>880</ele>
        <time>2017-11-23T05:52:59Z</time>
      </trkpt>
      <trkpt lat="44.77571" lon="5.73309">
        <ele>881</ele>
        <time>2017-11-23T05:53:05Z</time>
      </trkpt>
      <trkpt lat="44.77572" lon="5.73289">
        <ele>882</ele>
        <time>2017-11-23T05:53:22Z</time>
      </trkpt>
      <trkpt lat="44.7757" lon="5.73268">
        <ele>881</ele>
        <time>2017-11-23T05:53:37Z</time>
      </trkpt>
      <trkpt lat="44.77563" lon="5.73245">
        <ele>882</ele>
        <time>2017-11-23T05:53:56Z</time>
      </trkpt>
      <trkpt lat="44.77554" lon="5.73222">
        <ele>885</ele>
        <time>2017-11-23T05:54:12Z</time>
      </trkpt>
      <trkpt lat="44.77528" lon="5.73175">
        <ele>889</ele>
        <time>2017-11-23T05:54:15Z</time>
      </trkpt>
      <trkpt lat="44.7751" lon="5.73143">
        <ele>889</ele>
        <time>2017-11-23T05:54:26Z</time>
      </trkpt>
      <trkpt lat="44.77491" lon="5.73099">
        <ele>897</ele>
        <time>2017-11-23T05:54:44Z</time>
      </trkpt>
      <trkpt lat="44.7748" lon="5.73063">
        <ele>897</ele>
        <time>2017-11-23T05:54:58Z</time>
      </trkpt>
      <trkpt lat="44.77476" lon="5.73039">
        <ele>897</ele>
        <time>2017-11-23T05:55:01Z</time>
      </trkpt>
      <trkpt lat="44.77473" lon="5.72999">
        <ele>897</ele>
        <time>2017-11-23T05:55:11Z</time>
      </trkpt>
      <trkpt lat="44.77469" lon="5.72967">
        <ele>897</ele>
        <time>2017-11-23T05:55:22Z</time>
      </trkpt>
      <trkpt lat="44.77465" lon="5.72957">
        <ele>897</ele>
        <time>2017-11-23T05:55:32Z</time>
      </trkpt>
      <trkpt lat="44.77459" lon="5.72952">
        <ele>897</ele>
        <time>2017-11-23T05:55:37Z</time>
      </trkpt>
      <trkpt lat="44.77454" lon="5.7295">
        <ele>897</ele>
        <time>2017-11-23T05:55:55Z</time>
      </trkpt>
      <trkpt lat="44.77447" lon="5.7295">
        <ele>897</ele>
        <time>2017-11-23T05:56:00Z</time>
      </trkpt>
      <trkpt lat="44.77375" lon="5.73017">
        <ele>894</ele>
        <time>2017-11-23T05:56:14Z</time>
      </trkpt>
      <trkpt lat="44.77341" lon="5.7305">
        <ele>894</ele>
        <time>2017-11-23T05:56:25Z</time>
      </trkpt>
      <trkpt lat="44.77325" lon="5.73064">
        <ele>888</ele>
        <time>2017-11-23T05:56:39Z</time>
      </trkpt>
      <trkpt lat="44.77308" lon="5.73075">
        <ele>887</ele>
        <time>2017-11-23T05:56:54Z</time>
      </trkpt>
      <trkpt lat="44.7727" lon="5.73091">
        <ele>890</ele>
        <time>2017-11-23T05:57:06Z</time>
      </trkpt>
      <trkpt lat="44.77242" lon="5.73095">
        <ele>885</ele>
        <time>2017-11-23T05:57:19Z</time>
      </trkpt>
      <trkpt lat="44.77217" lon="5.731">
        <ele>885</ele>
        <time>2017-11-23T05:57:37Z</time>
      </trkpt>
      <trkpt lat="44.77192" lon="5.7311">
        <ele>885</ele>
        <time>2017-11-23T05:57:44Z</time>
      </trkpt>
      <trkpt lat="44.77186" lon="5.73106">
        <ele>884</ele>
        <time>2017-11-23T05:57:59Z</time>
      </trkpt>
      <trkpt lat="44.77185" lon="5.73098">
        <ele>883</ele>
        <time>2017-11-23T05:58:18Z</time>
      </trkpt>
      <trkpt lat="44.77189" lon="5.73092">
        <ele>883</ele>
        <time>2017-11-23T05:58:30Z</time>
      </trkpt>
      <trkpt lat="44.77206" lon="5.73078">
        <ele>875</ele>
        <time>2017-11-23T05:58:37Z</time>
      </trkpt>
      <trkpt lat="44.77229" lon="5.73063">
        <ele>876</ele>
        <time>2017-11-23T05:58:57Z</time>
      </trkpt>
      <trkpt lat="44.77255" lon="5.73039">
        <ele>880</ele>
        <time>2017-11-23T05:59:10Z</time>
      </trkpt>
      <trkpt lat="44.77267" lon="5.73022">
        <ele>878</ele>
        <time>2017-11-23T05:59:30Z</time>
      </trkpt>
      <trkpt lat="44.77279" lon="5.73002">
        <ele>878</ele>
        <time>2017-11-23T05:59:44Z</time>
      </trkpt>
      <trkpt lat="44.77293" lon="5.72966">
        <ele>870</ele>
        <time>2017-11-23T05:59:55Z</time>
      </trkpt>
      <trkpt lat="44.77305" lon="5.72924">
        <ele>869</ele>
        <time>2017-11-23T06:00:10Z</time>
      </trkpt>
      <trkpt lat="44.77313" lon="5.72868">
        <ele>863</ele>
        <time>2017-11-23T06:00:25Z</time>
      </trkpt>
      <trkpt lat="44.77318" lon="5.7282">
        <ele>860</ele>
        <time>2017-11-23T06:00:28Z</time>
      </trkpt>
      <trkpt lat="44.77317" lon="5.72787">
        <ele>857</ele>
        <time>2017-11-23T06:00:40Z</time>
      </trkpt>
      <trkpt lat="44.77313" lon="5.72755">
        <ele>857</ele>
        <time>2017-11-23T06:00:56Z</time>
      </trkpt>
      <trkpt lat="44.77306" lon="5.72709">
        <ele>852</ele>
        <time>2017-11-23T06:01:11Z</time>
      </trkpt>
      <trkpt lat="44.77296" lon="5.72656">
        <ele>851</ele>
        <time>2017-11-23T06:01:19Z</time>
      </trkpt>
      <trkpt lat="44.77281" lon="5.72589">
        <ele>849</ele>
        <time>2017-11-23T06:01:36Z</time>
      </trkpt>
      <trkpt lat="44.77268" lon="5.72551">
        <ele>851</ele>
        <time>2017-11-23T06:01:44Z</time>
      </trkpt>
      <trkpt lat="44.77224" lon="5.72432">
        <ele>835</ele>
        <time>2017-11-23T06:01:51Z</time>
      </trkpt>
      <trkpt lat="44.77211" lon="5.72407">
        <ele>832</ele>
        <time>2017-11-23T06:02:07Z</time>
      </trkpt>
      <trkpt lat="44.77201" lon="5.72386">
        <ele>830</ele>
        <time>2017-11-23T06:02:10Z</time>
      </trkpt>
      <trkpt lat="44.77199" lon="5.72375">
        <ele>830</ele>
        <time>2017-11-23T06:02:21Z</time>
      </trkpt>
      <trkpt lat="44.77201" lon="5.7236">
        <ele>829</ele>
        <time>2017-11-23T06:02:40Z</time>
      </trkpt>
      <trkpt lat="44.77208" lon="5.72326">
        <ele>827</ele>
        <time>2017-11-23T06:03:00Z</time>
      </trkpt>
      <trkpt lat="44.77212" lon="5.72289">
        <ele>826</ele>
        <time>2017-11-23T06:03:07Z</time>
      </trkpt>
      <trkpt lat="44.7721" lon="5.72252">
        <ele>825</ele>
        <time>2017-11-23T06:03:19Z</time>
      </trkpt>
      <trkpt lat="44.77206" lon="5.72198">
        <ele>820</ele>
        <time>2017-11-23T06:03:38Z</time>
      </trkpt>
      <trkpt lat="44.77208" lon="5.72181">
        <ele>820</ele>
        <time>2017-11-23T06:03:41Z</time>
      </trkpt>
      <trkpt lat="44.77213" lon="5.72164">
        <ele>817</ele>
        <time>2017-11-23T06:03:52Z</time>
      </trkpt>
      <trkpt lat="44.77224" lon="5.72132">
        <ele>816</ele>
        <time>2017-11-23T06:04:05Z</time>
      </trkpt>
      <trkpt lat="44.77242" lon="5.72087">
        <ele>816</ele>
        <time>2017-11-23T06:04:18Z</time>
      </trkpt>
      <trkpt lat="44.77255" lon="5.72046">
        <ele>822</ele>
        <time>2017-11-23T06:04:23Z</time>
      </trkpt>
      <trkpt lat="44.77265" lon="5.7201">
        <ele>819</ele>
        <time>2017-11-23T06:04:34Z</time>
      </trkpt>
      <trkpt lat="44.77272" lon="5.71958">
        <ele>816</ele>
        <time>2017-11-23T06:04:44Z</time>
      </trkpt>
      <trkpt lat="44.77276" lon="5.71916">
        <ele>813</ele>
        <time>2017-11-23T06:04:58Z</time>
      </trkpt>
      <trkpt lat="44.77274" lon="5.71883">
        <ele>814</ele>
        <time>2017-11-23T06:05:00Z</time>
      </trkpt>
      <trkpt lat="44.77266" lon="5.71851">
        <ele>813</ele>
        <time>2017-11-23T06:05:19Z</time>
      </trkpt>
      <trkpt lat="44.77256" lon="5.71824">
        <ele>811</ele>
        <time>2017-11-23T06:05:39Z</time>
      </trkpt>
      <trkpt lat="44.77243" lon="5.71812">
        <ele>802</ele>
        <time>2017-11-23T06:05:49Z</time>
      </trkpt>
      <trkpt lat="44.77227" lon="5.71799">
        <ele>800</ele>
        <time>2017-11-23T06:06:06Z</time>
      </trkpt>
      <trkpt lat="44.7722" lon="5.7179">
        <ele>799</ele>
        <time>2017-11-23T06:06:11Z</time>
      </trkpt>
      <trkpt lat="44.77215" lon="5.71778">
        <ele>799</ele>
        <time>2017-11-23T06:06:27Z</time>
      </trkpt>
      <trkpt lat="44.77203" lon="5.7173">
        <ele>799</ele>
        <time>2017-11-23T06:06:41Z</time>
      </trkpt>
      <trkpt lat="44.77202" lon="5.7169">
        <ele>798</ele>
        <time>2017-11-23T06:06:52Z</time>
      </trkpt>
      <trkpt lat="44.77207" lon="5.71545">
        <ele>787</ele>
        <time>2017-11-23T06:07:06Z</time>
      </trkpt>
      <trkpt lat="44.77213" lon="5.71514">
        <ele>786</ele>
        <time>2017-11-23T06:07:15Z</time>
      </trkpt>
      <trkpt lat="44.77216" lon="5.71502">
        <ele>786</ele>
        <time>2017-11-23T06:07:19Z</time>
      </trkpt>
      <trkpt lat="44.77215" lon="5.7149">
        <ele>781</ele>
        <time>2017-11-23T06:07:35Z</time>
      </trkpt>
      <trkpt lat="44.77208" lon="5.71489">
        <ele>780</ele>
        <time>2017-11-23T06:07:49Z</time>
      </trkpt>
      <trkpt lat="44.772" lon="5.71492">
        <ele>779</ele>
        <time>2017-11-23T06:08:06Z</time>
      </trkpt>
      <trkpt lat="44.77194" lon="5.71499">
        <ele>778</ele>
        <time>2017-11-23T06:08:15Z</time>
      </trkpt>
      <trkpt lat="44.77186" lon="5.71513">
        <ele>782</ele>
        <time>2017-11-23T06:08:23Z</time>
      </trkpt>
      <trkpt lat="44.77168" lon="5.71557">
        <ele>784</ele>
        <time>2017-11-23T06:08:37Z</time>
      </trkpt>
      <trkpt lat="44.77157" lon="5.71577">
        <ele>775</ele>
        <time>2017-11-23T06:08:47Z</time>
      </trkpt>
      <trkpt lat="44.77145" lon="5.71591">
        <ele>775</ele>
        <time>2017-11-23T06:09:02Z</time>
      </trkpt>
      <trkpt lat="44.77125" lon="5.71612">
        <ele>771</ele>
        <time>2017-11-23T06:09:09Z</time>
      </trkpt>
      <trkpt lat="44.77115" lon="5.71627">
        <ele>770</ele>
        <time>2017-11-23T06:09:27Z</time>
      </trkpt>
      <trkpt lat="44.77109" lon="5.71642">
        <ele>769</ele>
        <time>2017-11-23T06:09:44Z</time>
      </trkpt>
      <trkpt lat="44.77098" lon="5.71683">
        <ele>770</ele>
        <time>2017-11-23T06:09:57Z</time>
      </trkpt>
      <trkpt lat="44.77095" lon="5.71723">
        <ele>772</ele>
        <time>2017-11-23T06:09:59Z</time>
      </trkpt>
      <trkpt lat="44.77094" lon="5.71756">
        <ele>770</ele>
        <time>2017-11-23T06:10:10Z</time>
      </trkpt>
      <trkpt lat="44.77091" lon="5.71763">
        <ele>771</ele>
        <time>2017-11-23T06:10:18Z</time>
      </trkpt>
      <trkpt lat="44.77087" lon="5.71764">
        <ele>771</ele>
        <time>2017-11-23T06:10:34Z</time>
      </trkpt>
      <trkpt lat="44.77084" lon="5.71761">
        <ele>770</ele>
        <time>2017-11-23T06:10:38Z</time>
      </trkpt>
      <trkpt lat="44.77082" lon="5.71755">
        <ele>765</ele>
        <time>2017-11-23T06:10:48Z</time>
      </trkpt>
      <trkpt lat="44.77082" lon="5.71692">
        <ele>758</ele>
        <time>2017-11-23T06:10:51Z</time>
      </trkpt>
      <trkpt lat="44.77085" lon="5.71637">
        <ele>767</ele>
        <time>2017-11-23T06:11:10Z</time>
      </trkpt>
      <trkpt lat="44.77089" lon="5.71617">
        <ele>766</ele>
        <time>2017-11-23T06:11:19Z</time>
      </trkpt>
      <trkpt lat="44.77095" lon="5.71598">
        <ele>764</ele>
        <time>2017-11-23T06:11:34Z</time>
      </trkpt>
      <trkpt lat="44.77104" lon="5.7156">
        <ele>761</ele>
        <time>2017-11-23T06:11:53Z</time>
      </trkpt>
      <trkpt lat="44.77113" lon="5.715">
        <ele>754</ele>
        <time>2017-11-23T06:12:07Z</time>
      </trkpt>
      <trkpt lat="44.77123" lon="5.71447">
        <ele>755</ele>
        <time>2017-11-23T06:12:16Z</time>
      </trkpt>
      <trkpt lat="44.77127" lon="5.71403">
        <ele>748</ele>
        <time>2017-11-23T06:12:35Z</time>
      </trkpt>
      <trkpt lat="44.77127" lon="5.71363">
        <ele>746</ele>
        <time>2017-11-23T06:12:41Z</time>
      </trkpt>
      <trkpt lat="44.77132" lon="5.71342">
        <ele>745</ele>
        <time>2017-11-23T06:12:48Z</time>
      </trkpt>
      <trkpt lat="44.7714" lon="5.71318">
        <ele>740</ele>
        <time>2017-11-23T06:12:55Z</time>
      </trkpt>
      <trkpt lat="44.7715" lon="5.713">
        <ele>739</ele>
        <time>2017-11-23T06:12:57Z</time>
      </trkpt>
      <trkpt lat="44.77163" lon="5.71287">
        <ele>738</ele>
        <time>2017-11-23T06:12:59Z</time>
      </trkpt>
      <trkpt lat="44.77177" lon="5.71276">
        <ele>746</ele>
        <time>2017-11-23T06:13:10Z</time>
      </trkpt>
      <trkpt lat="44.7719" lon="5.71263">
        <ele>745</ele>
        <time>2017-11-23T06:13:17Z</time>
      </trkpt>
      <trkpt lat="44.77208" lon="5.71231">
        <ele>740</ele>
        <time>2017-11-23T06:13:19Z</time>
      </trkpt>
      <trkpt lat="44.77223" lon="5.71194">
        <ele>739</ele>
        <time>2017-11-23T06:13:36Z</time>
      </trkpt>
      <trkpt lat="44.7723" lon="5.71177">
        <ele>739</ele>
        <time>2017-11-23T06:13:47Z</time>
      </trkpt>
      <trkpt lat="44.77232" lon="5.71175">
        <ele>739</ele>
        <time>2017-11-23T06:13:50Z</time>
      </trkpt>
      <trkpt lat="44.77228" lon="5.71171">
        <ele>739</ele>
        <time>2017-11-23T06:14:07Z</time>
      </trkpt>
      <trkpt lat="44.77222" lon="5.71163">
        <ele>735</ele>
        <time>2017-11-23T06:14:26Z</time>
      </trkpt>
      <trkpt lat="44.77228" lon="5.71171">
        <ele>739</ele>
        <time>2017-11-23T06:14:29Z</time>
      </trkpt>
      <trkpt lat="44.77232" lon="5.71175">
        <ele>739</ele>
        <time>2017-11-23T06:14:37Z</time>
      </trkpt>
      <trkpt lat="44.77234" lon="5.71171">
        <ele>739</ele>
        <time>2017-11-23T06:14:41Z</time>
      </trkpt>
      <trkpt lat="44.77244" lon="5.71159">
        <ele>737</ele>
        <time>2017-11-23T06:15:01Z</time>
      </trkpt>
      <trkpt lat="44.77257" lon="5.71139">
        <ele>742</ele>
        <time>2017-11-23T06:15:11Z</time>
      </trkpt>
      <trkpt lat="44.77281" lon="5.71099">
        <ele>741</ele>
        <time>2017-11-23T06:15:27Z</time>
      </trkpt>
      <trkpt lat="44.7729" lon="5.71084">
        <ele>742</ele>
        <time>2017-11-23T06:15:31Z</time>
      </trkpt>
      <trkpt lat="44.77295" lon="5.7107">
        <ele>736</ele>
        <time>2017-11-23T06:15:47Z</time>
      </trkpt>
      <trkpt lat="44.773" lon="5.71052">
        <ele>736</ele>
        <time>2017-11-23T06:16:05Z</time>
      </trkpt>
      <trkpt lat="44.77302" lon="5.71032">
        <ele>735</ele>
        <time>2017-11-23T06:16:14Z</time>
      </trkpt>
      <trkpt lat="44.77304" lon="5.70993">
        <ele>730</ele>
        <time>2017-11-23T06:16:16Z</time>
      </trkpt>
      <trkpt lat="44.77307" lon="5.70976">
        <ele>730</ele>
        <time>2017-11-23T06:16:26Z</time>
      </trkpt>
      <trkpt lat="44.77313" lon="5.70964">
        <ele>729</ele>
        <time>2017-11-23T06:16:46Z</time>
      </trkpt>
      <trkpt lat="44.77329" lon="5.70929">
        <ele>729</ele>
        <time>2017-11-23T06:16:55Z</time>
      </trkpt>
      <trkpt lat="44.77335" lon="5.70896">
        <ele>736</ele>
        <time>2017-11-23T06:17:01Z</time>
      </trkpt>
      <trkpt lat="44.77334" lon="5.70863">
        <ele>737</ele>
        <time>2017-11-23T06:17:15Z</time>
      </trkpt>
      <trkpt lat="44.77337" lon="5.70833">
        <ele>729</ele>
        <time>2017-11-23T06:17:21Z</time>
      </trkpt>
      <trkpt lat="44.77348" lon="5.70807">
        <ele>734</ele>
        <time>2017-11-23T06:17:26Z</time>
      </trkpt>
      <trkpt lat="44.77383" lon="5.70761">
        <ele>738</ele>
        <time>2017-11-23T06:17:46Z</time>
      </trkpt>
      <trkpt lat="44.77397" lon="5.70733">
        <ele>733</ele>
        <time>2017-11-23T06:17:59Z</time>
      </trkpt>
      <trkpt lat="44.77428" lon="5.70658">
        <ele>730</ele>
        <time>2017-11-23T06:18:12Z</time>
      </trkpt>
      <trkpt lat="44.77448" lon="5.70613">
        <ele>731</ele>
        <time>2017-11-23T06:18:30Z</time>
      </trkpt>
      <trkpt lat="44.77468" lon="5.70574">
        <ele>727</ele>
        <time>2017-11-23T06:18:35Z</time>
      </trkpt>
      <trkpt lat="44.77546" lon="5.7043">
        <ele>723</ele>
        <time>2017-11-23T06:18:37Z</time>
      </trkpt>
      <trkpt lat="44.77563" lon="5.70404">
        <ele>719</ele>
        <time>2017-11-23T06:18:57Z</time>
      </trkpt>
      <trkpt lat="44.77579" lon="5.70387">
        <ele>719</ele>
        <time>2017-11-23T06:19:17Z</time>
      </trkpt>
      <trkpt lat="44.77624" lon="5.70355">
        <ele>725</ele>
        <time>2017-11-23T06:19:30Z</time>
      </trkpt>
      <trkpt lat="44.77704" lon="5.70299">
        <ele>733</ele>
        <time>2017-11-23T06:19:32Z</time>
      </trkpt>
      <trkpt lat="44.77729" lon="5.70275">
        <ele>734</ele>
        <time>2017-11-23T06:19:51Z</time>
      </trkpt>
      <trkpt lat="44.77758" lon="5.70235">
        <ele>742</ele>
        <time>2017-11-23T06:20:11Z</time>
      </trkpt>
      <trkpt lat="44.77775" lon="5.70199">
        <ele>743</ele>
        <time>2017-11-23T06:20:19Z</time>
      </trkpt>
      <trkpt lat="44.77799" lon="5.70117">
        <ele>738</ele>
        <time>2017-11-23T06:20:22Z</time>
      </trkpt>
      <trkpt lat="44.77811" lon="5.70081">
        <ele>737</ele>
        <time>2017-11-23T06:20:36Z</time>
      </trkpt>
      <trkpt lat="44.77823" lon="5.70042">
        <ele>735</ele>
        <time>2017-11-23T06:20:38Z</time>
      </trkpt>
      <trkpt lat="44.77831" lon="5.69998">
        <ele>740</ele>
        <time>2017-11-23T06:20:42Z</time>
      </trkpt>
      <trkpt lat="44.77838" lon="5.69951">
        <ele>747</ele>
        <time>2017-11-23T06:20:50Z</time>
      </trkpt>
      <trkpt lat="44.77866" lon="5.69858">
        <ele>743</ele>
        <time>2017-11-23T06:20:58Z</time>
      </trkpt>
      <trkpt lat="44.77883" lon="5.69818">
        <ele>739</ele>
        <time>2017-11-23T06:21:18Z</time>
      </trkpt>
      <trkpt lat="44.77895" lon="5.69795">
        <ele>739</ele>
        <time>2017-11-23T06:21:34Z</time>
      </trkpt>
      <trkpt lat="44.77909" lon="5.69763">
        <ele>741</ele>
        <time>2017-11-23T06:21:46Z</time>
      </trkpt>
      <trkpt lat="44.77937" lon="5.69693">
        <ele>748</ele>
        <time>2017-11-23T06:22:03Z</time>
      </trkpt>
      <trkpt lat="44.77955" lon="5.69644">
        <ele>743</ele>
        <time>2017-11-23T06:22:21Z</time>
      </trkpt>
      <trkpt lat="44.7797" lon="5.69617">
        <ele>744</ele>
        <time>2017-11-23T06:22:36Z</time>
      </trkpt>
      <trkpt lat="44.77985" lon="5.69597">
        <ele>747</ele>
        <time>2017-11-23T06:22:43Z</time>
      </trkpt>
      <trkpt lat="44.78004" lon="5.69583">
        <ele>753</ele>
        <time>2017-11-23T06:23:03Z</time>
      </trkpt>
      <trkpt lat="44.78025" lon="5.69573">
        <ele>755</ele>
        <time>2017-11-23T06:23:16Z</time>
      </trkpt>
      <trkpt lat="44.7808" lon="5.69555">
        <ele>760</ele>
        <time>2017-11-23T06:23:30Z</time>
      </trkpt>
      <trkpt lat="44.78105" lon="5.6955">
        <ele>765</ele>
        <time>2017-11-23T06:23:41Z</time>
      </trkpt>
      <trkpt lat="44.78118" lon="5.6955">
        <ele>765</ele>
        <time>2017-11-23T06:23:56Z</time>
      </trkpt>
      <trkpt lat="44.7815" lon="5.69555">
        <ele>765</ele>
        <time>2017-11-23T06:24:04Z</time>
      </trkpt>
      <trkpt lat="44.78216" lon="5.69566">
        <ele>765</ele>
        <time>2017-11-23T06:24:10Z</time>
      </trkpt>
      <trkpt lat="44.78279" lon="5.69572">
        <ele>765</ele>
        <time>2017-11-23T06:24:13Z</time>
      </trkpt>
      <trkpt lat="44.78346" lon="5.69572">
        <ele>768</ele>
        <time>2017-11-23T06:24:30Z</time>
      </trkpt>
      <trkpt lat="44.78386" lon="5.69575">
        <ele>768</ele>
        <time>2017-11-23T06:24:47Z</time>
      </trkpt>
      <trkpt lat="44.78427" lon="5.6958">
        <ele>771</ele>
        <time>2017-11-23T06:25:07Z</time>
      </trkpt>
      <trkpt lat="44.78458" lon="5.69588">
        <ele>773</ele>
        <time>2017-11-23T06:25:17Z</time>
      </trkpt>
      <trkpt lat="44.78492" lon="5.69594">
        <ele>773</ele>
        <time>2017-11-23T06:25:24Z</time>
      </trkpt>
      <trkpt lat="44.78516" lon="5.69599">
        <ele>773</ele>
        <time>2017-11-23T06:25:31Z</time>
      </trkpt>
      <trkpt lat="44.78521" lon="5.69599">
        <ele>772</ele>
        <time>2017-11-23T06:25:51Z</time>
      </trkpt>
      <trkpt lat="44.78518" lon="5.69604">
        <ele>772</ele>
        <time>2017-11-23T06:25:58Z</time>
      </trkpt>
      <trkpt lat="44.78506" lon="5.69618">
        <ele>772</ele>
        <time>2017-11-23T06:26:04Z</time>
      </trkpt>
      <trkpt lat="44.78479" lon="5.69648">
        <ele>773</ele>
        <time>2017-11-23T06:26:24Z</time>
      </trkpt>
      <trkpt lat="44.78444" lon="5.69688">
        <ele>772</ele>
        <time>2017-11-23T06:26:32Z</time>
      </trkpt>
      <trkpt lat="44.78413" lon="5.69726">
        <ele>774</ele>
        <time>2017-11-23T06:26:38Z</time>
      </trkpt>
      <trkpt lat="44.7839" lon="5.69764">
        <ele>774</ele>
        <time>2017-11-23T06:26:48Z</time>
      </trkpt>
      <trkpt lat="44.78357" lon="5.69858">
        <ele>777</ele>
        <time>2017-11-23T06:26:51Z</time>
      </trkpt>
      <trkpt lat="44.78353" lon="5.6987">
        <ele>777</ele>
        <time>2017-11-23T06:27:10Z</time>
      </trkpt>
      <trkpt lat="44.78331" lon="5.69933">
        <ele>780</ele>
        <time>2017-11-23T06:27:28Z</time>
      </trkpt>
      <trkpt lat="44.78318" lon="5.69991">
        <ele>781</ele>
        <time>2017-11-23T06:27:31Z</time>
      </trkpt>
      <trkpt lat="44.7831" lon="5.70058">
        <ele>783</ele>
        <time>2017-11-23T06:27:46Z</time>
      </trkpt>
      <trkpt lat="44.78305" lon="5.70134">
        <ele>785</ele>
        <time>2017-11-23T06:27:51Z</time>
      </trkpt>
      <trkpt lat="44.78306" lon="5.70177">
        <ele>787</ele>
        <time>2017-11-23T06:27:59Z</time>
      </trkpt>
      <trkpt lat="44.78315" lon="5.70239">
        <ele>788</ele>
        <time>2017-11-23T06:28:05Z</time>
      </trkpt>
      <trkpt lat="44.78315" lon="5.70268">
        <ele>790</ele>
        <time>2017-11-23T06:28:18Z</time>
      </trkpt>
      <trkpt lat="44.78309" lon="5.70296">
        <ele>791</ele>
        <time>2017-11-23T06:28:29Z</time>
      </trkpt>
      <trkpt lat="44.78302" lon="5.70311">
        <ele>792</ele>
        <time>2017-11-23T06:28:38Z</time>
      </trkpt>
      <trkpt lat="44.7829" lon="5.70331">
        <ele>792</ele>
        <time>2017-11-23T06:28:42Z</time>
      </trkpt>
      <trkpt lat="44.78276" lon="5.70353">
        <ele>795</ele>
        <time>2017-11-23T06:28:56Z</time>
      </trkpt>
      <trkpt lat="44.78264" lon="5.70377">
        <ele>796</ele>
        <time>2017-11-23T06:29:01Z</time>
      </trkpt>
      <trkpt lat="44.78202" lon="5.70562">
        <ele>808</ele>
        <time>2017-11-23T06:29:12Z</time>
      </trkpt>
      <trkpt lat="44.78193" lon="5.70592">
        <ele>808</ele>
        <time>2017-11-23T06:29:18Z</time>
      </trkpt>
      <trkpt lat="44.7819" lon="5.70613">
        <ele>808</ele>
        <time>2017-11-23T06:29:21Z</time>
      </trkpt>
      <trkpt lat="44.78191" lon="5.70651">
        <ele>808</ele>
        <time>2017-11-23T06:29:33Z</time>
      </trkpt>
      <trkpt lat="44.78202" lon="5.70708">
        <ele>808</ele>
        <time>2017-11-23T06:29:49Z</time>
      </trkpt>
      <trkpt lat="44.7821" lon="5.70744">
        <ele>808</ele>
        <time>2017-11-23T06:30:08Z</time>
      </trkpt>
      <trkpt lat="44.78223" lon="5.70775">
        <ele>811</ele>
        <time>2017-11-23T06:30:26Z</time>
      </trkpt>
      <trkpt lat="44.78296" lon="5.70924">
        <ele>817</ele>
        <time>2017-11-23T06:30:37Z</time>
      </trkpt>
      <trkpt lat="44.78309" lon="5.70958">
        <ele>817</ele>
        <time>2017-11-23T06:30:43Z</time>
      </trkpt>
      <trkpt lat="44.78316" lon="5.70989">
        <ele>816</ele>
        <time>2017-11-23T06:30:49Z</time>
      </trkpt>
      <trkpt lat="44.78316" lon="5.71003">
        <ele>816</ele>
        <time>2017-11-23T06:31:08Z</time>
      </trkpt>
      <trkpt lat="44.78314" lon="5.71019">
        <ele>817</ele>
        <time>2017-11-23T06:31:17Z</time>
      </trkpt>
      <trkpt lat="44.78305" lon="5.7105">
        <ele>818</ele>
        <time>2017-11-23T06:31:21Z</time>
      </trkpt>
      <trkpt lat="44.78254" lon="5.71206">
        <ele>824</ele>
        <time>2017-11-23T06:31:26Z</time>
      </trkpt>
      <trkpt lat="44.78237" lon="5.71257">
        <ele>831</ele>
        <time>2017-11-23T06:31:42Z</time>
      </trkpt>
      <trkpt lat="44.78232" lon="5.71288">
        <ele>832</ele>
        <time>2017-11-23T06:31:52Z</time>
      </trkpt>
      <trkpt lat="44.78235" lon="5.71318">
        <ele>833</ele>
        <time>2017-11-23T06:32:07Z</time>
      </trkpt>
      <trkpt lat="44.78237" lon="5.71362">
        <ele>835</ele>
        <time>2017-11-23T06:32:20Z</time>
      </trkpt>
      <trkpt lat="44.78238" lon="5.71617">
        <ele>842</ele>
        <time>2017-11-23T06:32:37Z</time>
      </trkpt>
      <trkpt lat="44.78237" lon="5.71649">
        <ele>842</ele>
        <time>2017-11-23T06:32:44Z</time>
      </trkpt>
      <trkpt lat="44.78231" lon="5.7168">
        <ele>842</ele>
        <time>2017-11-23T06:33:03Z</time>
      </trkpt>
      <trkpt lat="44.78219" lon="5.71716">
        <ele>841</ele>
        <time>2017-11-23T06:33:21Z</time>
      </trkpt>
      <trkpt lat="44.7818" lon="5.71814">
        <ele>837</ele>
        <time>2017-11-23T06:33:27Z</time>
      </trkpt>
      <trkpt lat="44.78153" lon="5.71878">
        <ele>837</ele>
        <time>2017-11-23T06:33:44Z</time>
      </trkpt>
      <trkpt lat="44.78143" lon="5.71898">
        <ele>836</ele>
        <time>2017-11-23T06:33:52Z</time>
      </trkpt>
      <trkpt lat="44.78106" lon="5.71972">
        <ele>830</ele>
        <time>2017-11-23T06:34:02Z</time>
      </trkpt>
      <trkpt lat="44.78092" lon="5.71987">
        <ele>831</ele>
        <time>2017-11-23T06:34:07Z</time>
      </trkpt>
      <trkpt lat="44.78032" lon="5.72035">
        <ele>826</ele>
        <time>2017-11-23T06:34:22Z</time>
      </trkpt>
      <trkpt lat="44.77992" lon="5.7207">
        <ele>826</ele>
        <time>2017-11-23T06:34:38Z</time>
      </trkpt>
      <trkpt lat="44.77985" lon="5.72084">
        <ele>824</ele>
        <time>2017-11-23T06:34:41Z</time>
      </trkpt>
      <trkpt lat="44.7798" lon="5.72102">
        <ele>825</ele>
        <time>2017-11-23T06:34:50Z</time>
      </trkpt>
      <trkpt lat="44.77975" lon="5.72137">
        <ele>826</ele>
        <time>2017-11-23T06:35:08Z</time>
      </trkpt>
      <trkpt lat="44.77978" lon="5.72152">
        <ele>825</ele>
        <time>2017-11-23T06:35:11Z</time>
      </trkpt>
      <trkpt lat="44.77989" lon="5.72177">
        <ele>822</ele>
        <time>2017-11-23T06:35:29Z</time>
      </trkpt>
      <trkpt lat="44.78014" lon="5.72219">
        <ele>816</ele>
        <time>2017-11-23T06:35:32Z</time>
      </trkpt>
      <trkpt lat="44.78024" lon="5.72228">
        <ele>816</ele>
        <time>2017-11-23T06:35:36Z</time>
      </trkpt>
      <trkpt lat="44.78035" lon="5.72236">
        <ele>815</ele>
        <time>2017-11-23T06:35:54Z</time>
      </trkpt>
      <trkpt lat="44.7806" lon="5.72249">
        <ele>813</ele>
        <time>2017-11-23T06:36:10Z</time>
      </trkpt>
      <trkpt lat="44.78068" lon="5.72257">
        <ele>813</ele>
        <time>2017-11-23T06:36:25Z</time>
      </trkpt>
      <trkpt lat="44.78077" lon="5.72272">
        <ele>814</ele>
        <time>2017-11-23T06:36:41Z</time>
      </trkpt>
      <trkpt lat="44.78085" lon="5.72298">
        <ele>807</ele>
        <time>2017-11-23T06:36:56Z</time>
      </trkpt>
      <trkpt lat="44.7809" lon="5.72327">
        <ele>810</ele>
        <time>2017-11-23T06:36:59Z</time>
      </trkpt>
      <trkpt lat="44.78094" lon="5.72346">
        <ele>810</ele>
        <time>2017-11-23T06:37:08Z</time>
      </trkpt>
      <trkpt lat="44.78101" lon="5.72366">
        <ele>809</ele>
        <time>2017-11-23T06:37:23Z</time>
      </trkpt>
      <trkpt lat="44.78115" lon="5.72396">
        <ele>809</ele>
        <time>2017-11-23T06:37:27Z</time>
      </trkpt>
      <trkpt lat="44.78121" lon="5.72414">
        <ele>808</ele>
        <time>2017-11-23T06:37:39Z</time>
      </trkpt>
      <trkpt lat="44.78124" lon="5.7243">
        <ele>810</ele>
        <time>2017-11-23T06:37:58Z</time>
      </trkpt>
      <trkpt lat="44.78124" lon="5.72472">
        <ele>811</ele>
        <time>2017-11-23T06:38:17Z</time>
      </trkpt>
      <trkpt lat="44.78127" lon="5.72483">
        <ele>811</ele>
        <time>2017-11-23T06:38:29Z</time>
      </trkpt>
      <trkpt lat="44.78137" lon="5.725">
        <ele>810</ele>
        <time>2017-11-23T06:38:31Z</time>
      </trkpt>
      <trkpt lat="44.78199" lon="5.72583">
        <ele>803</ele>
        <time>2017-11-23T06:38:46Z</time>
      </trkpt>
      <trkpt lat="44.78209" lon="5.72603">
        <ele>801</ele>
        <time>2017-11-23T06:38:55Z</time>
      </trkpt>
      <trkpt lat="44.78214" lon="5.7262">
        <ele>800</ele>
        <time>2017-11-23T06:39:08Z</time>
      </trkpt>
      <trkpt lat="44.78213" lon="5.72635">
        <ele>799</ele>
        <time>2017-11-23T06:39:21Z</time>
      </trkpt>
      <trkpt lat="44.7821" lon="5.72653">
        <ele>799</ele>
        <time>2017-11-23T06:39:36Z</time>
      </trkpt>
      <trkpt lat="44.78199" lon="5.72681">
        <ele>795</ele>
        <time>2017-11-23T06:39:41Z</time>
      </trkpt>
      <trkpt lat="44.78189" lon="5.72701">
        <ele>795</ele>
        <time>2017-11-23T06:39:51Z</time>
      </trkpt>
      <trkpt lat="44.78178" lon="5.72714">
        <ele>794</ele>
        <time>2017-11-23T06:40:03Z</time>
      </trkpt>
      <trkpt lat="44.78164" lon="5.72727">
        <ele>800</ele>
        <time>2017-11-23T06:40:08Z</time>
      </trkpt>
      <trkpt lat="44.78149" lon="5.72741">
        <ele>799</ele>
        <time>2017-11-23T06:40:11Z</time>
      </trkpt>
      <trkpt lat="44.78136" lon="5.72756">
        <ele>796</ele>
        <time>2017-11-23T06:40:15Z</time>
      </trkpt>
      <trkpt lat="44.78125" lon="5.72775">
        <ele>796</ele>
        <time>2017-11-23T06:40:21Z</time>
      </trkpt>
      <trkpt lat="44.78113" lon="5.72801">
        <ele>795</ele>
        <time>2017-11-23T06:40:27Z</time>
      </trkpt>
      <trkpt lat="44.78089" lon="5.72864">
        <ele>790</ele>
        <time>2017-11-23T06:40:41Z</time>
      </trkpt>
      <trkpt lat="44.78077" lon="5.72903">
        <ele>792</ele>
        <time>2017-11-23T06:40:55Z</time>
      </trkpt>
      <trkpt lat="44.78063" lon="5.72964">
        <ele>791</ele>
        <time>2017-11-23T06:41:08Z</time>
      </trkpt>
      <trkpt lat="44.78062" lon="5.73019">
        <ele>790</ele>
        <time>2017-11-23T06:41:11Z</time>
      </trkpt>
      <trkpt lat="44.78074" lon="5.73073">
        <ele>790</ele>
        <time>2017-11-23T06:41:31Z</time>
      </trkpt>
      <trkpt lat="44.78106" lon="5.73185">
        <ele>793</ele>
        <time>2017-11-23T06:41:37Z</time>
      </trkpt>
      <trkpt lat="44.78108" lon="5.73197">
        <ele>793</ele>
        <time>2017-11-23T06:41:40Z</time>
      </trkpt>
      <trkpt lat="44.78106" lon="5.73211">
        <ele>794</ele>
        <time>2017-11-23T06:41:53Z</time>
      </trkpt>
      <trkpt lat="44.78098" lon="5.73275">
        <ele>797</ele>
        <time>2017-11-23T06:41:58Z</time>
      </trkpt>
      <trkpt lat="44.78097" lon="5.73291">
        <ele>797</ele>
        <time>2017-11-23T06:42:01Z</time>
      </trkpt>
      <trkpt lat="44.78102" lon="5.7329">
        <ele>797</ele>
        <time>2017-11-23T06:42:19Z</time>
      </trkpt>
      <trkpt lat="44.78121" lon="5.73285">
        <ele>797</ele>
        <time>2017-11-23T06:42:34Z</time>
      </trkpt>
      <trkpt lat="44.78154" lon="5.73277">
        <ele>797</ele>
        <time>2017-11-23T06:42:44Z</time>
      </trkpt>
      <trkpt lat="44.78161" lon="5.73275">
        <ele>796</ele>
        <time>2017-11-23T06:43:00Z</time>
      </trkpt>
      <trkpt lat="44.78174" lon="5.73278">
        <ele>794</ele>
        <time>2017-11-23T06:43:09Z</time>
      </trkpt>
      <trkpt lat="44.78206" lon="5.73289">
        <ele>793</ele>
        <time>2017-11-23T06:43:19Z</time>
      </trkpt>
      <trkpt lat="44.78234" lon="5.733">
        <ele>792</ele>
        <time>2017-11-23T06:43:29Z</time>
      </trkpt>
      <trkpt lat="44.78251" lon="5.73309">
        <ele>789</ele>
        <time>2017-11-23T06:43:47Z</time>
      </trkpt>
      <trkpt lat="44.7826" lon="5.73315">
        <ele>789</ele>
        <time>2017-11-23T06:43:49Z</time>
      </trkpt>
      <trkpt lat="44.78289" lon="5.73345">
        <ele>792</ele>
        <time>2017-11-23T06:44:08Z</time>
      </trkpt>
      <trkpt lat="44.783" lon="5.73355">
        <ele>793</ele>
        <time>2017-11-23T06:44:17Z</time>
      </trkpt>
      <trkpt lat="44.7831" lon="5.73359">
        <ele>793</ele>
        <time>2017-11-23T06:44:21Z</time>
      </trkpt>
      <trkpt lat="44.78338" lon="5.73358">
        <ele>794</ele>
        <time>2017-11-23T06:44:24Z</time>
      </trkpt>
      <trkpt lat="44.78371" lon="5.73357">
        <ele>794</ele>
        <time>2017-11-23T06:44:28Z</time>
      </trkpt>
      <trkpt lat="44.78415" lon="5.73363">
        <ele>795</ele>
        <time>2017-11-23T06:44:44Z</time>
      </trkpt>
      <trkpt lat="44.78457" lon="5.73376">
        <ele>791</ele>
        <time>2017-11-23T06:44:52Z</time>
      </trkpt>
      <trkpt lat="44.78495" lon="5.73394">
        <ele>790</ele>
        <time>2017-11-23T06:44:59Z</time>
      </trkpt>
      <trkpt lat="44.78516" lon="5.73407">
        <ele>786</ele>
        <time>2017-11-23T06:45:16Z</time>
      </trkpt>
      <trkpt lat="44.7853" lon="5.73417">
        <ele>788</ele>
        <time>2017-11-23T06:45:23Z</time>
      </trkpt>
      <trkpt lat="44.78545" lon="5.73431">
        <ele>788</ele>
        <time>2017-11-23T06:45:25Z</time>
      </trkpt>
      <trkpt lat="44.78554" lon="5.73437">
        <ele>787</ele>
        <time>2017-11-23T06:45:43Z</time>
      </trkpt>
      <trkpt lat="44.78576" lon="5.73439">
        <ele>785</ele>
        <time>2017-11-23T06:45:51Z</time>
      </trkpt>
      <trkpt lat="44.78603" lon="5.73439">
        <ele>779</ele>
        <time>2017-11-23T06:46:05Z</time>
      </trkpt>
      <trkpt lat="44.7862" lon="5.73436">
        <ele>778</ele>
        <time>2017-11-23T06:46:15Z</time>
      </trkpt>
      <trkpt lat="44.78631" lon="5.7343">
        <ele>777</ele>
        <time>2017-11-23T06:46:17Z</time>
      </trkpt>
      <trkpt lat="44.78641" lon="5.73422">
        <ele>776</ele>
        <time>2017-11-23T06:46:21Z</time>
      </trkpt>
      <trkpt lat="44.78651" lon="5.73409">
        <ele>774</ele>
        <time>2017-11-23T06:46:36Z</time>
      </trkpt>
      <trkpt lat="44.78662" lon="5.73386">
        <ele>774</ele>
        <time>2017-11-23T06:46:52Z</time>
      </trkpt>
      <trkpt lat="44.78678" lon="5.7335">
        <ele>770</ele>
        <time>2017-11-23T06:47:10Z</time>
      </trkpt>
      <trkpt lat="44.78702" lon="5.7331">
        <ele>769</ele>
        <time>2017-11-23T06:47:17Z</time>
      </trkpt>
      <trkpt lat="44.78719" lon="5.73271">
        <ele>768</ele>
        <time>2017-11-23T06:47:24Z</time>
      </trkpt>
      <trkpt lat="44.78726" lon="5.73262">
        <ele>768</ele>
        <time>2017-11-23T06:47:32Z</time>
      </trkpt>
      <trkpt lat="44.78731" lon="5.73259">
        <ele>768</ele>
        <time>2017-11-23T06:47:40Z</time>
      </trkpt>
      <trkpt lat="44.78741" lon="5.73256">
        <ele>767</ele>
        <time>2017-11-23T06:47:52Z</time>
      </trkpt>
      <trkpt lat="44.78773" lon="5.73254">
        <ele>764</ele>
        <time>2017-11-23T06:47:59Z</time>
      </trkpt>
      <trkpt lat="44.78858" lon="5.73249">
        <ele>759</ele>
        <time>2017-11-23T06:48:03Z</time>
      </trkpt>
      <trkpt lat="44.78887" lon="5.73248">
        <ele>759</ele>
        <time>2017-11-23T06:48:17Z</time>
      </trkpt>
      <trkpt lat="44.78911" lon="5.73252">
        <ele>760</ele>
        <time>2017-11-23T06:48:36Z</time>
      </trkpt>
      <trkpt lat="44.78926" lon="5.73257">
        <ele>761</ele>
        <time>2017-11-23T06:48:38Z</time>
      </trkpt>
      <trkpt lat="44.78931" lon="5.73254">
        <ele>761</ele>
        <time>2017-11-23T06:48:54Z</time>
      </trkpt>
      <trkpt lat="44.78936" lon="5.73247">
        <ele>760</ele>
        <time>2017-11-23T06:48:56Z</time>
      </trkpt>
      <trkpt lat="44.7894" lon="5.73237">
        <ele>759</ele>
        <time>2017-11-23T06:49:11Z</time>
      </trkpt>
      <trkpt lat="44.78943" lon="5.73222">
        <ele>759</ele>
        <time>2017-11-23T06:49:18Z</time>
      </trkpt>
      <trkpt lat="44.78945" lon="5.7319">
        <ele>758</ele>
        <time>2017-11-23T06:49:31Z</time>
      </trkpt>
      <trkpt lat="44.78952" lon="5.73105">
        <ele>754</ele>
        <time>2017-11-23T06:49:51Z</time>
      </trkpt>
      <trkpt lat="44.7896" lon="5.73063">
        <ele>751</ele>
        <time>2017-11-23T06:49:55Z</time>
      </trkpt>
      <trkpt lat="44.78971" lon="5.73039">
        <ele>750</ele>
        <time>2017-11-23T06:50:04Z</time>
      </trkpt>
      <trkpt lat="44.78991" lon="5.73012">
        <ele>748</ele>
        <time>2017-11-23T06:50:15Z</time>
      </trkpt>
      <trkpt lat="44.79001" lon="5.73">
        <ele>746</ele>
        <time>2017-11-23T06:50:17Z</time>
      </trkpt>
      <trkpt lat="44.79015" lon="5.72989">
        <ele>745</ele>
        <time>2017-11-23T06:50:27Z</time>
      </trkpt>
      <trkpt lat="44.79048" lon="5.72968">
        <ele>744</ele>
        <time>2017-11-23T06:50:44Z</time>
      </trkpt>
      <trkpt lat="44.79059" lon="5.72965">
        <ele>744</ele>
        <time>2017-11-23T06:50:47Z</time>
      </trkpt>
      <trkpt lat="44.79068" lon="5.72965">
        <ele>744</ele>
        <time>2017-11-23T06:51:01Z</time>
      </trkpt>
      <trkpt lat="44.79097" lon="5.7298">
        <ele>742</ele>
        <time>2017-11-23T06:51:20Z</time>
      </trkpt>
      <trkpt lat="44.79129" lon="5.7299">
        <ele>741</ele>
        <time>2017-11-23T06:51:29Z</time>
      </trkpt>
      <trkpt lat="44.79139" lon="5.72994">
        <ele>740</ele>
        <time>2017-11-23T06:51:43Z</time>
      </trkpt>
      <trkpt lat="44.79146" lon="5.73">
        <ele>741</ele>
        <time>2017-11-23T06:52:00Z</time>
      </trkpt>
      <trkpt lat="44.79156" lon="5.73017">
        <ele>741</ele>
        <time>2017-11-23T06:52:20Z</time>
      </trkpt>
      <trkpt lat="44.79168" lon="5.73039">
        <ele>743</ele>
        <time>2017-11-23T06:52:34Z</time>
      </trkpt>
      <trkpt lat="44.79176" lon="5.7305">
        <ele>743</ele>
        <time>2017-11-23T06:52:51Z</time>
      </trkpt>
      <trkpt lat="44.79184" lon="5.73057">
        <ele>744</ele>
        <time>2017-11-23T06:53:07Z</time>
      </trkpt>
      <trkpt lat="44.79195" lon="5.7306">
        <ele>744</ele>
        <time>2017-11-23T06:53:23Z</time>
      </trkpt>
      <trkpt lat="44.79204" lon="5.7306">
        <ele>745</ele>
        <time>2017-11-23T06:53:43Z</time>
      </trkpt>
      <trkpt lat="44.79212" lon="5.73058">
        <ele>745</ele>
        <time>2017-11-23T06:53:57Z</time>
      </trkpt>
      <trkpt lat="44.79221" lon="5.7305">
        <ele>745</ele>
        <time>2017-11-23T06:54:08Z</time>
      </trkpt>
      <trkpt lat="44.79248" lon="5.73012">
        <ele>743</ele>
        <time>2017-11-23T06:54:13Z</time>
      </trkpt>
      <trkpt lat="44.79267" lon="5.72989">
        <ele>746</ele>
        <time>2017-11-23T06:54:26Z</time>
      </trkpt>
      <trkpt lat="44.79287" lon="5.72971">
        <ele>748</ele>
        <time>2017-11-23T06:54:45Z</time>
      </trkpt>
      <trkpt lat="44.79293" lon="5.72963">
        <ele>749</ele>
        <time>2017-11-23T06:55:03Z</time>
      </trkpt>
      <trkpt lat="44.79299" lon="5.72952">
        <ele>749</ele>
        <time>2017-11-23T06:55:10Z</time>
      </trkpt>
      <trkpt lat="44.7934" lon="5.72866">
        <ele>750</ele>
        <time>2017-11-23T06:55:19Z</time>
      </trkpt>
      <trkpt lat="44.7936" lon="5.72835">
        <ele>749</ele>
        <time>2017-11-23T06:55:38Z</time>
      </trkpt>
      <trkpt lat="44.79368" lon="5.7283">
        <ele>743</ele>
        <time>2017-11-23T06:55:44Z</time>
      </trkpt>
      <trkpt lat="44.7938" lon="5.72828">
        <ele>744</ele>
        <time>2017-11-23T06:55:49Z</time>
      </trkpt>
      <trkpt lat="44.79405" lon="5.72827">
        <ele>748</ele>
        <time>2017-11-23T06:55:56Z</time>
      </trkpt>
      <trkpt lat="44.79421" lon="5.72822">
        <ele>749</ele>
        <time>2017-11-23T06:56:12Z</time>
      </trkpt>
      <trkpt lat="44.79442" lon="5.72809">
        <ele>747</ele>
        <time>2017-11-23T06:56:19Z</time>
      </trkpt>
      <trkpt lat="44.79461" lon="5.728">
        <ele>747</ele>
        <time>2017-11-23T06:56:33Z</time>
      </trkpt>
      <trkpt lat="44.79475" lon="5.72794">
        <ele>747</ele>
        <time>2017-11-23T06:56:42Z</time>
      </trkpt>
      <trkpt lat="44.79487" lon="5.72794">
        <ele>747</ele>
        <time>2017-11-23T06:56:48Z</time>
      </trkpt>
      <trkpt lat="44.795" lon="5.72798">
        <ele>748</ele>
        <time>2017-11-23T06:57:01Z</time>
      </trkpt>
      <trkpt lat="44.79509" lon="5.72806">
        <ele>749</ele>
        <time>2017-11-23T06:57:12Z</time>
      </trkpt>
      <trkpt lat="44.79518" lon="5.72816">
        <ele>749</ele>
        <time>2017-11-23T06:57:25Z</time>
      </trkpt>
      <trkpt lat="44.79554" lon="5.72877">
        <ele>752</ele>
        <time>2017-11-23T06:57:38Z</time>
      </trkpt>
      <trkpt lat="44.7958" lon="5.72916">
        <ele>751</ele>
        <time>2017-11-23T06:57:57Z</time>
      </trkpt>
      <trkpt lat="44.79587" lon="5.72923">
        <ele>751</ele>
        <time>2017-11-23T06:58:17Z</time>
      </trkpt>
      <trkpt lat="44.7959" lon="5.72933">
        <ele>751</ele>
        <time>2017-11-23T06:58:36Z</time>
      </trkpt>
      <trkpt lat="44.79594" lon="5.72948">
        <ele>752</ele>
        <time>2017-11-23T06:58:44Z</time>
      </trkpt>
      <trkpt lat="44.796" lon="5.7296">
        <ele>752</ele>
        <time>2017-11-23T06:58:51Z</time>
      </trkpt>
      <trkpt lat="44.79651" lon="5.73005">
        <ele>755</ele>
        <time>2017-11-23T06:58:54Z</time>
      </trkpt>
      <trkpt lat="44.79707" lon="5.73054">
        <ele>757</ele>
        <time>2017-11-23T06:59:13Z</time>
      </trkpt>
      <trkpt lat="44.79732" lon="5.7308">
        <ele>757</ele>
        <time>2017-11-23T06:59:28Z</time>
      </trkpt>
      <trkpt lat="44.79738" lon="5.73093">
        <ele>759</ele>
        <time>2017-11-23T06:59:48Z</time>
      </trkpt>
      <trkpt lat="44.79739" lon="5.73111">
        <ele>761</ele>
        <time>2017-11-23T07:00:00Z</time>
      </trkpt>
      <trkpt lat="44.7973" lon="5.73186">
        <ele>767</ele>
        <time>2017-11-23T07:00:10Z</time>
      </trkpt>
      <trkpt lat="44.79728" lon="5.73214">
        <ele>769</ele>
        <time>2017-11-23T07:00:29Z</time>
      </trkpt>
      <trkpt lat="44.79729" lon="5.7323">
        <ele>770</ele>
        <time>2017-11-23T07:00:44Z</time>
      </trkpt>
      <trkpt lat="44.79732" lon="5.73247">
        <ele>770</ele>
        <time>2017-11-23T07:00:58Z</time>
      </trkpt>
      <trkpt lat="44.79741" lon="5.73281">
        <ele>775</ele>
        <time>2017-11-23T07:01:00Z</time>
      </trkpt>
      <trkpt lat="44.79768" lon="5.73377">
        <ele>780</ele>
        <time>2017-11-23T07:01:06Z</time>
      </trkpt>
      <trkpt lat="44.79778" lon="5.73414">
        <ele>782</ele>
        <time>2017-11-23T07:01:15Z</time>
      </trkpt>
      <trkpt lat="44.79781" lon="5.73448">
        <ele>789</ele>
        <time>2017-11-23T07:01:28Z</time>
      </trkpt>
      <trkpt lat="44.79782" lon="5.73486">
        <ele>791</ele>
        <time>2017-11-23T07:01:44Z</time>
      </trkpt>
      <trkpt lat="44.79786" lon="5.73496">
        <ele>791</ele>
        <time>2017-11-23T07:01:57Z</time>
      </trkpt>
      <trkpt lat="44.79792" lon="5.735">
        <ele>798</ele>
        <time>2017-11-23T07:02:16Z</time>
      </trkpt>
      <trkpt lat="44.79799" lon="5.735">
        <ele>798</ele>
        <time>2017-11-23T07:02:32Z</time>
      </trkpt>
      <trkpt lat="44.79808" lon="5.73496">
        <ele>792</ele>
        <time>2017-11-23T07:02:35Z</time>
      </trkpt>
      <trkpt lat="44.79834" lon="5.73471">
        <ele>793</ele>
        <time>2017-11-23T07:02:46Z</time>
      </trkpt>
      <trkpt lat="44.79865" lon="5.73452">
        <ele>793</ele>
        <time>2017-11-23T07:02:54Z</time>
      </trkpt>
      <trkpt lat="44.7988" lon="5.73446">
        <ele>794</ele>
        <time>2017-11-23T07:03:12Z</time>
      </trkpt>
      <trkpt lat="44.79939" lon="5.73436">
        <ele>802</ele>
        <time>2017-11-23T07:03:32Z</time>
      </trkpt>
      <trkpt lat="44.79968" lon="5.7342">
        <ele>805</ele>
        <time>2017-11-23T07:03:48Z</time>
      </trkpt>
      <trkpt lat="44.80002" lon="5.73399">
        <ele>806</ele>
        <time>2017-11-23T07:03:53Z</time>
      </trkpt>
      <trkpt lat="44.80025" lon="5.7339">
        <ele>805</ele>
        <time>2017-11-23T07:04:05Z</time>
      </trkpt>
      <trkpt lat="44.80041" lon="5.73388">
        <ele>805</ele>
        <time>2017-11-23T07:04:18Z</time>
      </trkpt>
      <trkpt lat="44.80056" lon="5.73391">
        <ele>805</ele>
        <time>2017-11-23T07:04:25Z</time>
      </trkpt>
      <trkpt lat="44.80069" lon="5.73394">
        <ele>806</ele>
        <time>2017-11-23T07:04:40Z</time>
      </trkpt>
      <trkpt lat="44.80106" lon="5.73416">
        <ele>806</ele>
        <time>2017-11-23T07:04:44Z</time>
      </trkpt>
      <trkpt lat="44.80196" lon="5.7347">
        <ele>810</ele>
        <time>2017-11-23T07:05:04Z</time>
      </trkpt>
      <trkpt lat="44.80275" lon="5.73521">
        <ele>806</ele>
        <time>2017-11-23T07:05:12Z</time>
      </trkpt>
      <trkpt lat="44.80294" lon="5.73531">
        <ele>805</ele>
        <time>2017-11-23T07:05:25Z</time>
      </trkpt>
      <trkpt lat="44.80313" lon="5.73533">
        <ele>804</ele>
        <time>2017-11-23T07:05:40Z</time>
      </trkpt>
      <trkpt lat="44.80335" lon="5.7352">
        <ele>799</ele>
        <time>2017-11-23T07:05:57Z</time>
      </trkpt>
      <trkpt lat="44.8037" lon="5.73487">
        <ele>800</ele>
        <time>2017-11-23T07:06:02Z</time>
      </trkpt>
      <trkpt lat="44.80411" lon="5.73449">
        <ele>801</ele>
        <time>2017-11-23T07:06:18Z</time>
      </trkpt>
      <trkpt lat="44.80453" lon="5.73414">
        <ele>796</ele>
        <time>2017-11-23T07:06:21Z</time>
      </trkpt>
      <trkpt lat="44.80477" lon="5.73395">
        <ele>793</ele>
        <time>2017-11-23T07:06:29Z</time>
      </trkpt>
      <trkpt lat="44.8049" lon="5.73372">
        <ele>793</ele>
        <time>2017-11-23T07:06:46Z</time>
      </trkpt>
      <trkpt lat="44.80495" lon="5.73364">
        <ele>792</ele>
        <time>2017-11-23T07:07:02Z</time>
      </trkpt>
      <trkpt lat="44.805" lon="5.73366">
        <ele>792</ele>
        <time>2017-11-23T07:07:16Z</time>
      </trkpt>
      <trkpt lat="44.80502" lon="5.73371">
        <ele>781</ele>
        <time>2017-11-23T07:07:24Z</time>
      </trkpt>
      <trkpt lat="44.80502" lon="5.73382">
        <ele>781</ele>
        <time>2017-11-23T07:07:31Z</time>
      </trkpt>
      <trkpt lat="44.80486" lon="5.7343">
        <ele>788</ele>
        <time>2017-11-23T07:07:46Z</time>
      </trkpt>
      <trkpt lat="44.80444" lon="5.73585">
        <ele>781</ele>
        <time>2017-11-23T07:08:04Z</time>
      </trkpt>
      <trkpt lat="44.80388" lon="5.73762">
        <ele>780</ele>
        <time>2017-11-23T07:08:07Z</time>
      </trkpt>
      <trkpt lat="44.80361" lon="5.73815">
        <ele>779</ele>
        <time>2017-11-23T07:08:20Z</time>
      </trkpt>
      <trkpt lat="44.80326" lon="5.73881">
        <ele>779</ele>
        <time>2017-11-23T07:08:23Z</time>
      </trkpt>
      <trkpt lat="44.80324" lon="5.73895">
        <ele>778</ele>
        <time>2017-11-23T07:08:42Z</time>
      </trkpt>
      <trkpt lat="44.80327" lon="5.73904">
        <ele>776</ele>
        <time>2017-11-23T07:08:56Z</time>
      </trkpt>
      <trkpt lat="44.80334" lon="5.73911">
        <ele>770</ele>
        <time>2017-11-23T07:09:07Z</time>
      </trkpt>
      <trkpt lat="44.80345" lon="5.73912">
        <ele>769</ele>
        <time>2017-11-23T07:09:09Z</time>
      </trkpt>
      <trkpt lat="44.80415" lon="5.73876">
        <ele>766</ele>
        <time>2017-11-23T07:09:28Z</time>
      </trkpt>
      <trkpt lat="44.80427" lon="5.7387">
        <ele>760</ele>
        <time>2017-11-23T07:09:38Z</time>
      </trkpt>
      <trkpt lat="44.80436" lon="5.7387">
        <ele>760</ele>
        <time>2017-11-23T07:09:50Z</time>
      </trkpt>
      <trkpt lat="44.80442" lon="5.73874">
        <ele>759</ele>
        <time>2017-11-23T07:09:57Z</time>
      </trkpt>
      <trkpt lat="44.80445" lon="5.73882">
        <ele>759</ele>
        <time>2017-11-23T07:10:16Z</time>
      </trkpt>
      <trkpt lat="44.80443" lon="5.73897">
        <ele>758</ele>
        <time>2017-11-23T07:10:20Z</time>
      </trkpt>
      <trkpt lat="44.80425" lon="5.73908">
        <ele>757</ele>
        <time>2017-11-23T07:10:22Z</time>
      </trkpt>
      <trkpt lat="44.8041" lon="5.73917">
        <ele>757</ele>
        <time>2017-11-23T07:10:31Z</time>
      </trkpt>
      <trkpt lat="44.80399" lon="5.73927">
        <ele>759</ele>
        <time>2017-11-23T07:10:35Z</time>
      </trkpt>
      <trkpt lat="44.80382" lon="5.73955">
        <ele>760</ele>
        <time>2017-11-23T07:10:51Z</time>
      </trkpt>
      <trkpt lat="44.80371" lon="5.73976">
        <ele>760</ele>
        <time>2017-11-23T07:10:59Z</time>
      </trkpt>
      <trkpt lat="44.80368" lon="5.73997">
        <ele>760</ele>
        <time>2017-11-23T07:11:08Z</time>
      </trkpt>
      <trkpt lat="44.80368" lon="5.74017">
        <ele>754</ele>
        <time>2017-11-23T07:11:17Z</time>
      </trkpt>
      <trkpt lat="44.80374" lon="5.74039">
        <ele>753</ele>
        <time>2017-11-23T07:11:24Z</time>
      </trkpt>
      <trkpt lat="44.80381" lon="5.74055">
        <ele>751</ele>
        <time>2017-11-23T07:11:41Z</time>
      </trkpt>
      <trkpt lat="44.80391" lon="5.74063">
        <ele>750</ele>
        <time>2017-11-23T07:11:46Z</time>
      </trkpt>
      <trkpt lat="44.804" lon="5.74069">
        <ele>749</ele>
        <time>2017-11-23T07:12:01Z</time>
      </trkpt>
      <trkpt lat="44.80409" lon="5.74071">
        <ele>748</ele>
        <time>2017-11-23T07:12:19Z</time>
      </trkpt>
      <trkpt lat="44.80421" lon="5.74072">
        <ele>744</ele>
        <time>2017-11-23T07:12:33Z</time>
      </trkpt>
      <trkpt lat="44.80432" lon="5.74069">
        <ele>744</ele>
        <time>2017-11-23T07:12:36Z</time>
      </trkpt>
      <trkpt lat="44.80464" lon="5.74038">
        <ele>744</ele>
        <time>2017-11-23T07:12:52Z</time>
      </trkpt>
      <trkpt lat="44.80514" lon="5.73978">
        <ele>743</ele>
        <time>2017-11-23T07:13:00Z</time>
      </trkpt>
      <trkpt lat="44.80522" lon="5.73975">
        <ele>742</ele>
        <time>2017-11-23T07:13:13Z</time>
      </trkpt>
      <trkpt lat="44.80529" lon="5.73977">
        <ele>742</ele>
        <time>2017-11-23T07:13:16Z</time>
      </trkpt>
      <trkpt lat="44.80533" lon="5.73983">
        <ele>741</ele>
        <time>2017-11-23T07:13:35Z</time>
      </trkpt>
      <trkpt lat="44.80536" lon="5.73995">
        <ele>741</ele>
        <time>2017-11-23T07:13:52Z</time>
      </trkpt>
      <trkpt lat="44.80534" lon="5.74003">
        <ele>737</ele>
        <time>2017-11-23T07:13:59Z</time>
      </trkpt>
      <trkpt lat="44.80525" lon="5.74018">
        <ele>738</ele>
        <time>2017-11-23T07:14:12Z</time>
      </trkpt>
      <trkpt lat="44.80488" lon="5.74067">
        <ele>741</ele>
        <time>2017-11-23T07:14:15Z</time>
      </trkpt>
      <trkpt lat="44.80484" lon="5.74073">
        <ele>741</ele>
        <time>2017-11-23T07:14:20Z</time>
      </trkpt>
      <trkpt lat="44.80481" lon="5.74083">
        <ele>741</ele>
        <time>2017-11-23T07:14:26Z</time>
      </trkpt>
      <trkpt lat="44.80481" lon="5.74093">
        <ele>737</ele>
        <time>2017-11-23T07:14:46Z</time>
      </trkpt>
      <trkpt lat="44.80484" lon="5.741">
        <ele>737</ele>
        <time>2017-11-23T07:15:03Z</time>
      </trkpt>
      <trkpt lat="44.80494" lon="5.74107">
        <ele>737</ele>
        <time>2017-11-23T07:15:19Z</time>
      </trkpt>
      <trkpt lat="44.80537" lon="5.74115">
        <ele>734</ele>
        <time>2017-11-23T07:15:32Z</time>
      </trkpt>
      <trkpt lat="44.80588" lon="5.74125">
        <ele>739</ele>
        <time>2017-11-23T07:15:36Z</time>
      </trkpt>
      <trkpt lat="44.806" lon="5.74125">
        <ele>739</ele>
        <time>2017-11-23T07:15:52Z</time>
      </trkpt>
      <trkpt lat="44.80605" lon="5.74124">
        <ele>740</ele>
        <time>2017-11-23T07:16:12Z</time>
      </trkpt>
      <trkpt lat="44.80609" lon="5.74119">
        <ele>740</ele>
        <time>2017-11-23T07:16:29Z</time>
      </trkpt>
      <trkpt lat="44.80615" lon="5.74104">
        <ele>739</ele>
        <time>2017-11-23T07:16:42Z</time>
      </trkpt>
      <trkpt lat="44.80623" lon="5.74086">
        <ele>739</ele>
        <time>2017-11-23T07:16:53Z</time>
      </trkpt>
      <trkpt lat="44.80636" lon="5.74071">
        <ele>734</ele>
        <time>2017-11-23T07:16:55Z</time>
      </trkpt>
      <trkpt lat="44.8066" lon="5.74057">
        <ele>735</ele>
        <time>2017-11-23T07:17:06Z</time>
      </trkpt>
      <trkpt lat="44.80744" lon="5.74">
        <ele>736</ele>
        <time>2017-11-23T07:17:12Z</time>
      </trkpt>
      <trkpt lat="44.80766" lon="5.73986">
        <ele>733</ele>
        <time>2017-11-23T07:17:18Z</time>
      </trkpt>
      <trkpt lat="44.80772" lon="5.73985">
        <ele>733</ele>
        <time>2017-11-23T07:17:27Z</time>
      </trkpt>
      <trkpt lat="44.80805" lon="5.73986">
        <ele>735</ele>
        <time>2017-11-23T07:17:37Z</time>
      </trkpt>
      <trkpt lat="44.80872" lon="5.73998">
        <ele>741</ele>
        <time>2017-11-23T07:17:48Z</time>
      </trkpt>
      <trkpt lat="44.80919" lon="5.74003">
        <ele>747</ele>
        <time>2017-11-23T07:18:02Z</time>
      </trkpt>
      <trkpt lat="44.80943" lon="5.73998">
        <ele>748</ele>
        <time>2017-11-23T07:18:18Z</time>
      </trkpt>
      <trkpt lat="44.80955" lon="5.73982">
        <ele>749</ele>
        <time>2017-11-23T07:18:30Z</time>
      </trkpt>
      <trkpt lat="44.80959" lon="5.73959">
        <ele>748</ele>
        <time>2017-11-23T07:18:35Z</time>
      </trkpt>
      <trkpt lat="44.80964" lon="5.73903">
        <ele>745</ele>
        <time>2017-11-23T07:18:49Z</time>
      </trkpt>
      <trkpt lat="44.80967" lon="5.73891">
        <ele>745</ele>
        <time>2017-11-23T07:19:08Z</time>
      </trkpt>
      <trkpt lat="44.80974" lon="5.73885">
        <ele>746</ele>
        <time>2017-11-23T07:19:21Z</time>
      </trkpt>
      <trkpt lat="44.80985" lon="5.73886">
        <ele>747</ele>
        <time>2017-11-23T07:19:26Z</time>
      </trkpt>
      <trkpt lat="44.80996" lon="5.73899">
        <ele>749</ele>
        <time>2017-11-23T07:19:30Z</time>
      </trkpt>
      <trkpt lat="44.81001" lon="5.73952">
        <ele>756</ele>
        <time>2017-11-23T07:19:45Z</time>
      </trkpt>
      <trkpt lat="44.81002" lon="5.74026">
        <ele>759</ele>
        <time>2017-11-23T07:19:51Z</time>
      </trkpt>
      <trkpt lat="44.80992" lon="5.74059">
        <ele>758</ele>
        <time>2017-11-23T07:20:06Z</time>
      </trkpt>
      <trkpt lat="44.8099" lon="5.74076">
        <ele>760</ele>
        <time>2017-11-23T07:20:09Z</time>
      </trkpt>
      <trkpt lat="44.80991" lon="5.74088">
        <ele>763</ele>
        <time>2017-11-23T07:20:18Z</time>
      </trkpt>
      <trkpt lat="44.80994" lon="5.74095">
        <ele>763</ele>
        <time>2017-11-23T07:20:35Z</time>
      </trkpt>
      <trkpt lat="44.81003" lon="5.74104">
        <ele>763</ele>
        <time>2017-11-23T07:20:54Z</time>
      </trkpt>
      <trkpt lat="44.81017" lon="5.74108">
        <ele>763</ele>
        <time>2017-11-23T07:20:58Z</time>
      </trkpt>
      <trkpt lat="44.81047" lon="5.74117">
        <ele>763</ele>
        <time>2017-11-23T07:21:17Z</time>
      </trkpt>
      <trkpt lat="44.8106" lon="5.74122">
        <ele>763</ele>
        <time>2017-11-23T07:21:36Z</time>
      </trkpt>
      <trkpt lat="44.81096" lon="5.7414">
        <ele>759</ele>
        <time>2017-11-23T07:21:42Z</time>
      </trkpt>
      <trkpt lat="44.81102" lon="5.74143">
        <ele>759</ele>
        <time>2017-11-23T07:21:48Z</time>
      </trkpt>
      <trkpt lat="44.81114" lon="5.7416">
        <ele>759</ele>
        <time>2017-11-23T07:22:01Z</time>
      </trkpt>
      <trkpt lat="44.81122" lon="5.7418">
        <ele>758</ele>
        <time>2017-11-23T07:22:08Z</time>
      </trkpt>
      <trkpt lat="44.81131" lon="5.74218">
        <ele>758</ele>
        <time>2017-11-23T07:22:25Z</time>
      </trkpt>
      <trkpt lat="44.81139" lon="5.74251">
        <ele>757</ele>
        <time>2017-11-23T07:22:42Z</time>
      </trkpt>
      <trkpt lat="44.81144" lon="5.74262">
        <ele>757</ele>
        <time>2017-11-23T07:22:56Z</time>
      </trkpt>
      <trkpt lat="44.81149" lon="5.74267">
        <ele>757</ele>
        <time>2017-11-23T07:23:04Z</time>
      </trkpt>
      <trkpt lat="44.81156" lon="5.74269">
        <ele>757</ele>
        <time>2017-11-23T07:23:10Z</time>
      </trkpt>
      <trkpt lat="44.8116" lon="5.74268">
        <ele>757</ele>
        <time>2017-11-23T07:23:24Z</time>
      </trkpt>
      <trkpt lat="44.81163" lon="5.74264">
        <ele>756</ele>
        <time>2017-11-23T07:23:41Z</time>
      </trkpt>
      <trkpt lat="44.8117" lon="5.74249">
        <ele>754</ele>
        <time>2017-11-23T07:23:53Z</time>
      </trkpt>
      <trkpt lat="44.81183" lon="5.74187">
        <ele>752</ele>
        <time>2017-11-23T07:24:06Z</time>
      </trkpt>
      <trkpt lat="44.81189" lon="5.74166">
        <ele>751</ele>
        <time>2017-11-23T07:24:16Z</time>
      </trkpt>
      <trkpt lat="44.81195" lon="5.74152">
        <ele>750</ele>
        <time>2017-11-23T07:24:34Z</time>
      </trkpt>
      <trkpt lat="44.81205" lon="5.74142">
        <ele>750</ele>
        <time>2017-11-23T07:24:40Z</time>
      </trkpt>
      <trkpt lat="44.81215" lon="5.74136">
        <ele>749</ele>
        <time>2017-11-23T07:24:55Z</time>
      </trkpt>
      <trkpt lat="44.81229" lon="5.74135">
        <ele>748</ele>
        <time>2017-11-23T07:25:12Z</time>
      </trkpt>
      <trkpt lat="44.81244" lon="5.74143">
        <ele>748</ele>
        <time>2017-11-23T07:25:29Z</time>
      </trkpt>
      <trkpt lat="44.81254" lon="5.74156">
        <ele>745</ele>
        <time>2017-11-23T07:25:36Z</time>
      </trkpt>
      <trkpt lat="44.81265" lon="5.74179">
        <ele>746</ele>
        <time>2017-11-23T07:25:55Z</time>
      </trkpt>
      <trkpt lat="44.81272" lon="5.74203">
        <ele>746</ele>
        <time>2017-11-23T07:26:06Z</time>
      </trkpt>
      <trkpt lat="44.81279" lon="5.74227">
        <ele>746</ele>
        <time>2017-11-23T07:26:14Z</time>
      </trkpt>
      <trkpt lat="44.81284" lon="5.74242">
        <ele>746</ele>
        <time>2017-11-23T07:26:34Z</time>
      </trkpt>
      <trkpt lat="44.81288" lon="5.74245">
        <ele>746</ele>
        <time>2017-11-23T07:26:43Z</time>
      </trkpt>
      <trkpt lat="44.81297" lon="5.74244">
        <ele>746</ele>
        <time>2017-11-23T07:27:03Z</time>
      </trkpt>
      <trkpt lat="44.81302" lon="5.74254">
        <ele>748</ele>
        <time>2017-11-23T07:27:15Z</time>
      </trkpt>
      <trkpt lat="44.81308" lon="5.74262">
        <ele>748</ele>
        <time>2017-11-23T07:27:23Z</time>
      </trkpt>
      <trkpt lat="44.81329" lon="5.74283">
        <ele>748</ele>
        <time>2017-11-23T07:27:31Z</time>
      </trkpt>
      <trkpt lat="44.81363" lon="5.74307">
        <ele>749</ele>
        <time>2017-11-23T07:27:37Z</time>
      </trkpt>
      <trkpt lat="44.81493" lon="5.74387">
        <ele>754</ele>
        <time>2017-11-23T07:27:57Z</time>
      </trkpt>
      <trkpt lat="44.81592" lon="5.74443">
        <ele>757</ele>
        <time>2017-11-23T07:28:07Z</time>
      </trkpt>
      <trkpt lat="44.81617" lon="5.74461">
        <ele>758</ele>
        <time>2017-11-23T07:28:13Z</time>
      </trkpt>
      <trkpt lat="44.81628" lon="5.74475">
        <ele>758</ele>
        <time>2017-11-23T07:28:28Z</time>
      </trkpt>
      <trkpt lat="44.81635" lon="5.74488">
        <ele>758</ele>
        <time>2017-11-23T07:28:33Z</time>
      </trkpt>
      <trkpt lat="44.81641" lon="5.74498">
        <ele>758</ele>
        <time>2017-11-23T07:28:46Z</time>
      </trkpt>
      <trkpt lat="44.81642" lon="5.74529">
        <ele>762</ele>
        <time>2017-11-23T07:29:05Z</time>
      </trkpt>
      <trkpt lat="44.81648" lon="5.746">
        <ele>764</ele>
        <time>2017-11-23T07:29:13Z</time>
      </trkpt>
      <trkpt lat="44.8164" lon="5.746">
        <ele>764</ele>
        <time>2017-11-23T07:29:20Z</time>
      </trkpt>
      <trkpt lat="44.81648" lon="5.746">
        <ele>764</ele>
        <time>2017-11-23T07:29:25Z</time>
      </trkpt>
      <trkpt lat="44.81651" lon="5.74633">
        <ele>765</ele>
        <time>2017-11-23T07:29:35Z</time>
      </trkpt>
      <trkpt lat="44.81654" lon="5.74671">
        <ele>765</ele>
        <time>2017-11-23T07:29:50Z</time>
      </trkpt>
      <trkpt lat="44.81664" lon="5.74769">
        <ele>769</ele>
        <time>2017-11-23T07:30:00Z</time>
      </trkpt>
      <trkpt lat="44.81668" lon="5.7481">
        <ele>767</ele>
        <time>2017-11-23T07:30:14Z</time>
      </trkpt>
      <trkpt lat="44.81673" lon="5.74889">
        <ele>771</ele>
        <time>2017-11-23T07:30:27Z</time>
      </trkpt>
      <trkpt lat="44.81681" lon="5.74981">
        <ele>775</ele>
        <time>2017-11-23T07:30:36Z</time>
      </trkpt>
      <trkpt lat="44.81686" lon="5.7503">
        <ele>777</ele>
        <time>2017-11-23T07:30:47Z</time>
      </trkpt>
      <trkpt lat="44.81691" lon="5.75051">
        <ele>778</ele>
        <time>2017-11-23T07:30:51Z</time>
      </trkpt>
      <trkpt lat="44.81672" lon="5.75058">
        <ele>778</ele>
        <time>2017-11-23T07:31:02Z</time>
      </trkpt>
    </trkseg>
  </trk>
</gpx>